﻿<?xml version="1.0" encoding="utf-8"?><gpx creator="Garmin Desktop App" version="1.1" xsi:schemaLocation="http://www.topografix.com/GPX/1/1 http://www.topografix.com/GPX/1/1/gpx.xsd http://www.garmin.com/xmlschemas/WaypointExtension/v1 http://www8.garmin.com/xmlschemas/WaypointExtensionv1.xsd http://www.garmin.com/xmlschemas/TrackPointExtension/v1 http://www.garmin.com/xmlschemas/TrackPointExtensionv1.xsd http://www.garmin.com/xmlschemas/GpxExtensions/v3 http://www8.garmin.com/xmlschemas/GpxExtensionsv3.xsd http://www.garmin.com/xmlschemas/ActivityExtension/v1 http://www8.garmin.com/xmlschemas/ActivityExtensionv1.xsd http://www.garmin.com/xmlschemas/AdventuresExtensions/v1 http://www8.garmin.com/xmlschemas/AdventuresExtensionv1.xsd http://www.garmin.com/xmlschemas/PressureExtension/v1 http://www.garmin.com/xmlschemas/PressureExtensionv1.xsd http://www.garmin.com/xmlschemas/TripExtensions/v1 http://www.garmin.com/xmlschemas/TripExtensionsv1.xsd http://www.garmin.com/xmlschemas/TripMetaDataExtensions/v1 http://www.garmin.com/xmlschemas/TripMetaDataExtensionsv1.xsd http://www.garmin.com/xmlschemas/ViaPointTransportationModeExtensions/v1 http://www.garmin.com/xmlschemas/ViaPointTransportationModeExtensionsv1.xsd http://www.garmin.com/xmlschemas/CreationTimeExtension/v1 http://www.garmin.com/xmlschemas/CreationTimeExtensionsv1.xsd http://www.garmin.com/xmlschemas/AccelerationExtension/v1 http://www.garmin.com/xmlschemas/AccelerationExtensionv1.xsd http://www.garmin.com/xmlschemas/PowerExtension/v1 http://www.garmin.com/xmlschemas/PowerExtensionv1.xsd http://www.garmin.com/xmlschemas/VideoExtension/v1 http://www.garmin.com/xmlschemas/VideoExtensionv1.xsd" xmlns="http://www.topografix.com/GPX/1/1" xmlns:xsi="http://www.w3.org/2001/XMLSchema-instance" xmlns:wptx1="http://www.garmin.com/xmlschemas/WaypointExtension/v1" xmlns:gpxtrx="http://www.garmin.com/xmlschemas/GpxExtensions/v3" xmlns:gpxtpx="http://www.garmin.com/xmlschemas/TrackPointExtension/v1" xmlns:gpxx="http://www.garmin.com/xmlschemas/GpxExtensions/v3" xmlns:trp="http://www.garmin.com/xmlschemas/TripExtensions/v1" xmlns:adv="http://www.garmin.com/xmlschemas/AdventuresExtensions/v1" xmlns:prs="http://www.garmin.com/xmlschemas/PressureExtension/v1" xmlns:tmd="http://www.garmin.com/xmlschemas/TripMetaDataExtensions/v1" xmlns:vptm="http://www.garmin.com/xmlschemas/ViaPointTransportationModeExtensions/v1" xmlns:ctx="http://www.garmin.com/xmlschemas/CreationTimeExtension/v1" xmlns:gpxacc="http://www.garmin.com/xmlschemas/AccelerationExtension/v1" xmlns:gpxpx="http://www.garmin.com/xmlschemas/PowerExtension/v1" xmlns:vidx1="http://www.garmin.com/xmlschemas/VideoExtension/v1">

  <metadata>
    <link href="http://www.garmin.com">
      <text>Garmin International</text>
    </link>
    <time>2022-07-04T05:02:30Z</time>
    <bounds maxlat="45.885354615747929" maxlon="7.851335993036628" minlat="45.856069084256887" minlon="7.809220952913165" />
  </metadata>

  <trk>
    <name>alta-luce2022-07-03</name>
    <extensions>
      <gpxx:TrackExtension>
        <gpxx:DisplayColor>Yellow</gpxx:DisplayColor>
      </gpxx:TrackExtension>
      <gpxtrkx:TrackStatsExtension xmlns:gpxtrkx="http://www.garmin.com/xmlschemas/TrackStatsExtension/v1">
        <gpxtrkx:Distance>17687</gpxtrkx:Distance>
        <gpxtrkx:TotalElapsedTime>30423</gpxtrkx:TotalElapsedTime>
        <gpxtrkx:MovingTime>22076</gpxtrkx:MovingTime>
        <gpxtrkx:StoppedTime>8334</gpxtrkx:StoppedTime>
        <gpxtrkx:MovingSpeed>0.801</gpxtrkx:MovingSpeed>
        <gpxtrkx:MaxSpeed>3.187</gpxtrkx:MaxSpeed>
        <gpxtrkx:MaxElevation>3188.805</gpxtrkx:MaxElevation>
        <gpxtrkx:MinElevation>1825.848</gpxtrkx:MinElevation>
        <gpxtrkx:Ascent>1421</gpxtrkx:Ascent>
        <gpxtrkx:Descent>1422.036</gpxtrkx:Descent>
        <gpxtrkx:AvgAscentRate>0.08</gpxtrkx:AvgAscentRate>
        <gpxtrkx:MaxAscentRate>0.3</gpxtrkx:MaxAscentRate>
        <gpxtrkx:AvgDescentRate>0.119</gpxtrkx:AvgDescentRate>
        <gpxtrkx:MaxDescentRate>-0.494</gpxtrkx:MaxDescentRate>
      </gpxtrkx:TrackStatsExtension>
    </extensions>
    <trkseg>
      <trkpt lat="45.857599200680852" lon="7.812916450202465">
        <ele>1829.2</ele>
        <time>2022-07-03T06:27:20Z</time>
      </trkpt>
      <trkpt lat="45.857600877061486" lon="7.812916114926338">
        <ele>1829.2</ele>
        <time>2022-07-03T06:27:21Z</time>
      </trkpt>
      <trkpt lat="45.857610264793038" lon="7.812917288392782">
        <ele>1827.8199999999999</ele>
        <time>2022-07-03T06:27:25Z</time>
      </trkpt>
      <trkpt lat="45.857615461573005" lon="7.812906224280596">
        <ele>1827.78</ele>
        <time>2022-07-03T06:27:46Z</time>
      </trkpt>
      <trkpt lat="45.857624765485525" lon="7.812899183481932">
        <ele>1827.77</ele>
        <time>2022-07-03T06:28:13Z</time>
      </trkpt>
      <trkpt lat="45.857617892324924" lon="7.812902117148042">
        <ele>1827.5</ele>
        <time>2022-07-03T06:28:37Z</time>
      </trkpt>
      <trkpt lat="45.857594255357981" lon="7.812902117148042">
        <ele>1827.79</ele>
        <time>2022-07-03T06:29:00Z</time>
      </trkpt>
      <trkpt lat="45.857599452137947" lon="7.812892310321331">
        <ele>1827.9300000000001</ele>
        <time>2022-07-03T06:29:18Z</time>
      </trkpt>
      <trkpt lat="45.857605319470167" lon="7.812907565385103">
        <ele>1827.8800000000001</ele>
        <time>2022-07-03T06:29:35Z</time>
      </trkpt>
      <trkpt lat="45.85761378519237" lon="7.812902703881264">
        <ele>1827.9400000000001</ele>
        <time>2022-07-03T06:29:59Z</time>
      </trkpt>
      <trkpt lat="45.857616299763322" lon="7.812916869297624">
        <ele>1827.99</ele>
        <time>2022-07-03T06:30:19Z</time>
      </trkpt>
      <trkpt lat="45.857542790472507" lon="7.8129215631634">
        <ele>1828.1800000000001</ele>
        <time>2022-07-03T06:30:33Z</time>
      </trkpt>
      <trkpt lat="45.857601882889867" lon="7.812906308099628">
        <ele>1828.0799999999999</ele>
        <time>2022-07-03T06:30:44Z</time>
      </trkpt>
      <trkpt lat="45.857600793242455" lon="7.812909157946706">
        <ele>1828.45</ele>
        <time>2022-07-03T06:31:02Z</time>
      </trkpt>
      <trkpt lat="45.857601715251803" lon="7.812915360555053">
        <ele>1828.3299999999999</ele>
        <time>2022-07-03T06:31:22Z</time>
      </trkpt>
      <trkpt lat="45.857614036649466" lon="7.812916450202465">
        <ele>1828.4100000000001</ele>
        <time>2022-07-03T06:31:38Z</time>
      </trkpt>
      <trkpt lat="45.857670530676842" lon="7.812911588698626">
        <ele>1828.3199999999999</ele>
        <time>2022-07-03T06:31:43Z</time>
      </trkpt>
      <trkpt lat="45.857924753800035" lon="7.812902284786105">
        <ele>1828.5699999999999</ele>
        <time>2022-07-03T06:32:02Z</time>
      </trkpt>
      <trkpt lat="45.85812977515161" lon="7.812875714153051">
        <ele>1829.02</ele>
        <time>2022-07-03T06:32:17Z</time>
      </trkpt>
      <trkpt lat="45.858348794281483" lon="7.812862806022167">
        <ele>1830.3099999999999</ele>
        <time>2022-07-03T06:32:34Z</time>
      </trkpt>
      <trkpt lat="45.858514672145247" lon="7.812854843214154">
        <ele>1831.46</ele>
        <time>2022-07-03T06:32:48Z</time>
      </trkpt>
      <trkpt lat="45.858697397634387" lon="7.812811173498631">
        <ele>1832.9000000000001</ele>
        <time>2022-07-03T06:33:04Z</time>
      </trkpt>
      <trkpt lat="45.858890013769269" lon="7.812720816582441">
        <ele>1833.9000000000001</ele>
        <time>2022-07-03T06:33:21Z</time>
      </trkpt>
      <trkpt lat="45.859093442559242" lon="7.812634063884616">
        <ele>1834.79</ele>
        <time>2022-07-03T06:33:38Z</time>
      </trkpt>
      <trkpt lat="45.859299888834357" lon="7.812541024759412">
        <ele>1836</ele>
        <time>2022-07-03T06:33:56Z</time>
      </trkpt>
      <trkpt lat="45.859476495534182" lon="7.812486039474607">
        <ele>1837.5599999999999</ele>
        <time>2022-07-03T06:34:12Z</time>
      </trkpt>
      <trkpt lat="45.859630722552538" lon="7.812448488548398">
        <ele>1839.0799999999999</ele>
        <time>2022-07-03T06:34:25Z</time>
      </trkpt>
      <trkpt lat="45.859805485233665" lon="7.812453014776111">
        <ele>1841.1500000000001</ele>
        <time>2022-07-03T06:34:42Z</time>
      </trkpt>
      <trkpt lat="45.859990641474724" lon="7.81245787627995">
        <ele>1841.3099999999999</ele>
        <time>2022-07-03T06:34:58Z</time>
      </trkpt>
      <trkpt lat="45.860098768025637" lon="7.812438849359751">
        <ele>1842.1400000000001</ele>
        <time>2022-07-03T06:35:09Z</time>
      </trkpt>
      <trkpt lat="45.860246373340487" lon="7.812401968985796">
        <ele>1843.72</ele>
        <time>2022-07-03T06:35:23Z</time>
      </trkpt>
      <trkpt lat="45.860366402193904" lon="7.812388390302658">
        <ele>1845</ele>
        <time>2022-07-03T06:35:34Z</time>
      </trkpt>
      <trkpt lat="45.860528172925115" lon="7.812360059469938">
        <ele>1846.8599999999999</ele>
        <time>2022-07-03T06:35:50Z</time>
      </trkpt>
      <trkpt lat="45.86071215569973" lon="7.812381433323026">
        <ele>1848.8399999999999</ele>
        <time>2022-07-03T06:36:08Z</time>
      </trkpt>
      <trkpt lat="45.860865041613579" lon="7.812374895438552">
        <ele>1850.2</ele>
        <time>2022-07-03T06:36:23Z</time>
      </trkpt>
      <trkpt lat="45.860992865636945" lon="7.812364166602492">
        <ele>1851.21</ele>
        <time>2022-07-03T06:36:36Z</time>
      </trkpt>
      <trkpt lat="45.861186487600207" lon="7.812380259856582">
        <ele>1852.8299999999999</ele>
        <time>2022-07-03T06:36:55Z</time>
      </trkpt>
      <trkpt lat="45.861326800659299" lon="7.812476400285959">
        <ele>1854.51</ele>
        <time>2022-07-03T06:37:12Z</time>
      </trkpt>
      <trkpt lat="45.861329734325409" lon="7.812570361420512">
        <ele>1857.1900000000001</ele>
        <time>2022-07-03T06:37:23Z</time>
      </trkpt>
      <trkpt lat="45.861356053501368" lon="7.812585784122348">
        <ele>1858.1199999999999</ele>
        <time>2022-07-03T06:37:28Z</time>
      </trkpt>
      <trkpt lat="45.861413385719061" lon="7.812628615647554">
        <ele>1860.1900000000001</ele>
        <time>2022-07-03T06:37:40Z</time>
      </trkpt>
      <trkpt lat="45.861422521993518" lon="7.812646050006151">
        <ele>1860.8499999999999</ele>
        <time>2022-07-03T06:37:43Z</time>
      </trkpt>
      <trkpt lat="45.861446913331747" lon="7.812635656446219">
        <ele>1861.0799999999999</ele>
        <time>2022-07-03T06:37:46Z</time>
      </trkpt>
      <trkpt lat="45.861545568332076" lon="7.812638087198138">
        <ele>1860.52</ele>
        <time>2022-07-03T06:37:55Z</time>
      </trkpt>
      <trkpt lat="45.861633662134409" lon="7.812682259827852">
        <ele>1860.8800000000001</ele>
        <time>2022-07-03T06:38:05Z</time>
      </trkpt>
      <trkpt lat="45.861678924411535" lon="7.812665076926351">
        <ele>1862.4300000000001</ele>
        <time>2022-07-03T06:38:12Z</time>
      </trkpt>
      <trkpt lat="45.861756708472967" lon="7.81265233643353">
        <ele>1863.8299999999999</ele>
        <time>2022-07-03T06:38:21Z</time>
      </trkpt>
      <trkpt lat="45.861834241077304" lon="7.812661724165082">
        <ele>1864.9100000000001</ele>
        <time>2022-07-03T06:38:31Z</time>
      </trkpt>
      <trkpt lat="45.861877575516701" lon="7.812665412202478">
        <ele>1865.8499999999999</ele>
        <time>2022-07-03T06:38:38Z</time>
      </trkpt>
      <trkpt lat="45.861940020695329" lon="7.812683684751391">
        <ele>1867.2</ele>
        <time>2022-07-03T06:38:47Z</time>
      </trkpt>
      <trkpt lat="45.861955275759101" lon="7.812686869874597">
        <ele>1867.5899999999999</ele>
        <time>2022-07-03T06:38:49Z</time>
      </trkpt>
      <trkpt lat="45.862000035122037" lon="7.812708746641874">
        <ele>1869.0599999999999</ele>
        <time>2022-07-03T06:38:56Z</time>
      </trkpt>
      <trkpt lat="45.86204219609499" lon="7.81277010217309">
        <ele>1869.99</ele>
        <time>2022-07-03T06:39:05Z</time>
      </trkpt>
      <trkpt lat="45.862061139196157" lon="7.812783429399133">
        <ele>1870.3599999999999</ele>
        <time>2022-07-03T06:39:07Z</time>
      </trkpt>
      <trkpt lat="45.862168846651912" lon="7.812768006697297">
        <ele>1869.04</ele>
        <time>2022-07-03T06:39:16Z</time>
      </trkpt>
      <trkpt lat="45.86218535900116" lon="7.812748728320003">
        <ele>1868.98</ele>
        <time>2022-07-03T06:39:18Z</time>
      </trkpt>
      <trkpt lat="45.862227017059922" lon="7.812720565125346">
        <ele>1869.8099999999999</ele>
        <time>2022-07-03T06:39:23Z</time>
      </trkpt>
      <trkpt lat="45.862253755331039" lon="7.81269483268261">
        <ele>1869.6500000000001</ele>
        <time>2022-07-03T06:39:26Z</time>
      </trkpt>
      <trkpt lat="45.862283511087298" lon="7.812682343646884">
        <ele>1868.71</ele>
        <time>2022-07-03T06:39:29Z</time>
      </trkpt>
      <trkpt lat="45.862325001507998" lon="7.81267044134438">
        <ele>1868.4100000000001</ele>
        <time>2022-07-03T06:39:32Z</time>
      </trkpt>
      <trkpt lat="45.862374790012836" lon="7.812667423859239">
        <ele>1868.52</ele>
        <time>2022-07-03T06:39:36Z</time>
      </trkpt>
      <trkpt lat="45.862415274605155" lon="7.812660885974765">
        <ele>1868.8399999999999</ele>
        <time>2022-07-03T06:39:40Z</time>
      </trkpt>
      <trkpt lat="45.862442934885621" lon="7.812656611204147">
        <ele>1869.29</ele>
        <time>2022-07-03T06:39:43Z</time>
      </trkpt>
      <trkpt lat="45.862514432519674" lon="7.812615958973765">
        <ele>1870.25</ele>
        <time>2022-07-03T06:39:52Z</time>
      </trkpt>
      <trkpt lat="45.862515605986118" lon="7.812622161582112">
        <ele>1870.6500000000001</ele>
        <time>2022-07-03T06:39:59Z</time>
      </trkpt>
      <trkpt lat="45.862514348700643" lon="7.81262693926692">
        <ele>1870.6900000000001</ele>
        <time>2022-07-03T06:40:00Z</time>
      </trkpt>
      <trkpt lat="45.862512085586786" lon="7.812637919560075">
        <ele>1870.52</ele>
        <time>2022-07-03T06:40:08Z</time>
      </trkpt>
      <trkpt lat="45.862522898241878" lon="7.81262886710465">
        <ele>1870.5899999999999</ele>
        <time>2022-07-03T06:40:10Z</time>
      </trkpt>
      <trkpt lat="45.862538740038872" lon="7.812632555142045">
        <ele>1870.6800000000001</ele>
        <time>2022-07-03T06:40:18Z</time>
      </trkpt>
      <trkpt lat="45.862571932375431" lon="7.81262886710465">
        <ele>1871.25</ele>
        <time>2022-07-03T06:40:29Z</time>
      </trkpt>
      <trkpt lat="45.862582325935364" lon="7.81262693926692">
        <ele>1871.29</ele>
        <time>2022-07-03T06:40:30Z</time>
      </trkpt>
      <trkpt lat="45.862646112218499" lon="7.81261227093637">
        <ele>1871.8599999999999</ele>
        <time>2022-07-03T06:40:37Z</time>
      </trkpt>
      <trkpt lat="45.862687770277262" lon="7.812592573463917">
        <ele>1872.3499999999999</ele>
        <time>2022-07-03T06:40:42Z</time>
      </trkpt>
      <trkpt lat="45.862737810239196" lon="7.812541946768761">
        <ele>1873.4400000000001</ele>
        <time>2022-07-03T06:40:51Z</time>
      </trkpt>
      <trkpt lat="45.862774606794119" lon="7.812517387792468">
        <ele>1874.3599999999999</ele>
        <time>2022-07-03T06:40:56Z</time>
      </trkpt>
      <trkpt lat="45.862862868234515" lon="7.812500121071935">
        <ele>1874.96</ele>
        <time>2022-07-03T06:41:04Z</time>
      </trkpt>
      <trkpt lat="45.862885918468237" lon="7.812491822987795">
        <ele>1875.1099999999999</ele>
        <time>2022-07-03T06:41:06Z</time>
      </trkpt>
      <trkpt lat="45.862898994237185" lon="7.81247983686626">
        <ele>1874.9100000000001</ele>
        <time>2022-07-03T06:41:08Z</time>
      </trkpt>
      <trkpt lat="45.862913997843862" lon="7.812474891543388">
        <ele>1874.9400000000001</ele>
        <time>2022-07-03T06:41:09Z</time>
      </trkpt>
      <trkpt lat="45.862927660346031" lon="7.812469862401485">
        <ele>1874.8599999999999</ele>
        <time>2022-07-03T06:41:10Z</time>
      </trkpt>
      <trkpt lat="45.862937467172742" lon="7.812463575974107">
        <ele>1874.76</ele>
        <time>2022-07-03T06:41:11Z</time>
      </trkpt>
      <trkpt lat="45.862947609275579" lon="7.812457205727696">
        <ele>1874.76</ele>
        <time>2022-07-03T06:41:12Z</time>
      </trkpt>
      <trkpt lat="45.862981807440519" lon="7.812444716691971">
        <ele>1874.8800000000001</ele>
        <time>2022-07-03T06:41:16Z</time>
      </trkpt>
      <trkpt lat="45.863012317568064" lon="7.812430048361421">
        <ele>1875.0799999999999</ele>
        <time>2022-07-03T06:41:19Z</time>
      </trkpt>
      <trkpt lat="45.863040816038847" lon="7.81242803670466">
        <ele>1875.29</ele>
        <time>2022-07-03T06:41:22Z</time>
      </trkpt>
      <trkpt lat="45.863110804930329" lon="7.812412781640887">
        <ele>1876.52</ele>
        <time>2022-07-03T06:41:30Z</time>
      </trkpt>
      <trkpt lat="45.863161012530327" lon="7.812394928187132">
        <ele>1877.28</ele>
        <time>2022-07-03T06:41:36Z</time>
      </trkpt>
      <trkpt lat="45.863185236230493" lon="7.812377661466599">
        <ele>1877.5799999999999</ele>
        <time>2022-07-03T06:41:39Z</time>
      </trkpt>
      <trkpt lat="45.863190433010459" lon="7.812365423887968">
        <ele>1877.6600000000001</ele>
        <time>2022-07-03T06:41:40Z</time>
      </trkpt>
      <trkpt lat="45.863204346969724" lon="7.81235184520483">
        <ele>1878.0699999999999</ele>
        <time>2022-07-03T06:41:42Z</time>
      </trkpt>
      <trkpt lat="45.863255895674229" lon="7.812326867133379">
        <ele>1879.1600000000001</ele>
        <time>2022-07-03T06:41:48Z</time>
      </trkpt>
      <trkpt lat="45.863320520147681" lon="7.812285209074616">
        <ele>1879.8800000000001</ele>
        <time>2022-07-03T06:41:56Z</time>
      </trkpt>
      <trkpt lat="45.863379528746009" lon="7.812261991202831">
        <ele>1880.8199999999999</ele>
        <time>2022-07-03T06:42:04Z</time>
      </trkpt>
      <trkpt lat="45.86341867223382" lon="7.81227950938046">
        <ele>1881.4000000000001</ele>
        <time>2022-07-03T06:42:10Z</time>
      </trkpt>
      <trkpt lat="45.863434011116624" lon="7.81225168146193">
        <ele>1881.45</ele>
        <time>2022-07-03T06:42:19Z</time>
      </trkpt>
      <trkpt lat="45.863443231210113" lon="7.812242629006505">
        <ele>1881.29</ele>
        <time>2022-07-03T06:42:20Z</time>
      </trkpt>
      <trkpt lat="45.863453121855855" lon="7.812232905998826">
        <ele>1881.29</ele>
        <time>2022-07-03T06:42:21Z</time>
      </trkpt>
      <trkpt lat="45.863463012501597" lon="7.81222284771502">
        <ele>1881.22</ele>
        <time>2022-07-03T06:42:22Z</time>
      </trkpt>
      <trkpt lat="45.86347240023315" lon="7.812213208526373">
        <ele>1881.1099999999999</ele>
        <time>2022-07-03T06:42:23Z</time>
      </trkpt>
      <trkpt lat="45.863490169867873" lon="7.812187978997827">
        <ele>1881.1600000000001</ele>
        <time>2022-07-03T06:42:26Z</time>
      </trkpt>
      <trkpt lat="45.863503916189075" lon="7.81217934563756">
        <ele>1881.1600000000001</ele>
        <time>2022-07-03T06:42:27Z</time>
      </trkpt>
      <trkpt lat="45.863531911745667" lon="7.812155624851584">
        <ele>1881.04</ele>
        <time>2022-07-03T06:42:30Z</time>
      </trkpt>
      <trkpt lat="45.863559236750007" lon="7.812124695628882">
        <ele>1880.8199999999999</ele>
        <time>2022-07-03T06:42:34Z</time>
      </trkpt>
      <trkpt lat="45.863587986677885" lon="7.812120588496327">
        <ele>1880.95</ele>
        <time>2022-07-03T06:42:37Z</time>
      </trkpt>
      <trkpt lat="45.863598547875881" lon="7.812121342867613">
        <ele>1881.1700000000001</ele>
        <time>2022-07-03T06:42:38Z</time>
      </trkpt>
      <trkpt lat="45.863605085760355" lon="7.812120085582137">
        <ele>1881.1500000000001</ele>
        <time>2022-07-03T06:42:39Z</time>
      </trkpt>
      <trkpt lat="45.863620424643159" lon="7.812122348695993">
        <ele>1881.1300000000001</ele>
        <time>2022-07-03T06:42:40Z</time>
      </trkpt>
      <trkpt lat="45.86366887204349" lon="7.812080020084977">
        <ele>1881.9100000000001</ele>
        <time>2022-07-03T06:42:46Z</time>
      </trkpt>
      <trkpt lat="45.863730143755674" lon="7.812066860496998">
        <ele>1883.3</ele>
        <time>2022-07-03T06:42:53Z</time>
      </trkpt>
      <trkpt lat="45.863769371062517" lon="7.812091503292322">
        <ele>1884.3399999999999</ele>
        <time>2022-07-03T06:42:58Z</time>
      </trkpt>
      <trkpt lat="45.863784039393067" lon="7.812097705900669">
        <ele>1884.6700000000001</ele>
        <time>2022-07-03T06:42:59Z</time>
      </trkpt>
      <trkpt lat="45.863872803747654" lon="7.812102232128382">
        <ele>1885.6500000000001</ele>
        <time>2022-07-03T06:43:08Z</time>
      </trkpt>
      <trkpt lat="45.863940864801407" lon="7.812077337875962">
        <ele>1886.4300000000001</ele>
        <time>2022-07-03T06:43:18Z</time>
      </trkpt>
      <trkpt lat="45.863980930298567" lon="7.812018916010857">
        <ele>1887.4000000000001</ele>
        <time>2022-07-03T06:43:25Z</time>
      </trkpt>
      <trkpt lat="45.864012781530619" lon="7.811988824978471">
        <ele>1887.51</ele>
        <time>2022-07-03T06:43:29Z</time>
      </trkpt>
      <trkpt lat="45.864022504538298" lon="7.811966361477971">
        <ele>1887.6800000000001</ele>
        <time>2022-07-03T06:43:31Z</time>
      </trkpt>
      <trkpt lat="45.864048069342971" lon="7.811950268223882">
        <ele>1887.8900000000001</ele>
        <time>2022-07-03T06:43:38Z</time>
      </trkpt>
      <trkpt lat="45.864091655239463" lon="7.811933504417539">
        <ele>1888.6800000000001</ele>
        <time>2022-07-03T06:43:48Z</time>
      </trkpt>
      <trkpt lat="45.864101545885205" lon="7.811936102807522">
        <ele>1888.77</ele>
        <time>2022-07-03T06:43:49Z</time>
      </trkpt>
      <trkpt lat="45.864127781242132" lon="7.811934929341078">
        <ele>1889.25</ele>
        <time>2022-07-03T06:43:52Z</time>
      </trkpt>
      <trkpt lat="45.864171786233783" lon="7.811919841915369">
        <ele>1889.6800000000001</ele>
        <time>2022-07-03T06:43:57Z</time>
      </trkpt>
      <trkpt lat="45.864241104573011" lon="7.811946244910359">
        <ele>1891.23</ele>
        <time>2022-07-03T06:44:08Z</time>
      </trkpt>
      <trkpt lat="45.864292737096548" lon="7.812028890475631">
        <ele>1894.4100000000001</ele>
        <time>2022-07-03T06:44:21Z</time>
      </trkpt>
      <trkpt lat="45.864368593320251" lon="7.812020089477301">
        <ele>1896.97</ele>
        <time>2022-07-03T06:44:33Z</time>
      </trkpt>
      <trkpt lat="45.864378316327929" lon="7.812012629583478">
        <ele>1897.1199999999999</ele>
        <time>2022-07-03T06:44:34Z</time>
      </trkpt>
      <trkpt lat="45.864428859204054" lon="7.811970300972462">
        <ele>1897.1900000000001</ele>
        <time>2022-07-03T06:44:40Z</time>
      </trkpt>
      <trkpt lat="45.864438330754638" lon="7.811965439468622">
        <ele>1897.3199999999999</ele>
        <time>2022-07-03T06:44:41Z</time>
      </trkpt>
      <trkpt lat="45.864522904157639" lon="7.811902072280645">
        <ele>1897.96</ele>
        <time>2022-07-03T06:44:52Z</time>
      </trkpt>
      <trkpt lat="45.864599514752626" lon="7.811946412548423">
        <ele>1899.1800000000001</ele>
        <time>2022-07-03T06:45:03Z</time>
      </trkpt>
      <trkpt lat="45.864659110084176" lon="7.811930989846587">
        <ele>1900.45</ele>
        <time>2022-07-03T06:45:12Z</time>
      </trkpt>
      <trkpt lat="45.86470621638" lon="7.811908945441246">
        <ele>1901.6500000000001</ele>
        <time>2022-07-03T06:45:19Z</time>
      </trkpt>
      <trkpt lat="45.864796238020062" lon="7.811884135007858">
        <ele>1903.23</ele>
        <time>2022-07-03T06:45:31Z</time>
      </trkpt>
      <trkpt lat="45.864866226911545" lon="7.811872819438577">
        <ele>1905.28</ele>
        <time>2022-07-03T06:45:43Z</time>
      </trkpt>
      <trkpt lat="45.864888355135918" lon="7.811830742284656">
        <ele>1905.55</ele>
        <time>2022-07-03T06:45:48Z</time>
      </trkpt>
      <trkpt lat="45.864903526380658" lon="7.811790341511369">
        <ele>1905.6800000000001</ele>
        <time>2022-07-03T06:45:51Z</time>
      </trkpt>
      <trkpt lat="45.8649099804461" lon="7.811777433380485">
        <ele>1905.8399999999999</ele>
        <time>2022-07-03T06:45:52Z</time>
      </trkpt>
      <trkpt lat="45.864917607977986" lon="7.811766872182488">
        <ele>1905.78</ele>
        <time>2022-07-03T06:45:53Z</time>
      </trkpt>
      <trkpt lat="45.865014418959618" lon="7.811662014573813">
        <ele>1905.9100000000001</ele>
        <time>2022-07-03T06:46:07Z</time>
      </trkpt>
      <trkpt lat="45.86506387218833" lon="7.811612309888005">
        <ele>1907.3499999999999</ele>
        <time>2022-07-03T06:46:16Z</time>
      </trkpt>
      <trkpt lat="45.865072002634406" lon="7.81160082668066">
        <ele>1907.1700000000001</ele>
        <time>2022-07-03T06:46:17Z</time>
      </trkpt>
      <trkpt lat="45.865134950727224" lon="7.811524216085672">
        <ele>1908.0699999999999</ele>
        <time>2022-07-03T06:46:29Z</time>
      </trkpt>
      <trkpt lat="45.865148529410362" lon="7.811520947143436">
        <ele>1908.1700000000001</ele>
        <time>2022-07-03T06:46:30Z</time>
      </trkpt>
      <trkpt lat="45.865166550502181" lon="7.811496304348111">
        <ele>1908.49</ele>
        <time>2022-07-03T06:46:32Z</time>
      </trkpt>
      <trkpt lat="45.865203430876136" lon="7.811446432024241">
        <ele>1908.6600000000001</ele>
        <time>2022-07-03T06:46:37Z</time>
      </trkpt>
      <trkpt lat="45.86523687466979" lon="7.811412485316396">
        <ele>1908.8299999999999</ele>
        <time>2022-07-03T06:46:41Z</time>
      </trkpt>
      <trkpt lat="45.865250118076801" lon="7.811396894976497">
        <ele>1909.03</ele>
        <time>2022-07-03T06:46:43Z</time>
      </trkpt>
      <trkpt lat="45.865250788629055" lon="7.81139018945396">
        <ele>1909.1099999999999</ele>
        <time>2022-07-03T06:46:47Z</time>
      </trkpt>
      <trkpt lat="45.865251123905182" lon="7.811386836692691">
        <ele>1908.8299999999999</ele>
        <time>2022-07-03T06:46:53Z</time>
      </trkpt>
      <trkpt lat="45.865257577970624" lon="7.811392201110721">
        <ele>1908.9100000000001</ele>
        <time>2022-07-03T06:47:00Z</time>
      </trkpt>
      <trkpt lat="45.865292865782976" lon="7.811373006552458">
        <ele>1909.49</ele>
        <time>2022-07-03T06:47:04Z</time>
      </trkpt>
      <trkpt lat="45.865307198837399" lon="7.811349788680673">
        <ele>1909.6500000000001</ele>
        <time>2022-07-03T06:47:06Z</time>
      </trkpt>
      <trkpt lat="45.865312647074461" lon="7.811335204169154">
        <ele>1909.73</ele>
        <time>2022-07-03T06:47:07Z</time>
      </trkpt>
      <trkpt lat="45.865333685651422" lon="7.811330342665315">
        <ele>1910.0699999999999</ele>
        <time>2022-07-03T06:47:09Z</time>
      </trkpt>
      <trkpt lat="45.865364363417029" lon="7.811313746497035">
        <ele>1910.9000000000001</ele>
        <time>2022-07-03T06:47:13Z</time>
      </trkpt>
      <trkpt lat="45.865395376458764" lon="7.811289941892028">
        <ele>1912.0899999999999</ele>
        <time>2022-07-03T06:47:19Z</time>
      </trkpt>
      <trkpt lat="45.865407027304173" lon="7.81128516420722">
        <ele>1912.3</ele>
        <time>2022-07-03T06:47:20Z</time>
      </trkpt>
      <trkpt lat="45.865435525774956" lon="7.811253732070327">
        <ele>1913.3900000000001</ele>
        <time>2022-07-03T06:47:26Z</time>
      </trkpt>
      <trkpt lat="45.865508699789643" lon="7.811195394024253">
        <ele>1914.8399999999999</ele>
        <time>2022-07-03T06:47:36Z</time>
      </trkpt>
      <trkpt lat="45.865574162453413" lon="7.811169410124421">
        <ele>1916.3699999999999</ele>
        <time>2022-07-03T06:47:46Z</time>
      </trkpt>
      <trkpt lat="45.865641552954912" lon="7.81113269738853">
        <ele>1917.6199999999999</ele>
        <time>2022-07-03T06:47:54Z</time>
      </trkpt>
      <trkpt lat="45.865670219063759" lon="7.811093889176846">
        <ele>1918.4300000000001</ele>
        <time>2022-07-03T06:47:59Z</time>
      </trkpt>
      <trkpt lat="45.865717241540551" lon="7.811068994924426">
        <ele>1919.4100000000001</ele>
        <time>2022-07-03T06:48:06Z</time>
      </trkpt>
      <trkpt lat="45.865724282339215" lon="7.811062373220921">
        <ele>1919.9300000000001</ele>
        <time>2022-07-03T06:48:08Z</time>
      </trkpt>
      <trkpt lat="45.865750685334206" lon="7.811031527817249">
        <ele>1920.23</ele>
        <time>2022-07-03T06:48:12Z</time>
      </trkpt>
      <trkpt lat="45.86577876470983" lon="7.811000179499388">
        <ele>1921.73</ele>
        <time>2022-07-03T06:48:20Z</time>
      </trkpt>
      <trkpt lat="45.865792846307158" lon="7.810983583331108">
        <ele>1922.6600000000001</ele>
        <time>2022-07-03T06:48:25Z</time>
      </trkpt>
      <trkpt lat="45.865825116634369" lon="7.810961036011577">
        <ele>1923.77</ele>
        <time>2022-07-03T06:48:31Z</time>
      </trkpt>
      <trkpt lat="45.865845652297139" lon="7.810948211699724">
        <ele>1924.25</ele>
        <time>2022-07-03T06:48:37Z</time>
      </trkpt>
      <trkpt lat="45.865885047242045" lon="7.810919042676687">
        <ele>1925.1199999999999</ele>
        <time>2022-07-03T06:48:43Z</time>
      </trkpt>
      <trkpt lat="45.865940535441041" lon="7.810900015756488">
        <ele>1927.3199999999999</ele>
        <time>2022-07-03T06:48:58Z</time>
      </trkpt>
      <trkpt lat="45.86595855653286" lon="7.810896327719092">
        <ele>1927.3900000000001</ele>
        <time>2022-07-03T06:48:59Z</time>
      </trkpt>
      <trkpt lat="45.865969955921173" lon="7.810907224193215">
        <ele>1927.74</ele>
        <time>2022-07-03T06:49:01Z</time>
      </trkpt>
      <trkpt lat="45.865990659222007" lon="7.810917031019926">
        <ele>1928.6199999999999</ele>
        <time>2022-07-03T06:49:05Z</time>
      </trkpt>
      <trkpt lat="45.866025611758232" lon="7.810915438458324">
        <ele>1930.01</ele>
        <time>2022-07-03T06:49:12Z</time>
      </trkpt>
      <trkpt lat="45.866068275645375" lon="7.810841845348477">
        <ele>1932.99</ele>
        <time>2022-07-03T06:49:29Z</time>
      </trkpt>
      <trkpt lat="45.866070790216327" lon="7.810793397948146">
        <ele>1934.6600000000001</ele>
        <time>2022-07-03T06:49:37Z</time>
      </trkpt>
      <trkpt lat="45.866081854328513" lon="7.81078870408237">
        <ele>1935.3499999999999</ele>
        <time>2022-07-03T06:49:43Z</time>
      </trkpt>
      <trkpt lat="45.866088140755892" lon="7.810797085985541">
        <ele>1934.79</ele>
        <time>2022-07-03T06:49:52Z</time>
      </trkpt>
      <trkpt lat="45.866121081635356" lon="7.810789793729782">
        <ele>1936.02</ele>
        <time>2022-07-03T06:50:05Z</time>
      </trkpt>
      <trkpt lat="45.866153100505471" lon="7.810779400169849">
        <ele>1936.72</ele>
        <time>2022-07-03T06:50:10Z</time>
      </trkpt>
      <trkpt lat="45.866162907332182" lon="7.810782250016928">
        <ele>1936.95</ele>
        <time>2022-07-03T06:50:18Z</time>
      </trkpt>
      <trkpt lat="45.866145389154553" lon="7.810791973024607">
        <ele>1936.9000000000001</ele>
        <time>2022-07-03T06:50:19Z</time>
      </trkpt>
      <trkpt lat="45.866144970059395" lon="7.810787530615926">
        <ele>1937.04</ele>
        <time>2022-07-03T06:50:26Z</time>
      </trkpt>
      <trkpt lat="45.866159303113818" lon="7.810760037973523">
        <ele>1937.3599999999999</ele>
        <time>2022-07-03T06:50:29Z</time>
      </trkpt>
      <trkpt lat="45.866210013628006" lon="7.81072516925633">
        <ele>1938.76</ele>
        <time>2022-07-03T06:50:36Z</time>
      </trkpt>
      <trkpt lat="45.866235410794616" lon="7.810735730454326">
        <ele>1939.27</ele>
        <time>2022-07-03T06:50:39Z</time>
      </trkpt>
      <trkpt lat="45.866240356117487" lon="7.810829523950815">
        <ele>1941.04</ele>
        <time>2022-07-03T06:50:49Z</time>
      </trkpt>
      <trkpt lat="45.866206409409642" lon="7.810939243063331">
        <ele>1942.2</ele>
        <time>2022-07-03T06:51:00Z</time>
      </trkpt>
      <trkpt lat="45.866226274520159" lon="7.811024570837617">
        <ele>1943.6800000000001</ele>
        <time>2022-07-03T06:51:09Z</time>
      </trkpt>
      <trkpt lat="45.866276985034347" lon="7.81101543456316">
        <ele>1946.0699999999999</ele>
        <time>2022-07-03T06:51:22Z</time>
      </trkpt>
      <trkpt lat="45.866312524303794" lon="7.810965310782194">
        <ele>1948.3399999999999</ele>
        <time>2022-07-03T06:51:34Z</time>
      </trkpt>
      <trkpt lat="45.86639977991581" lon="7.810975452885032">
        <ele>1951.1199999999999</ele>
        <time>2022-07-03T06:51:49Z</time>
      </trkpt>
      <trkpt lat="45.866430792957544" lon="7.810954498127103">
        <ele>1952.0799999999999</ele>
        <time>2022-07-03T06:51:56Z</time>
      </trkpt>
      <trkpt lat="45.866449903696775" lon="7.810941087082028">
        <ele>1952.6500000000001</ele>
        <time>2022-07-03T06:51:59Z</time>
      </trkpt>
      <trkpt lat="45.866464739665389" lon="7.810900686308742">
        <ele>1953.3</ele>
        <time>2022-07-03T06:52:04Z</time>
      </trkpt>
      <trkpt lat="45.866488041356206" lon="7.810918875038624">
        <ele>1953.8099999999999</ele>
        <time>2022-07-03T06:52:06Z</time>
      </trkpt>
      <trkpt lat="45.86650094948709" lon="7.810927089303732">
        <ele>1953.9000000000001</ele>
        <time>2022-07-03T06:52:07Z</time>
      </trkpt>
      <trkpt lat="45.866497177630663" lon="7.810906218364835">
        <ele>1953.8099999999999</ele>
        <time>2022-07-03T06:52:15Z</time>
      </trkpt>
      <trkpt lat="45.866512348875403" lon="7.810809994116426">
        <ele>1954.97</ele>
        <time>2022-07-03T06:52:26Z</time>
      </trkpt>
      <trkpt lat="45.866527603939176" lon="7.810810497030616">
        <ele>1954.99</ele>
        <time>2022-07-03T06:52:39Z</time>
      </trkpt>
      <trkpt lat="45.86652684956789" lon="7.81082390807569">
        <ele>1954.78</ele>
        <time>2022-07-03T06:52:46Z</time>
      </trkpt>
      <trkpt lat="45.866527520120144" lon="7.810821561142802">
        <ele>1954.9000000000001</ele>
        <time>2022-07-03T06:52:47Z</time>
      </trkpt>
      <trkpt lat="45.866524754092097" lon="7.810826087370515">
        <ele>1955.01</ele>
        <time>2022-07-03T06:52:53Z</time>
      </trkpt>
      <trkpt lat="45.866536069661379" lon="7.810885012149811">
        <ele>1956.1700000000001</ele>
        <time>2022-07-03T06:53:03Z</time>
      </trkpt>
      <trkpt lat="45.866579907014966" lon="7.810950055718422">
        <ele>1958.1900000000001</ele>
        <time>2022-07-03T06:53:17Z</time>
      </trkpt>
      <trkpt lat="45.866605136543512" lon="7.810911666601896">
        <ele>1958.8599999999999</ele>
        <time>2022-07-03T06:53:23Z</time>
      </trkpt>
      <trkpt lat="45.866619218140841" lon="7.81086690723896">
        <ele>1959.52</ele>
        <time>2022-07-03T06:53:28Z</time>
      </trkpt>
      <trkpt lat="45.866678897291422" lon="7.810784261673689">
        <ele>1960.5699999999999</ele>
        <time>2022-07-03T06:53:41Z</time>
      </trkpt>
      <trkpt lat="45.86673941463232" lon="7.810738412663341">
        <ele>1961.0999999999999</ele>
        <time>2022-07-03T06:53:49Z</time>
      </trkpt>
      <trkpt lat="45.866789789870381" lon="7.81069197691977">
        <ele>1962.3299999999999</ele>
        <time>2022-07-03T06:53:59Z</time>
      </trkpt>
      <trkpt lat="45.866798590868711" lon="7.810676386579871">
        <ele>1962.74</ele>
        <time>2022-07-03T06:54:01Z</time>
      </trkpt>
      <trkpt lat="45.866840416565537" lon="7.81066020950675">
        <ele>1963.6900000000001</ele>
        <time>2022-07-03T06:54:08Z</time>
      </trkpt>
      <trkpt lat="45.866880733519793" lon="7.810657611116767">
        <ele>1964.8099999999999</ele>
        <time>2022-07-03T06:54:16Z</time>
      </trkpt>
      <trkpt lat="45.866893641650677" lon="7.81065140850842">
        <ele>1965.55</ele>
        <time>2022-07-03T06:54:20Z</time>
      </trkpt>
      <trkpt lat="45.866931779310107" lon="7.810653755441308">
        <ele>1966.8800000000001</ele>
        <time>2022-07-03T06:54:27Z</time>
      </trkpt>
      <trkpt lat="45.866960780695081" lon="7.810644200071693">
        <ele>1968.05</ele>
        <time>2022-07-03T06:54:33Z</time>
      </trkpt>
      <trkpt lat="45.867001935839653" lon="7.810619892552495">
        <ele>1969.26</ele>
        <time>2022-07-03T06:54:40Z</time>
      </trkpt>
      <trkpt lat="45.867003444582224" lon="7.810594411566854">
        <ele>1969.26</ele>
        <time>2022-07-03T06:54:42Z</time>
      </trkpt>
      <trkpt lat="45.867004198953509" lon="7.810559794306755">
        <ele>1969.71</ele>
        <time>2022-07-03T06:54:46Z</time>
      </trkpt>
      <trkpt lat="45.867006462067366" lon="7.810512101277709">
        <ele>1970.76</ele>
        <time>2022-07-03T06:54:54Z</time>
      </trkpt>
      <trkpt lat="45.867001265287399" lon="7.810503970831633">
        <ele>1970.72</ele>
        <time>2022-07-03T06:54:55Z</time>
      </trkpt>
      <trkpt lat="45.867004282772541" lon="7.810467593371868">
        <ele>1971.3900000000001</ele>
        <time>2022-07-03T06:54:59Z</time>
      </trkpt>
      <trkpt lat="45.867019537836313" lon="7.810434568673372">
        <ele>1972.1500000000001</ele>
        <time>2022-07-03T06:55:06Z</time>
      </trkpt>
      <trkpt lat="45.867022555321455" lon="7.810423923656344">
        <ele>1972.27</ele>
        <time>2022-07-03T06:55:07Z</time>
      </trkpt>
      <trkpt lat="45.867035044357181" lon="7.810406489297748">
        <ele>1972.6400000000001</ele>
        <time>2022-07-03T06:55:09Z</time>
      </trkpt>
      <trkpt lat="45.867043090984225" lon="7.81042174436152">
        <ele>1972.72</ele>
        <time>2022-07-03T06:55:11Z</time>
      </trkpt>
      <trkpt lat="45.86705943569541" lon="7.810476059094071">
        <ele>1973.6099999999999</ele>
        <time>2022-07-03T06:55:19Z</time>
      </trkpt>
      <trkpt lat="45.867085084319115" lon="7.810477400198579">
        <ele>1974.6700000000001</ele>
        <time>2022-07-03T06:55:25Z</time>
      </trkpt>
      <trkpt lat="45.86710587143898" lon="7.810501456260681">
        <ele>1975.8</ele>
        <time>2022-07-03T06:55:31Z</time>
      </trkpt>
      <trkpt lat="45.867111487314105" lon="7.81050187535584">
        <ele>1975.8699999999999</ele>
        <time>2022-07-03T06:55:32Z</time>
      </trkpt>
      <trkpt lat="45.86714543402195" lon="7.810503216460347">
        <ele>1976.96</ele>
        <time>2022-07-03T06:55:38Z</time>
      </trkpt>
      <trkpt lat="45.867186337709427" lon="7.810490475967526">
        <ele>1978.3900000000001</ele>
        <time>2022-07-03T06:55:45Z</time>
      </trkpt>
      <trkpt lat="45.867197820916772" lon="7.810489134863019">
        <ele>1978.72</ele>
        <time>2022-07-03T06:55:47Z</time>
      </trkpt>
      <trkpt lat="45.867214752361178" lon="7.810535738244653">
        <ele>1979.96</ele>
        <time>2022-07-03T06:55:55Z</time>
      </trkpt>
      <trkpt lat="45.867234533652663" lon="7.810566918924451">
        <ele>1981.26</ele>
        <time>2022-07-03T06:56:04Z</time>
      </trkpt>
      <trkpt lat="45.867248782888055" lon="7.81055954284966">
        <ele>1981.8599999999999</ele>
        <time>2022-07-03T06:56:07Z</time>
      </trkpt>
      <trkpt lat="45.867268983274698" lon="7.810585778206587">
        <ele>1982.95</ele>
        <time>2022-07-03T06:56:14Z</time>
      </trkpt>
      <trkpt lat="45.867275856435299" lon="7.810596842318773">
        <ele>1983.2</ele>
        <time>2022-07-03T06:56:16Z</time>
      </trkpt>
      <trkpt lat="45.86730569601059" lon="7.81062014400959">
        <ele>1984.7</ele>
        <time>2022-07-03T06:56:25Z</time>
      </trkpt>
      <trkpt lat="45.867316424846649" lon="7.810609415173531">
        <ele>1985.1300000000001</ele>
        <time>2022-07-03T06:56:27Z</time>
      </trkpt>
      <trkpt lat="45.867364704608917" lon="7.810567673295736">
        <ele>1986.3800000000001</ele>
        <time>2022-07-03T06:56:36Z</time>
      </trkpt>
      <trkpt lat="45.867388593032956" lon="7.810553424060345">
        <ele>1986.75</ele>
        <time>2022-07-03T06:56:40Z</time>
      </trkpt>
      <trkpt lat="45.867408541962504" lon="7.810530122369528">
        <ele>1987.23</ele>
        <time>2022-07-03T06:56:43Z</time>
      </trkpt>
      <trkpt lat="45.86743762716651" lon="7.810547892004252">
        <ele>1987.8499999999999</ele>
        <time>2022-07-03T06:56:50Z</time>
      </trkpt>
      <trkpt lat="45.86743863299489" lon="7.810556022450328">
        <ele>1988.0799999999999</ele>
        <time>2022-07-03T06:56:51Z</time>
      </trkpt>
      <trkpt lat="45.867439219728112" lon="7.810603547841311">
        <ele>1989.1300000000001</ele>
        <time>2022-07-03T06:56:58Z</time>
      </trkpt>
      <trkpt lat="45.867443159222603" lon="7.810623832046986">
        <ele>1989.5</ele>
        <time>2022-07-03T06:57:01Z</time>
      </trkpt>
      <trkpt lat="45.867442237213254" lon="7.810698682442308">
        <ele>1991.1700000000001</ele>
        <time>2022-07-03T06:57:11Z</time>
      </trkpt>
      <trkpt lat="45.867428742349148" lon="7.810743860900402">
        <ele>1992.3</ele>
        <time>2022-07-03T06:57:18Z</time>
      </trkpt>
      <trkpt lat="45.867439638823271" lon="7.810771772637963">
        <ele>1993.0799999999999</ele>
        <time>2022-07-03T06:57:24Z</time>
      </trkpt>
      <trkpt lat="45.867497893050313" lon="7.810771940276027">
        <ele>1994.96</ele>
        <time>2022-07-03T06:57:33Z</time>
      </trkpt>
      <trkpt lat="45.867535108700395" lon="7.810831367969513">
        <ele>1997.1900000000001</ele>
        <time>2022-07-03T06:57:46Z</time>
      </trkpt>
      <trkpt lat="45.867557656019926" lon="7.810870595276356">
        <ele>1999.03</ele>
        <time>2022-07-03T06:57:57Z</time>
      </trkpt>
      <trkpt lat="45.867583137005568" lon="7.810872187837958">
        <ele>1999.8199999999999</ele>
        <time>2022-07-03T06:58:02Z</time>
      </trkpt>
      <trkpt lat="45.867607360705733" lon="7.81093874014914">
        <ele>2001.76</ele>
        <time>2022-07-03T06:58:13Z</time>
      </trkpt>
      <trkpt lat="45.867664022371173" lon="7.810908565297723">
        <ele>2003.45</ele>
        <time>2022-07-03T06:58:24Z</time>
      </trkpt>
      <trkpt lat="45.867665195837617" lon="7.810975452885032">
        <ele>2005.26</ele>
        <time>2022-07-03T06:58:35Z</time>
      </trkpt>
      <trkpt lat="45.867675840854645" lon="7.81102130189538">
        <ele>2006.95</ele>
        <time>2022-07-03T06:58:47Z</time>
      </trkpt>
      <trkpt lat="45.867747254669666" lon="7.8109529055655">
        <ele>2008.8</ele>
        <time>2022-07-03T06:59:03Z</time>
      </trkpt>
      <trkpt lat="45.86775278672576" lon="7.810913091525435">
        <ele>2009.1500000000001</ele>
        <time>2022-07-03T06:59:07Z</time>
      </trkpt>
      <trkpt lat="45.867761420086026" lon="7.810807228088379">
        <ele>2009.49</ele>
        <time>2022-07-03T06:59:15Z</time>
      </trkpt>
      <trkpt lat="45.867804167792201" lon="7.810735395178199">
        <ele>2010.29</ele>
        <time>2022-07-03T06:59:30Z</time>
      </trkpt>
      <trkpt lat="45.867801820859313" lon="7.810738496482372">
        <ele>2009.29</ele>
        <time>2022-07-03T06:59:42Z</time>
      </trkpt>
      <trkpt lat="45.867797629907727" lon="7.81072273850441">
        <ele>2009.4300000000001</ele>
        <time>2022-07-03T06:59:52Z</time>
      </trkpt>
      <trkpt lat="45.867799473926425" lon="7.81074377708137">
        <ele>2009.74</ele>
        <time>2022-07-03T07:00:24Z</time>
      </trkpt>
      <trkpt lat="45.867800982668996" lon="7.810738915577531">
        <ele>2010.78</ele>
        <time>2022-07-03T07:00:48Z</time>
      </trkpt>
      <trkpt lat="45.867793438956141" lon="7.810743944719434">
        <ele>2010.6900000000001</ele>
        <time>2022-07-03T07:01:06Z</time>
      </trkpt>
      <trkpt lat="45.867799473926425" lon="7.810737071558833">
        <ele>2011.0699999999999</ele>
        <time>2022-07-03T07:01:23Z</time>
      </trkpt>
      <trkpt lat="45.867797462269664" lon="7.810738328844309">
        <ele>2011.26</ele>
        <time>2022-07-03T07:01:34Z</time>
      </trkpt>
      <trkpt lat="45.867816153913736" lon="7.810671357437968">
        <ele>2011.4000000000001</ele>
        <time>2022-07-03T07:01:45Z</time>
      </trkpt>
      <trkpt lat="45.867852447554469" lon="7.810554429888725">
        <ele>2010.95</ele>
        <time>2022-07-03T07:01:56Z</time>
      </trkpt>
      <trkpt lat="45.867853788658977" lon="7.81052878126502">
        <ele>2010.8399999999999</ele>
        <time>2022-07-03T07:01:59Z</time>
      </trkpt>
      <trkpt lat="45.86788572371006" lon="7.810447057709098">
        <ele>2010.3</ele>
        <time>2022-07-03T07:02:09Z</time>
      </trkpt>
      <trkpt lat="45.867893267422915" lon="7.810394503176212">
        <ele>2010.26</ele>
        <time>2022-07-03T07:02:16Z</time>
      </trkpt>
      <trkpt lat="45.867921598255634" lon="7.810382014140487">
        <ele>2010.0699999999999</ele>
        <time>2022-07-03T07:02:21Z</time>
      </trkpt>
      <trkpt lat="45.867926208302379" lon="7.81037824228406">
        <ele>2009.96</ele>
        <time>2022-07-03T07:02:24Z</time>
      </trkpt>
      <trkpt lat="45.867929644882679" lon="7.810382014140487">
        <ele>2010.3499999999999</ele>
        <time>2022-07-03T07:02:28Z</time>
      </trkpt>
      <trkpt lat="45.867965267971158" lon="7.810418140143156">
        <ele>2010.95</ele>
        <time>2022-07-03T07:02:35Z</time>
      </trkpt>
      <trkpt lat="45.867941295728087" lon="7.810404393821955">
        <ele>2011.04</ele>
        <time>2022-07-03T07:02:44Z</time>
      </trkpt>
      <trkpt lat="45.867889579385519" lon="7.810366926714778">
        <ele>2010.25</ele>
        <time>2022-07-03T07:02:55Z</time>
      </trkpt>
      <trkpt lat="45.867885891348124" lon="7.810351504012942">
        <ele>2010.1700000000001</ele>
        <time>2022-07-03T07:02:56Z</time>
      </trkpt>
      <trkpt lat="45.86788572371006" lon="7.810333566740155">
        <ele>2009.96</ele>
        <time>2022-07-03T07:02:57Z</time>
      </trkpt>
      <trkpt lat="45.867886813357472" lon="7.810317808762193">
        <ele>2009.95</ele>
        <time>2022-07-03T07:02:58Z</time>
      </trkpt>
      <trkpt lat="45.867856554687023" lon="7.810229882597923">
        <ele>2011.49</ele>
        <time>2022-07-03T07:03:07Z</time>
      </trkpt>
      <trkpt lat="45.867826882749796" lon="7.810217728838325">
        <ele>2012.21</ele>
        <time>2022-07-03T07:03:12Z</time>
      </trkpt>
      <trkpt lat="45.86782855913043" lon="7.810163078829646">
        <ele>2014.3</ele>
        <time>2022-07-03T07:03:22Z</time>
      </trkpt>
      <trkpt lat="45.867854207754135" lon="7.810156792402268">
        <ele>2015.3499999999999</ele>
        <time>2022-07-03T07:03:29Z</time>
      </trkpt>
      <trkpt lat="45.867880443111062" lon="7.810067189857364">
        <ele>2018.04</ele>
        <time>2022-07-03T07:03:43Z</time>
      </trkpt>
      <trkpt lat="45.867879940196872" lon="7.81000985763967">
        <ele>2018.8399999999999</ele>
        <time>2022-07-03T07:03:49Z</time>
      </trkpt>
      <trkpt lat="45.867875581607223" lon="7.809965936467052">
        <ele>2018.6500000000001</ele>
        <time>2022-07-03T07:03:52Z</time>
      </trkpt>
      <trkpt lat="45.867887735366821" lon="7.809809613972902">
        <ele>2019.1199999999999</ele>
        <time>2022-07-03T07:04:02Z</time>
      </trkpt>
      <trkpt lat="45.86791162379086" lon="7.809685226529837">
        <ele>2019.1199999999999</ele>
        <time>2022-07-03T07:04:12Z</time>
      </trkpt>
      <trkpt lat="45.867948923259974" lon="7.809510380029678">
        <ele>2020.98</ele>
        <time>2022-07-03T07:04:29Z</time>
      </trkpt>
      <trkpt lat="45.867953449487686" lon="7.80948699451983">
        <ele>2021.02</ele>
        <time>2022-07-03T07:04:31Z</time>
      </trkpt>
      <trkpt lat="45.867958227172494" lon="7.809460675343871">
        <ele>2021.27</ele>
        <time>2022-07-03T07:04:33Z</time>
      </trkpt>
      <trkpt lat="45.86795998737216" lon="7.809445168823004">
        <ele>2021.3900000000001</ele>
        <time>2022-07-03T07:04:34Z</time>
      </trkpt>
      <trkpt lat="45.867993095889688" lon="7.809389848262072">
        <ele>2021.73</ele>
        <time>2022-07-03T07:04:40Z</time>
      </trkpt>
      <trkpt lat="45.868033664301038" lon="7.809376856312156">
        <ele>2021.8099999999999</ele>
        <time>2022-07-03T07:04:53Z</time>
      </trkpt>
      <trkpt lat="45.868064677342772" lon="7.80935749411583">
        <ele>2021.8299999999999</ele>
        <time>2022-07-03T07:04:59Z</time>
      </trkpt>
      <trkpt lat="45.868121758103371" lon="7.809326313436031">
        <ele>2022.22</ele>
        <time>2022-07-03T07:05:13Z</time>
      </trkpt>
      <trkpt lat="45.868121506646276" lon="7.809324553236365">
        <ele>2022.22</ele>
        <time>2022-07-03T07:05:27Z</time>
      </trkpt>
      <trkpt lat="45.868137264624238" lon="7.809331342577934">
        <ele>2022.8800000000001</ele>
        <time>2022-07-03T07:05:37Z</time>
      </trkpt>
      <trkpt lat="45.868238937109709" lon="7.809380795806646">
        <ele>2024.78</ele>
        <time>2022-07-03T07:05:50Z</time>
      </trkpt>
      <trkpt lat="45.868295095860958" lon="7.809371659532189">
        <ele>2025.8499999999999</ele>
        <time>2022-07-03T07:05:58Z</time>
      </trkpt>
      <trkpt lat="45.868300041183829" lon="7.809368977323175">
        <ele>2026.02</ele>
        <time>2022-07-03T07:05:59Z</time>
      </trkpt>
      <trkpt lat="45.86830448359251" lon="7.809367971494794">
        <ele>2026.24</ele>
        <time>2022-07-03T07:06:00Z</time>
      </trkpt>
      <trkpt lat="45.868311943486333" lon="7.809350118041039">
        <ele>2026.5799999999999</ele>
        <time>2022-07-03T07:06:02Z</time>
      </trkpt>
      <trkpt lat="45.868340693414211" lon="7.809341987594962">
        <ele>2026.98</ele>
        <time>2022-07-03T07:06:06Z</time>
      </trkpt>
      <trkpt lat="45.868372963741422" lon="7.809366630390286">
        <ele>2027.98</ele>
        <time>2022-07-03T07:06:12Z</time>
      </trkpt>
      <trkpt lat="45.868381764739752" lon="7.809371659532189">
        <ele>2028.4000000000001</ele>
        <time>2022-07-03T07:06:15Z</time>
      </trkpt>
      <trkpt lat="45.868393750861287" lon="7.809374257922173">
        <ele>2028.79</ele>
        <time>2022-07-03T07:06:17Z</time>
      </trkpt>
      <trkpt lat="45.868399785831571" lon="7.809375682845712">
        <ele>2029.01</ele>
        <time>2022-07-03T07:06:18Z</time>
      </trkpt>
      <trkpt lat="45.868405234068632" lon="7.809379706159234">
        <ele>2029.22</ele>
        <time>2022-07-03T07:06:19Z</time>
      </trkpt>
      <trkpt lat="45.8684535138309" lon="7.809378867968917">
        <ele>2030.0999999999999</ele>
        <time>2022-07-03T07:06:25Z</time>
      </trkpt>
      <trkpt lat="45.868515456095338" lon="7.809338215738535">
        <ele>2031.28</ele>
        <time>2022-07-03T07:06:37Z</time>
      </trkpt>
      <trkpt lat="45.868534231558442" lon="7.809345675632358">
        <ele>2031.25</ele>
        <time>2022-07-03T07:06:39Z</time>
      </trkpt>
      <trkpt lat="45.868596928194165" lon="7.80936143361032">
        <ele>2031.5599999999999</ele>
        <time>2022-07-03T07:06:45Z</time>
      </trkpt>
      <trkpt lat="45.868617380037904" lon="7.809340730309486">
        <ele>2031.5</ele>
        <time>2022-07-03T07:06:47Z</time>
      </trkpt>
      <trkpt lat="45.868663731962442" lon="7.809362020343542">
        <ele>2032.29</ele>
        <time>2022-07-03T07:06:52Z</time>
      </trkpt>
      <trkpt lat="45.868687452748418" lon="7.80935263261199">
        <ele>2032.9000000000001</ele>
        <time>2022-07-03T07:06:56Z</time>
      </trkpt>
      <trkpt lat="45.868711676448584" lon="7.809356739744544">
        <ele>2033.3900000000001</ele>
        <time>2022-07-03T07:07:01Z</time>
      </trkpt>
      <trkpt lat="45.868721399456263" lon="7.809363193809986">
        <ele>2033.28</ele>
        <time>2022-07-03T07:07:02Z</time>
      </trkpt>
      <trkpt lat="45.868745036423206" lon="7.809365959838033">
        <ele>2033.4100000000001</ele>
        <time>2022-07-03T07:07:04Z</time>
      </trkpt>
      <trkpt lat="45.86887177079916" lon="7.809339389204979">
        <ele>2034.23</ele>
        <time>2022-07-03T07:07:15Z</time>
      </trkpt>
      <trkpt lat="45.868944525718689" lon="7.809354560449719">
        <ele>2035.8699999999999</ele>
        <time>2022-07-03T07:07:27Z</time>
      </trkpt>
      <trkpt lat="45.868951985612512" lon="7.809313405305147">
        <ele>2036.26</ele>
        <time>2022-07-03T07:07:30Z</time>
      </trkpt>
      <trkpt lat="45.868976293131709" lon="7.80928909778595">
        <ele>2036.99</ele>
        <time>2022-07-03T07:07:36Z</time>
      </trkpt>
      <trkpt lat="45.868975538760424" lon="7.80927593819797">
        <ele>2037.0699999999999</ele>
        <time>2022-07-03T07:07:37Z</time>
      </trkpt>
      <trkpt lat="45.869006384164095" lon="7.809252887964249">
        <ele>2038.1300000000001</ele>
        <time>2022-07-03T07:07:43Z</time>
      </trkpt>
      <trkpt lat="45.86900370195508" lon="7.809257749468088">
        <ele>2038.21</ele>
        <time>2022-07-03T07:07:44Z</time>
      </trkpt>
      <trkpt lat="45.869028931483626" lon="7.809324972331524">
        <ele>2039.3900000000001</ele>
        <time>2022-07-03T07:07:52Z</time>
      </trkpt>
      <trkpt lat="45.869063045829535" lon="7.809362774714828">
        <ele>2041.1300000000001</ele>
        <time>2022-07-03T07:08:03Z</time>
      </trkpt>
      <trkpt lat="45.869065308943391" lon="7.809256324544549">
        <ele>2042.8900000000001</ele>
        <time>2022-07-03T07:08:14Z</time>
      </trkpt>
      <trkpt lat="45.869078887626529" lon="7.809227323159576">
        <ele>2043.76</ele>
        <time>2022-07-03T07:08:20Z</time>
      </trkpt>
      <trkpt lat="45.869119539856911" lon="7.809220952913165">
        <ele>2044.6700000000001</ele>
        <time>2022-07-03T07:08:28Z</time>
      </trkpt>
      <trkpt lat="45.869164299219847" lon="7.80925297178328">
        <ele>2046.3299999999999</ele>
        <time>2022-07-03T07:08:36Z</time>
      </trkpt>
      <trkpt lat="45.869239484891295" lon="7.809260850772262">
        <ele>2049.4000000000001</ele>
        <time>2022-07-03T07:08:52Z</time>
      </trkpt>
      <trkpt lat="45.869295811280608" lon="7.80935606919229">
        <ele>2050.8800000000001</ele>
        <time>2022-07-03T07:09:06Z</time>
      </trkpt>
      <trkpt lat="45.869361776858568" lon="7.809397391974926">
        <ele>2052.5799999999999</ele>
        <time>2022-07-03T07:09:22Z</time>
      </trkpt>
      <trkpt lat="45.86934182792902" lon="7.809376856312156">
        <ele>2052.3800000000001</ele>
        <time>2022-07-03T07:09:40Z</time>
      </trkpt>
      <trkpt lat="45.869328752160072" lon="7.809404181316495">
        <ele>2052.7399999999998</ele>
        <time>2022-07-03T07:09:50Z</time>
      </trkpt>
      <trkpt lat="45.869380384683609" lon="7.809540303424001">
        <ele>2054.8600000000001</ele>
        <time>2022-07-03T07:10:05Z</time>
      </trkpt>
      <trkpt lat="45.869434615597129" lon="7.80964138917625">
        <ele>2057.9099999999999</ele>
        <time>2022-07-03T07:10:19Z</time>
      </trkpt>
      <trkpt lat="45.869526900351048" lon="7.809675922617316">
        <ele>2059.9400000000001</ele>
        <time>2022-07-03T07:10:32Z</time>
      </trkpt>
      <trkpt lat="45.869596973061562" lon="7.809580871835351">
        <ele>2060.9000000000001</ele>
        <time>2022-07-03T07:10:44Z</time>
      </trkpt>
      <trkpt lat="45.869684480130672" lon="7.80960132367909">
        <ele>2062.9000000000001</ele>
        <time>2022-07-03T07:10:56Z</time>
      </trkpt>
      <trkpt lat="45.869741560891271" lon="7.809659577906132">
        <ele>2064.25</ele>
        <time>2022-07-03T07:11:06Z</time>
      </trkpt>
      <trkpt lat="45.869783973321319" lon="7.809705007821322">
        <ele>2066.6100000000001</ele>
        <time>2022-07-03T07:11:18Z</time>
      </trkpt>
      <trkpt lat="45.86985538713634" lon="7.809701655060053">
        <ele>2067.8699999999999</ele>
        <time>2022-07-03T07:11:28Z</time>
      </trkpt>
      <trkpt lat="45.869928644970059" lon="7.809746079146862">
        <ele>2069.1900000000001</ele>
        <time>2022-07-03T07:11:40Z</time>
      </trkpt>
      <trkpt lat="45.869928309693933" lon="7.809831909835339">
        <ele>2071.7199999999998</ele>
        <time>2022-07-03T07:11:53Z</time>
      </trkpt>
      <trkpt lat="45.870010955259204" lon="7.809846745803952">
        <ele>2073.4699999999998</ele>
        <time>2022-07-03T07:12:06Z</time>
      </trkpt>
      <trkpt lat="45.870099468156695" lon="7.809911873191595">
        <ele>2075.3499999999999</ele>
        <time>2022-07-03T07:12:20Z</time>
      </trkpt>
      <trkpt lat="45.870180018246174" lon="7.809905335307121">
        <ele>2077.48</ele>
        <time>2022-07-03T07:12:34Z</time>
      </trkpt>
      <trkpt lat="45.870250007137656" lon="7.809973480179906">
        <ele>2079.6100000000001</ele>
        <time>2022-07-03T07:12:49Z</time>
      </trkpt>
      <trkpt lat="45.870331982150674" lon="7.810013629496098">
        <ele>2081.5999999999999</ele>
        <time>2022-07-03T07:13:03Z</time>
      </trkpt>
      <trkpt lat="45.870419070124626" lon="7.810061406344175">
        <ele>2084.1999999999998</ele>
        <time>2022-07-03T07:13:18Z</time>
      </trkpt>
      <trkpt lat="45.870483191683888" lon="7.810162240639329">
        <ele>2085.9699999999998</ele>
        <time>2022-07-03T07:13:33Z</time>
      </trkpt>
      <trkpt lat="45.87050917558372" lon="7.810220578685403">
        <ele>2086.9200000000001</ele>
        <time>2022-07-03T07:13:47Z</time>
      </trkpt>
      <trkpt lat="45.87053993716836" lon="7.810326861217618">
        <ele>2090.02</ele>
        <time>2022-07-03T07:14:03Z</time>
      </trkpt>
      <trkpt lat="45.870594000443816" lon="7.810374638065696">
        <ele>2091.5100000000002</ele>
        <time>2022-07-03T07:14:13Z</time>
      </trkpt>
      <trkpt lat="45.870599616318941" lon="7.810386791825295">
        <ele>2091.8200000000002</ele>
        <time>2022-07-03T07:14:14Z</time>
      </trkpt>
      <trkpt lat="45.870661390945315" lon="7.810453847050667">
        <ele>2093.7600000000002</ele>
        <time>2022-07-03T07:14:25Z</time>
      </trkpt>
      <trkpt lat="45.870751664042473" lon="7.81053171493113">
        <ele>2095.7800000000002</ele>
        <time>2022-07-03T07:14:41Z</time>
      </trkpt>
      <trkpt lat="45.870814863592386" lon="7.810586281120777">
        <ele>2097.9899999999998</ele>
        <time>2022-07-03T07:14:53Z</time>
      </trkpt>
      <trkpt lat="45.870903627946973" lon="7.810648223385215">
        <ele>2100.4400000000001</ele>
        <time>2022-07-03T07:15:08Z</time>
      </trkpt>
      <trkpt lat="45.870961882174015" lon="7.810745285823941">
        <ele>2102.6300000000001</ele>
        <time>2022-07-03T07:15:23Z</time>
      </trkpt>
      <trkpt lat="45.871013263240457" lon="7.810782669112086">
        <ele>2105.3800000000001</ele>
        <time>2022-07-03T07:15:36Z</time>
      </trkpt>
      <trkpt lat="45.871084844693542" lon="7.810829188674688">
        <ele>2107.9200000000001</ele>
        <time>2022-07-03T07:15:50Z</time>
      </trkpt>
      <trkpt lat="45.871205879375339" lon="7.81090160831809">
        <ele>2109.9099999999999</ele>
        <time>2022-07-03T07:16:07Z</time>
      </trkpt>
      <trkpt lat="45.871290117502213" lon="7.810948798432946">
        <ele>2111.1300000000001</ele>
        <time>2022-07-03T07:16:19Z</time>
      </trkpt>
      <trkpt lat="45.871368572115898" lon="7.81098023056984">
        <ele>2113.23</ele>
        <time>2022-07-03T07:16:33Z</time>
      </trkpt>
      <trkpt lat="45.871410397812724" lon="7.810985762625933">
        <ele>2113.5599999999999</ele>
        <time>2022-07-03T07:16:38Z</time>
      </trkpt>
      <trkpt lat="45.87143805809319" lon="7.81099489890039">
        <ele>2113.6900000000001</ele>
        <time>2022-07-03T07:16:41Z</time>
      </trkpt>
      <trkpt lat="45.871513495221734" lon="7.81103546731174">
        <ele>2114.9499999999998</ele>
        <time>2022-07-03T07:16:50Z</time>
      </trkpt>
      <trkpt lat="45.871523302048445" lon="7.811040077358484">
        <ele>2115.0999999999999</ele>
        <time>2022-07-03T07:16:51Z</time>
      </trkpt>
      <trkpt lat="45.87156462483108" lon="7.811040580272675">
        <ele>2115.77</ele>
        <time>2022-07-03T07:16:56Z</time>
      </trkpt>
      <trkpt lat="45.871597481891513" lon="7.811039742082357">
        <ele>2115.9299999999998</ele>
        <time>2022-07-03T07:16:59Z</time>
      </trkpt>
      <trkpt lat="45.871607791632414" lon="7.811040915548801">
        <ele>2115.8899999999999</ele>
        <time>2022-07-03T07:17:00Z</time>
      </trkpt>
      <trkpt lat="45.871687671169639" lon="7.811058182269335">
        <ele>2116.9499999999998</ele>
        <time>2022-07-03T07:17:11Z</time>
      </trkpt>
      <trkpt lat="45.871795881539583" lon="7.811039406806231">
        <ele>2118.9699999999998</ele>
        <time>2022-07-03T07:17:26Z</time>
      </trkpt>
      <trkpt lat="45.871831588447094" lon="7.811046866700053">
        <ele>2120.27</ele>
        <time>2022-07-03T07:17:33Z</time>
      </trkpt>
      <trkpt lat="45.871887831017375" lon="7.811090284958482">
        <ele>2122.3899999999999</ele>
        <time>2022-07-03T07:17:45Z</time>
      </trkpt>
      <trkpt lat="45.871908785775304" lon="7.811128171160817">
        <ele>2124.0700000000002</ele>
        <time>2022-07-03T07:17:53Z</time>
      </trkpt>
      <trkpt lat="45.871964190155268" lon="7.811161866411567">
        <ele>2125.98</ele>
        <time>2022-07-03T07:18:06Z</time>
      </trkpt>
      <trkpt lat="45.872001741081476" lon="7.811137223616242">
        <ele>2127.8499999999999</ele>
        <time>2022-07-03T07:18:16Z</time>
      </trkpt>
      <trkpt lat="45.872010206803679" lon="7.81113320030272">
        <ele>2128.3499999999999</ele>
        <time>2022-07-03T07:18:28Z</time>
      </trkpt>
      <trkpt lat="45.872031413018703" lon="7.811132362112403">
        <ele>2127.4000000000001</ele>
        <time>2022-07-03T07:18:49Z</time>
      </trkpt>
      <trkpt lat="45.872023114934564" lon="7.811124566942453">
        <ele>2128.2800000000002</ele>
        <time>2022-07-03T07:19:05Z</time>
      </trkpt>
      <trkpt lat="45.872029317542911" lon="7.81115960329771">
        <ele>2127.6599999999999</ele>
        <time>2022-07-03T07:19:21Z</time>
      </trkpt>
      <trkpt lat="45.872023366391659" lon="7.811158346012235">
        <ele>2128.5599999999999</ele>
        <time>2022-07-03T07:19:33Z</time>
      </trkpt>
      <trkpt lat="45.872008195146918" lon="7.811186006292701">
        <ele>2127.71</ele>
        <time>2022-07-03T07:19:55Z</time>
      </trkpt>
      <trkpt lat="45.872041303664446" lon="7.811146778985858">
        <ele>2127.9899999999998</ele>
        <time>2022-07-03T07:20:16Z</time>
      </trkpt>
      <trkpt lat="45.872125793248415" lon="7.811147198081017">
        <ele>2129.6900000000001</ele>
        <time>2022-07-03T07:20:29Z</time>
      </trkpt>
      <trkpt lat="45.872134258970618" lon="7.811157926917076">
        <ele>2129.6799999999998</ele>
        <time>2022-07-03T07:20:30Z</time>
      </trkpt>
      <trkpt lat="45.872187400236726" lon="7.811174606904388">
        <ele>2129.6199999999999</ele>
        <time>2022-07-03T07:20:36Z</time>
      </trkpt>
      <trkpt lat="45.872281361371279" lon="7.811206877231598">
        <ele>2131.2800000000002</ele>
        <time>2022-07-03T07:20:49Z</time>
      </trkpt>
      <trkpt lat="45.872378423810005" lon="7.811263538897038">
        <ele>2133.71</ele>
        <time>2022-07-03T07:21:03Z</time>
      </trkpt>
      <trkpt lat="45.872448245063424" lon="7.811318775638938">
        <ele>2136</ele>
        <time>2022-07-03T07:21:17Z</time>
      </trkpt>
      <trkpt lat="45.872468948364258" lon="7.811345178633928">
        <ele>2137.9699999999998</ele>
        <time>2022-07-03T07:21:28Z</time>
      </trkpt>
      <trkpt lat="45.872439276427031" lon="7.81137459911406">
        <ele>2139.71</ele>
        <time>2022-07-03T07:21:36Z</time>
      </trkpt>
      <trkpt lat="45.872415052726865" lon="7.811395302414894">
        <ele>2140.4499999999998</ele>
        <time>2022-07-03T07:21:42Z</time>
      </trkpt>
      <trkpt lat="45.872358558699489" lon="7.811421286314726">
        <ele>2142.6100000000001</ele>
        <time>2022-07-03T07:21:56Z</time>
      </trkpt>
      <trkpt lat="45.872355625033379" lon="7.811461938545108">
        <ele>2143.96</ele>
        <time>2022-07-03T07:22:08Z</time>
      </trkpt>
      <trkpt lat="45.872400300577283" lon="7.811501584947109">
        <ele>2145.7600000000002</ele>
        <time>2022-07-03T07:22:23Z</time>
      </trkpt>
      <trkpt lat="45.872416896745563" lon="7.81152505427599">
        <ele>2147.3200000000002</ele>
        <time>2022-07-03T07:22:30Z</time>
      </trkpt>
      <trkpt lat="45.872422093525529" lon="7.811535950750113">
        <ele>2147.5100000000002</ele>
        <time>2022-07-03T07:22:31Z</time>
      </trkpt>
      <trkpt lat="45.872438438236713" lon="7.811566796153784">
        <ele>2148.5300000000002</ele>
        <time>2022-07-03T07:22:37Z</time>
      </trkpt>
      <trkpt lat="45.872501134872437" lon="7.811602251604199">
        <ele>2149.5999999999999</ele>
        <time>2022-07-03T07:22:48Z</time>
      </trkpt>
      <trkpt lat="45.872531812638044" lon="7.811598815023899">
        <ele>2149.96</ele>
        <time>2022-07-03T07:22:52Z</time>
      </trkpt>
      <trkpt lat="45.872543044388294" lon="7.811599150300026">
        <ele>2149.8499999999999</ele>
        <time>2022-07-03T07:22:53Z</time>
      </trkpt>
      <trkpt lat="45.872592162340879" lon="7.811632174998522">
        <ele>2150.5700000000002</ele>
        <time>2022-07-03T07:23:05Z</time>
      </trkpt>
      <trkpt lat="45.872631892561913" lon="7.811691183596849">
        <ele>2152.6300000000001</ele>
        <time>2022-07-03T07:23:17Z</time>
      </trkpt>
      <trkpt lat="45.872685452923179" lon="7.811711132526398">
        <ele>2154.5300000000002</ele>
        <time>2022-07-03T07:23:30Z</time>
      </trkpt>
      <trkpt lat="45.872770361602306" lon="7.811696212738752">
        <ele>2153.3200000000002</ele>
        <time>2022-07-03T07:23:44Z</time>
      </trkpt>
      <trkpt lat="45.872811181470752" lon="7.811618009582162">
        <ele>2151.2199999999998</ele>
        <time>2022-07-03T07:23:55Z</time>
      </trkpt>
      <trkpt lat="45.872858371585608" lon="7.811567131429911">
        <ele>2149.1500000000001</ele>
        <time>2022-07-03T07:24:05Z</time>
      </trkpt>
      <trkpt lat="45.872890641912818" lon="7.81155489385128">
        <ele>2148.1799999999998</ele>
        <time>2022-07-03T07:24:08Z</time>
      </trkpt>
      <trkpt lat="45.872901789844036" lon="7.811555145308375">
        <ele>2147.8299999999999</ele>
        <time>2022-07-03T07:24:09Z</time>
      </trkpt>
      <trkpt lat="45.872912351042032" lon="7.811556486412883">
        <ele>2147.6300000000001</ele>
        <time>2022-07-03T07:24:10Z</time>
      </trkpt>
      <trkpt lat="45.872923582792282" lon="7.811558581888676">
        <ele>2147.48</ele>
        <time>2022-07-03T07:24:11Z</time>
      </trkpt>
      <trkpt lat="45.87304268963635" lon="7.811586325988174">
        <ele>2146.9099999999999</ele>
        <time>2022-07-03T07:24:22Z</time>
      </trkpt>
      <trkpt lat="45.873101111501455" lon="7.811622535809875">
        <ele>2147.5799999999999</ele>
        <time>2022-07-03T07:24:33Z</time>
      </trkpt>
      <trkpt lat="45.873139416798949" lon="7.811676431447268">
        <ele>2149.04</ele>
        <time>2022-07-03T07:24:43Z</time>
      </trkpt>
      <trkpt lat="45.87315215729177" lon="7.811672491952777">
        <ele>2149.29</ele>
        <time>2022-07-03T07:24:45Z</time>
      </trkpt>
      <trkpt lat="45.873185433447361" lon="7.811692524701357">
        <ele>2149.7600000000002</ele>
        <time>2022-07-03T07:24:49Z</time>
      </trkpt>
      <trkpt lat="45.873234551399946" lon="7.811764776706696">
        <ele>2151.1399999999999</ele>
        <time>2022-07-03T07:25:00Z</time>
      </trkpt>
      <trkpt lat="45.873282412067056" lon="7.811810625717044">
        <ele>2152.5900000000001</ele>
        <time>2022-07-03T07:25:09Z</time>
      </trkpt>
      <trkpt lat="45.873326752334833" lon="7.811846751719713">
        <ele>2153.6500000000001</ele>
        <time>2022-07-03T07:25:16Z</time>
      </trkpt>
      <trkpt lat="45.873362375423312" lon="7.811874579638243">
        <ele>2154.5100000000002</ele>
        <time>2022-07-03T07:25:22Z</time>
      </trkpt>
      <trkpt lat="45.873399255797267" lon="7.811906179413199">
        <ele>2155.4299999999998</ele>
        <time>2022-07-03T07:25:28Z</time>
      </trkpt>
      <trkpt lat="45.873424401506782" lon="7.811927553266287">
        <ele>2156.1900000000001</ele>
        <time>2022-07-03T07:25:34Z</time>
      </trkpt>
      <trkpt lat="45.873444098979235" lon="7.811935683712363">
        <ele>2156.5799999999999</ele>
        <time>2022-07-03T07:25:41Z</time>
      </trkpt>
      <trkpt lat="45.873476872220635" lon="7.811965942382813">
        <ele>2157.3099999999999</ele>
        <time>2022-07-03T07:25:47Z</time>
      </trkpt>
      <trkpt lat="45.873518362641335" lon="7.811997877433896">
        <ele>2158.25</ele>
        <time>2022-07-03T07:25:54Z</time>
      </trkpt>
      <trkpt lat="45.873544765636325" lon="7.812014138326049">
        <ele>2159.4400000000001</ele>
        <time>2022-07-03T07:26:00Z</time>
      </trkpt>
      <trkpt lat="45.87357385084033" lon="7.812047330662608">
        <ele>2160.4000000000001</ele>
        <time>2022-07-03T07:26:07Z</time>
      </trkpt>
      <trkpt lat="45.873599331825972" lon="7.812084713950753">
        <ele>2161.4499999999998</ele>
        <time>2022-07-03T07:26:13Z</time>
      </trkpt>
      <trkpt lat="45.873636966571212" lon="7.812128718942404">
        <ele>2161.6900000000001</ele>
        <time>2022-07-03T07:26:20Z</time>
      </trkpt>
      <trkpt lat="45.873669069260359" lon="7.812175238505006">
        <ele>2162.6500000000001</ele>
        <time>2022-07-03T07:26:27Z</time>
      </trkpt>
      <trkpt lat="45.873707290738821" lon="7.812197031453252">
        <ele>2163.2600000000002</ele>
        <time>2022-07-03T07:26:33Z</time>
      </trkpt>
      <trkpt lat="45.873750289902091" lon="7.812218740582466">
        <ele>2163.79</ele>
        <time>2022-07-03T07:26:40Z</time>
      </trkpt>
      <trkpt lat="45.873776860535145" lon="7.812235252931714">
        <ele>2163.73</ele>
        <time>2022-07-03T07:26:53Z</time>
      </trkpt>
      <trkpt lat="45.873827738687396" lon="7.81228194013238">
        <ele>2165.73</ele>
        <time>2022-07-03T07:27:04Z</time>
      </trkpt>
      <trkpt lat="45.873905438929796" lon="7.812306918203831">
        <ele>2167.7800000000002</ele>
        <time>2022-07-03T07:27:16Z</time>
      </trkpt>
      <trkpt lat="45.873952712863684" lon="7.812387719750404">
        <ele>2169.1100000000001</ele>
        <time>2022-07-03T07:27:28Z</time>
      </trkpt>
      <trkpt lat="45.873965369537473" lon="7.812422085553408">
        <ele>2169.3299999999999</ele>
        <time>2022-07-03T07:27:41Z</time>
      </trkpt>
      <trkpt lat="45.874025635421276" lon="7.812542365863919">
        <ele>2170.96</ele>
        <time>2022-07-03T07:27:55Z</time>
      </trkpt>
      <trkpt lat="45.874078441411257" lon="7.812675973400474">
        <ele>2173.3600000000001</ele>
        <time>2022-07-03T07:28:11Z</time>
      </trkpt>
      <trkpt lat="45.874138623476028" lon="7.812750991433859">
        <ele>2174.96</ele>
        <time>2022-07-03T07:28:24Z</time>
      </trkpt>
      <trkpt lat="45.874196542426944" lon="7.812827015295625">
        <ele>2176.25</ele>
        <time>2022-07-03T07:28:36Z</time>
      </trkpt>
      <trkpt lat="45.874212216585875" lon="7.812889879569411">
        <ele>2177.5999999999999</ele>
        <time>2022-07-03T07:28:46Z</time>
      </trkpt>
      <trkpt lat="45.874264100566506" lon="7.812975458800793">
        <ele>2178.6599999999999</ele>
        <time>2022-07-03T07:28:59Z</time>
      </trkpt>
      <trkpt lat="45.874240547418594" lon="7.812988199293613">
        <ele>2179.2600000000002</ele>
        <time>2022-07-03T07:29:10Z</time>
      </trkpt>
      <trkpt lat="45.874293940141797" lon="7.813042430207133">
        <ele>2179.4099999999999</ele>
        <time>2022-07-03T07:29:21Z</time>
      </trkpt>
      <trkpt lat="45.874299639835954" lon="7.813047543168068">
        <ele>2179.8600000000001</ele>
        <time>2022-07-03T07:29:36Z</time>
      </trkpt>
      <trkpt lat="45.874293269589543" lon="7.81304226256907">
        <ele>2179.79</ele>
        <time>2022-07-03T07:29:53Z</time>
      </trkpt>
      <trkpt lat="45.874293353408575" lon="7.813044944778085">
        <ele>2179.98</ele>
        <time>2022-07-03T07:30:12Z</time>
      </trkpt>
      <trkpt lat="45.874292012304068" lon="7.81305399723351">
        <ele>2180.04</ele>
        <time>2022-07-03T07:30:30Z</time>
      </trkpt>
      <trkpt lat="45.87429259903729" lon="7.813067827373743">
        <ele>2179.5599999999999</ele>
        <time>2022-07-03T07:30:47Z</time>
      </trkpt>
      <trkpt lat="45.874285474419594" lon="7.813068581745029">
        <ele>2180.1300000000001</ele>
        <time>2022-07-03T07:31:09Z</time>
      </trkpt>
      <trkpt lat="45.874283127486706" lon="7.813057852908969">
        <ele>2179.4899999999998</ele>
        <time>2022-07-03T07:31:26Z</time>
      </trkpt>
      <trkpt lat="45.874292179942131" lon="7.813062211498618">
        <ele>2179.0700000000002</ele>
        <time>2022-07-03T07:31:45Z</time>
      </trkpt>
      <trkpt lat="45.874273236840963" lon="7.813079142943025">
        <ele>2180.04</ele>
        <time>2022-07-03T07:32:07Z</time>
      </trkpt>
      <trkpt lat="45.874275164678693" lon="7.813069671392441">
        <ele>2180.1399999999999</ele>
        <time>2022-07-03T07:32:21Z</time>
      </trkpt>
      <trkpt lat="45.874279523268342" lon="7.813066570088267">
        <ele>2180.0900000000001</ele>
        <time>2022-07-03T07:32:39Z</time>
      </trkpt>
      <trkpt lat="45.874295113608241" lon="7.813067156821489">
        <ele>2180.1700000000001</ele>
        <time>2022-07-03T07:32:52Z</time>
      </trkpt>
      <trkpt lat="45.874293185770512" lon="7.813064306974411">
        <ele>2179.4299999999998</ele>
        <time>2022-07-03T07:33:04Z</time>
      </trkpt>
      <trkpt lat="45.87429947219789" lon="7.81306866556406">
        <ele>2179.7199999999998</ele>
        <time>2022-07-03T07:33:22Z</time>
      </trkpt>
      <trkpt lat="45.874300310388207" lon="7.813062882050872">
        <ele>2179.6500000000001</ele>
        <time>2022-07-03T07:33:43Z</time>
      </trkpt>
      <trkpt lat="45.87430433370173" lon="7.813067156821489">
        <ele>2177.6599999999999</ele>
        <time>2022-07-03T07:33:51Z</time>
      </trkpt>
      <trkpt lat="45.87431020103395" lon="7.813064474612474">
        <ele>2179.79</ele>
        <time>2022-07-03T07:34:01Z</time>
      </trkpt>
      <trkpt lat="45.874304417520761" lon="7.813095487654209">
        <ele>2180.0500000000002</ele>
        <time>2022-07-03T07:34:23Z</time>
      </trkpt>
      <trkpt lat="45.874320091679692" lon="7.813190035521984">
        <ele>2181.6500000000001</ele>
        <time>2022-07-03T07:34:37Z</time>
      </trkpt>
      <trkpt lat="45.874302657321095" lon="7.813260275870562">
        <ele>2183.3400000000001</ele>
        <time>2022-07-03T07:34:50Z</time>
      </trkpt>
      <trkpt lat="45.874317660927773" lon="7.813363876193762">
        <ele>2185.3699999999999</ele>
        <time>2022-07-03T07:35:05Z</time>
      </trkpt>
      <trkpt lat="45.874337358400226" lon="7.813413413241506">
        <ele>2186.8899999999999</ele>
        <time>2022-07-03T07:35:19Z</time>
      </trkpt>
      <trkpt lat="45.874394103884697" lon="7.813475523144007">
        <ele>2188.3699999999999</ele>
        <time>2022-07-03T07:35:34Z</time>
      </trkpt>
      <trkpt lat="45.874411286786199" lon="7.813532184809446">
        <ele>2190.2399999999998</ele>
        <time>2022-07-03T07:35:45Z</time>
      </trkpt>
      <trkpt lat="45.874408688396215" lon="7.813626229763031">
        <ele>2192.1500000000001</ele>
        <time>2022-07-03T07:36:00Z</time>
      </trkpt>
      <trkpt lat="45.874421428889036" lon="7.813724968582392">
        <ele>2194.0799999999999</ele>
        <time>2022-07-03T07:36:13Z</time>
      </trkpt>
      <trkpt lat="45.874459315091372" lon="7.81385438516736">
        <ele>2196.3800000000001</ele>
        <time>2022-07-03T07:36:30Z</time>
      </trkpt>
      <trkpt lat="45.87449736893177" lon="7.813937617465854">
        <ele>2198.5999999999999</ele>
        <time>2022-07-03T07:36:43Z</time>
      </trkpt>
      <trkpt lat="45.874523939564824" lon="7.81403224915266">
        <ele>2200.6900000000001</ele>
        <time>2022-07-03T07:36:57Z</time>
      </trkpt>
      <trkpt lat="45.874481275677681" lon="7.814048929139972">
        <ele>2201.8000000000002</ele>
        <time>2022-07-03T07:37:07Z</time>
      </trkpt>
      <trkpt lat="45.874391254037619" lon="7.814003163948655">
        <ele>2203.9699999999998</ele>
        <time>2022-07-03T07:37:23Z</time>
      </trkpt>
      <trkpt lat="45.874319756403565" lon="7.813991764560342">
        <ele>2205.8499999999999</ele>
        <time>2022-07-03T07:37:35Z</time>
      </trkpt>
      <trkpt lat="45.87429360486567" lon="7.813953794538975">
        <ele>2206.1399999999999</ele>
        <time>2022-07-03T07:37:40Z</time>
      </trkpt>
      <trkpt lat="45.874227890744805" lon="7.813933677971363">
        <ele>2207.6500000000001</ele>
        <time>2022-07-03T07:37:52Z</time>
      </trkpt>
      <trkpt lat="45.874172821640968" lon="7.813971396535635">
        <ele>2209.6900000000001</ele>
        <time>2022-07-03T07:38:07Z</time>
      </trkpt>
      <trkpt lat="45.874119009822607" lon="7.814003331586719">
        <ele>2211.9099999999999</ele>
        <time>2022-07-03T07:38:20Z</time>
      </trkpt>
      <trkpt lat="45.874085146933794" lon="7.81399360857904">
        <ele>2212.0799999999999</ele>
        <time>2022-07-03T07:38:25Z</time>
      </trkpt>
      <trkpt lat="45.8740209415555" lon="7.814011881127954">
        <ele>2212.9299999999998</ele>
        <time>2022-07-03T07:38:36Z</time>
      </trkpt>
      <trkpt lat="45.874020522460341" lon="7.81407130882144">
        <ele>2214.9699999999998</ele>
        <time>2022-07-03T07:38:49Z</time>
      </trkpt>
      <trkpt lat="45.87406637147069" lon="7.814108775928617">
        <ele>2216.1700000000001</ele>
        <time>2022-07-03T07:39:01Z</time>
      </trkpt>
      <trkpt lat="45.874082297086716" lon="7.814179519191384">
        <ele>2218.46</ele>
        <time>2022-07-03T07:39:17Z</time>
      </trkpt>
      <trkpt lat="45.874134851619601" lon="7.814240707084537">
        <ele>2220.8699999999999</ele>
        <time>2022-07-03T07:39:30Z</time>
      </trkpt>
      <trkpt lat="45.874176677316427" lon="7.814304241910577">
        <ele>2222.4299999999998</ele>
        <time>2022-07-03T07:39:42Z</time>
      </trkpt>
      <trkpt lat="45.874192854389548" lon="7.814372889697552">
        <ele>2223.96</ele>
        <time>2022-07-03T07:39:55Z</time>
      </trkpt>
      <trkpt lat="45.874212719500065" lon="7.814414044842124">
        <ele>2224.4200000000001</ele>
        <time>2022-07-03T07:40:11Z</time>
      </trkpt>
      <trkpt lat="45.8741763420403" lon="7.814426198601723">
        <ele>2226.0700000000002</ele>
        <time>2022-07-03T07:40:22Z</time>
      </trkpt>
      <trkpt lat="45.874190675094724" lon="7.814545053988695">
        <ele>2227.8499999999999</ele>
        <time>2022-07-03T07:40:35Z</time>
      </trkpt>
      <trkpt lat="45.874185059219599" lon="7.814659718424082">
        <ele>2229.3200000000002</ele>
        <time>2022-07-03T07:40:48Z</time>
      </trkpt>
      <trkpt lat="45.874120015650988" lon="7.81467623077333">
        <ele>2230.73</ele>
        <time>2022-07-03T07:40:59Z</time>
      </trkpt>
      <trkpt lat="45.874042818322778" lon="7.814627280458808">
        <ele>2232.9699999999998</ele>
        <time>2022-07-03T07:41:12Z</time>
      </trkpt>
      <trkpt lat="45.87398917414248" lon="7.814609510824084">
        <ele>2233.79</ele>
        <time>2022-07-03T07:41:23Z</time>
      </trkpt>
      <trkpt lat="45.873918011784554" lon="7.814609929919243">
        <ele>2234.8000000000002</ele>
        <time>2022-07-03T07:41:35Z</time>
      </trkpt>
      <trkpt lat="45.873852549120784" lon="7.814626358449459">
        <ele>2236.3000000000002</ele>
        <time>2022-07-03T07:41:47Z</time>
      </trkpt>
      <trkpt lat="45.873820194974542" lon="7.814700957387686">
        <ele>2238.6599999999999</ele>
        <time>2022-07-03T07:42:00Z</time>
      </trkpt>
      <trkpt lat="45.873823966830969" lon="7.814785614609718">
        <ele>2240.5100000000002</ele>
        <time>2022-07-03T07:42:14Z</time>
      </trkpt>
      <trkpt lat="45.873868642374873" lon="7.814899776130915">
        <ele>2242.1700000000001</ele>
        <time>2022-07-03T07:42:27Z</time>
      </trkpt>
      <trkpt lat="45.873900577425957" lon="7.815058697015047">
        <ele>2243.75</ele>
        <time>2022-07-03T07:42:43Z</time>
      </trkpt>
      <trkpt lat="45.873868390917778" lon="7.815073281526566">
        <ele>2245.7199999999998</ele>
        <time>2022-07-03T07:42:55Z</time>
      </trkpt>
      <trkpt lat="45.873804269358516" lon="7.815041765570641">
        <ele>2247.2199999999998</ele>
        <time>2022-07-03T07:43:07Z</time>
      </trkpt>
      <trkpt lat="45.873756660148501" lon="7.815055930987001">
        <ele>2248.4400000000001</ele>
        <time>2022-07-03T07:43:18Z</time>
      </trkpt>
      <trkpt lat="45.873759677633643" lon="7.815152909606695">
        <ele>2249.79</ele>
        <time>2022-07-03T07:43:30Z</time>
      </trkpt>
      <trkpt lat="45.873767137527466" lon="7.815247708931565">
        <ele>2251.79</ele>
        <time>2022-07-03T07:43:43Z</time>
      </trkpt>
      <trkpt lat="45.873753558844328" lon="7.815336305648089">
        <ele>2253.29</ele>
        <time>2022-07-03T07:43:54Z</time>
      </trkpt>
      <trkpt lat="45.873734029009938" lon="7.815451556816697">
        <ele>2255.0799999999999</ele>
        <time>2022-07-03T07:44:07Z</time>
      </trkpt>
      <trkpt lat="45.87374241091311" lon="7.815539734438062">
        <ele>2257.0300000000002</ele>
        <time>2022-07-03T07:44:20Z</time>
      </trkpt>
      <trkpt lat="45.873728580772877" lon="7.815618105232716">
        <ele>2258.46</ele>
        <time>2022-07-03T07:44:32Z</time>
      </trkpt>
      <trkpt lat="45.873690275475383" lon="7.815705444663763">
        <ele>2260.5999999999999</ele>
        <time>2022-07-03T07:44:47Z</time>
      </trkpt>
      <trkpt lat="45.873640989884734" lon="7.815759759396315">
        <ele>2261.9400000000001</ele>
        <time>2022-07-03T07:44:57Z</time>
      </trkpt>
      <trkpt lat="45.873622801154852" lon="7.815821617841721">
        <ele>2263.1399999999999</ele>
        <time>2022-07-03T07:45:09Z</time>
      </trkpt>
      <trkpt lat="45.873643504455686" lon="7.815878698602319">
        <ele>2263.4400000000001</ele>
        <time>2022-07-03T07:45:15Z</time>
      </trkpt>
      <trkpt lat="45.873660938814282" lon="7.815989088267088">
        <ele>2264.25</ele>
        <time>2022-07-03T07:45:25Z</time>
      </trkpt>
      <trkpt lat="45.87367451749742" lon="7.816065112128854">
        <ele>2265.5</ele>
        <time>2022-07-03T07:45:38Z</time>
      </trkpt>
      <trkpt lat="45.873688850551844" lon="7.816120935603976">
        <ele>2265.7600000000002</ele>
        <time>2022-07-03T07:45:43Z</time>
      </trkpt>
      <trkpt lat="45.873738722875714" lon="7.816194025799632">
        <ele>2265.98</ele>
        <time>2022-07-03T07:45:50Z</time>
      </trkpt>
      <trkpt lat="45.873758168891072" lon="7.816339870914817">
        <ele>2266.5999999999999</ele>
        <time>2022-07-03T07:46:01Z</time>
      </trkpt>
      <trkpt lat="45.873779626563191" lon="7.816394856199622">
        <ele>2266.77</ele>
        <time>2022-07-03T07:46:05Z</time>
      </trkpt>
      <trkpt lat="45.873788259923458" lon="7.816406255587935">
        <ele>2266.8000000000002</ele>
        <time>2022-07-03T07:46:06Z</time>
      </trkpt>
      <trkpt lat="45.873853387311101" lon="7.816570373252034">
        <ele>2267.6599999999999</ele>
        <time>2022-07-03T07:46:19Z</time>
      </trkpt>
      <trkpt lat="45.873876018449664" lon="7.816720996052027">
        <ele>2268.75</ele>
        <time>2022-07-03T07:46:31Z</time>
      </trkpt>
      <trkpt lat="45.873914072290063" lon="7.816801210865378">
        <ele>2269.1999999999998</ele>
        <time>2022-07-03T07:46:38Z</time>
      </trkpt>
      <trkpt lat="45.873937206342816" lon="7.816816885024309">
        <ele>2269.27</ele>
        <time>2022-07-03T07:46:41Z</time>
      </trkpt>
      <trkpt lat="45.873947935178876" lon="7.816814873367548">
        <ele>2269.2800000000002</ele>
        <time>2022-07-03T07:46:42Z</time>
      </trkpt>
      <trkpt lat="45.87395841255784" lon="7.816814370453358">
        <ele>2269.3000000000002</ele>
        <time>2022-07-03T07:46:43Z</time>
      </trkpt>
      <trkpt lat="45.873967381194234" lon="7.816819651052356">
        <ele>2269.1599999999999</ele>
        <time>2022-07-03T07:46:44Z</time>
      </trkpt>
      <trkpt lat="45.874013565480709" lon="7.816848736256361">
        <ele>2269.9499999999998</ele>
        <time>2022-07-03T07:46:52Z</time>
      </trkpt>
      <trkpt lat="45.874023707583547" lon="7.816847311332822">
        <ele>2269.9299999999998</ele>
        <time>2022-07-03T07:46:53Z</time>
      </trkpt>
      <trkpt lat="45.874140802770853" lon="7.816873965784907">
        <ele>2271.3800000000001</ele>
        <time>2022-07-03T07:47:06Z</time>
      </trkpt>
      <trkpt lat="45.874233422800899" lon="7.816907493397594">
        <ele>2273.6700000000001</ele>
        <time>2022-07-03T07:47:19Z</time>
      </trkpt>
      <trkpt lat="45.874292179942131" lon="7.816942362114787">
        <ele>2274.4000000000001</ele>
        <time>2022-07-03T07:47:28Z</time>
      </trkpt>
      <trkpt lat="45.874358061701059" lon="7.817007657140493">
        <ele>2274.9499999999998</ele>
        <time>2022-07-03T07:47:39Z</time>
      </trkpt>
      <trkpt lat="45.874408269301057" lon="7.817038670182228">
        <ele>2275.6100000000001</ele>
        <time>2022-07-03T07:47:49Z</time>
      </trkpt>
      <trkpt lat="45.874449927359819" lon="7.817054009065032">
        <ele>2276.1399999999999</ele>
        <time>2022-07-03T07:48:01Z</time>
      </trkpt>
      <trkpt lat="45.874508181586862" lon="7.817053338512778">
        <ele>2278.8800000000001</ele>
        <time>2022-07-03T07:48:15Z</time>
      </trkpt>
      <trkpt lat="45.874589737504721" lon="7.817051745951176">
        <ele>2279.6700000000001</ele>
        <time>2022-07-03T07:48:26Z</time>
      </trkpt>
      <trkpt lat="45.874648913741112" lon="7.817029366269708">
        <ele>2280.7600000000002</ele>
        <time>2022-07-03T07:48:36Z</time>
      </trkpt>
      <trkpt lat="45.874720495194197" lon="7.817041436210275">
        <ele>2281.9200000000001</ele>
        <time>2022-07-03T07:48:45Z</time>
      </trkpt>
      <trkpt lat="45.874770116060972" lon="7.817091559991241">
        <ele>2284.1500000000001</ele>
        <time>2022-07-03T07:48:57Z</time>
      </trkpt>
      <trkpt lat="45.87476072832942" lon="7.817153753712773">
        <ele>2286.3699999999999</ele>
        <time>2022-07-03T07:49:09Z</time>
      </trkpt>
      <trkpt lat="45.874735917896032" lon="7.817220976576209">
        <ele>2288.0999999999999</ele>
        <time>2022-07-03T07:49:22Z</time>
      </trkpt>
      <trkpt lat="45.874736169353127" lon="7.817278308793902">
        <ele>2290.0599999999999</ele>
        <time>2022-07-03T07:49:34Z</time>
      </trkpt>
      <trkpt lat="45.874793753027916" lon="7.817325331270695">
        <ele>2291.6999999999998</ele>
        <time>2022-07-03T07:49:48Z</time>
      </trkpt>
      <trkpt lat="45.874876566231251" lon="7.817363468930125">
        <ele>2293.0700000000002</ele>
        <time>2022-07-03T07:50:01Z</time>
      </trkpt>
      <trkpt lat="45.87488729506731" lon="7.817415604367852">
        <ele>2294.8499999999999</ele>
        <time>2022-07-03T07:50:11Z</time>
      </trkpt>
      <trkpt lat="45.874863741919398" lon="7.817508224397898">
        <ele>2296.5</ele>
        <time>2022-07-03T07:50:24Z</time>
      </trkpt>
      <trkpt lat="45.874910010024905" lon="7.817608891054988">
        <ele>2298.4000000000001</ele>
        <time>2022-07-03T07:50:38Z</time>
      </trkpt>
      <trkpt lat="45.874901963397861" lon="7.817723136395216">
        <ele>2300.4299999999998</ele>
        <time>2022-07-03T07:50:53Z</time>
      </trkpt>
      <trkpt lat="45.874895257875323" lon="7.817842746153474">
        <ele>2302.3800000000001</ele>
        <time>2022-07-03T07:51:06Z</time>
      </trkpt>
      <trkpt lat="45.874957032501698" lon="7.817882727831602">
        <ele>2303.3800000000001</ele>
        <time>2022-07-03T07:51:17Z</time>
      </trkpt>
      <trkpt lat="45.87500112131238" lon="7.817983645945787">
        <ele>2305.1399999999999</ele>
        <time>2022-07-03T07:51:31Z</time>
      </trkpt>
      <trkpt lat="45.875067925080657" lon="7.818041229620576">
        <ele>2307.3800000000001</ele>
        <time>2022-07-03T07:51:45Z</time>
      </trkpt>
      <trkpt lat="45.87513254955411" lon="7.818012479692698">
        <ele>2309.0599999999999</ele>
        <time>2022-07-03T07:51:58Z</time>
      </trkpt>
      <trkpt lat="45.875218715518713" lon="7.818011557683349">
        <ele>2311.04</ele>
        <time>2022-07-03T07:52:11Z</time>
      </trkpt>
      <trkpt lat="45.875321310013533" lon="7.818041481077671">
        <ele>2313.4499999999998</ele>
        <time>2022-07-03T07:52:28Z</time>
      </trkpt>
      <trkpt lat="45.875334218144417" lon="7.818101663142443">
        <ele>2315.4200000000001</ele>
        <time>2022-07-03T07:52:41Z</time>
      </trkpt>
      <trkpt lat="45.875332709401846" lon="7.81811473891139">
        <ele>2315.3099999999999</ele>
        <time>2022-07-03T07:53:00Z</time>
      </trkpt>
      <trkpt lat="45.875334972515702" lon="7.818113565444946">
        <ele>2315.3899999999999</ele>
        <time>2022-07-03T07:53:25Z</time>
      </trkpt>
      <trkpt lat="45.87533438578248" lon="7.818102920427918">
        <ele>2315.52</ele>
        <time>2022-07-03T07:53:46Z</time>
      </trkpt>
      <trkpt lat="45.87531921453774" lon="7.818118259310722">
        <ele>2316.25</ele>
        <time>2022-07-03T07:54:16Z</time>
      </trkpt>
      <trkpt lat="45.87532508186996" lon="7.818129239603877">
        <ele>2316.2800000000002</ele>
        <time>2022-07-03T07:54:34Z</time>
      </trkpt>
      <trkpt lat="45.87532558478415" lon="7.818131670355797">
        <ele>2317.3000000000002</ele>
        <time>2022-07-03T07:54:42Z</time>
      </trkpt>
      <trkpt lat="45.875325668603182" lon="7.81813083216548">
        <ele>2316.4299999999998</ele>
        <time>2022-07-03T07:54:44Z</time>
      </trkpt>
      <trkpt lat="45.875318543985486" lon="7.818138962611556">
        <ele>2316.52</ele>
        <time>2022-07-03T07:55:05Z</time>
      </trkpt>
      <trkpt lat="45.875267749652267" lon="7.818214986473322">
        <ele>2318.6399999999999</ele>
        <time>2022-07-03T07:55:24Z</time>
      </trkpt>
      <trkpt lat="45.875200275331736" lon="7.81829260289669">
        <ele>2320.7399999999998</ele>
        <time>2022-07-03T07:55:41Z</time>
      </trkpt>
      <trkpt lat="45.875217458233237" lon="7.818336859345436">
        <ele>2322.79</ele>
        <time>2022-07-03T07:55:53Z</time>
      </trkpt>
      <trkpt lat="45.875198682770133" lon="7.818392515182495">
        <ele>2325.0300000000002</ele>
        <time>2022-07-03T07:56:08Z</time>
      </trkpt>
      <trkpt lat="45.875187199562788" lon="7.818455379456282">
        <ele>2327.29</ele>
        <time>2022-07-03T07:56:22Z</time>
      </trkpt>
      <trkpt lat="45.875128274783492" lon="7.818528050556779">
        <ele>2329.98</ele>
        <time>2022-07-03T07:56:39Z</time>
      </trkpt>
      <trkpt lat="45.875203125178814" lon="7.818552944809198">
        <ele>2332.3200000000002</ele>
        <time>2022-07-03T07:56:54Z</time>
      </trkpt>
      <trkpt lat="45.875241849571466" lon="7.818596279248595">
        <ele>2334.0999999999999</ele>
        <time>2022-07-03T07:57:07Z</time>
      </trkpt>
      <trkpt lat="45.875205304473639" lon="7.818640535697341">
        <ele>2336.1599999999999</ele>
        <time>2022-07-03T07:57:21Z</time>
      </trkpt>
      <trkpt lat="45.875225588679314" lon="7.818696526810527">
        <ele>2337.9699999999998</ele>
        <time>2022-07-03T07:57:34Z</time>
      </trkpt>
      <trkpt lat="45.875194491818547" lon="7.818757714703679">
        <ele>2340.3200000000002</ele>
        <time>2022-07-03T07:57:49Z</time>
      </trkpt>
      <trkpt lat="45.87514964863658" lon="7.818836588412523">
        <ele>2343.1399999999999</ele>
        <time>2022-07-03T07:58:08Z</time>
      </trkpt>
      <trkpt lat="45.87512768805027" lon="7.818899033591151">
        <ele>2346.21</ele>
        <time>2022-07-03T07:58:26Z</time>
      </trkpt>
      <trkpt lat="45.875206645578146" lon="7.818913031369448">
        <ele>2348.2800000000002</ele>
        <time>2022-07-03T07:58:40Z</time>
      </trkpt>
      <trkpt lat="45.875252997502685" lon="7.818938009440899">
        <ele>2349.8800000000001</ele>
        <time>2022-07-03T07:58:51Z</time>
      </trkpt>
      <trkpt lat="45.875273030251265" lon="7.819009171798825">
        <ele>2351.5700000000002</ele>
        <time>2022-07-03T07:59:03Z</time>
      </trkpt>
      <trkpt lat="45.875315023586154" lon="7.819079412147403">
        <ele>2354.71</ele>
        <time>2022-07-03T07:59:20Z</time>
      </trkpt>
      <trkpt lat="45.875368667766452" lon="7.819106904789805">
        <ele>2355.73</ele>
        <time>2022-07-03T07:59:31Z</time>
      </trkpt>
      <trkpt lat="45.875321896746755" lon="7.819169014692307">
        <ele>2357.4499999999998</ele>
        <time>2022-07-03T07:59:44Z</time>
      </trkpt>
      <trkpt lat="45.875267665833235" lon="7.819185946136713">
        <ele>2358.77</ele>
        <time>2022-07-03T07:59:57Z</time>
      </trkpt>
      <trkpt lat="45.875243777409196" lon="7.819253755733371">
        <ele>2360.9099999999999</ele>
        <time>2022-07-03T08:00:10Z</time>
      </trkpt>
      <trkpt lat="45.875232378020883" lon="7.819321313872933">
        <ele>2363.6999999999998</ele>
        <time>2022-07-03T08:00:29Z</time>
      </trkpt>
      <trkpt lat="45.875297840684652" lon="7.819375293329358">
        <ele>2366.0500000000002</ele>
        <time>2022-07-03T08:00:44Z</time>
      </trkpt>
      <trkpt lat="45.875306306406856" lon="7.819380490109325">
        <ele>2366.46</ele>
        <time>2022-07-03T08:00:57Z</time>
      </trkpt>
      <trkpt lat="45.875314772129059" lon="7.819375628605485">
        <ele>2366.8499999999999</ele>
        <time>2022-07-03T08:01:16Z</time>
      </trkpt>
      <trkpt lat="45.875316113233566" lon="7.819375041872263">
        <ele>2367.0900000000001</ele>
        <time>2022-07-03T08:01:35Z</time>
      </trkpt>
      <trkpt lat="45.875313263386488" lon="7.819377221167088">
        <ele>2367.5700000000002</ele>
        <time>2022-07-03T08:01:55Z</time>
      </trkpt>
      <trkpt lat="45.875313766300678" lon="7.81937051564455">
        <ele>2367.6300000000001</ele>
        <time>2022-07-03T08:02:16Z</time>
      </trkpt>
      <trkpt lat="45.875315610319376" lon="7.81937194056809">
        <ele>2367.6799999999998</ele>
        <time>2022-07-03T08:02:36Z</time>
      </trkpt>
      <trkpt lat="45.875313682481647" lon="7.819373365491629">
        <ele>2367.8699999999999</ele>
        <time>2022-07-03T08:03:04Z</time>
      </trkpt>
      <trkpt lat="45.875312760472298" lon="7.819375963881612">
        <ele>2368.1300000000001</ele>
        <time>2022-07-03T08:03:24Z</time>
      </trkpt>
      <trkpt lat="45.875336900353432" lon="7.819401025772095">
        <ele>2368.52</ele>
        <time>2022-07-03T08:03:43Z</time>
      </trkpt>
      <trkpt lat="45.875421473756433" lon="7.819414436817169">
        <ele>2370.5599999999999</ele>
        <time>2022-07-03T08:03:56Z</time>
      </trkpt>
      <trkpt lat="45.875440584495664" lon="7.819458693265915">
        <ele>2372.7199999999998</ele>
        <time>2022-07-03T08:04:11Z</time>
      </trkpt>
      <trkpt lat="45.875354502350092" lon="7.819529855623841">
        <ele>2374.4299999999998</ele>
        <time>2022-07-03T08:04:27Z</time>
      </trkpt>
      <trkpt lat="45.875298762694001" lon="7.819620212540031">
        <ele>2376.5500000000002</ele>
        <time>2022-07-03T08:04:41Z</time>
      </trkpt>
      <trkpt lat="45.875249896198511" lon="7.819719538092613">
        <ele>2378</ele>
        <time>2022-07-03T08:04:55Z</time>
      </trkpt>
      <trkpt lat="45.875258948653936" lon="7.819798998534679">
        <ele>2380.7399999999998</ele>
        <time>2022-07-03T08:05:14Z</time>
      </trkpt>
      <trkpt lat="45.875348383560777" lon="7.819809895008802">
        <ele>2382.4699999999998</ele>
        <time>2022-07-03T08:05:27Z</time>
      </trkpt>
      <trkpt lat="45.875431951135397" lon="7.819741917774081">
        <ele>2385.1500000000001</ele>
        <time>2022-07-03T08:05:43Z</time>
      </trkpt>
      <trkpt lat="45.875518787652254" lon="7.819713000208139">
        <ele>2388.1900000000001</ele>
        <time>2022-07-03T08:05:57Z</time>
      </trkpt>
      <trkpt lat="45.87556404992938" lon="7.819699253886938">
        <ele>2389.6900000000001</ele>
        <time>2022-07-03T08:06:09Z</time>
      </trkpt>
      <trkpt lat="45.875614676624537" lon="7.819671090692282">
        <ele>2391.1700000000001</ele>
        <time>2022-07-03T08:06:21Z</time>
      </trkpt>
      <trkpt lat="45.875671841204166" lon="7.819636892527342">
        <ele>2392.5300000000002</ele>
        <time>2022-07-03T08:06:35Z</time>
      </trkpt>
      <trkpt lat="45.875705955550075" lon="7.819630019366741">
        <ele>2393.25</ele>
        <time>2022-07-03T08:06:40Z</time>
      </trkpt>
      <trkpt lat="45.875740991905332" lon="7.819644687697291">
        <ele>2393.4899999999998</ele>
        <time>2022-07-03T08:06:48Z</time>
      </trkpt>
      <trkpt lat="45.875797653570771" lon="7.819642508402467">
        <ele>2395.4400000000001</ele>
        <time>2022-07-03T08:07:02Z</time>
      </trkpt>
      <trkpt lat="45.875866217538714" lon="7.819609316065908">
        <ele>2396.9000000000001</ele>
        <time>2022-07-03T08:07:15Z</time>
      </trkpt>
      <trkpt lat="45.875932602211833" lon="7.819647202268243">
        <ele>2399.02</ele>
        <time>2022-07-03T08:07:29Z</time>
      </trkpt>
      <trkpt lat="45.87599596939981" lon="7.81964217312634">
        <ele>2400.6799999999998</ele>
        <time>2022-07-03T08:07:44Z</time>
      </trkpt>
      <trkpt lat="45.87603653781116" lon="7.819588193669915">
        <ele>2402.3299999999999</ele>
        <time>2022-07-03T08:07:55Z</time>
      </trkpt>
      <trkpt lat="45.876108538359404" lon="7.819546032696962">
        <ele>2403.9000000000001</ele>
        <time>2022-07-03T08:08:08Z</time>
      </trkpt>
      <trkpt lat="45.876132510602474" lon="7.819604957476258">
        <ele>2405.77</ele>
        <time>2022-07-03T08:08:21Z</time>
      </trkpt>
      <trkpt lat="45.876098731532693" lon="7.819717777892947">
        <ele>2407.3000000000002</ele>
        <time>2022-07-03T08:08:37Z</time>
      </trkpt>
      <trkpt lat="45.87617626413703" lon="7.819688441231847">
        <ele>2409.1999999999998</ele>
        <time>2022-07-03T08:08:51Z</time>
      </trkpt>
      <trkpt lat="45.876194201409817" lon="7.819698667153716">
        <ele>2410.2600000000002</ele>
        <time>2022-07-03T08:09:05Z</time>
      </trkpt>
      <trkpt lat="45.876194955781102" lon="7.819703780114651">
        <ele>2410.5100000000002</ele>
        <time>2022-07-03T08:09:27Z</time>
      </trkpt>
      <trkpt lat="45.876196715980768" lon="7.81971107237041">
        <ele>2410.5599999999999</ele>
        <time>2022-07-03T08:09:51Z</time>
      </trkpt>
      <trkpt lat="45.876190261915326" lon="7.819710234180093">
        <ele>2410.8400000000001</ele>
        <time>2022-07-03T08:10:08Z</time>
      </trkpt>
      <trkpt lat="45.876197135075927" lon="7.81970227137208">
        <ele>2410.6199999999999</ele>
        <time>2022-07-03T08:10:35Z</time>
      </trkpt>
      <trkpt lat="45.876203421503305" lon="7.819710401818156">
        <ele>2410.04</ele>
        <time>2022-07-03T08:10:46Z</time>
      </trkpt>
      <trkpt lat="45.876195542514324" lon="7.819742755964398">
        <ele>2410.4000000000001</ele>
        <time>2022-07-03T08:11:09Z</time>
      </trkpt>
      <trkpt lat="45.876210210844874" lon="7.819753820076585">
        <ele>2410.6900000000001</ele>
        <time>2022-07-03T08:11:36Z</time>
      </trkpt>
      <trkpt lat="45.876203924417496" lon="7.819738648831844">
        <ele>2410.6799999999998</ele>
        <time>2022-07-03T08:11:51Z</time>
      </trkpt>
      <trkpt lat="45.876194285228848" lon="7.819743761792779">
        <ele>2410.5999999999999</ele>
        <time>2022-07-03T08:12:16Z</time>
      </trkpt>
      <trkpt lat="45.876187328249216" lon="7.819734960794449">
        <ele>2411.2600000000002</ele>
        <time>2022-07-03T08:12:31Z</time>
      </trkpt>
      <trkpt lat="45.876205265522003" lon="7.81969984062016">
        <ele>2411.1700000000001</ele>
        <time>2022-07-03T08:12:50Z</time>
      </trkpt>
      <trkpt lat="45.876245833933353" lon="7.819661535322666">
        <ele>2412.46</ele>
        <time>2022-07-03T08:13:05Z</time>
      </trkpt>
      <trkpt lat="45.876237619668245" lon="7.819654326885939">
        <ele>2412.4400000000001</ele>
        <time>2022-07-03T08:13:14Z</time>
      </trkpt>
      <trkpt lat="45.876235188916326" lon="7.819654159247875">
        <ele>2412.5700000000002</ele>
        <time>2022-07-03T08:13:40Z</time>
      </trkpt>
      <trkpt lat="45.876246755942702" lon="7.819648291915655">
        <ele>2413.02</ele>
        <time>2022-07-03T08:13:57Z</time>
      </trkpt>
      <trkpt lat="45.87624566629529" lon="7.819687183946371">
        <ele>2413.29</ele>
        <time>2022-07-03T08:14:13Z</time>
      </trkpt>
      <trkpt lat="45.87621046230197" lon="7.819793047383428">
        <ele>2414.46</ele>
        <time>2022-07-03T08:14:24Z</time>
      </trkpt>
      <trkpt lat="45.876195626333356" lon="7.819847362115979">
        <ele>2415.6500000000001</ele>
        <time>2022-07-03T08:14:31Z</time>
      </trkpt>
      <trkpt lat="45.876184226945043" lon="7.819908801466227">
        <ele>2417.1599999999999</ele>
        <time>2022-07-03T08:14:39Z</time>
      </trkpt>
      <trkpt lat="45.87618213146925" lon="7.820036374032497">
        <ele>2419.3600000000001</ele>
        <time>2022-07-03T08:14:55Z</time>
      </trkpt>
      <trkpt lat="45.876140054315329" lon="7.820128574967384">
        <ele>2421.6500000000001</ele>
        <time>2022-07-03T08:15:10Z</time>
      </trkpt>
      <trkpt lat="45.876101413741708" lon="7.82015866599977">
        <ele>2422.3800000000001</ele>
        <time>2022-07-03T08:15:17Z</time>
      </trkpt>
      <trkpt lat="45.876081129536033" lon="7.820244999602437">
        <ele>2423.6199999999999</ele>
        <time>2022-07-03T08:15:27Z</time>
      </trkpt>
      <trkpt lat="45.876033939421177" lon="7.820327058434486">
        <ele>2425.6700000000001</ele>
        <time>2022-07-03T08:15:41Z</time>
      </trkpt>
      <trkpt lat="45.876026060432196" lon="7.820423031225801">
        <ele>2427.7199999999998</ele>
        <time>2022-07-03T08:15:56Z</time>
      </trkpt>
      <trkpt lat="45.876029999926686" lon="7.820469969883561">
        <ele>2428.8000000000002</ele>
        <time>2022-07-03T08:16:03Z</time>
      </trkpt>
      <trkpt lat="45.875963615253568" lon="7.820534007623792">
        <ele>2430.5700000000002</ele>
        <time>2022-07-03T08:16:17Z</time>
      </trkpt>
      <trkpt lat="45.875945342704654" lon="7.820702735334635">
        <ele>2432.0300000000002</ele>
        <time>2022-07-03T08:16:32Z</time>
      </trkpt>
      <trkpt lat="45.875933021306992" lon="7.82078261487186">
        <ele>2432.77</ele>
        <time>2022-07-03T08:16:40Z</time>
      </trkpt>
      <trkpt lat="45.875846855342388" lon="7.820817148312926">
        <ele>2434.0799999999999</ele>
        <time>2022-07-03T08:16:52Z</time>
      </trkpt>
      <trkpt lat="45.875751050189137" lon="7.820856040343642">
        <ele>2435.6799999999998</ele>
        <time>2022-07-03T08:17:06Z</time>
      </trkpt>
      <trkpt lat="45.875713918358088" lon="7.820976404473186">
        <ele>2436.8400000000001</ele>
        <time>2022-07-03T08:17:18Z</time>
      </trkpt>
      <trkpt lat="45.875701094046235" lon="7.821024432778359">
        <ele>2438.1700000000001</ele>
        <time>2022-07-03T08:17:24Z</time>
      </trkpt>
      <trkpt lat="45.875660190358758" lon="7.821103977039456">
        <ele>2440.2399999999998</ele>
        <time>2022-07-03T08:17:35Z</time>
      </trkpt>
      <trkpt lat="45.875574359670281" lon="7.821176983416081">
        <ele>2442.4499999999998</ele>
        <time>2022-07-03T08:17:51Z</time>
      </trkpt>
      <trkpt lat="45.875508142635226" lon="7.821254348382354">
        <ele>2444.8099999999999</ele>
        <time>2022-07-03T08:18:06Z</time>
      </trkpt>
      <trkpt lat="45.875459192320704" lon="7.821334395557642">
        <ele>2446.6799999999998</ele>
        <time>2022-07-03T08:18:20Z</time>
      </trkpt>
      <trkpt lat="45.875386353582144" lon="7.821457106620073">
        <ele>2449.3299999999999</ele>
        <time>2022-07-03T08:18:38Z</time>
      </trkpt>
      <trkpt lat="45.87532265111804" lon="7.821544194594026">
        <ele>2452.0799999999999</ele>
        <time>2022-07-03T08:18:57Z</time>
      </trkpt>
      <trkpt lat="45.875256434082985" lon="7.821649806573987">
        <ele>2454.79</ele>
        <time>2022-07-03T08:19:13Z</time>
      </trkpt>
      <trkpt lat="45.875177476555109" lon="7.821708815172315">
        <ele>2456.7800000000002</ele>
        <time>2022-07-03T08:19:31Z</time>
      </trkpt>
      <trkpt lat="45.875074546784163" lon="7.821753993630409">
        <ele>2459.46</ele>
        <time>2022-07-03T08:19:48Z</time>
      </trkpt>
      <trkpt lat="45.875011011958122" lon="7.821799172088504">
        <ele>2460.7800000000002</ele>
        <time>2022-07-03T08:20:01Z</time>
      </trkpt>
      <trkpt lat="45.874952506273985" lon="7.82185516320169">
        <ele>2462.4499999999998</ele>
        <time>2022-07-03T08:20:14Z</time>
      </trkpt>
      <trkpt lat="45.874946638941765" lon="7.82188349403441">
        <ele>2464.2399999999998</ele>
        <time>2022-07-03T08:20:29Z</time>
      </trkpt>
      <trkpt lat="45.875030290335417" lon="7.821902604773641">
        <ele>2464.5900000000001</ele>
        <time>2022-07-03T08:20:45Z</time>
      </trkpt>
      <trkpt lat="45.875095836818218" lon="7.821903107687831">
        <ele>2466.0900000000001</ele>
        <time>2022-07-03T08:20:55Z</time>
      </trkpt>
      <trkpt lat="45.875135734677315" lon="7.821942334994674">
        <ele>2468.5300000000002</ele>
        <time>2022-07-03T08:21:07Z</time>
      </trkpt>
      <trkpt lat="45.875116121023893" lon="7.821966810151935">
        <ele>2469.1900000000001</ele>
        <time>2022-07-03T08:21:24Z</time>
      </trkpt>
      <trkpt lat="45.875114277005196" lon="7.821973515674472">
        <ele>2469.3000000000002</ele>
        <time>2022-07-03T08:21:42Z</time>
      </trkpt>
      <trkpt lat="45.875112013891339" lon="7.821970079094172">
        <ele>2469.0100000000002</ele>
        <time>2022-07-03T08:22:12Z</time>
      </trkpt>
      <trkpt lat="45.875122239813209" lon="7.821964044123888">
        <ele>2469.8800000000001</ele>
        <time>2022-07-03T08:22:27Z</time>
      </trkpt>
      <trkpt lat="45.875055771321058" lon="7.822027076035738">
        <ele>2470.6100000000001</ele>
        <time>2022-07-03T08:22:40Z</time>
      </trkpt>
      <trkpt lat="45.87499919347465" lon="7.82209362834692">
        <ele>2471.6700000000001</ele>
        <time>2022-07-03T08:22:49Z</time>
      </trkpt>
      <trkpt lat="45.874952841550112" lon="7.822193456813693">
        <ele>2473.5300000000002</ele>
        <time>2022-07-03T08:23:02Z</time>
      </trkpt>
      <trkpt lat="45.874864999204874" lon="7.822324046865106">
        <ele>2475.8400000000001</ele>
        <time>2022-07-03T08:23:18Z</time>
      </trkpt>
      <trkpt lat="45.874831471592188" lon="7.822412308305502">
        <ele>2478.04</ele>
        <time>2022-07-03T08:23:30Z</time>
      </trkpt>
      <trkpt lat="45.874818228185177" lon="7.822502832859755">
        <ele>2479.75</ele>
        <time>2022-07-03T08:23:43Z</time>
      </trkpt>
      <trkpt lat="45.874910764396191" lon="7.822502497583628">
        <ele>2481.9299999999998</ele>
        <time>2022-07-03T08:23:59Z</time>
      </trkpt>
      <trkpt lat="45.874982681125402" lon="7.822467712685466">
        <ele>2483.6399999999999</ele>
        <time>2022-07-03T08:24:12Z</time>
      </trkpt>
      <trkpt lat="45.875054765492678" lon="7.822446841746569">
        <ele>2486.0100000000002</ele>
        <time>2022-07-03T08:24:25Z</time>
      </trkpt>
      <trkpt lat="45.875062476843596" lon="7.822537031024694">
        <ele>2488.5900000000001</ele>
        <time>2022-07-03T08:24:39Z</time>
      </trkpt>
      <trkpt lat="45.875078402459621" lon="7.822677930817008">
        <ele>2490.7600000000002</ele>
        <time>2022-07-03T08:24:56Z</time>
      </trkpt>
      <trkpt lat="45.875126346945763" lon="7.822743644937873">
        <ele>2492.46</ele>
        <time>2022-07-03T08:25:09Z</time>
      </trkpt>
      <trkpt lat="45.875198012217879" lon="7.822793265804648">
        <ele>2494.8499999999999</ele>
        <time>2022-07-03T08:25:25Z</time>
      </trkpt>
      <trkpt lat="45.875204633921385" lon="7.822919329628348">
        <ele>2496.71</ele>
        <time>2022-07-03T08:25:42Z</time>
      </trkpt>
      <trkpt lat="45.87512475438416" lon="7.822987725958228">
        <ele>2498.8000000000002</ele>
        <time>2022-07-03T08:25:55Z</time>
      </trkpt>
      <trkpt lat="45.875075804069638" lon="7.823035670444369">
        <ele>2500.5799999999999</ele>
        <time>2022-07-03T08:26:08Z</time>
      </trkpt>
      <trkpt lat="45.87511352263391" lon="7.823094259947538">
        <ele>2502.6999999999998</ele>
        <time>2022-07-03T08:26:22Z</time>
      </trkpt>
      <trkpt lat="45.875066164880991" lon="7.823170702904463">
        <ele>2504.79</ele>
        <time>2022-07-03T08:26:36Z</time>
      </trkpt>
      <trkpt lat="45.875141685828567" lon="7.823176989331842">
        <ele>2506.3299999999999</ele>
        <time>2022-07-03T08:26:51Z</time>
      </trkpt>
      <trkpt lat="45.875236568972468" lon="7.823220323771238">
        <ele>2508.3099999999999</ele>
        <time>2022-07-03T08:27:06Z</time>
      </trkpt>
      <trkpt lat="45.875272778794169" lon="7.823253348469734">
        <ele>2508.79</ele>
        <time>2022-07-03T08:27:18Z</time>
      </trkpt>
      <trkpt lat="45.875255009159446" lon="7.823286959901452">
        <ele>2509.3299999999999</ele>
        <time>2022-07-03T08:27:31Z</time>
      </trkpt>
      <trkpt lat="45.875269090756774" lon="7.823276817798615">
        <ele>2509.3099999999999</ele>
        <time>2022-07-03T08:27:36Z</time>
      </trkpt>
      <trkpt lat="45.875306557863951" lon="7.823277404531837">
        <ele>2509.3899999999999</ele>
        <time>2022-07-03T08:27:40Z</time>
      </trkpt>
      <trkpt lat="45.875322818756104" lon="7.823354601860046">
        <ele>2510.98</ele>
        <time>2022-07-03T08:27:51Z</time>
      </trkpt>
      <trkpt lat="45.875237323343754" lon="7.823405899107456">
        <ele>2512.75</ele>
        <time>2022-07-03T08:28:04Z</time>
      </trkpt>
      <trkpt lat="45.875178566202521" lon="7.823504889383912">
        <ele>2514.5</ele>
        <time>2022-07-03T08:28:18Z</time>
      </trkpt>
      <trkpt lat="45.875203628093004" lon="7.823573620989919">
        <ele>2515.9699999999998</ele>
        <time>2022-07-03T08:28:30Z</time>
      </trkpt>
      <trkpt lat="45.875293482095003" lon="7.823558701202273">
        <ele>2517.8699999999999</ele>
        <time>2022-07-03T08:28:44Z</time>
      </trkpt>
      <trkpt lat="45.875385766848922" lon="7.823537327349186">
        <ele>2519.48</ele>
        <time>2022-07-03T08:28:58Z</time>
      </trkpt>
      <trkpt lat="45.875483835116029" lon="7.823583846911788">
        <ele>2521.3899999999999</ele>
        <time>2022-07-03T08:29:13Z</time>
      </trkpt>
      <trkpt lat="45.875477967783809" lon="7.823633719235659">
        <ele>2522.96</ele>
        <time>2022-07-03T08:29:26Z</time>
      </trkpt>
      <trkpt lat="45.875406470149755" lon="7.82367386855185">
        <ele>2525.4099999999999</ele>
        <time>2022-07-03T08:29:38Z</time>
      </trkpt>
      <trkpt lat="45.875332625582814" lon="7.82379163429141">
        <ele>2527.9000000000001</ele>
        <time>2022-07-03T08:29:53Z</time>
      </trkpt>
      <trkpt lat="45.875295577570796" lon="7.823900934308767">
        <ele>2530.0900000000001</ele>
        <time>2022-07-03T08:30:07Z</time>
      </trkpt>
      <trkpt lat="45.875266073271632" lon="7.82400512136519">
        <ele>2531.77</ele>
        <time>2022-07-03T08:30:22Z</time>
      </trkpt>
      <trkpt lat="45.875262636691332" lon="7.824076870456338">
        <ele>2533.6999999999998</ele>
        <time>2022-07-03T08:30:34Z</time>
      </trkpt>
      <trkpt lat="45.875249560922384" lon="7.824182650074363">
        <ele>2535.8699999999999</ele>
        <time>2022-07-03T08:30:50Z</time>
      </trkpt>
      <trkpt lat="45.875211423262954" lon="7.824283484369516">
        <ele>2538.0300000000002</ele>
        <time>2022-07-03T08:31:05Z</time>
      </trkpt>
      <trkpt lat="45.875136237591505" lon="7.824394628405571">
        <ele>2540.5100000000002</ele>
        <time>2022-07-03T08:31:23Z</time>
      </trkpt>
      <trkpt lat="45.875115785747766" lon="7.824457827955484">
        <ele>2542.04</ele>
        <time>2022-07-03T08:31:37Z</time>
      </trkpt>
      <trkpt lat="45.875157527625561" lon="7.824464282020927">
        <ele>2543.3699999999999</ele>
        <time>2022-07-03T08:31:47Z</time>
      </trkpt>
      <trkpt lat="45.875214692205191" lon="7.824448943138123">
        <ele>2545.0300000000002</ele>
        <time>2022-07-03T08:32:01Z</time>
      </trkpt>
      <trkpt lat="45.875251572579145" lon="7.824431844055653">
        <ele>2544.9299999999998</ele>
        <time>2022-07-03T08:32:14Z</time>
      </trkpt>
      <trkpt lat="45.875343019142747" lon="7.824429916217923">
        <ele>2547.0999999999999</ele>
        <time>2022-07-03T08:32:28Z</time>
      </trkpt>
      <trkpt lat="45.875412505120039" lon="7.824451122432947">
        <ele>2549.1599999999999</ele>
        <time>2022-07-03T08:32:43Z</time>
      </trkpt>
      <trkpt lat="45.87541501969099" lon="7.824451038613915">
        <ele>2549.4899999999998</ele>
        <time>2022-07-03T08:32:58Z</time>
      </trkpt>
      <trkpt lat="45.875412924215198" lon="7.824534690007567">
        <ele>2551.23</ele>
        <time>2022-07-03T08:33:10Z</time>
      </trkpt>
      <trkpt lat="45.87534511461854" lon="7.824633847922087">
        <ele>2553.3499999999999</ele>
        <time>2022-07-03T08:33:25Z</time>
      </trkpt>
      <trkpt lat="45.875309826806188" lon="7.824768293648958">
        <ele>2555.4499999999998</ele>
        <time>2022-07-03T08:33:41Z</time>
      </trkpt>
      <trkpt lat="45.875328099355102" lon="7.824890166521072">
        <ele>2557.4499999999998</ele>
        <time>2022-07-03T08:33:57Z</time>
      </trkpt>
      <trkpt lat="45.875427173450589" lon="7.824912965297699">
        <ele>2559.6599999999999</ele>
        <time>2022-07-03T08:34:14Z</time>
      </trkpt>
      <trkpt lat="45.87542918510735" lon="7.824937859550118">
        <ele>2560.3600000000001</ele>
        <time>2022-07-03T08:34:25Z</time>
      </trkpt>
      <trkpt lat="45.875430190935731" lon="7.824943056330085">
        <ele>2560.2600000000002</ele>
        <time>2022-07-03T08:34:42Z</time>
      </trkpt>
      <trkpt lat="45.87541158311069" lon="7.824944565072656">
        <ele>2559.5700000000002</ele>
        <time>2022-07-03T08:35:04Z</time>
      </trkpt>
      <trkpt lat="45.875406134873629" lon="7.824946828186512">
        <ele>2559.9899999999998</ele>
        <time>2022-07-03T08:35:20Z</time>
      </trkpt>
      <trkpt lat="45.87542231194675" lon="7.824936015531421">
        <ele>2559.5799999999999</ele>
        <time>2022-07-03T08:35:57Z</time>
      </trkpt>
      <trkpt lat="45.875430526211858" lon="7.824932914227247">
        <ele>2559.8299999999999</ele>
        <time>2022-07-03T08:36:47Z</time>
      </trkpt>
      <trkpt lat="45.875432621687651" lon="7.824933668598533">
        <ele>2560.1700000000001</ele>
        <time>2022-07-03T08:37:34Z</time>
      </trkpt>
      <trkpt lat="45.875432789325714" lon="7.824928807094693">
        <ele>2561.4899999999998</ele>
        <time>2022-07-03T08:37:47Z</time>
      </trkpt>
      <trkpt lat="45.875440165400505" lon="7.824945235624909">
        <ele>2562.3000000000002</ele>
        <time>2022-07-03T08:38:05Z</time>
      </trkpt>
      <trkpt lat="45.875440333038568" lon="7.824945906177163">
        <ele>2562.4899999999998</ele>
        <time>2022-07-03T08:38:06Z</time>
      </trkpt>
      <trkpt lat="45.875435136258602" lon="7.824934842064977">
        <ele>2562.0900000000001</ele>
        <time>2022-07-03T08:38:22Z</time>
      </trkpt>
      <trkpt lat="45.875452822074294" lon="7.824923861771822">
        <ele>2561.5900000000001</ele>
        <time>2022-07-03T08:38:42Z</time>
      </trkpt>
      <trkpt lat="45.875523900613189" lon="7.824898045510054">
        <ele>2562.3600000000001</ele>
        <time>2022-07-03T08:38:50Z</time>
      </trkpt>
      <trkpt lat="45.875618113204837" lon="7.824895028024912">
        <ele>2563.1900000000001</ele>
        <time>2022-07-03T08:39:01Z</time>
      </trkpt>
      <trkpt lat="45.875647198408842" lon="7.824892094358802">
        <ele>2564.0799999999999</ele>
        <time>2022-07-03T08:39:15Z</time>
      </trkpt>
      <trkpt lat="45.875671841204166" lon="7.824862757697702">
        <ele>2563.98</ele>
        <time>2022-07-03T08:39:25Z</time>
      </trkpt>
      <trkpt lat="45.875673182308674" lon="7.824861500412226">
        <ele>2563.9299999999998</ele>
        <time>2022-07-03T08:39:40Z</time>
      </trkpt>
      <trkpt lat="45.875674355775118" lon="7.824859824031591">
        <ele>2563.9000000000001</ele>
        <time>2022-07-03T08:39:58Z</time>
      </trkpt>
      <trkpt lat="45.875668236985803" lon="7.824861248955131">
        <ele>2563.3200000000002</ele>
        <time>2022-07-03T08:40:22Z</time>
      </trkpt>
      <trkpt lat="45.8756666444242" lon="7.82486661337316">
        <ele>2563.4099999999999</ele>
        <time>2022-07-03T08:40:39Z</time>
      </trkpt>
      <trkpt lat="45.875676702708006" lon="7.824879018589854">
        <ele>2563.3400000000001</ele>
        <time>2022-07-03T08:41:11Z</time>
      </trkpt>
      <trkpt lat="45.875678546726704" lon="7.82488564029336">
        <ele>2563.48</ele>
        <time>2022-07-03T08:41:35Z</time>
      </trkpt>
      <trkpt lat="45.87567787617445" lon="7.824898799881339">
        <ele>2563.3899999999999</ele>
        <time>2022-07-03T08:42:04Z</time>
      </trkpt>
      <trkpt lat="45.875682653859258" lon="7.824907014146447">
        <ele>2563.4899999999998</ele>
        <time>2022-07-03T08:42:19Z</time>
      </trkpt>
      <trkpt lat="45.875694388523698" lon="7.824891088530421">
        <ele>2564.0799999999999</ele>
        <time>2022-07-03T08:42:36Z</time>
      </trkpt>
      <trkpt lat="45.875699333846569" lon="7.824885975569487">
        <ele>2564.1100000000001</ele>
        <time>2022-07-03T08:42:54Z</time>
      </trkpt>
      <trkpt lat="45.875696651637554" lon="7.824880359694362">
        <ele>2564.04</ele>
        <time>2022-07-03T08:43:16Z</time>
      </trkpt>
      <trkpt lat="45.875727329403162" lon="7.824879102408886">
        <ele>2564.3800000000001</ele>
        <time>2022-07-03T08:43:36Z</time>
      </trkpt>
      <trkpt lat="45.875709308311343" lon="7.824880192056298">
        <ele>2564.3699999999999</ele>
        <time>2022-07-03T08:44:04Z</time>
      </trkpt>
      <trkpt lat="45.875721294432878" lon="7.824892094358802">
        <ele>2564.3899999999999</ele>
        <time>2022-07-03T08:44:28Z</time>
      </trkpt>
      <trkpt lat="45.875714588910341" lon="7.824891926720738">
        <ele>2560.8699999999999</ele>
        <time>2022-07-03T08:44:50Z</time>
      </trkpt>
      <trkpt lat="45.875715175643563" lon="7.824891926720738">
        <ele>2561.77</ele>
        <time>2022-07-03T08:44:51Z</time>
      </trkpt>
      <trkpt lat="45.875715343281627" lon="7.824891759082675">
        <ele>2564.8099999999999</ele>
        <time>2022-07-03T08:44:54Z</time>
      </trkpt>
      <trkpt lat="45.875715594738722" lon="7.82489201053977">
        <ele>2566.73</ele>
        <time>2022-07-03T08:45:00Z</time>
      </trkpt>
      <trkpt lat="45.8757150080055" lon="7.824891088530421">
        <ele>2564.3099999999999</ele>
        <time>2022-07-03T08:45:03Z</time>
      </trkpt>
      <trkpt lat="45.875696316361427" lon="7.824884550645948">
        <ele>2564.5900000000001</ele>
        <time>2022-07-03T08:45:30Z</time>
      </trkpt>
      <trkpt lat="45.875703608617187" lon="7.824881616979837">
        <ele>2564.7600000000002</ele>
        <time>2022-07-03T08:45:51Z</time>
      </trkpt>
      <trkpt lat="45.87569790892303" lon="7.824877593666315">
        <ele>2563.5599999999999</ele>
        <time>2022-07-03T08:46:02Z</time>
      </trkpt>
      <trkpt lat="45.875696986913681" lon="7.824888825416565">
        <ele>2563.5599999999999</ele>
        <time>2022-07-03T08:46:30Z</time>
      </trkpt>
      <trkpt lat="45.875705620273948" lon="7.824885807931423">
        <ele>2563.5599999999999</ele>
        <time>2022-07-03T08:46:55Z</time>
      </trkpt>
      <trkpt lat="45.875698579475284" lon="7.824875079095364">
        <ele>2563.4899999999998</ele>
        <time>2022-07-03T08:47:20Z</time>
      </trkpt>
      <trkpt lat="45.875670332461596" lon="7.824876755475998">
        <ele>2563.4400000000001</ele>
        <time>2022-07-03T08:47:42Z</time>
      </trkpt>
      <trkpt lat="45.875700591132045" lon="7.824876168742776">
        <ele>2563.3800000000001</ele>
        <time>2022-07-03T08:48:06Z</time>
      </trkpt>
      <trkpt lat="45.875688018277287" lon="7.824882119894028">
        <ele>2563.54</ele>
        <time>2022-07-03T08:48:41Z</time>
      </trkpt>
      <trkpt lat="45.875696819275618" lon="7.824875330552459">
        <ele>2564.8899999999999</ele>
        <time>2022-07-03T08:48:59Z</time>
      </trkpt>
      <trkpt lat="45.875696400180459" lon="7.824876336380839">
        <ele>2565.2600000000002</ele>
        <time>2022-07-03T08:49:14Z</time>
      </trkpt>
      <trkpt lat="45.875700088217854" lon="7.824886227026582">
        <ele>2565.29</ele>
        <time>2022-07-03T08:49:32Z</time>
      </trkpt>
      <trkpt lat="45.875704111531377" lon="7.824883041903377">
        <ele>2565.1500000000001</ele>
        <time>2022-07-03T08:49:54Z</time>
      </trkpt>
      <trkpt lat="45.875700507313013" lon="7.824883628636599">
        <ele>2565.6700000000001</ele>
        <time>2022-07-03T08:50:19Z</time>
      </trkpt>
      <trkpt lat="45.875702938064933" lon="7.824872313067317">
        <ele>2565.1900000000001</ele>
        <time>2022-07-03T08:50:39Z</time>
      </trkpt>
      <trkpt lat="45.875767478719354" lon="7.824853118509054">
        <ele>2566.1300000000001</ele>
        <time>2022-07-03T08:50:50Z</time>
      </trkpt>
      <trkpt lat="45.875835539773107" lon="7.824885221198201">
        <ele>2568.4000000000001</ele>
        <time>2022-07-03T08:51:03Z</time>
      </trkpt>
      <trkpt lat="45.875923801213503" lon="7.824866697192192">
        <ele>2569.98</ele>
        <time>2022-07-03T08:51:18Z</time>
      </trkpt>
      <trkpt lat="45.87601063773036" lon="7.824851525947452">
        <ele>2572.0500000000002</ele>
        <time>2022-07-03T08:51:32Z</time>
      </trkpt>
      <trkpt lat="45.876102251932025" lon="7.824833337217569">
        <ele>2574.98</ele>
        <time>2022-07-03T08:51:48Z</time>
      </trkpt>
      <trkpt lat="45.876104515045881" lon="7.824842054396868">
        <ele>2575.1399999999999</ele>
        <time>2022-07-03T08:51:49Z</time>
      </trkpt>
      <trkpt lat="45.876041147857904" lon="7.824914054945111">
        <ele>2576.9099999999999</ele>
        <time>2022-07-03T08:52:00Z</time>
      </trkpt>
      <trkpt lat="45.875984486192465" lon="7.825076412409544">
        <ele>2579.5</ele>
        <time>2022-07-03T08:52:22Z</time>
      </trkpt>
      <trkpt lat="45.875973422080278" lon="7.82515243627131">
        <ele>2580.8400000000001</ele>
        <time>2022-07-03T08:52:32Z</time>
      </trkpt>
      <trkpt lat="45.87595590390265" lon="7.825285121798515">
        <ele>2582.6999999999998</ele>
        <time>2022-07-03T08:52:48Z</time>
      </trkpt>
      <trkpt lat="45.875919526442885" lon="7.825437253341079">
        <ele>2585.7199999999998</ele>
        <time>2022-07-03T08:53:07Z</time>
      </trkpt>
      <trkpt lat="45.87591290473938" lon="7.825518138706684">
        <ele>2586.9699999999998</ele>
        <time>2022-07-03T08:53:20Z</time>
      </trkpt>
      <trkpt lat="45.875939475372434" lon="7.825464494526386">
        <ele>2588.02</ele>
        <time>2022-07-03T08:53:27Z</time>
      </trkpt>
      <trkpt lat="45.876005860045552" lon="7.825389644131064">
        <ele>2589.6599999999999</ele>
        <time>2022-07-03T08:53:38Z</time>
      </trkpt>
      <trkpt lat="45.876051960512996" lon="7.825338430702686">
        <ele>2590.9200000000001</ele>
        <time>2022-07-03T08:53:48Z</time>
      </trkpt>
      <trkpt lat="45.876118093729019" lon="7.825326612219214">
        <ele>2592.5900000000001</ele>
        <time>2022-07-03T08:54:00Z</time>
      </trkpt>
      <trkpt lat="45.876093450933695" lon="7.825389644131064">
        <ele>2594.5</ele>
        <time>2022-07-03T08:54:13Z</time>
      </trkpt>
      <trkpt lat="45.876128738746047" lon="7.82543289475143">
        <ele>2596.4699999999998</ele>
        <time>2022-07-03T08:54:26Z</time>
      </trkpt>
      <trkpt lat="45.876079788431525" lon="7.825529202818871">
        <ele>2598.4000000000001</ele>
        <time>2022-07-03T08:54:41Z</time>
      </trkpt>
      <trkpt lat="45.876057324931026" lon="7.825662642717362">
        <ele>2601.1599999999999</ele>
        <time>2022-07-03T08:55:00Z</time>
      </trkpt>
      <trkpt lat="45.876073250547051" lon="7.82575685530901">
        <ele>2603.0100000000002</ele>
        <time>2022-07-03T08:55:13Z</time>
      </trkpt>
      <trkpt lat="45.876109460368752" lon="7.825836902484298">
        <ele>2605.1100000000001</ele>
        <time>2022-07-03T08:55:27Z</time>
      </trkpt>
      <trkpt lat="45.876109292730689" lon="7.825972773134708">
        <ele>2607.3299999999999</ele>
        <time>2022-07-03T08:55:43Z</time>
      </trkpt>
      <trkpt lat="45.87611130438745" lon="7.826052233576775">
        <ele>2608.48</ele>
        <time>2022-07-03T08:55:55Z</time>
      </trkpt>
      <trkpt lat="45.876110969111323" lon="7.8261096496135">
        <ele>2609.6399999999999</ele>
        <time>2022-07-03T08:56:10Z</time>
      </trkpt>
      <trkpt lat="45.876155477017164" lon="7.826290531083942">
        <ele>2611.98</ele>
        <time>2022-07-03T08:56:30Z</time>
      </trkpt>
      <trkpt lat="45.876194452866912" lon="7.826392455026507">
        <ele>2614.4099999999999</ele>
        <time>2022-07-03T08:56:46Z</time>
      </trkpt>
      <trkpt lat="45.876262513920665" lon="7.826431766152382">
        <ele>2617.46</ele>
        <time>2022-07-03T08:57:02Z</time>
      </trkpt>
      <trkpt lat="45.876289838925004" lon="7.826499491930008">
        <ele>2619.4899999999998</ele>
        <time>2022-07-03T08:57:14Z</time>
      </trkpt>
      <trkpt lat="45.876321941614151" lon="7.826601164415479">
        <ele>2621.5</ele>
        <time>2022-07-03T08:57:28Z</time>
      </trkpt>
      <trkpt lat="45.876323031261563" lon="7.826717086136341">
        <ele>2623.0700000000002</ele>
        <time>2022-07-03T08:57:41Z</time>
      </trkpt>
      <trkpt lat="45.876334263011813" lon="7.826876845210791">
        <ele>2625.46</ele>
        <time>2022-07-03T08:57:59Z</time>
      </trkpt>
      <trkpt lat="45.876356223598123" lon="7.82700676470995">
        <ele>2627.2800000000002</ele>
        <time>2022-07-03T08:58:14Z</time>
      </trkpt>
      <trkpt lat="45.876420261338353" lon="7.827150095254183">
        <ele>2629.4200000000001</ele>
        <time>2022-07-03T08:58:31Z</time>
      </trkpt>
      <trkpt lat="45.876483460888267" lon="7.827245481312275">
        <ele>2631.52</ele>
        <time>2022-07-03T08:58:46Z</time>
      </trkpt>
      <trkpt lat="45.876550851389766" lon="7.827297700569034">
        <ele>2632.6599999999999</ele>
        <time>2022-07-03T08:58:57Z</time>
      </trkpt>
      <trkpt lat="45.876634251326323" lon="7.827368276193738">
        <ele>2634.3299999999999</ele>
        <time>2022-07-03T08:59:12Z</time>
      </trkpt>
      <trkpt lat="45.876717735081911" lon="7.827415047213435">
        <ele>2636.48</ele>
        <time>2022-07-03T08:59:28Z</time>
      </trkpt>
      <trkpt lat="45.876806750893593" lon="7.82749006524682">
        <ele>2638.4699999999998</ele>
        <time>2022-07-03T08:59:45Z</time>
      </trkpt>
      <trkpt lat="45.876817898824811" lon="7.827587630599737">
        <ele>2640.6599999999999</ele>
        <time>2022-07-03T08:59:57Z</time>
      </trkpt>
      <trkpt lat="45.876811444759369" lon="7.827705228701234">
        <ele>2641.9699999999998</ele>
        <time>2022-07-03T09:00:11Z</time>
      </trkpt>
      <trkpt lat="45.876807672902942" lon="7.827845374122262">
        <ele>2643.3299999999999</ele>
        <time>2022-07-03T09:00:28Z</time>
      </trkpt>
      <trkpt lat="45.876796105876565" lon="7.827857863157988">
        <ele>2643.5599999999999</ele>
        <time>2022-07-03T09:00:53Z</time>
      </trkpt>
      <trkpt lat="45.876772971823812" lon="7.827939838171005">
        <ele>2644.9299999999998</ele>
        <time>2022-07-03T09:01:05Z</time>
      </trkpt>
      <trkpt lat="45.876682279631495" lon="7.828043857589364">
        <ele>2647.6900000000001</ele>
        <time>2022-07-03T09:01:23Z</time>
      </trkpt>
      <trkpt lat="45.876622432842851" lon="7.82813111320138">
        <ele>2649.8800000000001</ele>
        <time>2022-07-03T09:01:37Z</time>
      </trkpt>
      <trkpt lat="45.876532830297947" lon="7.828159527853131">
        <ele>2651.1300000000001</ele>
        <time>2022-07-03T09:01:51Z</time>
      </trkpt>
      <trkpt lat="45.87646409869194" lon="7.828227840363979">
        <ele>2653.52</ele>
        <time>2022-07-03T09:02:04Z</time>
      </trkpt>
      <trkpt lat="45.876409616321325" lon="7.828323980793357">
        <ele>2655.25</ele>
        <time>2022-07-03T09:02:18Z</time>
      </trkpt>
      <trkpt lat="45.876358905807137" lon="7.82843311317265">
        <ele>2657.48</ele>
        <time>2022-07-03T09:02:34Z</time>
      </trkpt>
      <trkpt lat="45.876388745382428" lon="7.8285669721663">
        <ele>2659.2199999999998</ele>
        <time>2022-07-03T09:02:51Z</time>
      </trkpt>
      <trkpt lat="45.876448592171073" lon="7.828707536682487">
        <ele>2660.73</ele>
        <time>2022-07-03T09:03:07Z</time>
      </trkpt>
      <trkpt lat="45.876506343483925" lon="7.82877953723073">
        <ele>2661.9099999999999</ele>
        <time>2022-07-03T09:03:17Z</time>
      </trkpt>
      <trkpt lat="45.876563675701618" lon="7.828886155039072">
        <ele>2663.46</ele>
        <time>2022-07-03T09:03:31Z</time>
      </trkpt>
      <trkpt lat="45.876596784219146" lon="7.829009452834725">
        <ele>2665.3299999999999</ele>
        <time>2022-07-03T09:03:44Z</time>
      </trkpt>
      <trkpt lat="45.876525873318315" lon="7.829108694568276">
        <ele>2667.23</ele>
        <time>2022-07-03T09:03:57Z</time>
      </trkpt>
      <trkpt lat="45.876460410654545" lon="7.829161500558257">
        <ele>2668.79</ele>
        <time>2022-07-03T09:04:10Z</time>
      </trkpt>
      <trkpt lat="45.876391427591443" lon="7.829262418672442">
        <ele>2670.9499999999998</ele>
        <time>2022-07-03T09:04:25Z</time>
      </trkpt>
      <trkpt lat="45.876343566924334" lon="7.829411281272769">
        <ele>2672.4400000000001</ele>
        <time>2022-07-03T09:04:40Z</time>
      </trkpt>
      <trkpt lat="45.876323450356722" lon="7.829564921557903">
        <ele>2674.7600000000002</ele>
        <time>2022-07-03T09:04:56Z</time>
      </trkpt>
      <trkpt lat="45.876337615773082" lon="7.829649746417999">
        <ele>2676.6599999999999</ele>
        <time>2022-07-03T09:05:09Z</time>
      </trkpt>
      <trkpt lat="45.876385644078255" lon="7.829724345356226">
        <ele>2678.6900000000001</ele>
        <time>2022-07-03T09:05:24Z</time>
      </trkpt>
      <trkpt lat="45.876465942710638" lon="7.829749407246709">
        <ele>2680.5</ele>
        <time>2022-07-03T09:05:38Z</time>
      </trkpt>
      <trkpt lat="45.876507265493274" lon="7.829830124974251">
        <ele>2681.1300000000001</ele>
        <time>2022-07-03T09:05:50Z</time>
      </trkpt>
      <trkpt lat="45.876533165574074" lon="7.829910842701793">
        <ele>2682.25</ele>
        <time>2022-07-03T09:06:06Z</time>
      </trkpt>
      <trkpt lat="45.876565603539348" lon="7.830005474388599">
        <ele>2683.6500000000001</ele>
        <time>2022-07-03T09:06:21Z</time>
      </trkpt>
      <trkpt lat="45.87658479809761" lon="7.830183422192931">
        <ele>2686.71</ele>
        <time>2022-07-03T09:06:39Z</time>
      </trkpt>
      <trkpt lat="45.876650344580412" lon="7.830327842384577">
        <ele>2689.1999999999998</ele>
        <time>2022-07-03T09:06:57Z</time>
      </trkpt>
      <trkpt lat="45.876694433391094" lon="7.830490032210946">
        <ele>2690.0700000000002</ele>
        <time>2022-07-03T09:07:11Z</time>
      </trkpt>
      <trkpt lat="45.876717567443848" lon="7.830659849569202">
        <ele>2692.21</ele>
        <time>2022-07-03T09:07:28Z</time>
      </trkpt>
      <trkpt lat="45.876778336241841" lon="7.830781219527125">
        <ele>2693.7600000000002</ele>
        <time>2022-07-03T09:07:43Z</time>
      </trkpt>
      <trkpt lat="45.876851342618465" lon="7.830934775993228">
        <ele>2695.48</ele>
        <time>2022-07-03T09:08:00Z</time>
      </trkpt>
      <trkpt lat="45.876854108646512" lon="7.830948857590556">
        <ele>2695.4200000000001</ele>
        <time>2022-07-03T09:08:01Z</time>
      </trkpt>
      <trkpt lat="45.876904400065541" lon="7.831128565594554">
        <ele>2696.8099999999999</ele>
        <time>2022-07-03T09:08:17Z</time>
      </trkpt>
      <trkpt lat="45.876934574916959" lon="7.831219676882029">
        <ele>2697.5900000000001</ele>
        <time>2022-07-03T09:08:25Z</time>
      </trkpt>
      <trkpt lat="45.877023926004767" lon="7.83141715452075">
        <ele>2699.4499999999998</ele>
        <time>2022-07-03T09:08:43Z</time>
      </trkpt>
      <trkpt lat="45.877096680924296" lon="7.831591414287686">
        <ele>2701.1900000000001</ele>
        <time>2022-07-03T09:09:00Z</time>
      </trkpt>
      <trkpt lat="45.877155270427465" lon="7.831777911633253">
        <ele>2703.0700000000002</ele>
        <time>2022-07-03T09:09:18Z</time>
      </trkpt>
      <trkpt lat="45.877233054488897" lon="7.831924427300692">
        <ele>2704.8200000000002</ele>
        <time>2022-07-03T09:09:34Z</time>
      </trkpt>
      <trkpt lat="45.877308994531631" lon="7.832092233002186">
        <ele>2706.8000000000002</ele>
        <time>2022-07-03T09:09:51Z</time>
      </trkpt>
      <trkpt lat="45.877393987029791" lon="7.832244364544749">
        <ele>2708.1599999999999</ele>
        <time>2022-07-03T09:10:08Z</time>
      </trkpt>
      <trkpt lat="45.877477470785379" lon="7.832392305135727">
        <ele>2710.04</ele>
        <time>2022-07-03T09:10:26Z</time>
      </trkpt>
      <trkpt lat="45.877511501312256" lon="7.832524571567774">
        <ele>2711.5500000000002</ele>
        <time>2022-07-03T09:10:41Z</time>
      </trkpt>
      <trkpt lat="45.877588950097561" lon="7.832632195204496">
        <ele>2713.5100000000002</ele>
        <time>2022-07-03T09:10:57Z</time>
      </trkpt>
      <trkpt lat="45.877695064991713" lon="7.83270763233304">
        <ele>2715.5100000000002</ele>
        <time>2022-07-03T09:11:14Z</time>
      </trkpt>
      <trkpt lat="45.877769747748971" lon="7.832804778590798">
        <ele>2717.77</ele>
        <time>2022-07-03T09:11:30Z</time>
      </trkpt>
      <trkpt lat="45.877803945913911" lon="7.832925980910659">
        <ele>2719.3000000000002</ele>
        <time>2022-07-03T09:11:45Z</time>
      </trkpt>
      <trkpt lat="45.877852980047464" lon="7.833006950095296">
        <ele>2721.9200000000001</ele>
        <time>2022-07-03T09:12:00Z</time>
      </trkpt>
      <trkpt lat="45.877888519316912" lon="7.833063779398799">
        <ele>2724.27</ele>
        <time>2022-07-03T09:12:15Z</time>
      </trkpt>
      <trkpt lat="45.877890530973673" lon="7.833081297576428">
        <ele>2724.6599999999999</ele>
        <time>2022-07-03T09:12:28Z</time>
      </trkpt>
      <trkpt lat="45.877873096615076" lon="7.833101665601134">
        <ele>2724.4000000000001</ele>
        <time>2022-07-03T09:12:43Z</time>
      </trkpt>
      <trkpt lat="45.877876784652472" lon="7.833107030019164">
        <ele>2724.1500000000001</ele>
        <time>2022-07-03T09:12:58Z</time>
      </trkpt>
      <trkpt lat="45.877881478518248" lon="7.833104766905308">
        <ele>2725.4000000000001</ele>
        <time>2022-07-03T09:13:07Z</time>
      </trkpt>
      <trkpt lat="45.877874437719584" lon="7.833102252334356">
        <ele>2724.9699999999998</ele>
        <time>2022-07-03T09:13:27Z</time>
      </trkpt>
      <trkpt lat="45.877882232889533" lon="7.833111388608813">
        <ele>2725.3800000000001</ele>
        <time>2022-07-03T09:13:50Z</time>
      </trkpt>
      <trkpt lat="45.877884663641453" lon="7.833109460771084">
        <ele>2725.3400000000001</ele>
        <time>2022-07-03T09:14:09Z</time>
      </trkpt>
      <trkpt lat="45.87788206525147" lon="7.833111640065908">
        <ele>2725.71</ele>
        <time>2022-07-03T09:14:28Z</time>
      </trkpt>
      <trkpt lat="45.877877287566662" lon="7.833148520439863">
        <ele>2726.0999999999999</ele>
        <time>2022-07-03T09:14:39Z</time>
      </trkpt>
      <trkpt lat="45.877877371385694" lon="7.833245079964399">
        <ele>2727.8000000000002</ele>
        <time>2022-07-03T09:14:51Z</time>
      </trkpt>
      <trkpt lat="45.877904277294874" lon="7.833395032212138">
        <ele>2730.23</ele>
        <time>2022-07-03T09:15:07Z</time>
      </trkpt>
      <trkpt lat="45.877914922311902" lon="7.833506930619478">
        <ele>2732.5100000000002</ele>
        <time>2022-07-03T09:15:21Z</time>
      </trkpt>
      <trkpt lat="45.877955742180347" lon="7.833554791286588">
        <ele>2735.1500000000001</ele>
        <time>2022-07-03T09:15:37Z</time>
      </trkpt>
      <trkpt lat="45.878012655302882" lon="7.833626288920641">
        <ele>2737.3099999999999</ele>
        <time>2022-07-03T09:15:52Z</time>
      </trkpt>
      <trkpt lat="45.878005111590028" lon="7.83371664583683">
        <ele>2739.3699999999999</ele>
        <time>2022-07-03T09:16:06Z</time>
      </trkpt>
      <trkpt lat="45.878041991963983" lon="7.8338339086622">
        <ele>2741.5500000000002</ele>
        <time>2022-07-03T09:16:22Z</time>
      </trkpt>
      <trkpt lat="45.878097899258137" lon="7.833834663033485">
        <ele>2743.1900000000001</ele>
        <time>2022-07-03T09:16:34Z</time>
      </trkpt>
      <trkpt lat="45.878132684156299" lon="7.833893168717623">
        <ele>2745.2199999999998</ele>
        <time>2022-07-03T09:16:47Z</time>
      </trkpt>
      <trkpt lat="45.878152716904879" lon="7.833960894495249">
        <ele>2746.8299999999999</ele>
        <time>2022-07-03T09:16:59Z</time>
      </trkpt>
      <trkpt lat="45.878207115456462" lon="7.83403373323381">
        <ele>2748.3099999999999</ele>
        <time>2022-07-03T09:17:12Z</time>
      </trkpt>
      <trkpt lat="45.87821482680738" lon="7.834108751267195">
        <ele>2749.8400000000001</ele>
        <time>2022-07-03T09:17:24Z</time>
      </trkpt>
      <trkpt lat="45.878248186782002" lon="7.834169520065188">
        <ele>2752.5</ele>
        <time>2022-07-03T09:17:40Z</time>
      </trkpt>
      <trkpt lat="45.878258412703872" lon="7.834222577512264">
        <ele>2755.29</ele>
        <time>2022-07-03T09:17:56Z</time>
      </trkpt>
      <trkpt lat="45.878270650282502" lon="7.834268845617771">
        <ele>2757.79</ele>
        <time>2022-07-03T09:18:10Z</time>
      </trkpt>
      <trkpt lat="45.878271404653788" lon="7.834316873922944">
        <ele>2759.7600000000002</ele>
        <time>2022-07-03T09:18:23Z</time>
      </trkpt>
      <trkpt lat="45.878238379955292" lon="7.834375211969018">
        <ele>2762.04</ele>
        <time>2022-07-03T09:18:38Z</time>
      </trkpt>
      <trkpt lat="45.878251791000366" lon="7.834443524479866">
        <ele>2764.29</ele>
        <time>2022-07-03T09:18:54Z</time>
      </trkpt>
      <trkpt lat="45.878252210095525" lon="7.834450313821435">
        <ele>2763.9699999999998</ele>
        <time>2022-07-03T09:19:07Z</time>
      </trkpt>
      <trkpt lat="45.878253132104874" lon="7.834454504773021">
        <ele>2764.0599999999999</ele>
        <time>2022-07-03T09:19:34Z</time>
      </trkpt>
      <trkpt lat="45.878257239237428" lon="7.834454504773021">
        <ele>2764.5500000000002</ele>
        <time>2022-07-03T09:19:45Z</time>
      </trkpt>
      <trkpt lat="45.878270901739597" lon="7.834463054314256">
        <ele>2764.9200000000001</ele>
        <time>2022-07-03T09:19:57Z</time>
      </trkpt>
      <trkpt lat="45.878288084641099" lon="7.834488116204739">
        <ele>2765.98</ele>
        <time>2022-07-03T09:20:08Z</time>
      </trkpt>
      <trkpt lat="45.878360085189342" lon="7.834531534463167">
        <ele>2768.6399999999999</ele>
        <time>2022-07-03T09:20:24Z</time>
      </trkpt>
      <trkpt lat="45.878390092402697" lon="7.834600182250142">
        <ele>2771.02</ele>
        <time>2022-07-03T09:20:37Z</time>
      </trkpt>
      <trkpt lat="45.87843376211822" lon="7.834664052352309">
        <ele>2773.1799999999998</ele>
        <time>2022-07-03T09:20:51Z</time>
      </trkpt>
      <trkpt lat="45.878412807360291" lon="7.834731442853808">
        <ele>2775.1999999999998</ele>
        <time>2022-07-03T09:21:04Z</time>
      </trkpt>
      <trkpt lat="45.878427140414715" lon="7.834826409816742">
        <ele>2778.0100000000002</ele>
        <time>2022-07-03T09:21:22Z</time>
      </trkpt>
      <trkpt lat="45.878448262810707" lon="7.834910396486521">
        <ele>2780.4899999999998</ele>
        <time>2022-07-03T09:21:39Z</time>
      </trkpt>
      <trkpt lat="45.878479862585664" lon="7.835007794201374">
        <ele>2782.98</ele>
        <time>2022-07-03T09:21:56Z</time>
      </trkpt>
      <trkpt lat="45.878480868414044" lon="7.835131343454123">
        <ele>2785.0799999999999</ele>
        <time>2022-07-03T09:22:12Z</time>
      </trkpt>
      <trkpt lat="45.878520766273141" lon="7.835276266559959">
        <ele>2788.3699999999999</ele>
        <time>2022-07-03T09:22:32Z</time>
      </trkpt>
      <trkpt lat="45.878533171489835" lon="7.83541607670486">
        <ele>2790.4299999999998</ele>
        <time>2022-07-03T09:22:49Z</time>
      </trkpt>
      <trkpt lat="45.878576841205359" lon="7.835501488298178">
        <ele>2792.29</ele>
        <time>2022-07-03T09:23:03Z</time>
      </trkpt>
      <trkpt lat="45.878617996349931" lon="7.835621852427721">
        <ele>2793.9499999999998</ele>
        <time>2022-07-03T09:23:20Z</time>
      </trkpt>
      <trkpt lat="45.878609698265791" lon="7.835638197138906">
        <ele>2794.5999999999999</ele>
        <time>2022-07-03T09:23:36Z</time>
      </trkpt>
      <trkpt lat="45.878620762377977" lon="7.835649009793997">
        <ele>2794.75</ele>
        <time>2022-07-03T09:23:56Z</time>
      </trkpt>
      <trkpt lat="45.878640543669462" lon="7.835717322304845">
        <ele>2795.6999999999998</ele>
        <time>2022-07-03T09:24:11Z</time>
      </trkpt>
      <trkpt lat="45.878639873117208" lon="7.835732912644744">
        <ele>2795.9699999999998</ele>
        <time>2022-07-03T09:24:28Z</time>
      </trkpt>
      <trkpt lat="45.878652445971966" lon="7.835802901536226">
        <ele>2796.5500000000002</ele>
        <time>2022-07-03T09:24:41Z</time>
      </trkpt>
      <trkpt lat="45.87871371768415" lon="7.835837015882134">
        <ele>2799.0599999999999</ele>
        <time>2022-07-03T09:24:55Z</time>
      </trkpt>
      <trkpt lat="45.878752106800675" lon="7.83588320016861">
        <ele>2802.0900000000001</ele>
        <time>2022-07-03T09:25:08Z</time>
      </trkpt>
      <trkpt lat="45.878782952204347" lon="7.835947154089809">
        <ele>2804.0799999999999</ele>
        <time>2022-07-03T09:25:22Z</time>
      </trkpt>
      <trkpt lat="45.878810863941908" lon="7.836033990606666">
        <ele>2805.7399999999998</ele>
        <time>2022-07-03T09:25:36Z</time>
      </trkpt>
      <trkpt lat="45.878837769851089" lon="7.836098112165928">
        <ele>2807.4200000000001</ele>
        <time>2022-07-03T09:25:50Z</time>
      </trkpt>
      <trkpt lat="45.87887842208147" lon="7.836138596758246">
        <ele>2808.5900000000001</ele>
        <time>2022-07-03T09:26:02Z</time>
      </trkpt>
      <trkpt lat="45.878900466486812" lon="7.836157958954573">
        <ele>2809.54</ele>
        <time>2022-07-03T09:26:16Z</time>
      </trkpt>
      <trkpt lat="45.878907674923539" lon="7.836245046928525">
        <ele>2812.0799999999999</ele>
        <time>2022-07-03T09:26:30Z</time>
      </trkpt>
      <trkpt lat="45.878933742642403" lon="7.836348731070757">
        <ele>2813.6199999999999</ele>
        <time>2022-07-03T09:26:45Z</time>
      </trkpt>
      <trkpt lat="45.878946064040065" lon="7.836454678326845">
        <ele>2815.1300000000001</ele>
        <time>2022-07-03T09:26:59Z</time>
      </trkpt>
      <trkpt lat="45.87895997799933" lon="7.836503963917494">
        <ele>2815.4400000000001</ele>
        <time>2022-07-03T09:27:18Z</time>
      </trkpt>
      <trkpt lat="45.878961402922869" lon="7.836579317227006">
        <ele>2818.1199999999999</ele>
        <time>2022-07-03T09:27:32Z</time>
      </trkpt>
      <trkpt lat="45.878958888351917" lon="7.836616029962897">
        <ele>2819.8499999999999</ele>
        <time>2022-07-03T09:27:43Z</time>
      </trkpt>
      <trkpt lat="45.87898881174624" lon="7.83662399277091">
        <ele>2820.8699999999999</ele>
        <time>2022-07-03T09:27:56Z</time>
      </trkpt>
      <trkpt lat="45.879015633836389" lon="7.836689371615648">
        <ele>2822.21</ele>
        <time>2022-07-03T09:28:09Z</time>
      </trkpt>
      <trkpt lat="45.8789805136621" lon="7.836709152907133">
        <ele>2823.6700000000001</ele>
        <time>2022-07-03T09:28:18Z</time>
      </trkpt>
      <trkpt lat="45.879010856151581" lon="7.836777130141854">
        <ele>2825.6700000000001</ele>
        <time>2022-07-03T09:28:31Z</time>
      </trkpt>
      <trkpt lat="45.878953021019697" lon="7.836837060749531">
        <ele>2828.4099999999999</ele>
        <time>2022-07-03T09:28:46Z</time>
      </trkpt>
      <trkpt lat="45.878965510055423" lon="7.836859859526157">
        <ele>2828.3099999999999</ele>
        <time>2022-07-03T09:29:02Z</time>
      </trkpt>
      <trkpt lat="45.878948830068111" lon="7.836973099038005">
        <ele>2830.4299999999998</ele>
        <time>2022-07-03T09:29:17Z</time>
      </trkpt>
      <trkpt lat="45.878942711278796" lon="7.83699681982398">
        <ele>2830.73</ele>
        <time>2022-07-03T09:29:20Z</time>
      </trkpt>
      <trkpt lat="45.878892168402672" lon="7.837015092372894">
        <ele>2831.0300000000002</ele>
        <time>2022-07-03T09:29:29Z</time>
      </trkpt>
      <trkpt lat="45.878886384889483" lon="7.83709404990077">
        <ele>2833.71</ele>
        <time>2022-07-03T09:29:45Z</time>
      </trkpt>
      <trkpt lat="45.878874734044075" lon="7.837155740708113">
        <ele>2835.4099999999999</ele>
        <time>2022-07-03T09:29:59Z</time>
      </trkpt>
      <trkpt lat="45.878914967179298" lon="7.837215084582567">
        <ele>2837.29</ele>
        <time>2022-07-03T09:30:15Z</time>
      </trkpt>
      <trkpt lat="45.878906082361937" lon="7.83726017922163">
        <ele>2838.8499999999999</ele>
        <time>2022-07-03T09:30:26Z</time>
      </trkpt>
      <trkpt lat="45.878874650225043" lon="7.837291527539492">
        <ele>2840.8000000000002</ele>
        <time>2022-07-03T09:30:39Z</time>
      </trkpt>
      <trkpt lat="45.878823436796665" lon="7.837339388206601">
        <ele>2842.9200000000001</ele>
        <time>2022-07-03T09:30:55Z</time>
      </trkpt>
      <trkpt lat="45.878868531435728" lon="7.837378531694412">
        <ele>2844.54</ele>
        <time>2022-07-03T09:31:11Z</time>
      </trkpt>
      <trkpt lat="45.878933826461434" lon="7.837406108155847">
        <ele>2846.9200000000001</ele>
        <time>2022-07-03T09:31:26Z</time>
      </trkpt>
      <trkpt lat="45.878979004919529" lon="7.837446508929133">
        <ele>2849.0999999999999</ele>
        <time>2022-07-03T09:31:40Z</time>
      </trkpt>
      <trkpt lat="45.879017226397991" lon="7.837475510314107">
        <ele>2851.1100000000001</ele>
        <time>2022-07-03T09:31:53Z</time>
      </trkpt>
      <trkpt lat="45.879031307995319" lon="7.837488502264023">
        <ele>2851.6199999999999</ele>
        <time>2022-07-03T09:32:08Z</time>
      </trkpt>
      <trkpt lat="45.879032062366605" lon="7.837504679337144">
        <ele>2851.21</ele>
        <time>2022-07-03T09:32:26Z</time>
      </trkpt>
      <trkpt lat="45.879027955234051" lon="7.837507864460349">
        <ele>2851.5300000000002</ele>
        <time>2022-07-03T09:32:47Z</time>
      </trkpt>
      <trkpt lat="45.878997361287475" lon="7.837568130344153">
        <ele>2852.8200000000002</ele>
        <time>2022-07-03T09:33:01Z</time>
      </trkpt>
      <trkpt lat="45.878996104001999" lon="7.837626468390226">
        <ele>2855.04</ele>
        <time>2022-07-03T09:33:14Z</time>
      </trkpt>
      <trkpt lat="45.878979843109846" lon="7.837657397612929">
        <ele>2857.04</ele>
        <time>2022-07-03T09:33:28Z</time>
      </trkpt>
      <trkpt lat="45.878931479528546" lon="7.837680447846651">
        <ele>2859.6300000000001</ele>
        <time>2022-07-03T09:33:46Z</time>
      </trkpt>
      <trkpt lat="45.878915973007679" lon="7.837699726223946">
        <ele>2860.9299999999998</ele>
        <time>2022-07-03T09:33:59Z</time>
      </trkpt>
      <trkpt lat="45.878901975229383" lon="7.837736271321774">
        <ele>2863.7800000000002</ele>
        <time>2022-07-03T09:34:15Z</time>
      </trkpt>
      <trkpt lat="45.878918152302504" lon="7.837760578840971">
        <ele>2865.6900000000001</ele>
        <time>2022-07-03T09:34:27Z</time>
      </trkpt>
      <trkpt lat="45.878898706287146" lon="7.837771307677031">
        <ele>2866.8400000000001</ele>
        <time>2022-07-03T09:34:39Z</time>
      </trkpt>
      <trkpt lat="45.87884807959199" lon="7.837835596874356">
        <ele>2868.5599999999999</ele>
        <time>2022-07-03T09:34:53Z</time>
      </trkpt>
      <trkpt lat="45.878796447068453" lon="7.837883122265339">
        <ele>2870.4299999999998</ele>
        <time>2022-07-03T09:35:07Z</time>
      </trkpt>
      <trkpt lat="45.878784041851759" lon="7.837926037609577">
        <ele>2872.3899999999999</ele>
        <time>2022-07-03T09:35:22Z</time>
      </trkpt>
      <trkpt lat="45.878776498138905" lon="7.837963923811913">
        <ele>2873.8800000000001</ele>
        <time>2022-07-03T09:35:35Z</time>
      </trkpt>
      <trkpt lat="45.878729810938239" lon="7.837953111156821">
        <ele>2874.9400000000001</ele>
        <time>2022-07-03T09:35:48Z</time>
      </trkpt>
      <trkpt lat="45.87873375043273" lon="7.837948584929109">
        <ele>2875.3400000000001</ele>
        <time>2022-07-03T09:36:04Z</time>
      </trkpt>
      <trkpt lat="45.878734923899174" lon="7.837957721203566">
        <ele>2875.6399999999999</ele>
        <time>2022-07-03T09:36:26Z</time>
      </trkpt>
      <trkpt lat="45.878742216154933" lon="7.837997116148472">
        <ele>2875.9299999999998</ele>
        <time>2022-07-03T09:36:52Z</time>
      </trkpt>
      <trkpt lat="45.878755124285817" lon="7.838052185252309">
        <ele>2878.3600000000001</ele>
        <time>2022-07-03T09:37:03Z</time>
      </trkpt>
      <trkpt lat="45.878755040466785" lon="7.838114798069">
        <ele>2880.5900000000001</ele>
        <time>2022-07-03T09:37:14Z</time>
      </trkpt>
      <trkpt lat="45.878759147599339" lon="7.838176740333438">
        <ele>2882.9400000000001</ele>
        <time>2022-07-03T09:37:27Z</time>
      </trkpt>
      <trkpt lat="45.878759231418371" lon="7.83819685690105">
        <ele>2883.77</ele>
        <time>2022-07-03T09:37:41Z</time>
      </trkpt>
      <trkpt lat="45.878760321065784" lon="7.838197778910399">
        <ele>2883.8299999999999</ele>
        <time>2022-07-03T09:38:01Z</time>
      </trkpt>
      <trkpt lat="45.878763506188989" lon="7.838197275996208">
        <ele>2883.4099999999999</ele>
        <time>2022-07-03T09:38:19Z</time>
      </trkpt>
      <trkpt lat="45.878754537552595" lon="7.838193755596876">
        <ele>2883.6900000000001</ele>
        <time>2022-07-03T09:38:48Z</time>
      </trkpt>
      <trkpt lat="45.87875965051353" lon="7.838203059509397">
        <ele>2884.71</ele>
        <time>2022-07-03T09:39:09Z</time>
      </trkpt>
      <trkpt lat="45.878751017153263" lon="7.838245891034603">
        <ele>2884.0300000000002</ele>
        <time>2022-07-03T09:39:21Z</time>
      </trkpt>
      <trkpt lat="45.878732828423381" lon="7.838240945711732">
        <ele>2883.9499999999998</ele>
        <time>2022-07-03T09:39:31Z</time>
      </trkpt>
      <trkpt lat="45.878744143992662" lon="7.838262319564819">
        <ele>2882.7199999999998</ele>
        <time>2022-07-03T09:39:51Z</time>
      </trkpt>
      <trkpt lat="45.878755543380976" lon="7.838233066722751">
        <ele>2884.29</ele>
        <time>2022-07-03T09:40:09Z</time>
      </trkpt>
      <trkpt lat="45.878756884485483" lon="7.838219236582518">
        <ele>2884.5799999999999</ele>
        <time>2022-07-03T09:40:33Z</time>
      </trkpt>
      <trkpt lat="45.878766439855099" lon="7.838202975690365">
        <ele>2884.9099999999999</ele>
        <time>2022-07-03T09:40:57Z</time>
      </trkpt>
      <trkpt lat="45.878767278045416" lon="7.83820666372776">
        <ele>2885.77</ele>
        <time>2022-07-03T09:41:14Z</time>
      </trkpt>
      <trkpt lat="45.87877188809216" lon="7.838206999003887">
        <ele>2885.9200000000001</ele>
        <time>2022-07-03T09:41:39Z</time>
      </trkpt>
      <trkpt lat="45.878771217539907" lon="7.838210267946124">
        <ele>2886.3899999999999</ele>
        <time>2022-07-03T09:41:53Z</time>
      </trkpt>
      <trkpt lat="45.878764092922211" lon="7.838209010660648">
        <ele>2885.7199999999998</ele>
        <time>2022-07-03T09:42:14Z</time>
      </trkpt>
      <trkpt lat="45.878767194226384" lon="7.838208004832268">
        <ele>2886.4699999999998</ele>
        <time>2022-07-03T09:42:33Z</time>
      </trkpt>
      <trkpt lat="45.878765853121877" lon="7.83821395598352">
        <ele>2886.4099999999999</ele>
        <time>2022-07-03T09:42:49Z</time>
      </trkpt>
      <trkpt lat="45.87876308709383" lon="7.838216973468661">
        <ele>2886.25</ele>
        <time>2022-07-03T09:43:09Z</time>
      </trkpt>
      <trkpt lat="45.878758393228054" lon="7.838216805830598">
        <ele>2888.0900000000001</ele>
        <time>2022-07-03T09:43:28Z</time>
      </trkpt>
      <trkpt lat="45.878762751817703" lon="7.838214542716742">
        <ele>2887.6900000000001</ele>
        <time>2022-07-03T09:43:45Z</time>
      </trkpt>
      <trkpt lat="45.878764595836401" lon="7.838206831365824">
        <ele>2886.7399999999998</ele>
        <time>2022-07-03T09:44:05Z</time>
      </trkpt>
      <trkpt lat="45.878767529502511" lon="7.838208340108395">
        <ele>2889.8899999999999</ele>
        <time>2022-07-03T09:44:27Z</time>
      </trkpt>
      <trkpt lat="45.878768619149923" lon="7.838209513574839">
        <ele>2889.27</ele>
        <time>2022-07-03T09:44:28Z</time>
      </trkpt>
      <trkpt lat="45.878770714625716" lon="7.838208675384522">
        <ele>2886.2399999999998</ele>
        <time>2022-07-03T09:44:31Z</time>
      </trkpt>
      <trkpt lat="45.878765936940908" lon="7.838208926841617">
        <ele>2887.21</ele>
        <time>2022-07-03T09:44:57Z</time>
      </trkpt>
      <trkpt lat="45.878773145377636" lon="7.838215800002217">
        <ele>2887.6900000000001</ele>
        <time>2022-07-03T09:45:23Z</time>
      </trkpt>
      <trkpt lat="45.878771636635065" lon="7.83821688964963">
        <ele>2887.75</ele>
        <time>2022-07-03T09:45:39Z</time>
      </trkpt>
      <trkpt lat="45.878773732110858" lon="7.838216135278344">
        <ele>2887.6199999999999</ele>
        <time>2022-07-03T09:46:00Z</time>
      </trkpt>
      <trkpt lat="45.878777503967285" lon="7.838213453069329">
        <ele>2887.1700000000001</ele>
        <time>2022-07-03T09:46:21Z</time>
      </trkpt>
      <trkpt lat="45.87877725251019" lon="7.838210351765156">
        <ele>2886.8600000000001</ele>
        <time>2022-07-03T09:46:44Z</time>
      </trkpt>
      <trkpt lat="45.878775576129556" lon="7.838212950155139">
        <ele>2887.9899999999998</ele>
        <time>2022-07-03T09:47:07Z</time>
      </trkpt>
      <trkpt lat="45.878782365471125" lon="7.838209429755807">
        <ele>2887.8600000000001</ele>
        <time>2022-07-03T09:47:31Z</time>
      </trkpt>
      <trkpt lat="45.878785131499171" lon="7.838206579908729">
        <ele>2887.8400000000001</ele>
        <time>2022-07-03T09:48:03Z</time>
      </trkpt>
      <trkpt lat="45.878776833415031" lon="7.838207585737109">
        <ele>2887.5700000000002</ele>
        <time>2022-07-03T09:48:13Z</time>
      </trkpt>
      <trkpt lat="45.878765350207686" lon="7.838200209662318">
        <ele>2888.21</ele>
        <time>2022-07-03T09:48:38Z</time>
      </trkpt>
      <trkpt lat="45.878774737939239" lon="7.838207082822919">
        <ele>2888.4299999999998</ele>
        <time>2022-07-03T09:48:57Z</time>
      </trkpt>
      <trkpt lat="45.878793513402343" lon="7.838219990953803">
        <ele>2888.5799999999999</ele>
        <time>2022-07-03T09:49:07Z</time>
      </trkpt>
      <trkpt lat="45.87887255474925" lon="7.83824915997684">
        <ele>2890.29</ele>
        <time>2022-07-03T09:49:21Z</time>
      </trkpt>
      <trkpt lat="45.87891161441803" lon="7.838264666497707">
        <ele>2892.5</ele>
        <time>2022-07-03T09:49:33Z</time>
      </trkpt>
      <trkpt lat="45.878956960514188" lon="7.838264834135771">
        <ele>2894.77</ele>
        <time>2022-07-03T09:49:48Z</time>
      </trkpt>
      <trkpt lat="45.878984704613686" lon="7.838258128613234">
        <ele>2896.71</ele>
        <time>2022-07-03T09:49:58Z</time>
      </trkpt>
      <trkpt lat="45.879041031002998" lon="7.838261229917407">
        <ele>2899.0100000000002</ele>
        <time>2022-07-03T09:50:11Z</time>
      </trkpt>
      <trkpt lat="45.879081599414349" lon="7.838293164968491">
        <ele>2900.6900000000001</ele>
        <time>2022-07-03T09:50:24Z</time>
      </trkpt>
      <trkpt lat="45.879122419282794" lon="7.838330212980509">
        <ele>2902.6199999999999</ele>
        <time>2022-07-03T09:50:38Z</time>
      </trkpt>
      <trkpt lat="45.879153935238719" lon="7.83835225738585">
        <ele>2905.1700000000001</ele>
        <time>2022-07-03T09:50:52Z</time>
      </trkpt>
      <trkpt lat="45.879185032099485" lon="7.8383859526366">
        <ele>2907.21</ele>
        <time>2022-07-03T09:51:05Z</time>
      </trkpt>
      <trkpt lat="45.879234569147229" lon="7.838399112224579">
        <ele>2909.4000000000001</ele>
        <time>2022-07-03T09:51:22Z</time>
      </trkpt>
      <trkpt lat="45.879278825595975" lon="7.838442195206881">
        <ele>2911.6199999999999</ele>
        <time>2022-07-03T09:51:36Z</time>
      </trkpt>
      <trkpt lat="45.879311095923185" lon="7.838459461927414">
        <ele>2914.21</ele>
        <time>2022-07-03T09:51:51Z</time>
      </trkpt>
      <trkpt lat="45.879344288259745" lon="7.838490307331085">
        <ele>2915.8600000000001</ele>
        <time>2022-07-03T09:52:05Z</time>
      </trkpt>
      <trkpt lat="45.879387035965919" lon="7.838489469140768">
        <ele>2918.77</ele>
        <time>2022-07-03T09:52:22Z</time>
      </trkpt>
      <trkpt lat="45.879396675154567" lon="7.838487541303039">
        <ele>2919.04</ele>
        <time>2022-07-03T09:52:36Z</time>
      </trkpt>
      <trkpt lat="45.879454426467419" lon="7.838477147743106">
        <ele>2922.0500000000002</ele>
        <time>2022-07-03T09:52:53Z</time>
      </trkpt>
      <trkpt lat="45.879503628239036" lon="7.838459294289351">
        <ele>2925.3000000000002</ele>
        <time>2022-07-03T09:53:09Z</time>
      </trkpt>
      <trkpt lat="45.879543358460069" lon="7.838431298732758">
        <ele>2927.54</ele>
        <time>2022-07-03T09:53:24Z</time>
      </trkpt>
      <trkpt lat="45.879568587988615" lon="7.83847245387733">
        <ele>2929.75</ele>
        <time>2022-07-03T09:53:37Z</time>
      </trkpt>
      <trkpt lat="45.879588201642036" lon="7.838522074744105">
        <ele>2931.46</ele>
        <time>2022-07-03T09:53:55Z</time>
      </trkpt>
      <trkpt lat="45.879621477797627" lon="7.838529199361801">
        <ele>2934.3499999999999</ele>
        <time>2022-07-03T09:54:09Z</time>
      </trkpt>
      <trkpt lat="45.879619549959898" lon="7.838573707267642">
        <ele>2936.6500000000001</ele>
        <time>2022-07-03T09:54:23Z</time>
      </trkpt>
      <trkpt lat="45.879646204411983" lon="7.838606564328075">
        <ele>2938.52</ele>
        <time>2022-07-03T09:54:38Z</time>
      </trkpt>
      <trkpt lat="45.879659531638026" lon="7.838629866018891">
        <ele>2940.6199999999999</ele>
        <time>2022-07-03T09:54:53Z</time>
      </trkpt>
      <trkpt lat="45.879680570214987" lon="7.838665656745434">
        <ele>2942.21</ele>
        <time>2022-07-03T09:55:11Z</time>
      </trkpt>
      <trkpt lat="45.879698507487774" lon="7.838714020326734">
        <ele>2944.9000000000001</ele>
        <time>2022-07-03T09:55:25Z</time>
      </trkpt>
      <trkpt lat="45.879711583256721" lon="7.838747883215547">
        <ele>2946.5999999999999</ele>
        <time>2022-07-03T09:55:35Z</time>
      </trkpt>
      <trkpt lat="45.879712086170912" lon="7.838757019490004">
        <ele>2947.9200000000001</ele>
        <time>2022-07-03T09:55:38Z</time>
      </trkpt>
      <trkpt lat="45.879746954888105" lon="7.838753247633576">
        <ele>2947.8800000000001</ele>
        <time>2022-07-03T09:55:49Z</time>
      </trkpt>
      <trkpt lat="45.87974863126874" lon="7.838807143270969">
        <ele>2951.0799999999999</ele>
        <time>2022-07-03T09:55:59Z</time>
      </trkpt>
      <trkpt lat="45.879769753664732" lon="7.838848466053605">
        <ele>2953.3099999999999</ele>
        <time>2022-07-03T09:56:13Z</time>
      </trkpt>
      <trkpt lat="45.879795653745532" lon="7.838880317285657">
        <ele>2954.0999999999999</ele>
        <time>2022-07-03T09:56:25Z</time>
      </trkpt>
      <trkpt lat="45.879826163873076" lon="7.838853495195508">
        <ele>2956.1500000000001</ele>
        <time>2022-07-03T09:56:39Z</time>
      </trkpt>
      <trkpt lat="45.879859020933509" lon="7.838898925110698">
        <ele>2958.1900000000001</ele>
        <time>2022-07-03T09:56:52Z</time>
      </trkpt>
      <trkpt lat="45.879899756982923" lon="7.838878892362118">
        <ele>2960.1799999999998</ele>
        <time>2022-07-03T09:57:08Z</time>
      </trkpt>
      <trkpt lat="45.879920125007629" lon="7.838871935382485">
        <ele>2961.54</ele>
        <time>2022-07-03T09:57:22Z</time>
      </trkpt>
      <trkpt lat="45.87997536174953" lon="7.838816028088331">
        <ele>2961.6300000000001</ele>
        <time>2022-07-03T09:57:38Z</time>
      </trkpt>
      <trkpt lat="45.880013247951865" lon="7.838742602616549">
        <ele>2964.4699999999998</ele>
        <time>2022-07-03T09:57:52Z</time>
      </trkpt>
      <trkpt lat="45.880048954859376" lon="7.838734304532409">
        <ele>2965.5599999999999</ele>
        <time>2022-07-03T09:58:04Z</time>
      </trkpt>
      <trkpt lat="45.880098156630993" lon="7.838741177693009">
        <ele>2968.1199999999999</ele>
        <time>2022-07-03T09:58:20Z</time>
      </trkpt>
      <trkpt lat="45.880147442221642" lon="7.838772106915712">
        <ele>2969.9400000000001</ele>
        <time>2022-07-03T09:58:35Z</time>
      </trkpt>
      <trkpt lat="45.880173090845346" lon="7.838711338117719">
        <ele>2972.9299999999998</ele>
        <time>2022-07-03T09:58:50Z</time>
      </trkpt>
      <trkpt lat="45.880207289010286" lon="7.838720055297017">
        <ele>2976.0999999999999</ele>
        <time>2022-07-03T09:59:02Z</time>
      </trkpt>
      <trkpt lat="45.880228914320469" lon="7.838688204064965">
        <ele>2978.1399999999999</ele>
        <time>2022-07-03T09:59:15Z</time>
      </trkpt>
      <trkpt lat="45.880231345072389" lon="7.838686695322394">
        <ele>2978.0100000000002</ele>
        <time>2022-07-03T09:59:31Z</time>
      </trkpt>
      <trkpt lat="45.880239810794592" lon="7.838688120245934">
        <ele>2977.6399999999999</ele>
        <time>2022-07-03T09:59:48Z</time>
      </trkpt>
      <trkpt lat="45.880262777209282" lon="7.838703375309706">
        <ele>2980.0500000000002</ele>
        <time>2022-07-03T10:00:04Z</time>
      </trkpt>
      <trkpt lat="45.880264453589916" lon="7.838635900989175">
        <ele>2982.9200000000001</ele>
        <time>2022-07-03T10:00:18Z</time>
      </trkpt>
      <trkpt lat="45.8802998252213" lon="7.838631710037589">
        <ele>2984.6199999999999</ele>
        <time>2022-07-03T10:00:31Z</time>
      </trkpt>
      <trkpt lat="45.880350451916456" lon="7.838653000071645">
        <ele>2987.1700000000001</ele>
        <time>2022-07-03T10:00:46Z</time>
      </trkpt>
      <trkpt lat="45.880383895710111" lon="7.83867864869535">
        <ele>2989.02</ele>
        <time>2022-07-03T10:01:00Z</time>
      </trkpt>
      <trkpt lat="45.880402084439993" lon="7.838682672008872">
        <ele>2991.6599999999999</ele>
        <time>2022-07-03T10:01:10Z</time>
      </trkpt>
      <trkpt lat="45.880423877388239" lon="7.83870505169034">
        <ele>2991.9499999999998</ele>
        <time>2022-07-03T10:01:27Z</time>
      </trkpt>
      <trkpt lat="45.880448771640658" lon="7.838710835203528">
        <ele>2994.0900000000001</ele>
        <time>2022-07-03T10:01:38Z</time>
      </trkpt>
      <trkpt lat="45.880484730005264" lon="7.838744195178151">
        <ele>2996.54</ele>
        <time>2022-07-03T10:01:56Z</time>
      </trkpt>
      <trkpt lat="45.880504930391908" lon="7.838734723627567">
        <ele>2998.54</ele>
        <time>2022-07-03T10:02:08Z</time>
      </trkpt>
      <trkpt lat="45.880521442741156" lon="7.838759198784828">
        <ele>2999.29</ele>
        <time>2022-07-03T10:02:21Z</time>
      </trkpt>
      <trkpt lat="45.880549438297749" lon="7.838714774698019">
        <ele>3001.0900000000001</ele>
        <time>2022-07-03T10:02:35Z</time>
      </trkpt>
      <trkpt lat="45.880577266216278" lon="7.838757941499353">
        <ele>3003.2199999999998</ele>
        <time>2022-07-03T10:02:48Z</time>
      </trkpt>
      <trkpt lat="45.880613140761852" lon="7.838807394728065">
        <ele>3005.3899999999999</ele>
        <time>2022-07-03T10:03:03Z</time>
      </trkpt>
      <trkpt lat="45.88063845410943" lon="7.838821643963456">
        <ele>3006.0700000000002</ele>
        <time>2022-07-03T10:03:20Z</time>
      </trkpt>
      <trkpt lat="45.88068095035851" lon="7.838924992829561">
        <ele>3009.0500000000002</ele>
        <time>2022-07-03T10:03:36Z</time>
      </trkpt>
      <trkpt lat="45.880721183493733" lon="7.838999843224883">
        <ele>3010.8200000000002</ele>
        <time>2022-07-03T10:03:49Z</time>
      </trkpt>
      <trkpt lat="45.88077231310308" lon="7.839086931198835">
        <ele>3012.6399999999999</ele>
        <time>2022-07-03T10:04:04Z</time>
      </trkpt>
      <trkpt lat="45.880815228447318" lon="7.83914040774107">
        <ele>3015.0300000000002</ele>
        <time>2022-07-03T10:04:19Z</time>
      </trkpt>
      <trkpt lat="45.880857389420271" lon="7.839214922860265">
        <ele>3016.9099999999999</ele>
        <time>2022-07-03T10:04:32Z</time>
      </trkpt>
      <trkpt lat="45.880906926468015" lon="7.839331179857254">
        <ele>3018.0100000000002</ele>
        <time>2022-07-03T10:04:47Z</time>
      </trkpt>
      <trkpt lat="45.88095897808671" lon="7.839408293366432">
        <ele>3020.0500000000002</ele>
        <time>2022-07-03T10:05:04Z</time>
      </trkpt>
      <trkpt lat="45.880943052470684" lon="7.839305866509676">
        <ele>3022.02</ele>
        <time>2022-07-03T10:05:17Z</time>
      </trkpt>
      <trkpt lat="45.88091941550374" lon="7.839157339185476">
        <ele>3023.46</ele>
        <time>2022-07-03T10:05:32Z</time>
      </trkpt>
      <trkpt lat="45.880915056914091" lon="7.839027922600508">
        <ele>3024.7600000000002</ele>
        <time>2022-07-03T10:05:45Z</time>
      </trkpt>
      <trkpt lat="45.880886474624276" lon="7.83891074359417">
        <ele>3025.3099999999999</ele>
        <time>2022-07-03T10:05:55Z</time>
      </trkpt>
      <trkpt lat="45.88090181350708" lon="7.838715193793178">
        <ele>3024.1999999999998</ele>
        <time>2022-07-03T10:06:09Z</time>
      </trkpt>
      <trkpt lat="45.880913296714425" lon="7.838632380589843">
        <ele>3023.9699999999998</ele>
        <time>2022-07-03T10:06:15Z</time>
      </trkpt>
      <trkpt lat="45.880911787971854" lon="7.838599858805537">
        <ele>3025.3899999999999</ele>
        <time>2022-07-03T10:06:17Z</time>
      </trkpt>
      <trkpt lat="45.880941124632955" lon="7.838457282632589">
        <ele>3026.54</ele>
        <time>2022-07-03T10:06:33Z</time>
      </trkpt>
      <trkpt lat="45.880952188745141" lon="7.838431298732758">
        <ele>3029.0700000000002</ele>
        <time>2022-07-03T10:06:44Z</time>
      </trkpt>
      <trkpt lat="45.880989655852318" lon="7.83842895179987">
        <ele>3030.2800000000002</ele>
        <time>2022-07-03T10:07:00Z</time>
      </trkpt>
      <trkpt lat="45.880963588133454" lon="7.838385868817568">
        <ele>3031.9400000000001</ele>
        <time>2022-07-03T10:07:11Z</time>
      </trkpt>
      <trkpt lat="45.88096191175282" lon="7.838384695351124">
        <ele>3031.4400000000001</ele>
        <time>2022-07-03T10:07:25Z</time>
      </trkpt>
      <trkpt lat="45.880966521799564" lon="7.838306995108724">
        <ele>3030.8299999999999</ele>
        <time>2022-07-03T10:07:31Z</time>
      </trkpt>
      <trkpt lat="45.880981609225273" lon="7.838216722011566">
        <ele>3030.2600000000002</ele>
        <time>2022-07-03T10:07:38Z</time>
      </trkpt>
      <trkpt lat="45.881065176799893" lon="7.838148744776845">
        <ele>3032.2399999999998</ele>
        <time>2022-07-03T10:07:52Z</time>
      </trkpt>
      <trkpt lat="45.881123095750809" lon="7.838087389245629">
        <ele>3034.21</ele>
        <time>2022-07-03T10:08:06Z</time>
      </trkpt>
      <trkpt lat="45.881169363856316" lon="7.838065512478352">
        <ele>3036.3299999999999</ele>
        <time>2022-07-03T10:08:18Z</time>
      </trkpt>
      <trkpt lat="45.881209010258317" lon="7.838066518306732">
        <ele>3038.9400000000001</ele>
        <time>2022-07-03T10:08:31Z</time>
      </trkpt>
      <trkpt lat="45.881256200373173" lon="7.838035589084029">
        <ele>3040.1700000000001</ele>
        <time>2022-07-03T10:08:43Z</time>
      </trkpt>
      <trkpt lat="45.881296098232269" lon="7.838051011785865">
        <ele>3042.5</ele>
        <time>2022-07-03T10:08:55Z</time>
      </trkpt>
      <trkpt lat="45.881324177607894" lon="7.838029554113746">
        <ele>3043.9099999999999</ele>
        <time>2022-07-03T10:09:10Z</time>
      </trkpt>
      <trkpt lat="45.881319902837276" lon="7.837949423119426">
        <ele>3044.3800000000001</ele>
        <time>2022-07-03T10:09:20Z</time>
      </trkpt>
      <trkpt lat="45.881290985271335" lon="7.837811876088381">
        <ele>3044.8000000000002</ele>
        <time>2022-07-03T10:09:35Z</time>
      </trkpt>
      <trkpt lat="45.881252847611904" lon="7.837691763415933">
        <ele>3046.1199999999999</ele>
        <time>2022-07-03T10:09:48Z</time>
      </trkpt>
      <trkpt lat="45.881249411031604" lon="7.837673323228955">
        <ele>3046.5700000000002</ele>
        <time>2022-07-03T10:09:50Z</time>
      </trkpt>
      <trkpt lat="45.881249159574509" lon="7.837635101750493">
        <ele>3046.7199999999998</ele>
        <time>2022-07-03T10:09:53Z</time>
      </trkpt>
      <trkpt lat="45.881282771006227" lon="7.837526807561517">
        <ele>3049.04</ele>
        <time>2022-07-03T10:10:09Z</time>
      </trkpt>
      <trkpt lat="45.881331972777843" lon="7.83753870986402">
        <ele>3049.5300000000002</ele>
        <time>2022-07-03T10:10:25Z</time>
      </trkpt>
      <trkpt lat="45.881332894787192" lon="7.837524795904756">
        <ele>3050.0700000000002</ele>
        <time>2022-07-03T10:10:41Z</time>
      </trkpt>
      <trkpt lat="45.881330966949463" lon="7.837519850581884">
        <ele>3050.4299999999998</ele>
        <time>2022-07-03T10:11:01Z</time>
      </trkpt>
      <trkpt lat="45.881390981376171" lon="7.837500991299748">
        <ele>3053.0599999999999</ele>
        <time>2022-07-03T10:11:16Z</time>
      </trkpt>
      <trkpt lat="45.881364326924086" lon="7.837451286613941">
        <ele>3054.0999999999999</ele>
        <time>2022-07-03T10:11:27Z</time>
      </trkpt>
      <trkpt lat="45.881339767947793" lon="7.837417172268033">
        <ele>3054.7800000000002</ele>
        <time>2022-07-03T10:11:48Z</time>
      </trkpt>
      <trkpt lat="45.881274305284023" lon="7.837358247488737">
        <ele>3056.1999999999998</ele>
        <time>2022-07-03T10:12:00Z</time>
      </trkpt>
      <trkpt lat="45.881312107667327" lon="7.837292784824967">
        <ele>3057.5999999999999</ele>
        <time>2022-07-03T10:12:11Z</time>
      </trkpt>
      <trkpt lat="45.881382599473" lon="7.837223215028644">
        <ele>3059.6900000000001</ele>
        <time>2022-07-03T10:12:25Z</time>
      </trkpt>
      <trkpt lat="45.881469855085015" lon="7.837250707671046">
        <ele>3061.5700000000002</ele>
        <time>2022-07-03T10:12:38Z</time>
      </trkpt>
      <trkpt lat="45.881547052413225" lon="7.83727627247572">
        <ele>3064.23</ele>
        <time>2022-07-03T10:12:53Z</time>
      </trkpt>
      <trkpt lat="45.881621316075325" lon="7.837313655763865">
        <ele>3065.9499999999998</ele>
        <time>2022-07-03T10:13:09Z</time>
      </trkpt>
      <trkpt lat="45.881633553653955" lon="7.837293036282063">
        <ele>3068.1100000000001</ele>
        <time>2022-07-03T10:13:21Z</time>
      </trkpt>
      <trkpt lat="45.881603630259633" lon="7.837204774841666">
        <ele>3068.98</ele>
        <time>2022-07-03T10:13:34Z</time>
      </trkpt>
      <trkpt lat="45.881644366309047" lon="7.837172420695424">
        <ele>3071.0300000000002</ele>
        <time>2022-07-03T10:13:46Z</time>
      </trkpt>
      <trkpt lat="45.881693735718727" lon="7.837215503677726">
        <ele>3072.0700000000002</ele>
        <time>2022-07-03T10:13:57Z</time>
      </trkpt>
      <trkpt lat="45.881750397384167" lon="7.837269231677055">
        <ele>3073.5300000000002</ele>
        <time>2022-07-03T10:14:11Z</time>
      </trkpt>
      <trkpt lat="45.881815692409873" lon="7.837333520874381">
        <ele>3075.8299999999999</ele>
        <time>2022-07-03T10:14:26Z</time>
      </trkpt>
      <trkpt lat="45.881855254992843" lon="7.837343327701092">
        <ele>3076.9699999999998</ele>
        <time>2022-07-03T10:14:38Z</time>
      </trkpt>
      <trkpt lat="45.881845783442259" lon="7.837220197543502">
        <ele>3078.4200000000001</ele>
        <time>2022-07-03T10:14:52Z</time>
      </trkpt>
      <trkpt lat="45.881846873089671" lon="7.83718834631145">
        <ele>3078.98</ele>
        <time>2022-07-03T10:15:07Z</time>
      </trkpt>
      <trkpt lat="45.881849555298686" lon="7.837090864777565">
        <ele>3080.1199999999999</ele>
        <time>2022-07-03T10:15:20Z</time>
      </trkpt>
      <trkpt lat="45.881860703229904" lon="7.837040573358536">
        <ele>3082.0300000000002</ele>
        <time>2022-07-03T10:15:33Z</time>
      </trkpt>
      <trkpt lat="45.881857350468636" lon="7.836954491212964">
        <ele>3084.5500000000002</ele>
        <time>2022-07-03T10:15:48Z</time>
      </trkpt>
      <trkpt lat="45.881865145638585" lon="7.83689271658659">
        <ele>3087.29</ele>
        <time>2022-07-03T10:16:02Z</time>
      </trkpt>
      <trkpt lat="45.881873611360788" lon="7.836877126246691">
        <ele>3087.9200000000001</ele>
        <time>2022-07-03T10:16:15Z</time>
      </trkpt>
      <trkpt lat="45.881903870031238" lon="7.836866062134504">
        <ele>3089.8299999999999</ele>
        <time>2022-07-03T10:16:29Z</time>
      </trkpt>
      <trkpt lat="45.88191912509501" lon="7.836878215894103">
        <ele>3091.0700000000002</ele>
        <time>2022-07-03T10:16:32Z</time>
      </trkpt>
      <trkpt lat="45.881956424564123" lon="7.836882993578911">
        <ele>3094.2600000000002</ele>
        <time>2022-07-03T10:16:43Z</time>
      </trkpt>
      <trkpt lat="45.881966482847929" lon="7.836782662197948">
        <ele>3096.1700000000001</ele>
        <time>2022-07-03T10:17:01Z</time>
      </trkpt>
      <trkpt lat="45.881983749568462" lon="7.836775537580252">
        <ele>3097.0599999999999</ele>
        <time>2022-07-03T10:17:14Z</time>
      </trkpt>
      <trkpt lat="45.882040159776807" lon="7.83676371909678">
        <ele>3099.21</ele>
        <time>2022-07-03T10:17:32Z</time>
      </trkpt>
      <trkpt lat="45.882111992686987" lon="7.836845191195607">
        <ele>3100.9699999999998</ele>
        <time>2022-07-03T10:17:48Z</time>
      </trkpt>
      <trkpt lat="45.882175778970122" lon="7.836861703544855">
        <ele>3103.8600000000001</ele>
        <time>2022-07-03T10:18:05Z</time>
      </trkpt>
      <trkpt lat="45.882195727899671" lon="7.836864134296775">
        <ele>3105.1700000000001</ele>
        <time>2022-07-03T10:18:20Z</time>
      </trkpt>
      <trkpt lat="45.882234117016196" lon="7.836874444037676">
        <ele>3106.9000000000001</ele>
        <time>2022-07-03T10:18:33Z</time>
      </trkpt>
      <trkpt lat="45.882258005440235" lon="7.836862206459045">
        <ele>3109.3400000000001</ele>
        <time>2022-07-03T10:18:51Z</time>
      </trkpt>
      <trkpt lat="45.882274433970451" lon="7.836837228387594">
        <ele>3111.2199999999998</ele>
        <time>2022-07-03T10:19:03Z</time>
      </trkpt>
      <trkpt lat="45.88234031572938" lon="7.836938062682748">
        <ele>3112.71</ele>
        <time>2022-07-03T10:19:19Z</time>
      </trkpt>
      <trkpt lat="45.882398402318358" lon="7.837033029645681">
        <ele>3113.1999999999998</ele>
        <time>2022-07-03T10:19:33Z</time>
      </trkpt>
      <trkpt lat="45.882453974336386" lon="7.837107880041003">
        <ele>3114.8699999999999</ele>
        <time>2022-07-03T10:19:46Z</time>
      </trkpt>
      <trkpt lat="45.882503846660256" lon="7.837178874760866">
        <ele>3116.6799999999998</ele>
        <time>2022-07-03T10:20:00Z</time>
      </trkpt>
      <trkpt lat="45.882541481405497" lon="7.837237128987908">
        <ele>3117.9200000000001</ele>
        <time>2022-07-03T10:20:15Z</time>
      </trkpt>
      <trkpt lat="45.88254458270967" lon="7.837238973006606">
        <ele>3117.5</ele>
        <time>2022-07-03T10:20:33Z</time>
      </trkpt>
      <trkpt lat="45.882593197748065" lon="7.837306028231978">
        <ele>3119.25</ele>
        <time>2022-07-03T10:20:46Z</time>
      </trkpt>
      <trkpt lat="45.882647596299648" lon="7.837360594421625">
        <ele>3119.3099999999999</ele>
        <time>2022-07-03T10:20:59Z</time>
      </trkpt>
      <trkpt lat="45.88270241394639" lon="7.8373999055475">
        <ele>3122.3400000000001</ele>
        <time>2022-07-03T10:21:12Z</time>
      </trkpt>
      <trkpt lat="45.882707694545388" lon="7.8373999055475">
        <ele>3121.98</ele>
        <time>2022-07-03T10:21:13Z</time>
      </trkpt>
      <trkpt lat="45.882773073390126" lon="7.837440893054009">
        <ele>3124.0799999999999</ele>
        <time>2022-07-03T10:21:27Z</time>
      </trkpt>
      <trkpt lat="45.882865777239203" lon="7.837484478950501">
        <ele>3125.73</ele>
        <time>2022-07-03T10:21:42Z</time>
      </trkpt>
      <trkpt lat="45.882972395047545" lon="7.837557988241315">
        <ele>3127.23</ele>
        <time>2022-07-03T10:21:58Z</time>
      </trkpt>
      <trkpt lat="45.88306543417275" lon="7.837580954656005">
        <ele>3130.0900000000001</ele>
        <time>2022-07-03T10:22:17Z</time>
      </trkpt>
      <trkpt lat="45.883144726976752" lon="7.837602244690061">
        <ele>3133.21</ele>
        <time>2022-07-03T10:22:34Z</time>
      </trkpt>
      <trkpt lat="45.88322619907558" lon="7.837635185569525">
        <ele>3134.6399999999999</ele>
        <time>2022-07-03T10:22:49Z</time>
      </trkpt>
      <trkpt lat="45.883186971768737" lon="7.837532674893737">
        <ele>3136.4200000000001</ele>
        <time>2022-07-03T10:23:04Z</time>
      </trkpt>
      <trkpt lat="45.883213710039854" lon="7.83749520778656">
        <ele>3137.8800000000001</ele>
        <time>2022-07-03T10:23:15Z</time>
      </trkpt>
      <trkpt lat="45.883289985358715" lon="7.837537284940481">
        <ele>3140.2399999999998</ele>
        <time>2022-07-03T10:23:31Z</time>
      </trkpt>
      <trkpt lat="45.883357124403119" lon="7.837485484778881">
        <ele>3142.0799999999999</ele>
        <time>2022-07-03T10:23:46Z</time>
      </trkpt>
      <trkpt lat="45.883376318961382" lon="7.837372748181224">
        <ele>3143.8099999999999</ele>
        <time>2022-07-03T10:24:01Z</time>
      </trkpt>
      <trkpt lat="45.883350083604455" lon="7.837303429841995">
        <ele>3144.1900000000001</ele>
        <time>2022-07-03T10:24:08Z</time>
      </trkpt>
      <trkpt lat="45.883310185745358" lon="7.83717661164701">
        <ele>3144.3200000000002</ele>
        <time>2022-07-03T10:24:20Z</time>
      </trkpt>
      <trkpt lat="45.883298367261887" lon="7.837067730724812">
        <ele>3145.29</ele>
        <time>2022-07-03T10:24:33Z</time>
      </trkpt>
      <trkpt lat="45.883263414725661" lon="7.836984246969223">
        <ele>3146.52</ele>
        <time>2022-07-03T10:24:46Z</time>
      </trkpt>
      <trkpt lat="45.883327703922987" lon="7.836940074339509">
        <ele>3148.7600000000002</ele>
        <time>2022-07-03T10:25:00Z</time>
      </trkpt>
      <trkpt lat="45.883312532678246" lon="7.836850974708796">
        <ele>3149.98</ele>
        <time>2022-07-03T10:25:11Z</time>
      </trkpt>
      <trkpt lat="45.883277915418148" lon="7.836749134585261">
        <ele>3151.1999999999998</ele>
        <time>2022-07-03T10:25:26Z</time>
      </trkpt>
      <trkpt lat="45.883199125528336" lon="7.836717367172241">
        <ele>3151.1300000000001</ele>
        <time>2022-07-03T10:25:38Z</time>
      </trkpt>
      <trkpt lat="45.88311824016273" lon="7.836661040782929">
        <ele>3150.1500000000001</ele>
        <time>2022-07-03T10:25:51Z</time>
      </trkpt>
      <trkpt lat="45.883053699508309" lon="7.836557691916823">
        <ele>3151.3699999999999</ele>
        <time>2022-07-03T10:26:05Z</time>
      </trkpt>
      <trkpt lat="45.883021680638194" lon="7.83645736053586">
        <ele>3154.0599999999999</ele>
        <time>2022-07-03T10:26:19Z</time>
      </trkpt>
      <trkpt lat="45.882943142205477" lon="7.836347976699472">
        <ele>3153.8600000000001</ele>
        <time>2022-07-03T10:26:33Z</time>
      </trkpt>
      <trkpt lat="45.882903160527349" lon="7.836227361112833">
        <ele>3155.4699999999998</ele>
        <time>2022-07-03T10:26:46Z</time>
      </trkpt>
      <trkpt lat="45.882850605994463" lon="7.836075816303492">
        <ele>3155.6100000000001</ele>
        <time>2022-07-03T10:27:00Z</time>
      </trkpt>
      <trkpt lat="45.882832920178771" lon="7.835972970351577">
        <ele>3156.7800000000002</ele>
        <time>2022-07-03T10:27:10Z</time>
      </trkpt>
      <trkpt lat="45.882835770025849" lon="7.835904993116856">
        <ele>3157.0799999999999</ele>
        <time>2022-07-03T10:27:15Z</time>
      </trkpt>
      <trkpt lat="45.882833674550056" lon="7.835776163265109">
        <ele>3157.2800000000002</ele>
        <time>2022-07-03T10:27:27Z</time>
      </trkpt>
      <trkpt lat="45.882824035361409" lon="7.835660576820374">
        <ele>3158.71</ele>
        <time>2022-07-03T10:27:41Z</time>
      </trkpt>
      <trkpt lat="45.882839122787118" lon="7.835542559623718">
        <ele>3161.25</ele>
        <time>2022-07-03T10:27:54Z</time>
      </trkpt>
      <trkpt lat="45.882892515510321" lon="7.835501739755273">
        <ele>3162.8499999999999</ele>
        <time>2022-07-03T10:28:07Z</time>
      </trkpt>
      <trkpt lat="45.882924199104309" lon="7.835396127775312">
        <ele>3165.46</ele>
        <time>2022-07-03T10:28:23Z</time>
      </trkpt>
      <trkpt lat="45.882987817749381" lon="7.83542487770319">
        <ele>3167.2399999999998</ele>
        <time>2022-07-03T10:28:37Z</time>
      </trkpt>
      <trkpt lat="45.883063171058893" lon="7.835433008149266">
        <ele>3169.3000000000002</ele>
        <time>2022-07-03T10:28:54Z</time>
      </trkpt>
      <trkpt lat="45.883122766390443" lon="7.835430074483156">
        <ele>3170.9000000000001</ele>
        <time>2022-07-03T10:29:07Z</time>
      </trkpt>
      <trkpt lat="45.883140619844198" lon="7.835290096700192">
        <ele>3172.8699999999999</ele>
        <time>2022-07-03T10:29:22Z</time>
      </trkpt>
      <trkpt lat="45.883161574602127" lon="7.835180880501866">
        <ele>3175.8099999999999</ele>
        <time>2022-07-03T10:29:35Z</time>
      </trkpt>
      <trkpt lat="45.883176745846868" lon="7.835046350955963">
        <ele>3177.8099999999999</ele>
        <time>2022-07-03T10:29:53Z</time>
      </trkpt>
      <trkpt lat="45.883190827444196" lon="7.834976948797703">
        <ele>3179.5300000000002</ele>
        <time>2022-07-03T10:30:06Z</time>
      </trkpt>
      <trkpt lat="45.883227707818151" lon="7.834986252710223">
        <ele>3180.21</ele>
        <time>2022-07-03T10:30:20Z</time>
      </trkpt>
      <trkpt lat="45.883261067792773" lon="7.834960771724582">
        <ele>3181.8899999999999</ele>
        <time>2022-07-03T10:30:32Z</time>
      </trkpt>
      <trkpt lat="45.883265342563391" lon="7.834951551631093">
        <ele>3182.4299999999998</ele>
        <time>2022-07-03T10:30:44Z</time>
      </trkpt>
      <trkpt lat="45.883274814113975" lon="7.83496119081974">
        <ele>3182.3200000000002</ele>
        <time>2022-07-03T10:31:00Z</time>
      </trkpt>
      <trkpt lat="45.883286967873573" lon="7.834969824180007">
        <ele>3182.0900000000001</ele>
        <time>2022-07-03T10:31:13Z</time>
      </trkpt>
      <trkpt lat="45.883308509364724" lon="7.834964627400041">
        <ele>3181.7600000000002</ele>
        <time>2022-07-03T10:31:30Z</time>
      </trkpt>
      <trkpt lat="45.883311610668898" lon="7.834962783381343">
        <ele>3181.0799999999999</ele>
        <time>2022-07-03T10:32:11Z</time>
      </trkpt>
      <trkpt lat="45.88331513106823" lon="7.834961861371994">
        <ele>3181.02</ele>
        <time>2022-07-03T10:32:56Z</time>
      </trkpt>
      <trkpt lat="45.883316807448864" lon="7.834965130314231">
        <ele>3182.0599999999999</ele>
        <time>2022-07-03T10:33:28Z</time>
      </trkpt>
      <trkpt lat="45.883316472172737" lon="7.834975942969322">
        <ele>3181.9499999999998</ele>
        <time>2022-07-03T10:33:48Z</time>
      </trkpt>
      <trkpt lat="45.88332200422883" lon="7.834978541359305">
        <ele>3181.2199999999998</ele>
        <time>2022-07-03T10:34:06Z</time>
      </trkpt>
      <trkpt lat="45.883320663124323" lon="7.834971835836768">
        <ele>3181.4200000000001</ele>
        <time>2022-07-03T10:34:53Z</time>
      </trkpt>
      <trkpt lat="45.883319657295942" lon="7.834969824180007">
        <ele>3181.8200000000002</ele>
        <time>2022-07-03T10:35:41Z</time>
      </trkpt>
      <trkpt lat="45.883317142724991" lon="7.834970578551292">
        <ele>3182.1399999999999</ele>
        <time>2022-07-03T10:36:30Z</time>
      </trkpt>
      <trkpt lat="45.883314460515976" lon="7.834973763674498">
        <ele>3183.02</ele>
        <time>2022-07-03T10:37:16Z</time>
      </trkpt>
      <trkpt lat="45.883312281221151" lon="7.834973679855466">
        <ele>3182.4299999999998</ele>
        <time>2022-07-03T10:38:05Z</time>
      </trkpt>
      <trkpt lat="45.883310856297612" lon="7.834974434226751">
        <ele>3182.1900000000001</ele>
        <time>2022-07-03T10:38:57Z</time>
      </trkpt>
      <trkpt lat="45.883312532678246" lon="7.834969656541944">
        <ele>3182.77</ele>
        <time>2022-07-03T10:39:47Z</time>
      </trkpt>
      <trkpt lat="45.883317058905959" lon="7.834967393428087">
        <ele>3182.8000000000002</ele>
        <time>2022-07-03T10:40:37Z</time>
      </trkpt>
      <trkpt lat="45.883316555991769" lon="7.834972590208054">
        <ele>3182.8400000000001</ele>
        <time>2022-07-03T10:41:02Z</time>
      </trkpt>
      <trkpt lat="45.883301384747028" lon="7.834965465590358">
        <ele>3182.8899999999999</ele>
        <time>2022-07-03T10:41:31Z</time>
      </trkpt>
      <trkpt lat="45.883286464959383" lon="7.834947779774666">
        <ele>3182.9499999999998</ele>
        <time>2022-07-03T10:41:54Z</time>
      </trkpt>
      <trkpt lat="45.883291158825159" lon="7.834952138364315">
        <ele>3183.1999999999998</ele>
        <time>2022-07-03T10:42:20Z</time>
      </trkpt>
      <trkpt lat="45.883310101926327" lon="7.834952306002379">
        <ele>3183.1900000000001</ele>
        <time>2022-07-03T10:42:42Z</time>
      </trkpt>
      <trkpt lat="45.883292499929667" lon="7.83494995906949">
        <ele>3183.3200000000002</ele>
        <time>2022-07-03T10:43:16Z</time>
      </trkpt>
      <trkpt lat="45.883287722244859" lon="7.834942415356636">
        <ele>3183.8400000000001</ele>
        <time>2022-07-03T10:43:38Z</time>
      </trkpt>
      <trkpt lat="45.883297109976411" lon="7.83494409173727">
        <ele>3184.25</ele>
        <time>2022-07-03T10:44:02Z</time>
      </trkpt>
      <trkpt lat="45.883291997015476" lon="7.834942499175668">
        <ele>3184.29</ele>
        <time>2022-07-03T10:44:29Z</time>
      </trkpt>
      <trkpt lat="45.883292332291603" lon="7.834949539974332">
        <ele>3183.6900000000001</ele>
        <time>2022-07-03T10:44:53Z</time>
      </trkpt>
      <trkpt lat="45.883287470787764" lon="7.834945265203714">
        <ele>3184.0300000000002</ele>
        <time>2022-07-03T10:45:15Z</time>
      </trkpt>
      <trkpt lat="45.88328093290329" lon="7.834937972947955">
        <ele>3185.0700000000002</ele>
        <time>2022-07-03T10:45:37Z</time>
      </trkpt>
      <trkpt lat="45.883302474394441" lon="7.834952473640442">
        <ele>3185.0999999999999</ele>
        <time>2022-07-03T10:45:59Z</time>
      </trkpt>
      <trkpt lat="45.883313287049532" lon="7.834958173334599">
        <ele>3185.5900000000001</ele>
        <time>2022-07-03T10:46:24Z</time>
      </trkpt>
      <trkpt lat="45.883305743336678" lon="7.834956832230091">
        <ele>3185.8099999999999</ele>
        <time>2022-07-03T10:46:45Z</time>
      </trkpt>
      <trkpt lat="45.883299289271235" lon="7.834952976554632">
        <ele>3185.3600000000001</ele>
        <time>2022-07-03T10:47:09Z</time>
      </trkpt>
      <trkpt lat="45.883298870176077" lon="7.834946690127254">
        <ele>3185.2199999999998</ele>
        <time>2022-07-03T10:47:35Z</time>
      </trkpt>
      <trkpt lat="45.883297361433506" lon="7.834946103394032">
        <ele>3186.1199999999999</ele>
        <time>2022-07-03T10:47:56Z</time>
      </trkpt>
      <trkpt lat="45.883285542950034" lon="7.834944846108556">
        <ele>3185.8899999999999</ele>
        <time>2022-07-03T10:48:17Z</time>
      </trkpt>
      <trkpt lat="45.883273053914309" lon="7.834948198869824">
        <ele>3186.3299999999999</ele>
        <time>2022-07-03T10:48:39Z</time>
      </trkpt>
      <trkpt lat="45.883262995630503" lon="7.834957418963313">
        <ele>3186.46</ele>
        <time>2022-07-03T10:49:03Z</time>
      </trkpt>
      <trkpt lat="45.883241454139352" lon="7.834933362901211">
        <ele>3186.8499999999999</ele>
        <time>2022-07-03T10:49:25Z</time>
      </trkpt>
      <trkpt lat="45.883265258744359" lon="7.834938727319241">
        <ele>3186.3499999999999</ele>
        <time>2022-07-03T10:49:48Z</time>
      </trkpt>
      <trkpt lat="45.88328629732132" lon="7.834953730925918">
        <ele>3187.73</ele>
        <time>2022-07-03T10:50:12Z</time>
      </trkpt>
      <trkpt lat="45.883285962045193" lon="7.834972338750958">
        <ele>3187.5500000000002</ele>
        <time>2022-07-03T10:50:29Z</time>
      </trkpt>
      <trkpt lat="45.883299959823489" lon="7.834972338750958">
        <ele>3187.1100000000001</ele>
        <time>2022-07-03T10:50:57Z</time>
      </trkpt>
      <trkpt lat="45.883304066956043" lon="7.834970327094197">
        <ele>3187.5700000000002</ele>
        <time>2022-07-03T10:51:45Z</time>
      </trkpt>
      <trkpt lat="45.883305408060551" lon="7.834963956847787">
        <ele>3185.0999999999999</ele>
        <time>2022-07-03T10:52:20Z</time>
      </trkpt>
      <trkpt lat="45.883304737508297" lon="7.834963789209724">
        <ele>3187.6300000000001</ele>
        <time>2022-07-03T10:52:22Z</time>
      </trkpt>
      <trkpt lat="45.88330440223217" lon="7.834961777552962">
        <ele>3188.8000000000002</ele>
        <time>2022-07-03T10:52:24Z</time>
      </trkpt>
      <trkpt lat="45.883302725851536" lon="7.834960268810391">
        <ele>3187.8400000000001</ele>
        <time>2022-07-03T10:52:32Z</time>
      </trkpt>
      <trkpt lat="45.883301636204123" lon="7.834982313215733">
        <ele>3186.9699999999998</ele>
        <time>2022-07-03T10:52:55Z</time>
      </trkpt>
      <trkpt lat="45.883312365040183" lon="7.834996646270156">
        <ele>3187.1399999999999</ele>
        <time>2022-07-03T10:53:19Z</time>
      </trkpt>
      <trkpt lat="45.883323010057211" lon="7.834999831393361">
        <ele>3187.0599999999999</ele>
        <time>2022-07-03T10:53:44Z</time>
      </trkpt>
      <trkpt lat="45.883312532678246" lon="7.835004860535264">
        <ele>3186.2399999999998</ele>
        <time>2022-07-03T10:54:10Z</time>
      </trkpt>
      <trkpt lat="45.883314711973071" lon="7.835022211074829">
        <ele>3186.52</ele>
        <time>2022-07-03T10:54:36Z</time>
      </trkpt>
      <trkpt lat="45.883312365040183" lon="7.835004022344947">
        <ele>3186.4000000000001</ele>
        <time>2022-07-03T10:55:03Z</time>
      </trkpt>
      <trkpt lat="45.8833097666502" lon="7.83499195240438">
        <ele>3186.73</ele>
        <time>2022-07-03T10:55:26Z</time>
      </trkpt>
      <trkpt lat="45.883314292877913" lon="7.835017517209053">
        <ele>3186.7399999999998</ele>
        <time>2022-07-03T10:55:51Z</time>
      </trkpt>
      <trkpt lat="45.883315885439515" lon="7.835028413683176">
        <ele>3186.6999999999998</ele>
        <time>2022-07-03T10:56:14Z</time>
      </trkpt>
      <trkpt lat="45.883320495486259" lon="7.83502908423543">
        <ele>3187.29</ele>
        <time>2022-07-03T10:56:40Z</time>
      </trkpt>
      <trkpt lat="45.883322171866894" lon="7.835009135305882">
        <ele>3186.8800000000001</ele>
        <time>2022-07-03T10:57:06Z</time>
      </trkpt>
      <trkpt lat="45.883335750550032" lon="7.835014499723911">
        <ele>3187.1999999999998</ele>
        <time>2022-07-03T10:57:29Z</time>
      </trkpt>
      <trkpt lat="45.883325356990099" lon="7.834996813908219">
        <ele>3186.96</ele>
        <time>2022-07-03T10:57:54Z</time>
      </trkpt>
      <trkpt lat="45.88332443498075" lon="7.834990611299872">
        <ele>3186.9699999999998</ele>
        <time>2022-07-03T10:58:12Z</time>
      </trkpt>
      <trkpt lat="45.883332565426826" lon="7.834987761452794">
        <ele>3186.6999999999998</ele>
        <time>2022-07-03T10:58:31Z</time>
      </trkpt>
      <trkpt lat="45.883334241807461" lon="7.834992203861475">
        <ele>3186.9099999999999</ele>
        <time>2022-07-03T10:58:55Z</time>
      </trkpt>
      <trkpt lat="45.88332393206656" lon="7.834983738139272">
        <ele>3186.6399999999999</ele>
        <time>2022-07-03T10:59:19Z</time>
      </trkpt>
      <trkpt lat="45.883328374475241" lon="7.834987929090858">
        <ele>3186.3600000000001</ele>
        <time>2022-07-03T10:59:43Z</time>
      </trkpt>
      <trkpt lat="45.883318986743689" lon="7.834979714825749">
        <ele>3186.21</ele>
        <time>2022-07-03T11:00:09Z</time>
      </trkpt>
      <trkpt lat="45.883322339504957" lon="7.834954736754298">
        <ele>3185.2600000000002</ele>
        <time>2022-07-03T11:00:33Z</time>
      </trkpt>
      <trkpt lat="45.883329547941685" lon="7.835001423954964">
        <ele>3185.5500000000002</ele>
        <time>2022-07-03T11:00:58Z</time>
      </trkpt>
      <trkpt lat="45.883337175473571" lon="7.834996310994029">
        <ele>3185.9099999999999</ele>
        <time>2022-07-03T11:01:24Z</time>
      </trkpt>
      <trkpt lat="45.883324183523655" lon="7.834986336529255">
        <ele>3185.8899999999999</ele>
        <time>2022-07-03T11:01:47Z</time>
      </trkpt>
      <trkpt lat="45.883330218493938" lon="7.834974685683847">
        <ele>3185.7199999999998</ele>
        <time>2022-07-03T11:02:05Z</time>
      </trkpt>
      <trkpt lat="45.883325021713972" lon="7.834979128092527">
        <ele>3185.8400000000001</ele>
        <time>2022-07-03T11:02:22Z</time>
      </trkpt>
      <trkpt lat="45.883323177695274" lon="7.834972841665149">
        <ele>3185.8600000000001</ele>
        <time>2022-07-03T11:02:44Z</time>
      </trkpt>
      <trkpt lat="45.883325273171067" lon="7.834985163062811">
        <ele>3186.0599999999999</ele>
        <time>2022-07-03T11:03:01Z</time>
      </trkpt>
      <trkpt lat="45.883329547941685" lon="7.834960352629423">
        <ele>3186.4400000000001</ele>
        <time>2022-07-03T11:03:26Z</time>
      </trkpt>
      <trkpt lat="45.88332736864686" lon="7.83494358882308">
        <ele>3186.27</ele>
        <time>2022-07-03T11:03:48Z</time>
      </trkpt>
      <trkpt lat="45.883332649245858" lon="7.834948198869824">
        <ele>3186.54</ele>
        <time>2022-07-03T11:04:12Z</time>
      </trkpt>
      <trkpt lat="45.883308677002788" lon="7.83493772149086">
        <ele>3186.8200000000002</ele>
        <time>2022-07-03T11:04:34Z</time>
      </trkpt>
      <trkpt lat="45.883315801620483" lon="7.834979379549623">
        <ele>3187</ele>
        <time>2022-07-03T11:05:10Z</time>
      </trkpt>
      <trkpt lat="45.883307084441185" lon="7.834976781159639">
        <ele>3186.48</ele>
        <time>2022-07-03T11:05:34Z</time>
      </trkpt>
      <trkpt lat="45.883336421102285" lon="7.834977535530925">
        <ele>3186.0999999999999</ele>
        <time>2022-07-03T11:05:56Z</time>
      </trkpt>
      <trkpt lat="45.883347485214472" lon="7.834960855543613">
        <ele>3185.6900000000001</ele>
        <time>2022-07-03T11:06:18Z</time>
      </trkpt>
      <trkpt lat="45.883358297869563" lon="7.834959849715233">
        <ele>3185.9699999999998</ele>
        <time>2022-07-03T11:06:41Z</time>
      </trkpt>
      <trkpt lat="45.883360812440515" lon="7.834956832230091">
        <ele>3185.9499999999998</ele>
        <time>2022-07-03T11:07:04Z</time>
      </trkpt>
      <trkpt lat="45.883353939279914" lon="7.834965968504548">
        <ele>3186.2199999999998</ele>
        <time>2022-07-03T11:07:27Z</time>
      </trkpt>
      <trkpt lat="45.883346227928996" lon="7.8349719196558">
        <ele>3185.9699999999998</ele>
        <time>2022-07-03T11:07:51Z</time>
      </trkpt>
      <trkpt lat="45.88334497064352" lon="7.834961777552962">
        <ele>3185.9499999999998</ele>
        <time>2022-07-03T11:08:07Z</time>
      </trkpt>
      <trkpt lat="45.883344803005457" lon="7.834960268810391">
        <ele>3186.1999999999998</ele>
        <time>2022-07-03T11:08:20Z</time>
      </trkpt>
      <trkpt lat="45.883349580690265" lon="7.834966890513897">
        <ele>3185.9499999999998</ele>
        <time>2022-07-03T11:08:35Z</time>
      </trkpt>
      <trkpt lat="45.88334103114903" lon="7.834974434226751">
        <ele>3186.2199999999998</ele>
        <time>2022-07-03T11:09:00Z</time>
      </trkpt>
      <trkpt lat="45.883345473557711" lon="7.834969740360975">
        <ele>3185.6500000000001</ele>
        <time>2022-07-03T11:09:18Z</time>
      </trkpt>
      <trkpt lat="45.8833391033113" lon="7.834948115050793">
        <ele>3185.71</ele>
        <time>2022-07-03T11:09:44Z</time>
      </trkpt>
      <trkpt lat="45.883340444415808" lon="7.83496554940939">
        <ele>3185.75</ele>
        <time>2022-07-03T11:10:08Z</time>
      </trkpt>
      <trkpt lat="45.883343629539013" lon="7.834972171112895">
        <ele>3185.3000000000002</ele>
        <time>2022-07-03T11:10:25Z</time>
      </trkpt>
      <trkpt lat="45.883342372253537" lon="7.834967477247119">
        <ele>3185.25</ele>
        <time>2022-07-03T11:10:51Z</time>
      </trkpt>
      <trkpt lat="45.883337929844856" lon="7.834968063980341">
        <ele>3185.6999999999998</ele>
        <time>2022-07-03T11:11:15Z</time>
      </trkpt>
      <trkpt lat="45.883350251242518" lon="7.834972506389022">
        <ele>3185.5999999999999</ele>
        <time>2022-07-03T11:11:41Z</time>
      </trkpt>
      <trkpt lat="45.883323512971401" lon="7.834967393428087">
        <ele>3185.3699999999999</ele>
        <time>2022-07-03T11:12:16Z</time>
      </trkpt>
      <trkpt lat="45.883333319798112" lon="7.834959765896201">
        <ele>3185.3699999999999</ele>
        <time>2022-07-03T11:12:38Z</time>
      </trkpt>
      <trkpt lat="45.883317394182086" lon="7.834971584379673">
        <ele>3185.54</ele>
        <time>2022-07-03T11:12:56Z</time>
      </trkpt>
      <trkpt lat="45.883329464122653" lon="7.834983402863145">
        <ele>3185.3200000000002</ele>
        <time>2022-07-03T11:13:22Z</time>
      </trkpt>
      <trkpt lat="45.883319908753037" lon="7.834971332922578">
        <ele>3184.7800000000002</ele>
        <time>2022-07-03T11:13:47Z</time>
      </trkpt>
      <trkpt lat="45.883318232372403" lon="7.834940403699875">
        <ele>3184.7600000000002</ele>
        <time>2022-07-03T11:14:11Z</time>
      </trkpt>
      <trkpt lat="45.883309515193105" lon="7.834949204698205">
        <ele>3184.0500000000002</ele>
        <time>2022-07-03T11:14:33Z</time>
      </trkpt>
      <trkpt lat="45.883320160210133" lon="7.834978708997369">
        <ele>3183.9000000000001</ele>
        <time>2022-07-03T11:14:52Z</time>
      </trkpt>
      <trkpt lat="45.883321166038513" lon="7.834970913827419">
        <ele>3184.29</ele>
        <time>2022-07-03T11:15:15Z</time>
      </trkpt>
      <trkpt lat="45.883321333676577" lon="7.834954569116235">
        <ele>3184.6500000000001</ele>
        <time>2022-07-03T11:15:40Z</time>
      </trkpt>
      <trkpt lat="45.88330389931798" lon="7.834952892735601">
        <ele>3184.5100000000002</ele>
        <time>2022-07-03T11:16:03Z</time>
      </trkpt>
      <trkpt lat="45.883307503536344" lon="7.834976613521576">
        <ele>3184.54</ele>
        <time>2022-07-03T11:16:22Z</time>
      </trkpt>
      <trkpt lat="45.883304737508297" lon="7.834980050101876">
        <ele>3183.27</ele>
        <time>2022-07-03T11:16:32Z</time>
      </trkpt>
      <trkpt lat="45.88330440223217" lon="7.834983738139272">
        <ele>3187.0500000000002</ele>
        <time>2022-07-03T11:16:54Z</time>
      </trkpt>
      <trkpt lat="45.88329610414803" lon="7.834982229396701">
        <ele>3185.3200000000002</ele>
        <time>2022-07-03T11:16:57Z</time>
      </trkpt>
      <trkpt lat="45.883296439424157" lon="7.834983486682177">
        <ele>3185.77</ele>
        <time>2022-07-03T11:17:08Z</time>
      </trkpt>
      <trkpt lat="45.883304653689265" lon="7.834985079243779">
        <ele>3185.3699999999999</ele>
        <time>2022-07-03T11:17:25Z</time>
      </trkpt>
      <trkpt lat="45.88328193873167" lon="7.834976781159639">
        <ele>3185.1500000000001</ele>
        <time>2022-07-03T11:17:45Z</time>
      </trkpt>
      <trkpt lat="45.883290572091937" lon="7.834959682077169">
        <ele>3185.3299999999999</ele>
        <time>2022-07-03T11:18:07Z</time>
      </trkpt>
      <trkpt lat="45.88329266756773" lon="7.834974937140942">
        <ele>3185.3499999999999</ele>
        <time>2022-07-03T11:18:21Z</time>
      </trkpt>
      <trkpt lat="45.883292583748698" lon="7.834962448105216">
        <ele>3184.8499999999999</ele>
        <time>2022-07-03T11:18:44Z</time>
      </trkpt>
      <trkpt lat="45.883293505758047" lon="7.834961777552962">
        <ele>3185.3699999999999</ele>
        <time>2022-07-03T11:19:03Z</time>
      </trkpt>
      <trkpt lat="45.883290069177747" lon="7.834969069808722">
        <ele>3185.3000000000002</ele>
        <time>2022-07-03T11:19:11Z</time>
      </trkpt>
      <trkpt lat="45.883295014500618" lon="7.834972841665149">
        <ele>3185.6199999999999</ele>
        <time>2022-07-03T11:19:28Z</time>
      </trkpt>
      <trkpt lat="45.883295014500618" lon="7.834977200254798">
        <ele>3186.3600000000001</ele>
        <time>2022-07-03T11:19:56Z</time>
      </trkpt>
      <trkpt lat="45.883303815498948" lon="7.834985330700874">
        <ele>3186.1399999999999</ele>
        <time>2022-07-03T11:20:14Z</time>
      </trkpt>
      <trkpt lat="45.88330783881247" lon="7.834981642663479">
        <ele>3185.9200000000001</ele>
        <time>2022-07-03T11:20:36Z</time>
      </trkpt>
      <trkpt lat="45.883306916803122" lon="7.834981810301542">
        <ele>3185.71</ele>
        <time>2022-07-03T11:20:42Z</time>
      </trkpt>
      <trkpt lat="45.883301887661219" lon="7.834989773109555">
        <ele>3185.52</ele>
        <time>2022-07-03T11:20:50Z</time>
      </trkpt>
      <trkpt lat="45.8833132032305" lon="7.835007794201374">
        <ele>3185.6900000000001</ele>
        <time>2022-07-03T11:21:00Z</time>
      </trkpt>
      <trkpt lat="45.883331978693604" lon="7.83507602289319">
        <ele>3185.6199999999999</ele>
        <time>2022-07-03T11:21:13Z</time>
      </trkpt>
      <trkpt lat="45.883350921794772" lon="7.835107957944274">
        <ele>3185.02</ele>
        <time>2022-07-03T11:21:21Z</time>
      </trkpt>
      <trkpt lat="45.883353855460882" lon="7.835152801126242">
        <ele>3184.4000000000001</ele>
        <time>2022-07-03T11:21:26Z</time>
      </trkpt>
      <trkpt lat="45.883398028090596" lon="7.835252713412046">
        <ele>3182.6599999999999</ele>
        <time>2022-07-03T11:21:36Z</time>
      </trkpt>
      <trkpt lat="45.883428789675236" lon="7.835315074771643">
        <ele>3181.46</ele>
        <time>2022-07-03T11:21:42Z</time>
      </trkpt>
      <trkpt lat="45.883489558473229" lon="7.835450861603022">
        <ele>3180.2600000000002</ele>
        <time>2022-07-03T11:21:53Z</time>
      </trkpt>
      <trkpt lat="45.883495509624481" lon="7.835485730320215">
        <ele>3179.8400000000001</ele>
        <time>2022-07-03T11:21:56Z</time>
      </trkpt>
      <trkpt lat="45.883508501574397" lon="7.835500482469797">
        <ele>3179.8099999999999</ele>
        <time>2022-07-03T11:22:03Z</time>
      </trkpt>
      <trkpt lat="45.883506406098604" lon="7.835522443056107">
        <ele>3179.7399999999998</ele>
        <time>2022-07-03T11:22:09Z</time>
      </trkpt>
      <trkpt lat="45.883506238460541" lon="7.835534093901515">
        <ele>3179.7800000000002</ele>
        <time>2022-07-03T11:22:10Z</time>
      </trkpt>
      <trkpt lat="45.883538257330656" lon="7.835673233494163">
        <ele>3178.46</ele>
        <time>2022-07-03T11:22:20Z</time>
      </trkpt>
      <trkpt lat="45.883629200980067" lon="7.83585243858397">
        <ele>3177.23</ele>
        <time>2022-07-03T11:22:34Z</time>
      </trkpt>
      <trkpt lat="45.883686533197761" lon="7.836075481027365">
        <ele>3175.8400000000001</ele>
        <time>2022-07-03T11:22:49Z</time>
      </trkpt>
      <trkpt lat="45.883694496005774" lon="7.836115127429366">
        <ele>3175.5300000000002</ele>
        <time>2022-07-03T11:22:52Z</time>
      </trkpt>
      <trkpt lat="45.88369332253933" lon="7.836319310590625">
        <ele>3174.29</ele>
        <time>2022-07-03T11:23:06Z</time>
      </trkpt>
      <trkpt lat="45.883690053597093" lon="7.836346384137869">
        <ele>3173.77</ele>
        <time>2022-07-03T11:23:08Z</time>
      </trkpt>
      <trkpt lat="45.883669853210449" lon="7.836535982787609">
        <ele>3172.5799999999999</ele>
        <time>2022-07-03T11:23:21Z</time>
      </trkpt>
      <trkpt lat="45.883669517934322" lon="7.836548471823335">
        <ele>3172.4200000000001</ele>
        <time>2022-07-03T11:23:22Z</time>
      </trkpt>
      <trkpt lat="45.883713774383068" lon="7.836682414636016">
        <ele>3171.1300000000001</ele>
        <time>2022-07-03T11:23:33Z</time>
      </trkpt>
      <trkpt lat="45.883815530687571" lon="7.836810322478414">
        <ele>3170.6399999999999</ele>
        <time>2022-07-03T11:23:46Z</time>
      </trkpt>
      <trkpt lat="45.883836820721626" lon="7.836849382147193">
        <ele>3170.4000000000001</ele>
        <time>2022-07-03T11:23:50Z</time>
      </trkpt>
      <trkpt lat="45.88386339135468" lon="7.836986174806953">
        <ele>3168.98</ele>
        <time>2022-07-03T11:24:03Z</time>
      </trkpt>
      <trkpt lat="45.883894069120288" lon="7.837103018537164">
        <ele>3167.98</ele>
        <time>2022-07-03T11:24:17Z</time>
      </trkpt>
      <trkpt lat="45.883849393576384" lon="7.837164374068379">
        <ele>3165.96</ele>
        <time>2022-07-03T11:24:27Z</time>
      </trkpt>
      <trkpt lat="45.88385165669024" lon="7.837170157581568">
        <ele>3165.7800000000002</ele>
        <time>2022-07-03T11:24:28Z</time>
      </trkpt>
      <trkpt lat="45.883861714974046" lon="7.837193040177226">
        <ele>3165.46</ele>
        <time>2022-07-03T11:24:30Z</time>
      </trkpt>
      <trkpt lat="45.883875545114279" lon="7.837281050160527">
        <ele>3164.3699999999999</ele>
        <time>2022-07-03T11:24:39Z</time>
      </trkpt>
      <trkpt lat="45.883910330012441" lon="7.837338047102094">
        <ele>3164.3000000000002</ele>
        <time>2022-07-03T11:24:47Z</time>
      </trkpt>
      <trkpt lat="45.883917538449168" lon="7.837360678240657">
        <ele>3164.0700000000002</ele>
        <time>2022-07-03T11:24:50Z</time>
      </trkpt>
      <trkpt lat="45.883929524570704" lon="7.83741557970643">
        <ele>3163.0799999999999</ele>
        <time>2022-07-03T11:24:58Z</time>
      </trkpt>
      <trkpt lat="45.883943187072873" lon="7.837454555556178">
        <ele>3162.5</ele>
        <time>2022-07-03T11:25:09Z</time>
      </trkpt>
      <trkpt lat="45.883957352489233" lon="7.837490513920784">
        <ele>3162.3000000000002</ele>
        <time>2022-07-03T11:25:16Z</time>
      </trkpt>
      <trkpt lat="45.883956011384726" lon="7.837515156716108">
        <ele>3161.6700000000001</ele>
        <time>2022-07-03T11:25:22Z</time>
      </trkpt>
      <trkpt lat="45.883964393287897" lon="7.837564526125789">
        <ele>3160.73</ele>
        <time>2022-07-03T11:25:31Z</time>
      </trkpt>
      <trkpt lat="45.883982917293906" lon="7.837634431198239">
        <ele>3161.21</ele>
        <time>2022-07-03T11:25:40Z</time>
      </trkpt>
      <trkpt lat="45.884015774354339" lon="7.837685476988554">
        <ele>3162.21</ele>
        <time>2022-07-03T11:25:49Z</time>
      </trkpt>
      <trkpt lat="45.884008398279548" lon="7.837684722617269">
        <ele>3162.1399999999999</ele>
        <time>2022-07-03T11:25:52Z</time>
      </trkpt>
      <trkpt lat="45.884029101580381" lon="7.837716154754162">
        <ele>3161.77</ele>
        <time>2022-07-03T11:25:58Z</time>
      </trkpt>
      <trkpt lat="45.884031364694238" lon="7.837783629074693">
        <ele>3160.21</ele>
        <time>2022-07-03T11:26:10Z</time>
      </trkpt>
      <trkpt lat="45.884025748819113" lon="7.837824365124106">
        <ele>3159.6199999999999</ele>
        <time>2022-07-03T11:26:18Z</time>
      </trkpt>
      <trkpt lat="45.884042177349329" lon="7.837890079244971">
        <ele>3158.8800000000001</ele>
        <time>2022-07-03T11:26:27Z</time>
      </trkpt>
      <trkpt lat="45.884053576737642" lon="7.837957553565502">
        <ele>3158.4699999999998</ele>
        <time>2022-07-03T11:26:34Z</time>
      </trkpt>
      <trkpt lat="45.884081991389394" lon="7.838042546063662">
        <ele>3157.8099999999999</ele>
        <time>2022-07-03T11:26:42Z</time>
      </trkpt>
      <trkpt lat="45.884097497910261" lon="7.838097028434277">
        <ele>3157.9299999999998</ele>
        <time>2022-07-03T11:26:47Z</time>
      </trkpt>
      <trkpt lat="45.884129097685218" lon="7.838178751990199">
        <ele>3158.1500000000001</ele>
        <time>2022-07-03T11:26:57Z</time>
      </trkpt>
      <trkpt lat="45.884126583114266" lon="7.838241700083017">
        <ele>3158.5900000000001</ele>
        <time>2022-07-03T11:27:05Z</time>
      </trkpt>
      <trkpt lat="45.88413798250258" lon="7.838321579620242">
        <ele>3158.73</ele>
        <time>2022-07-03T11:27:14Z</time>
      </trkpt>
      <trkpt lat="45.884138820692897" lon="7.838327446952462">
        <ele>3158.5100000000002</ele>
        <time>2022-07-03T11:27:15Z</time>
      </trkpt>
      <trkpt lat="45.884141167625785" lon="7.838349491357803">
        <ele>3158.0999999999999</ele>
        <time>2022-07-03T11:27:17Z</time>
      </trkpt>
      <trkpt lat="45.884146112948656" lon="7.838415456935763">
        <ele>3158.6399999999999</ele>
        <time>2022-07-03T11:27:24Z</time>
      </trkpt>
      <trkpt lat="45.88414628058672" lon="7.838499443605542">
        <ele>3159.96</ele>
        <time>2022-07-03T11:27:34Z</time>
      </trkpt>
      <trkpt lat="45.884162876754999" lon="7.838593572378159">
        <ele>3160.0300000000002</ele>
        <time>2022-07-03T11:27:43Z</time>
      </trkpt>
      <trkpt lat="45.884174024686217" lon="7.838616035878658">
        <ele>3159.9499999999998</ele>
        <time>2022-07-03T11:27:46Z</time>
      </trkpt>
      <trkpt lat="45.884196236729622" lon="7.838668758049607">
        <ele>3159.6999999999998</ele>
        <time>2022-07-03T11:27:52Z</time>
      </trkpt>
      <trkpt lat="45.884224399924278" lon="7.838754337280989">
        <ele>3160.4099999999999</ele>
        <time>2022-07-03T11:28:01Z</time>
      </trkpt>
      <trkpt lat="45.884223813191056" lon="7.838781578466296">
        <ele>3160.48</ele>
        <time>2022-07-03T11:28:04Z</time>
      </trkpt>
      <trkpt lat="45.884241666644812" lon="7.838819297030568">
        <ele>3160.6799999999998</ele>
        <time>2022-07-03T11:28:08Z</time>
      </trkpt>
      <trkpt lat="45.884234206750989" lon="7.838907977566123">
        <ele>3161.5799999999999</ele>
        <time>2022-07-03T11:28:17Z</time>
      </trkpt>
      <trkpt lat="45.884233703836799" lon="7.838946282863617">
        <ele>3161.9499999999998</ele>
        <time>2022-07-03T11:28:21Z</time>
      </trkpt>
      <trkpt lat="45.884235799312592" lon="7.839074358344078">
        <ele>3162.29</ele>
        <time>2022-07-03T11:28:32Z</time>
      </trkpt>
      <trkpt lat="45.884230686351657" lon="7.839218694716692">
        <ele>3161.9699999999998</ele>
        <time>2022-07-03T11:28:43Z</time>
      </trkpt>
      <trkpt lat="45.884232614189386" lon="7.839226657524705">
        <ele>3162.04</ele>
        <time>2022-07-03T11:28:44Z</time>
      </trkpt>
      <trkpt lat="45.884248455986381" lon="7.839262615889311">
        <ele>3162.3899999999999</ele>
        <time>2022-07-03T11:28:49Z</time>
      </trkpt>
      <trkpt lat="45.884254239499569" lon="7.839303435757756">
        <ele>3162.5900000000001</ele>
        <time>2022-07-03T11:28:53Z</time>
      </trkpt>
      <trkpt lat="45.884261783212423" lon="7.839402761310339">
        <ele>3163.1399999999999</ele>
        <time>2022-07-03T11:29:02Z</time>
      </trkpt>
      <trkpt lat="45.884255832061172" lon="7.839477024972439">
        <ele>3163.8699999999999</ele>
        <time>2022-07-03T11:29:11Z</time>
      </trkpt>
      <trkpt lat="45.884248958900571" lon="7.839531423524022">
        <ele>3163.9699999999998</ele>
        <time>2022-07-03T11:29:24Z</time>
      </trkpt>
      <trkpt lat="45.884245270863175" lon="7.839659499004483">
        <ele>3162.0900000000001</ele>
        <time>2022-07-03T11:29:38Z</time>
      </trkpt>
      <trkpt lat="45.884242337197065" lon="7.839732421562076">
        <ele>3161.04</ele>
        <time>2022-07-03T11:29:50Z</time>
      </trkpt>
      <trkpt lat="45.884268237277865" lon="7.839781790971756">
        <ele>3161.21</ele>
        <time>2022-07-03T11:29:57Z</time>
      </trkpt>
      <trkpt lat="45.884293299168348" lon="7.839808026328683">
        <ele>3160.9000000000001</ele>
        <time>2022-07-03T11:30:00Z</time>
      </trkpt>
      <trkpt lat="45.884313667193055" lon="7.839855886995792">
        <ele>3161.1799999999998</ele>
        <time>2022-07-03T11:30:04Z</time>
      </trkpt>
      <trkpt lat="45.884325485676527" lon="7.839890420436859">
        <ele>3161.1500000000001</ele>
        <time>2022-07-03T11:30:08Z</time>
      </trkpt>
      <trkpt lat="45.88435691781342" lon="7.83991196192801">
        <ele>3161.71</ele>
        <time>2022-07-03T11:30:13Z</time>
      </trkpt>
      <trkpt lat="45.884364964440465" lon="7.839948339387775">
        <ele>3161.3200000000002</ele>
        <time>2022-07-03T11:30:17Z</time>
      </trkpt>
      <trkpt lat="45.88436228223145" lon="7.84001799300313">
        <ele>3161.2800000000002</ele>
        <time>2022-07-03T11:30:24Z</time>
      </trkpt>
      <trkpt lat="45.884398575872183" lon="7.840096866711974">
        <ele>3161.4499999999998</ele>
        <time>2022-07-03T11:30:33Z</time>
      </trkpt>
      <trkpt lat="45.884410729631782" lon="7.840132405981422">
        <ele>3161.6100000000001</ele>
        <time>2022-07-03T11:30:37Z</time>
      </trkpt>
      <trkpt lat="45.884426822885871" lon="7.840199796482921">
        <ele>3161.96</ele>
        <time>2022-07-03T11:30:44Z</time>
      </trkpt>
      <trkpt lat="45.884463954716921" lon="7.840298535302281">
        <ele>3162.0300000000002</ele>
        <time>2022-07-03T11:30:54Z</time>
      </trkpt>
      <trkpt lat="45.884497566148639" lon="7.840406578034163">
        <ele>3161.8899999999999</ele>
        <time>2022-07-03T11:31:05Z</time>
      </trkpt>
      <trkpt lat="45.884524220600724" lon="7.84044848755002">
        <ele>3161.4099999999999</ele>
        <time>2022-07-03T11:31:10Z</time>
      </trkpt>
      <trkpt lat="45.884529836475849" lon="7.840470280498266">
        <ele>3161.3499999999999</ele>
        <time>2022-07-03T11:31:12Z</time>
      </trkpt>
      <trkpt lat="45.884555652737617" lon="7.840568851679564">
        <ele>3161.0799999999999</ele>
        <time>2022-07-03T11:31:21Z</time>
      </trkpt>
      <trkpt lat="45.884572835639119" lon="7.840606989338994">
        <ele>3161.3400000000001</ele>
        <time>2022-07-03T11:31:25Z</time>
      </trkpt>
      <trkpt lat="45.884619858115911" lon="7.84070254303515">
        <ele>3161.48</ele>
        <time>2022-07-03T11:31:37Z</time>
      </trkpt>
      <trkpt lat="45.884627820923924" lon="7.840789128094912">
        <ele>3159.3499999999999</ele>
        <time>2022-07-03T11:31:48Z</time>
      </trkpt>
      <trkpt lat="45.884613404050469" lon="7.840867331251502">
        <ele>3156.3499999999999</ele>
        <time>2022-07-03T11:31:59Z</time>
      </trkpt>
      <trkpt lat="45.884593371301889" lon="7.840854590758681">
        <ele>3155.73</ele>
        <time>2022-07-03T11:32:17Z</time>
      </trkpt>
      <trkpt lat="45.884590353816748" lon="7.840852998197079">
        <ele>3155.5599999999999</ele>
        <time>2022-07-03T11:32:35Z</time>
      </trkpt>
      <trkpt lat="45.884618768468499" lon="7.8409244120121">
        <ele>3155.0100000000002</ele>
        <time>2022-07-03T11:32:46Z</time>
      </trkpt>
      <trkpt lat="45.884649194777012" lon="7.841001441702247">
        <ele>3153.9400000000001</ele>
        <time>2022-07-03T11:32:55Z</time>
      </trkpt>
      <trkpt lat="45.884669814258814" lon="7.841086937114596">
        <ele>3152.1199999999999</ele>
        <time>2022-07-03T11:33:09Z</time>
      </trkpt>
      <trkpt lat="45.884709544479847" lon="7.841190872713924">
        <ele>3149.48</ele>
        <time>2022-07-03T11:33:22Z</time>
      </trkpt>
      <trkpt lat="45.884769391268492" lon="7.841236470267177">
        <ele>3148.71</ele>
        <time>2022-07-03T11:33:34Z</time>
      </trkpt>
      <trkpt lat="45.884846253320575" lon="7.841287180781364">
        <ele>3150.3899999999999</ele>
        <time>2022-07-03T11:33:46Z</time>
      </trkpt>
      <trkpt lat="45.884879445657134" lon="7.841375945135951">
        <ele>3149.8099999999999</ele>
        <time>2022-07-03T11:33:56Z</time>
      </trkpt>
      <trkpt lat="45.884893275797367" lon="7.84150879830122">
        <ele>3147.8800000000001</ele>
        <time>2022-07-03T11:34:09Z</time>
      </trkpt>
      <trkpt lat="45.88493057526648" lon="7.841625139117241">
        <ele>3146.0300000000002</ele>
        <time>2022-07-03T11:34:21Z</time>
      </trkpt>
      <trkpt lat="45.884961672127247" lon="7.841699989512563">
        <ele>3146.0900000000001</ele>
        <time>2022-07-03T11:34:29Z</time>
      </trkpt>
      <trkpt lat="45.88501799851656" lon="7.841806774958968">
        <ele>3146.9200000000001</ele>
        <time>2022-07-03T11:34:42Z</time>
      </trkpt>
      <trkpt lat="45.885024452582002" lon="7.841845331713557">
        <ele>3146.2399999999998</ele>
        <time>2022-07-03T11:34:46Z</time>
      </trkpt>
      <trkpt lat="45.885066529735923" lon="7.84195245243609">
        <ele>3146.1199999999999</ele>
        <time>2022-07-03T11:34:56Z</time>
      </trkpt>
      <trkpt lat="45.885116904973984" lon="7.842088909819722">
        <ele>3146.0999999999999</ele>
        <time>2022-07-03T11:35:09Z</time>
      </trkpt>
      <trkpt lat="45.885150013491511" lon="7.842204077169299">
        <ele>3143.9200000000001</ele>
        <time>2022-07-03T11:35:23Z</time>
      </trkpt>
      <trkpt lat="45.88519292883575" lon="7.842325614765286">
        <ele>3142.9699999999998</ele>
        <time>2022-07-03T11:35:35Z</time>
      </trkpt>
      <trkpt lat="45.885239280760288" lon="7.842393005266786">
        <ele>3140.6700000000001</ele>
        <time>2022-07-03T11:35:49Z</time>
      </trkpt>
      <trkpt lat="45.885263085365295" lon="7.842433741316199">
        <ele>3139.0700000000002</ele>
        <time>2022-07-03T11:36:02Z</time>
      </trkpt>
      <trkpt lat="45.885288733989" lon="7.842499790713191">
        <ele>3138.1599999999999</ele>
        <time>2022-07-03T11:36:14Z</time>
      </trkpt>
      <trkpt lat="45.885311951860785" lon="7.842556536197662">
        <ele>3137.77</ele>
        <time>2022-07-03T11:36:21Z</time>
      </trkpt>
      <trkpt lat="45.88533123023808" lon="7.84259551204741">
        <ele>3137.96</ele>
        <time>2022-07-03T11:36:25Z</time>
      </trkpt>
      <trkpt lat="45.885332319885492" lon="7.842694669961929">
        <ele>3137.8699999999999</ele>
        <time>2022-07-03T11:36:37Z</time>
      </trkpt>
      <trkpt lat="45.885329553857446" lon="7.842786787077785">
        <ele>3137.29</ele>
        <time>2022-07-03T11:36:55Z</time>
      </trkpt>
      <trkpt lat="45.885342042893171" lon="7.842888124287128">
        <ele>3137.1700000000001</ele>
        <time>2022-07-03T11:37:03Z</time>
      </trkpt>
      <trkpt lat="45.885343551635742" lon="7.842999771237373">
        <ele>3136.8200000000002</ele>
        <time>2022-07-03T11:37:15Z</time>
      </trkpt>
      <trkpt lat="45.885334834456444" lon="7.843000693246722">
        <ele>3137.2199999999998</ele>
        <time>2022-07-03T11:37:32Z</time>
      </trkpt>
      <trkpt lat="45.885342797264457" lon="7.843061881139875">
        <ele>3136.79</ele>
        <time>2022-07-03T11:37:44Z</time>
      </trkpt>
      <trkpt lat="45.885352184996009" lon="7.843158440664411">
        <ele>3137.1500000000001</ele>
        <time>2022-07-03T11:37:54Z</time>
      </trkpt>
      <trkpt lat="45.885349754244089" lon="7.843371005728841">
        <ele>3135.9200000000001</ele>
        <time>2022-07-03T11:38:11Z</time>
      </trkpt>
      <trkpt lat="45.885354615747929" lon="7.843419872224331">
        <ele>3135.5900000000001</ele>
        <time>2022-07-03T11:38:15Z</time>
      </trkpt>
      <trkpt lat="45.885353358462453" lon="7.843552641570568">
        <ele>3134.73</ele>
        <time>2022-07-03T11:38:26Z</time>
      </trkpt>
      <trkpt lat="45.885345144197345" lon="7.843683399260044">
        <ele>3134.1599999999999</ele>
        <time>2022-07-03T11:38:39Z</time>
      </trkpt>
      <trkpt lat="45.885323267430067" lon="7.843816252425313">
        <ele>3132.8800000000001</ele>
        <time>2022-07-03T11:38:52Z</time>
      </trkpt>
      <trkpt lat="45.885293930768967" lon="7.843951201066375">
        <ele>3131.8499999999999</ele>
        <time>2022-07-03T11:39:07Z</time>
      </trkpt>
      <trkpt lat="45.885273311287165" lon="7.844066452234983">
        <ele>3130.0799999999999</ele>
        <time>2022-07-03T11:39:21Z</time>
      </trkpt>
      <trkpt lat="45.885273311287165" lon="7.844119677320123">
        <ele>3128.7800000000002</ele>
        <time>2022-07-03T11:39:30Z</time>
      </trkpt>
      <trkpt lat="45.885264426469803" lon="7.844148175790906">
        <ele>3127.8499999999999</ele>
        <time>2022-07-03T11:39:42Z</time>
      </trkpt>
      <trkpt lat="45.885270545259118" lon="7.844174494966865">
        <ele>3127.1999999999998</ele>
        <time>2022-07-03T11:39:45Z</time>
      </trkpt>
      <trkpt lat="45.885341875255108" lon="7.844295110553503">
        <ele>3125.6500000000001</ele>
        <time>2022-07-03T11:39:58Z</time>
      </trkpt>
      <trkpt lat="45.885350424796343" lon="7.844337187707424">
        <ele>3125.1199999999999</ele>
        <time>2022-07-03T11:40:12Z</time>
      </trkpt>
      <trkpt lat="45.885349167510867" lon="7.84433257766068">
        <ele>3125.0300000000002</ele>
        <time>2022-07-03T11:40:32Z</time>
      </trkpt>
      <trkpt lat="45.885350005701184" lon="7.844334254041314">
        <ele>3124.3400000000001</ele>
        <time>2022-07-03T11:40:48Z</time>
      </trkpt>
      <trkpt lat="45.885338690131903" lon="7.844346826896071">
        <ele>3124.25</ele>
        <time>2022-07-03T11:41:09Z</time>
      </trkpt>
      <trkpt lat="45.885340282693505" lon="7.844331739470363">
        <ele>3125.2800000000002</ele>
        <time>2022-07-03T11:41:26Z</time>
      </trkpt>
      <trkpt lat="45.885346233844757" lon="7.844334756955504">
        <ele>3125.29</ele>
        <time>2022-07-03T11:41:40Z</time>
      </trkpt>
      <trkpt lat="45.885341875255108" lon="7.844341797754169">
        <ele>3125.8099999999999</ele>
        <time>2022-07-03T11:41:59Z</time>
      </trkpt>
      <trkpt lat="45.885346485301852" lon="7.844345401972532">
        <ele>3126.5500000000002</ele>
        <time>2022-07-03T11:42:15Z</time>
      </trkpt>
      <trkpt lat="45.885346904397011" lon="7.844345737248659">
        <ele>3125.0799999999999</ele>
        <time>2022-07-03T11:42:18Z</time>
      </trkpt>
      <trkpt lat="45.885338941588998" lon="7.844343725591898">
        <ele>3125.3899999999999</ele>
        <time>2022-07-03T11:42:35Z</time>
      </trkpt>
      <trkpt lat="45.885345060378313" lon="7.844343725591898">
        <ele>3125.8899999999999</ele>
        <time>2022-07-03T11:42:47Z</time>
      </trkpt>
      <trkpt lat="45.885343970730901" lon="7.84434724599123">
        <ele>3125.4099999999999</ele>
        <time>2022-07-03T11:43:04Z</time>
      </trkpt>
      <trkpt lat="45.885337013751268" lon="7.844349341467023">
        <ele>3125.1700000000001</ele>
        <time>2022-07-03T11:43:21Z</time>
      </trkpt>
      <trkpt lat="45.88533173315227" lon="7.844366440549493">
        <ele>3125.52</ele>
        <time>2022-07-03T11:43:40Z</time>
      </trkpt>
      <trkpt lat="45.885285213589668" lon="7.844440452754498">
        <ele>3123.71</ele>
        <time>2022-07-03T11:43:51Z</time>
      </trkpt>
      <trkpt lat="45.885237017646432" lon="7.844502562656999">
        <ele>3122.4000000000001</ele>
        <time>2022-07-03T11:44:03Z</time>
      </trkpt>
      <trkpt lat="45.885209692642093" lon="7.844548495486379">
        <ele>3121.8600000000001</ele>
        <time>2022-07-03T11:44:17Z</time>
      </trkpt>
      <trkpt lat="45.885147666558623" lon="7.844671709463">
        <ele>3119.4099999999999</ele>
        <time>2022-07-03T11:44:31Z</time>
      </trkpt>
      <trkpt lat="45.885061165317893" lon="7.844792241230607">
        <ele>3118.6999999999998</ele>
        <time>2022-07-03T11:44:46Z</time>
      </trkpt>
      <trkpt lat="45.885037612169981" lon="7.844834821298719">
        <ele>3118.1700000000001</ele>
        <time>2022-07-03T11:44:59Z</time>
      </trkpt>
      <trkpt lat="45.885024620220065" lon="7.844833983108401">
        <ele>3118.6199999999999</ele>
        <time>2022-07-03T11:45:12Z</time>
      </trkpt>
      <trkpt lat="45.885019255802035" lon="7.84483683295548">
        <ele>3118.6900000000001</ele>
        <time>2022-07-03T11:45:31Z</time>
      </trkpt>
      <trkpt lat="45.884998720139265" lon="7.844853261485696">
        <ele>3114.0799999999999</ele>
        <time>2022-07-03T11:45:44Z</time>
      </trkpt>
      <trkpt lat="45.884997714310884" lon="7.844853345304728">
        <ele>3122.9000000000001</ele>
        <time>2022-07-03T11:45:45Z</time>
      </trkpt>
      <trkpt lat="45.884996624663472" lon="7.844852758571506">
        <ele>3122.3699999999999</ele>
        <time>2022-07-03T11:45:46Z</time>
      </trkpt>
      <trkpt lat="45.884997630491853" lon="7.844852674752474">
        <ele>3111.8400000000001</ele>
        <time>2022-07-03T11:45:48Z</time>
      </trkpt>
      <trkpt lat="45.884997630491853" lon="7.844852674752474">
        <ele>3113.5</ele>
        <time>2022-07-03T11:45:49Z</time>
      </trkpt>
      <trkpt lat="45.884997379034758" lon="7.844852339476347">
        <ele>3119.52</ele>
        <time>2022-07-03T11:45:51Z</time>
      </trkpt>
      <trkpt lat="45.884997379034758" lon="7.844850495457649">
        <ele>3119.0599999999999</ele>
        <time>2022-07-03T11:45:52Z</time>
      </trkpt>
      <trkpt lat="45.884997043758631" lon="7.844851752743125">
        <ele>3126.9699999999998</ele>
        <time>2022-07-03T11:45:53Z</time>
      </trkpt>
      <trkpt lat="45.88499360717833" lon="7.844855776056647">
        <ele>3122.6599999999999</ele>
        <time>2022-07-03T11:45:54Z</time>
      </trkpt>
      <trkpt lat="45.884979190304875" lon="7.844870612025261">
        <ele>3118.8299999999999</ele>
        <time>2022-07-03T11:45:56Z</time>
      </trkpt>
      <trkpt lat="45.884937699884176" lon="7.844905899837613">
        <ele>3118.1900000000001</ele>
        <time>2022-07-03T11:46:01Z</time>
      </trkpt>
      <trkpt lat="45.884811971336603" lon="7.844987623393536">
        <ele>3117.98</ele>
        <time>2022-07-03T11:46:14Z</time>
      </trkpt>
      <trkpt lat="45.88477467186749" lon="7.845005644485354">
        <ele>3117.29</ele>
        <time>2022-07-03T11:46:17Z</time>
      </trkpt>
      <trkpt lat="45.884717339649796" lon="7.844946468248963">
        <ele>3117.1999999999998</ele>
        <time>2022-07-03T11:46:23Z</time>
      </trkpt>
      <trkpt lat="45.884618097916245" lon="7.844965159893036">
        <ele>3116.6399999999999</ele>
        <time>2022-07-03T11:46:34Z</time>
      </trkpt>
      <trkpt lat="45.884529920294881" lon="7.845094995573163">
        <ele>3114.8899999999999</ele>
        <time>2022-07-03T11:46:47Z</time>
      </trkpt>
      <trkpt lat="45.884479125961661" lon="7.845122907310724">
        <ele>3113.9299999999998</ele>
        <time>2022-07-03T11:46:58Z</time>
      </trkpt>
      <trkpt lat="45.88447610847652" lon="7.845134390518069">
        <ele>3113.27</ele>
        <time>2022-07-03T11:47:11Z</time>
      </trkpt>
      <trkpt lat="45.884482730180025" lon="7.845146292820573">
        <ele>3113.0500000000002</ele>
        <time>2022-07-03T11:47:28Z</time>
      </trkpt>
      <trkpt lat="45.884481808170676" lon="7.845145119354129">
        <ele>3111.7800000000002</ele>
        <time>2022-07-03T11:47:36Z</time>
      </trkpt>
      <trkpt lat="45.884481640532613" lon="7.84514470025897">
        <ele>3114.8400000000001</ele>
        <time>2022-07-03T11:47:38Z</time>
      </trkpt>
      <trkpt lat="45.884481724351645" lon="7.845144784078002">
        <ele>3114.5999999999999</ele>
        <time>2022-07-03T11:47:39Z</time>
      </trkpt>
      <trkpt lat="45.884476192295551" lon="7.845156183466315">
        <ele>3113.3499999999999</ele>
        <time>2022-07-03T11:48:01Z</time>
      </trkpt>
      <trkpt lat="45.884467223659158" lon="7.845153082162142">
        <ele>3112.9400000000001</ele>
        <time>2022-07-03T11:48:16Z</time>
      </trkpt>
      <trkpt lat="45.884465714916587" lon="7.84514905884862">
        <ele>3113.3899999999999</ele>
        <time>2022-07-03T11:48:37Z</time>
      </trkpt>
      <trkpt lat="45.88439698331058" lon="7.845193315297365">
        <ele>3112.9699999999998</ele>
        <time>2022-07-03T11:48:51Z</time>
      </trkpt>
      <trkpt lat="45.88439061306417" lon="7.845197590067983">
        <ele>3112.9200000000001</ele>
        <time>2022-07-03T11:48:52Z</time>
      </trkpt>
      <trkpt lat="45.884338393807411" lon="7.845186190679669">
        <ele>3112.0999999999999</ele>
        <time>2022-07-03T11:48:57Z</time>
      </trkpt>
      <trkpt lat="45.884302100166678" lon="7.845143862068653">
        <ele>3111.2600000000002</ele>
        <time>2022-07-03T11:49:01Z</time>
      </trkpt>
      <trkpt lat="45.884281229227781" lon="7.845115782693029">
        <ele>3111.5</ele>
        <time>2022-07-03T11:49:04Z</time>
      </trkpt>
      <trkpt lat="45.884208893403411" lon="7.845095917582512">
        <ele>3111.1700000000001</ele>
        <time>2022-07-03T11:49:16Z</time>
      </trkpt>
      <trkpt lat="45.884214341640472" lon="7.845118381083012">
        <ele>3110.0100000000002</ele>
        <time>2022-07-03T11:49:18Z</time>
      </trkpt>
      <trkpt lat="45.884256502613425" lon="7.845249054953456">
        <ele>3106.8299999999999</ele>
        <time>2022-07-03T11:49:30Z</time>
      </trkpt>
      <trkpt lat="45.884244851768017" lon="7.845356008037925">
        <ele>3104.5900000000001</ele>
        <time>2022-07-03T11:49:40Z</time>
      </trkpt>
      <trkpt lat="45.884241918101907" lon="7.845363635569811">
        <ele>3104.4899999999998</ele>
        <time>2022-07-03T11:49:41Z</time>
      </trkpt>
      <trkpt lat="45.88418391533196" lon="7.845372520387173">
        <ele>3102.3699999999999</ele>
        <time>2022-07-03T11:49:49Z</time>
      </trkpt>
      <trkpt lat="45.88410671800375" lon="7.845365647226572">
        <ele>3100.4699999999998</ele>
        <time>2022-07-03T11:49:59Z</time>
      </trkpt>
      <trkpt lat="45.884022563695908" lon="7.845401270315051">
        <ele>3099.02</ele>
        <time>2022-07-03T11:50:11Z</time>
      </trkpt>
      <trkpt lat="45.884026419371367" lon="7.845421805977821">
        <ele>3097.54</ele>
        <time>2022-07-03T11:50:14Z</time>
      </trkpt>
      <trkpt lat="45.884110406041145" lon="7.845514845103025">
        <ele>3094.6900000000001</ele>
        <time>2022-07-03T11:50:26Z</time>
      </trkpt>
      <trkpt lat="45.884137898683548" lon="7.845544349402189">
        <ele>3093.3299999999999</ele>
        <time>2022-07-03T11:50:31Z</time>
      </trkpt>
      <trkpt lat="45.884137395769358" lon="7.845606375485659">
        <ele>3091.77</ele>
        <time>2022-07-03T11:50:36Z</time>
      </trkpt>
      <trkpt lat="45.884051900357008" lon="7.845669072121382">
        <ele>3089.5</ele>
        <time>2022-07-03T11:50:49Z</time>
      </trkpt>
      <trkpt lat="45.884003452956676" lon="7.845760602504015">
        <ele>3088.29</ele>
        <time>2022-07-03T11:51:00Z</time>
      </trkpt>
      <trkpt lat="45.883921561762691" lon="7.845812570303679">
        <ele>3086.6100000000001</ele>
        <time>2022-07-03T11:51:09Z</time>
      </trkpt>
      <trkpt lat="45.883873952552676" lon="7.845916757360101">
        <ele>3087.8200000000002</ele>
        <time>2022-07-03T11:51:21Z</time>
      </trkpt>
      <trkpt lat="45.883864061906934" lon="7.845925977453589">
        <ele>3087.4200000000001</ele>
        <time>2022-07-03T11:51:33Z</time>
      </trkpt>
      <trkpt lat="45.883856266736984" lon="7.845931174233556">
        <ele>3086.73</ele>
        <time>2022-07-03T11:51:48Z</time>
      </trkpt>
      <trkpt lat="45.883849142119288" lon="7.845931090414524">
        <ele>3084.8499999999999</ele>
        <time>2022-07-03T11:52:07Z</time>
      </trkpt>
      <trkpt lat="45.88384042493999" lon="7.845929078757763">
        <ele>3084.9200000000001</ele>
        <time>2022-07-03T11:52:30Z</time>
      </trkpt>
      <trkpt lat="45.883841179311275" lon="7.8459323477">
        <ele>3084.9000000000001</ele>
        <time>2022-07-03T11:52:53Z</time>
      </trkpt>
      <trkpt lat="45.883829277008772" lon="7.845957074314356">
        <ele>3084.6799999999998</ele>
        <time>2022-07-03T11:53:02Z</time>
      </trkpt>
      <trkpt lat="45.883799437433481" lon="7.845994960516691">
        <ele>3083.3299999999999</ele>
        <time>2022-07-03T11:53:08Z</time>
      </trkpt>
      <trkpt lat="45.883747134357691" lon="7.846070397645235">
        <ele>3081.3699999999999</ele>
        <time>2022-07-03T11:53:15Z</time>
      </trkpt>
      <trkpt lat="45.883723832666874" lon="7.846155976876617">
        <ele>3079.6999999999998</ele>
        <time>2022-07-03T11:53:25Z</time>
      </trkpt>
      <trkpt lat="45.883641019463539" lon="7.846214482560754">
        <ele>3076.48</ele>
        <time>2022-07-03T11:53:37Z</time>
      </trkpt>
      <trkpt lat="45.883548399433494" lon="7.846279023215175">
        <ele>3073.9400000000001</ele>
        <time>2022-07-03T11:53:50Z</time>
      </trkpt>
      <trkpt lat="45.8835394307971" lon="7.84628514200449">
        <ele>3073.5</ele>
        <time>2022-07-03T11:53:51Z</time>
      </trkpt>
      <trkpt lat="45.883433567360044" lon="7.846301486715674">
        <ele>3069.9099999999999</ele>
        <time>2022-07-03T11:54:03Z</time>
      </trkpt>
      <trkpt lat="45.883374139666557" lon="7.8463848028332">
        <ele>3067.0500000000002</ele>
        <time>2022-07-03T11:54:14Z</time>
      </trkpt>
      <trkpt lat="45.883286045864224" lon="7.846509860828519">
        <ele>3065.0500000000002</ele>
        <time>2022-07-03T11:54:26Z</time>
      </trkpt>
      <trkpt lat="45.883204825222492" lon="7.846564846113324">
        <ele>3063.6599999999999</ele>
        <time>2022-07-03T11:54:37Z</time>
      </trkpt>
      <trkpt lat="45.883108181878924" lon="7.846541292965412">
        <ele>3061.7800000000002</ele>
        <time>2022-07-03T11:54:48Z</time>
      </trkpt>
      <trkpt lat="45.883079515770078" lon="7.846537102013826">
        <ele>3062.29</ele>
        <time>2022-07-03T11:54:51Z</time>
      </trkpt>
      <trkpt lat="45.882964264601469" lon="7.846511285752058">
        <ele>3061.1100000000001</ele>
        <time>2022-07-03T11:55:03Z</time>
      </trkpt>
      <trkpt lat="45.882911458611488" lon="7.846577167510986">
        <ele>3059.6399999999999</ele>
        <time>2022-07-03T11:55:10Z</time>
      </trkpt>
      <trkpt lat="45.882793189957738" lon="7.84663500264287">
        <ele>3060.6199999999999</ele>
        <time>2022-07-03T11:55:22Z</time>
      </trkpt>
      <trkpt lat="45.882679112255573" lon="7.846578005701304">
        <ele>3057.9099999999999</ele>
        <time>2022-07-03T11:55:33Z</time>
      </trkpt>
      <trkpt lat="45.882669724524021" lon="7.846568953245878">
        <ele>3057.77</ele>
        <time>2022-07-03T11:55:34Z</time>
      </trkpt>
      <trkpt lat="45.882653379812837" lon="7.846555793657899">
        <ele>3058.0599999999999</ele>
        <time>2022-07-03T11:55:36Z</time>
      </trkpt>
      <trkpt lat="45.882517341524363" lon="7.846455881372094">
        <ele>3058.6399999999999</ele>
        <time>2022-07-03T11:55:51Z</time>
      </trkpt>
      <trkpt lat="45.882501164451241" lon="7.846452612429857">
        <ele>3058.8600000000001</ele>
        <time>2022-07-03T11:55:53Z</time>
      </trkpt>
      <trkpt lat="45.882457746192813" lon="7.846445487812161">
        <ele>3058.8800000000001</ele>
        <time>2022-07-03T11:56:04Z</time>
      </trkpt>
      <trkpt lat="45.882461266592145" lon="7.846444481983781">
        <ele>3056.98</ele>
        <time>2022-07-03T11:56:23Z</time>
      </trkpt>
      <trkpt lat="45.882460344582796" lon="7.846451941877604">
        <ele>3058.3899999999999</ele>
        <time>2022-07-03T11:56:28Z</time>
      </trkpt>
      <trkpt lat="45.882462607696652" lon="7.846436351537705">
        <ele>3057.2199999999998</ele>
        <time>2022-07-03T11:56:44Z</time>
      </trkpt>
      <trkpt lat="45.882421117275953" lon="7.846377762034535">
        <ele>3056.6700000000001</ele>
        <time>2022-07-03T11:56:58Z</time>
      </trkpt>
      <trkpt lat="45.882403012365103" lon="7.84635060466826">
        <ele>3055.9400000000001</ele>
        <time>2022-07-03T11:57:01Z</time>
      </trkpt>
      <trkpt lat="45.882358504459262" lon="7.846208950504661">
        <ele>3054.3499999999999</ele>
        <time>2022-07-03T11:57:13Z</time>
      </trkpt>
      <trkpt lat="45.882325982674956" lon="7.846142649650574">
        <ele>3053.0999999999999</ele>
        <time>2022-07-03T11:57:25Z</time>
      </trkpt>
      <trkpt lat="45.882321372628212" lon="7.846153043210506">
        <ele>3052.6100000000001</ele>
        <time>2022-07-03T11:57:27Z</time>
      </trkpt>
      <trkpt lat="45.882314248010516" lon="7.846189253032208">
        <ele>3052.3200000000002</ele>
        <time>2022-07-03T11:57:30Z</time>
      </trkpt>
      <trkpt lat="45.882284576073289" lon="7.846173075959086">
        <ele>3050.1799999999998</ele>
        <time>2022-07-03T11:57:38Z</time>
      </trkpt>
      <trkpt lat="45.882267141714692" lon="7.846174752339721">
        <ele>3049.1100000000001</ele>
        <time>2022-07-03T11:57:49Z</time>
      </trkpt>
      <trkpt lat="45.882236296311021" lon="7.846128065139055">
        <ele>3047.1199999999999</ele>
        <time>2022-07-03T11:58:00Z</time>
      </trkpt>
      <trkpt lat="45.882222717627883" lon="7.846112474799156">
        <ele>3045.9000000000001</ele>
        <time>2022-07-03T11:58:03Z</time>
      </trkpt>
      <trkpt lat="45.882182065397501" lon="7.846057405695319">
        <ele>3043.4499999999998</ele>
        <time>2022-07-03T11:58:15Z</time>
      </trkpt>
      <trkpt lat="45.882131438702345" lon="7.846089340746403">
        <ele>3041.2800000000002</ele>
        <time>2022-07-03T11:58:26Z</time>
      </trkpt>
      <trkpt lat="45.882093217223883" lon="7.846034858375788">
        <ele>3038.3099999999999</ele>
        <time>2022-07-03T11:58:34Z</time>
      </trkpt>
      <trkpt lat="45.882069999352098" lon="7.845926228910685">
        <ele>3036.1199999999999</ele>
        <time>2022-07-03T11:58:42Z</time>
      </trkpt>
      <trkpt lat="45.882041752338409" lon="7.845887923613191">
        <ele>3035.6900000000001</ele>
        <time>2022-07-03T11:58:47Z</time>
      </trkpt>
      <trkpt lat="45.881982492282987" lon="7.845805110409856">
        <ele>3032.3600000000001</ele>
        <time>2022-07-03T11:58:56Z</time>
      </trkpt>
      <trkpt lat="45.881929099559784" lon="7.845676196739078">
        <ele>3029.96</ele>
        <time>2022-07-03T11:59:07Z</time>
      </trkpt>
      <trkpt lat="45.881889956071973" lon="7.845598077401519">
        <ele>3028.6500000000001</ele>
        <time>2022-07-03T11:59:15Z</time>
      </trkpt>
      <trkpt lat="45.881857015192509" lon="7.845542505383492">
        <ele>3025.6799999999998</ele>
        <time>2022-07-03T11:59:21Z</time>
      </trkpt>
      <trkpt lat="45.881828935816884" lon="7.845474611967802">
        <ele>3024.79</ele>
        <time>2022-07-03T11:59:31Z</time>
      </trkpt>
      <trkpt lat="45.881784930825233" lon="7.845475366339088">
        <ele>3023.75</ele>
        <time>2022-07-03T11:59:45Z</time>
      </trkpt>
      <trkpt lat="45.88176229968667" lon="7.845499673858285">
        <ele>3022.73</ele>
        <time>2022-07-03T11:59:59Z</time>
      </trkpt>
      <trkpt lat="45.881728185340762" lon="7.845441671088338">
        <ele>3021.0799999999999</ele>
        <time>2022-07-03T12:00:08Z</time>
      </trkpt>
      <trkpt lat="45.881719384342432" lon="7.845383835956454">
        <ele>3020.4000000000001</ele>
        <time>2022-07-03T12:00:14Z</time>
      </trkpt>
      <trkpt lat="45.881688287481666" lon="7.845186190679669">
        <ele>3017.27</ele>
        <time>2022-07-03T12:00:29Z</time>
      </trkpt>
      <trkpt lat="45.881646042689681" lon="7.845080746337771">
        <ele>3015.4200000000001</ele>
        <time>2022-07-03T12:00:41Z</time>
      </trkpt>
      <trkpt lat="45.881583262234926" lon="7.845044787973166">
        <ele>3013.3299999999999</ele>
        <time>2022-07-03T12:00:52Z</time>
      </trkpt>
      <trkpt lat="45.88153213262558" lon="7.845025090500712">
        <ele>3011.5999999999999</ele>
        <time>2022-07-03T12:01:02Z</time>
      </trkpt>
      <trkpt lat="45.88149257004261" lon="7.845040010288358">
        <ele>3009.0100000000002</ele>
        <time>2022-07-03T12:01:11Z</time>
      </trkpt>
      <trkpt lat="45.881456863135099" lon="7.845058534294367">
        <ele>3007.54</ele>
        <time>2022-07-03T12:01:21Z</time>
      </trkpt>
      <trkpt lat="45.881435237824917" lon="7.845118632540107">
        <ele>3006.54</ele>
        <time>2022-07-03T12:01:25Z</time>
      </trkpt>
      <trkpt lat="45.881358459591866" lon="7.84515785984695">
        <ele>3002.8200000000002</ele>
        <time>2022-07-03T12:01:35Z</time>
      </trkpt>
      <trkpt lat="45.881309676915407" lon="7.845145035535097">
        <ele>3000.6599999999999</ele>
        <time>2022-07-03T12:01:42Z</time>
      </trkpt>
      <trkpt lat="45.881271287798882" lon="7.845132881775498">
        <ele>2998.21</ele>
        <time>2022-07-03T12:01:48Z</time>
      </trkpt>
      <trkpt lat="45.881261480972171" lon="7.845108406618238">
        <ele>2997.73</ele>
        <time>2022-07-03T12:01:50Z</time>
      </trkpt>
      <trkpt lat="45.881249830126762" lon="7.845053672790527">
        <ele>2996.3699999999999</ele>
        <time>2022-07-03T12:01:54Z</time>
      </trkpt>
      <trkpt lat="45.881223427131772" lon="7.844963986426592">
        <ele>2994.8800000000001</ele>
        <time>2022-07-03T12:02:01Z</time>
      </trkpt>
      <trkpt lat="45.881178919225931" lon="7.8449238371104">
        <ele>2992.3200000000002</ele>
        <time>2022-07-03T12:02:10Z</time>
      </trkpt>
      <trkpt lat="45.881154779344797" lon="7.844812693074346">
        <ele>2989.0599999999999</ele>
        <time>2022-07-03T12:02:20Z</time>
      </trkpt>
      <trkpt lat="45.881142038851976" lon="7.844812273979187">
        <ele>2988.5999999999999</ele>
        <time>2022-07-03T12:02:23Z</time>
      </trkpt>
      <trkpt lat="45.881106331944466" lon="7.844795845448971">
        <ele>2985.4000000000001</ele>
        <time>2022-07-03T12:02:29Z</time>
      </trkpt>
      <trkpt lat="45.88110507465899" lon="7.844784781336784">
        <ele>2985.1599999999999</ele>
        <time>2022-07-03T12:02:30Z</time>
      </trkpt>
      <trkpt lat="45.88108160533011" lon="7.844662992283702">
        <ele>2982.4400000000001</ele>
        <time>2022-07-03T12:02:41Z</time>
      </trkpt>
      <trkpt lat="45.881034918129444" lon="7.844658885151148">
        <ele>2980.77</ele>
        <time>2022-07-03T12:02:49Z</time>
      </trkpt>
      <trkpt lat="45.880994014441967" lon="7.844595601782203">
        <ele>2977.96</ele>
        <time>2022-07-03T12:02:59Z</time>
      </trkpt>
      <trkpt lat="45.880922432988882" lon="7.844592919573188">
        <ele>2975.1300000000001</ele>
        <time>2022-07-03T12:03:09Z</time>
      </trkpt>
      <trkpt lat="45.880910027772188" lon="7.844498958438635">
        <ele>2972.8699999999999</ele>
        <time>2022-07-03T12:03:18Z</time>
      </trkpt>
      <trkpt lat="45.880876500159502" lon="7.844456126913428">
        <ele>2970.8200000000002</ele>
        <time>2022-07-03T12:03:28Z</time>
      </trkpt>
      <trkpt lat="45.880805756896734" lon="7.844465263187885">
        <ele>2969</ele>
        <time>2022-07-03T12:03:41Z</time>
      </trkpt>
      <trkpt lat="45.8808075170964" lon="7.844465682283044">
        <ele>2968.73</ele>
        <time>2022-07-03T12:03:51Z</time>
      </trkpt>
      <trkpt lat="45.880807098001242" lon="7.844464341178536">
        <ele>2968.21</ele>
        <time>2022-07-03T12:04:02Z</time>
      </trkpt>
      <trkpt lat="45.880799889564514" lon="7.844461826607585">
        <ele>2969.3299999999999</ele>
        <time>2022-07-03T12:04:40Z</time>
      </trkpt>
      <trkpt lat="45.880812462419271" lon="7.844459479674697">
        <ele>2968.6399999999999</ele>
        <time>2022-07-03T12:04:52Z</time>
      </trkpt>
      <trkpt lat="45.880811959505081" lon="7.844464173540473">
        <ele>2969.5900000000001</ele>
        <time>2022-07-03T12:05:07Z</time>
      </trkpt>
      <trkpt lat="45.880814390257001" lon="7.844471968710423">
        <ele>2969.2600000000002</ele>
        <time>2022-07-03T12:05:23Z</time>
      </trkpt>
      <trkpt lat="45.880810534581542" lon="7.844468615949154">
        <ele>2969.9899999999998</ele>
        <time>2022-07-03T12:05:45Z</time>
      </trkpt>
      <trkpt lat="45.880805840715766" lon="7.844476327300072">
        <ele>2969.6300000000001</ele>
        <time>2022-07-03T12:06:05Z</time>
      </trkpt>
      <trkpt lat="45.880810031667352" lon="7.84447624348104">
        <ele>2969.3400000000001</ele>
        <time>2022-07-03T12:06:24Z</time>
      </trkpt>
      <trkpt lat="45.880812210962176" lon="7.84446744248271">
        <ele>2968.6300000000001</ele>
        <time>2022-07-03T12:06:39Z</time>
      </trkpt>
      <trkpt lat="45.880810786038637" lon="7.844465766102076">
        <ele>2968.6700000000001</ele>
        <time>2022-07-03T12:07:03Z</time>
      </trkpt>
      <trkpt lat="45.880758231505752" lon="7.844467358663678">
        <ele>2967.5</ele>
        <time>2022-07-03T12:07:14Z</time>
      </trkpt>
      <trkpt lat="45.880702156573534" lon="7.844490744173527">
        <ele>2967.2800000000002</ele>
        <time>2022-07-03T12:07:28Z</time>
      </trkpt>
      <trkpt lat="45.880693439394236" lon="7.844489822164178">
        <ele>2967.0100000000002</ele>
        <time>2022-07-03T12:07:48Z</time>
      </trkpt>
      <trkpt lat="45.880701402202249" lon="7.844480853527784">
        <ele>2967.0100000000002</ele>
        <time>2022-07-03T12:08:12Z</time>
      </trkpt>
      <trkpt lat="45.880703832954168" lon="7.844486888498068">
        <ele>2967.4200000000001</ele>
        <time>2022-07-03T12:08:36Z</time>
      </trkpt>
      <trkpt lat="45.880709532648325" lon="7.844490660354495">
        <ele>2967.4899999999998</ele>
        <time>2022-07-03T12:09:01Z</time>
      </trkpt>
      <trkpt lat="45.880715064704418" lon="7.844500048086047">
        <ele>2966.9499999999998</ele>
        <time>2022-07-03T12:09:24Z</time>
      </trkpt>
      <trkpt lat="45.880720345303416" lon="7.844489822164178">
        <ele>2966.6199999999999</ele>
        <time>2022-07-03T12:09:46Z</time>
      </trkpt>
      <trkpt lat="45.880711292847991" lon="7.844495018944144">
        <ele>2965.75</ele>
        <time>2022-07-03T12:10:12Z</time>
      </trkpt>
      <trkpt lat="45.880702156573534" lon="7.844494013115764">
        <ele>2966.1700000000001</ele>
        <time>2022-07-03T12:10:35Z</time>
      </trkpt>
      <trkpt lat="45.880685979500413" lon="7.84455394372344">
        <ele>2966.1399999999999</ele>
        <time>2022-07-03T12:10:45Z</time>
      </trkpt>
      <trkpt lat="45.880657900124788" lon="7.844579759985209">
        <ele>2966.8299999999999</ele>
        <time>2022-07-03T12:10:56Z</time>
      </trkpt>
      <trkpt lat="45.880659995600581" lon="7.844577832147479">
        <ele>2966.4200000000001</ele>
        <time>2022-07-03T12:11:12Z</time>
      </trkpt>
      <trkpt lat="45.880659660324454" lon="7.844585627317429">
        <ele>2966.21</ele>
        <time>2022-07-03T12:11:35Z</time>
      </trkpt>
      <trkpt lat="45.880641136318445" lon="7.844632733613253">
        <ele>2965.23</ele>
        <time>2022-07-03T12:11:50Z</time>
      </trkpt>
      <trkpt lat="45.880577601492405" lon="7.844619574025273">
        <ele>2962.6399999999999</ele>
        <time>2022-07-03T12:12:00Z</time>
      </trkpt>
      <trkpt lat="45.880558155477047" lon="7.844636924564838">
        <ele>2962.21</ele>
        <time>2022-07-03T12:12:03Z</time>
      </trkpt>
      <trkpt lat="45.880443155765533" lon="7.844605157151818">
        <ele>2960.1500000000001</ele>
        <time>2022-07-03T12:12:16Z</time>
      </trkpt>
      <trkpt lat="45.880408706143498" lon="7.844587555155158">
        <ele>2960.04</ele>
        <time>2022-07-03T12:12:21Z</time>
      </trkpt>
      <trkpt lat="45.88034626096487" lon="7.844486888498068">
        <ele>2959.0599999999999</ele>
        <time>2022-07-03T12:12:32Z</time>
      </trkpt>
      <trkpt lat="45.88036285713315" lon="7.844369122758508">
        <ele>2956.9000000000001</ele>
        <time>2022-07-03T12:12:43Z</time>
      </trkpt>
      <trkpt lat="45.880312062799931" lon="7.844333164393902">
        <ele>2954.0500000000002</ele>
        <time>2022-07-03T12:12:55Z</time>
      </trkpt>
      <trkpt lat="45.880302842706442" lon="7.844230402261019">
        <ele>2951.3899999999999</ele>
        <time>2022-07-03T12:13:04Z</time>
      </trkpt>
      <trkpt lat="45.880289515480399" lon="7.844178434461355">
        <ele>2950.5900000000001</ele>
        <time>2022-07-03T12:13:09Z</time>
      </trkpt>
      <trkpt lat="45.880272164940834" lon="7.844131076708436">
        <ele>2949.5500000000002</ele>
        <time>2022-07-03T12:13:13Z</time>
      </trkpt>
      <trkpt lat="45.880221957340837" lon="7.844021944329143">
        <ele>2947.1500000000001</ele>
        <time>2022-07-03T12:13:25Z</time>
      </trkpt>
      <trkpt lat="45.880213240161538" lon="7.844024123623967">
        <ele>2947</ele>
        <time>2022-07-03T12:13:26Z</time>
      </trkpt>
      <trkpt lat="45.880214162170887" lon="7.843894120305777">
        <ele>2944</ele>
        <time>2022-07-03T12:13:37Z</time>
      </trkpt>
      <trkpt lat="45.880212653428316" lon="7.84379362128675">
        <ele>2940.8499999999999</ele>
        <time>2022-07-03T12:13:46Z</time>
      </trkpt>
      <trkpt lat="45.88015029206872" lon="7.843744503334165">
        <ele>2938.71</ele>
        <time>2022-07-03T12:13:57Z</time>
      </trkpt>
      <trkpt lat="45.880103018134832" lon="7.843678453937173">
        <ele>2935.5799999999999</ele>
        <time>2022-07-03T12:14:07Z</time>
      </trkpt>
      <trkpt lat="45.880064042285085" lon="7.843541158363223">
        <ele>2932.6100000000001</ele>
        <time>2022-07-03T12:14:19Z</time>
      </trkpt>
      <trkpt lat="45.880023390054703" lon="7.843408891931176">
        <ele>2929.8099999999999</ele>
        <time>2022-07-03T12:14:30Z</time>
      </trkpt>
      <trkpt lat="45.879992293193936" lon="7.843314511701465">
        <ele>2926.5599999999999</ele>
        <time>2022-07-03T12:14:39Z</time>
      </trkpt>
      <trkpt lat="45.879951054230332" lon="7.84319213591516">
        <ele>2924.21</ele>
        <time>2022-07-03T12:14:51Z</time>
      </trkpt>
      <trkpt lat="45.879920292645693" lon="7.843036986887455">
        <ele>2922.3699999999999</ele>
        <time>2022-07-03T12:15:03Z</time>
      </trkpt>
      <trkpt lat="45.879916185513139" lon="7.84302894026041">
        <ele>2922.1700000000001</ele>
        <time>2022-07-03T12:15:04Z</time>
      </trkpt>
      <trkpt lat="45.87978333234787" lon="7.842992898076773">
        <ele>2920.75</ele>
        <time>2022-07-03T12:15:18Z</time>
      </trkpt>
      <trkpt lat="45.879670176655054" lon="7.842951826751232">
        <ele>2918.4499999999998</ele>
        <time>2022-07-03T12:15:33Z</time>
      </trkpt>
      <trkpt lat="45.879579903557897" lon="7.842907905578613">
        <ele>2916</ele>
        <time>2022-07-03T12:15:47Z</time>
      </trkpt>
      <trkpt lat="45.879567246884108" lon="7.842960627749562">
        <ele>2914.0500000000002</ele>
        <time>2022-07-03T12:15:58Z</time>
      </trkpt>
      <trkpt lat="45.879568504169583" lon="7.843021228909493">
        <ele>2913.1199999999999</ele>
        <time>2022-07-03T12:16:03Z</time>
      </trkpt>
      <trkpt lat="45.879527265205979" lon="7.843025922775269">
        <ele>2910.9699999999998</ele>
        <time>2022-07-03T12:16:10Z</time>
      </trkpt>
      <trkpt lat="45.879446882754564" lon="7.842975212261081">
        <ele>2909.1500000000001</ele>
        <time>2022-07-03T12:16:20Z</time>
      </trkpt>
      <trkpt lat="45.879355184733868" lon="7.84298250451684">
        <ele>2907.5700000000002</ele>
        <time>2022-07-03T12:16:31Z</time>
      </trkpt>
      <trkpt lat="45.879330206662416" lon="7.842979151755571">
        <ele>2906.9000000000001</ele>
        <time>2022-07-03T12:16:34Z</time>
      </trkpt>
      <trkpt lat="45.879220990464091" lon="7.842960376292467">
        <ele>2905.4400000000001</ele>
        <time>2022-07-03T12:16:45Z</time>
      </trkpt>
      <trkpt lat="45.879121664911509" lon="7.843048134818673">
        <ele>2902.4099999999999</ele>
        <time>2022-07-03T12:16:57Z</time>
      </trkpt>
      <trkpt lat="45.879015466198325" lon="7.843122147023678">
        <ele>2900.29</ele>
        <time>2022-07-03T12:17:09Z</time>
      </trkpt>
      <trkpt lat="45.878959139809012" lon="7.843206133693457">
        <ele>2897.75</ele>
        <time>2022-07-03T12:17:18Z</time>
      </trkpt>
      <trkpt lat="45.878958385437727" lon="7.843245947733522">
        <ele>2896.75</ele>
        <time>2022-07-03T12:17:21Z</time>
      </trkpt>
      <trkpt lat="45.878887474536896" lon="7.843371089547873">
        <ele>2894.21</ele>
        <time>2022-07-03T12:17:34Z</time>
      </trkpt>
      <trkpt lat="45.87878068909049" lon="7.843453399837017">
        <ele>2892.54</ele>
        <time>2022-07-03T12:17:46Z</time>
      </trkpt>
      <trkpt lat="45.878669712692499" lon="7.843464883044362">
        <ele>2889.5900000000001</ele>
        <time>2022-07-03T12:17:58Z</time>
      </trkpt>
      <trkpt lat="45.878610368818045" lon="7.843466643244028">
        <ele>2887.5999999999999</ele>
        <time>2022-07-03T12:18:07Z</time>
      </trkpt>
      <trkpt lat="45.878547504544258" lon="7.843470582738519">
        <ele>2885.8600000000001</ele>
        <time>2022-07-03T12:18:13Z</time>
      </trkpt>
      <trkpt lat="45.87853048928082" lon="7.843453232198954">
        <ele>2885.3800000000001</ele>
        <time>2022-07-03T12:18:15Z</time>
      </trkpt>
      <trkpt lat="45.878478605300188" lon="7.843445856124163">
        <ele>2884.6399999999999</ele>
        <time>2022-07-03T12:18:20Z</time>
      </trkpt>
      <trkpt lat="45.878453627228737" lon="7.843408975750208">
        <ele>2883.5500000000002</ele>
        <time>2022-07-03T12:18:24Z</time>
      </trkpt>
      <trkpt lat="45.878389589488506" lon="7.843433953821659">
        <ele>2883.1300000000001</ele>
        <time>2022-07-03T12:18:31Z</time>
      </trkpt>
      <trkpt lat="45.878357067704201" lon="7.843485083431006">
        <ele>2882.5599999999999</ele>
        <time>2022-07-03T12:18:37Z</time>
      </trkpt>
      <trkpt lat="45.878329407423735" lon="7.843491286039352">
        <ele>2881.6799999999998</ele>
        <time>2022-07-03T12:18:40Z</time>
      </trkpt>
      <trkpt lat="45.878310548141599" lon="7.843488939106464">
        <ele>2880.8400000000001</ele>
        <time>2022-07-03T12:18:42Z</time>
      </trkpt>
      <trkpt lat="45.878283642232418" lon="7.843510061502457">
        <ele>2879.98</ele>
        <time>2022-07-03T12:18:45Z</time>
      </trkpt>
      <trkpt lat="45.878234272822738" lon="7.8434784617275">
        <ele>2877.0999999999999</ele>
        <time>2022-07-03T12:18:56Z</time>
      </trkpt>
      <trkpt lat="45.87823485955596" lon="7.843486843630672">
        <ele>2876.75</ele>
        <time>2022-07-03T12:19:07Z</time>
      </trkpt>
      <trkpt lat="45.878235278651118" lon="7.843484496697784">
        <ele>2876.5300000000002</ele>
        <time>2022-07-03T12:19:29Z</time>
      </trkpt>
      <trkpt lat="45.878245253115892" lon="7.843458596616983">
        <ele>2876.5999999999999</ele>
        <time>2022-07-03T12:19:40Z</time>
      </trkpt>
      <trkpt lat="45.878214156255126" lon="7.843276876956224">
        <ele>2875.3499999999999</ele>
        <time>2022-07-03T12:19:53Z</time>
      </trkpt>
      <trkpt lat="45.878204684704542" lon="7.843236560001969">
        <ele>2874.21</ele>
        <time>2022-07-03T12:19:57Z</time>
      </trkpt>
      <trkpt lat="45.878173084929585" lon="7.843224490061402">
        <ele>2873.4000000000001</ele>
        <time>2022-07-03T12:20:00Z</time>
      </trkpt>
      <trkpt lat="45.878086918964982" lon="7.843239242210984">
        <ele>2871.3200000000002</ele>
        <time>2022-07-03T12:20:08Z</time>
      </trkpt>
      <trkpt lat="45.878019612282515" lon="7.843220047652721">
        <ele>2870.1199999999999</ele>
        <time>2022-07-03T12:20:15Z</time>
      </trkpt>
      <trkpt lat="45.878033358603716" lon="7.843115609139204">
        <ele>2867.25</ele>
        <time>2022-07-03T12:20:22Z</time>
      </trkpt>
      <trkpt lat="45.878043584525585" lon="7.842900110408664">
        <ele>2866.0999999999999</ele>
        <time>2022-07-03T12:20:35Z</time>
      </trkpt>
      <trkpt lat="45.878076022490859" lon="7.842788547277451">
        <ele>2862.9899999999998</ele>
        <time>2022-07-03T12:20:45Z</time>
      </trkpt>
      <trkpt lat="45.878081973642111" lon="7.842757953330874">
        <ele>2862.1500000000001</ele>
        <time>2022-07-03T12:20:48Z</time>
      </trkpt>
      <trkpt lat="45.878065545111895" lon="7.842653514817357">
        <ele>2859.1100000000001</ele>
        <time>2022-07-03T12:20:59Z</time>
      </trkpt>
      <trkpt lat="45.878022126853466" lon="7.842632811516523">
        <ele>2856.04</ele>
        <time>2022-07-03T12:21:11Z</time>
      </trkpt>
      <trkpt lat="45.878024306148291" lon="7.842539353296161">
        <ele>2853.5799999999999</ele>
        <time>2022-07-03T12:21:20Z</time>
      </trkpt>
      <trkpt lat="45.878030173480511" lon="7.84238395281136">
        <ele>2850.52</ele>
        <time>2022-07-03T12:21:34Z</time>
      </trkpt>
      <trkpt lat="45.878029251471162" lon="7.842218410223723">
        <ele>2848.0999999999999</ele>
        <time>2022-07-03T12:21:47Z</time>
      </trkpt>
      <trkpt lat="45.878015756607056" lon="7.842079354450107">
        <ele>2846.2800000000002</ele>
        <time>2022-07-03T12:22:00Z</time>
      </trkpt>
      <trkpt lat="45.877997651696205" lon="7.841920014470816">
        <ele>2843.4499999999998</ele>
        <time>2022-07-03T12:22:15Z</time>
      </trkpt>
      <trkpt lat="45.877962028607726" lon="7.841840889304876">
        <ele>2841.8400000000001</ele>
        <time>2022-07-03T12:22:26Z</time>
      </trkpt>
      <trkpt lat="45.877935960888863" lon="7.841923870146275">
        <ele>2839.4299999999998</ele>
        <time>2022-07-03T12:22:37Z</time>
      </trkpt>
      <trkpt lat="45.877906540408731" lon="7.8420106228441">
        <ele>2838.3200000000002</ele>
        <time>2022-07-03T12:22:46Z</time>
      </trkpt>
      <trkpt lat="45.877845603972673" lon="7.842098800465465">
        <ele>2836.8699999999999</ele>
        <time>2022-07-03T12:22:57Z</time>
      </trkpt>
      <trkpt lat="45.877791289240122" lon="7.842140877619386">
        <ele>2835.54</ele>
        <time>2022-07-03T12:23:04Z</time>
      </trkpt>
      <trkpt lat="45.877788607031107" lon="7.841982794925571">
        <ele>2833.6799999999998</ele>
        <time>2022-07-03T12:23:15Z</time>
      </trkpt>
      <trkpt lat="45.877805035561323" lon="7.841797890141606">
        <ele>2832.8099999999999</ele>
        <time>2022-07-03T12:23:28Z</time>
      </trkpt>
      <trkpt lat="45.877830013632774" lon="7.841716669499874">
        <ele>2832.6700000000001</ele>
        <time>2022-07-03T12:23:35Z</time>
      </trkpt>
      <trkpt lat="45.877793719992042" lon="7.841622540727258">
        <ele>2829.2600000000002</ele>
        <time>2022-07-03T12:23:45Z</time>
      </trkpt>
      <trkpt lat="45.877762958407402" lon="7.841470744460821">
        <ele>2828.1399999999999</ele>
        <time>2022-07-03T12:23:57Z</time>
      </trkpt>
      <trkpt lat="45.877747535705566" lon="7.841314757242799">
        <ele>2825.21</ele>
        <time>2022-07-03T12:24:10Z</time>
      </trkpt>
      <trkpt lat="45.877707805484533" lon="7.841221801936626">
        <ele>2823.8000000000002</ele>
        <time>2022-07-03T12:24:22Z</time>
      </trkpt>
      <trkpt lat="45.877613592892885" lon="7.841293467208743">
        <ele>2821.4699999999998</ele>
        <time>2022-07-03T12:24:36Z</time>
      </trkpt>
      <trkpt lat="45.877558439970016" lon="7.84139203839004">
        <ele>2818.1500000000001</ele>
        <time>2022-07-03T12:24:48Z</time>
      </trkpt>
      <trkpt lat="45.877475794404745" lon="7.84151952713728">
        <ele>2815.25</ele>
        <time>2022-07-03T12:25:03Z</time>
      </trkpt>
      <trkpt lat="45.87745894677937" lon="7.841527825221419">
        <ele>2815.1199999999999</ele>
        <time>2022-07-03T12:25:05Z</time>
      </trkpt>
      <trkpt lat="45.877355430275202" lon="7.841569902375341">
        <ele>2812.79</ele>
        <time>2022-07-03T12:25:18Z</time>
      </trkpt>
      <trkpt lat="45.877319471910596" lon="7.841615416109562">
        <ele>2811.0999999999999</ele>
        <time>2022-07-03T12:25:29Z</time>
      </trkpt>
      <trkpt lat="45.877294577658176" lon="7.841598652303219">
        <ele>2810.1700000000001</ele>
        <time>2022-07-03T12:25:35Z</time>
      </trkpt>
      <trkpt lat="45.877251662313938" lon="7.841493040323257">
        <ele>2809.0700000000002</ele>
        <time>2022-07-03T12:25:47Z</time>
      </trkpt>
      <trkpt lat="45.877257445827127" lon="7.841475019231439">
        <ele>2808.21</ele>
        <time>2022-07-03T12:26:02Z</time>
      </trkpt>
      <trkpt lat="45.877231294289231" lon="7.841442245990038">
        <ele>2808.1599999999999</ele>
        <time>2022-07-03T12:26:11Z</time>
      </trkpt>
      <trkpt lat="45.877222828567028" lon="7.841438306495547">
        <ele>2807.9200000000001</ele>
        <time>2022-07-03T12:26:20Z</time>
      </trkpt>
      <trkpt lat="45.877206483855844" lon="7.841404527425766">
        <ele>2807.6599999999999</ele>
        <time>2022-07-03T12:26:23Z</time>
      </trkpt>
      <trkpt lat="45.877193408086896" lon="7.841309811919928">
        <ele>2808.25</ele>
        <time>2022-07-03T12:26:35Z</time>
      </trkpt>
      <trkpt lat="45.877187624573708" lon="7.841280978173018">
        <ele>2806.8400000000001</ele>
        <time>2022-07-03T12:26:39Z</time>
      </trkpt>
      <trkpt lat="45.877165580168366" lon="7.84121710807085">
        <ele>2806.4899999999998</ele>
        <time>2022-07-03T12:26:52Z</time>
      </trkpt>
      <trkpt lat="45.8771569468081" lon="7.841189363971353">
        <ele>2807.1199999999999</ele>
        <time>2022-07-03T12:27:05Z</time>
      </trkpt>
      <trkpt lat="45.877129537984729" lon="7.841231776401401">
        <ele>2806.0799999999999</ele>
        <time>2022-07-03T12:27:18Z</time>
      </trkpt>
      <trkpt lat="45.877042198553681" lon="7.841243259608746">
        <ele>2803.5900000000001</ele>
        <time>2022-07-03T12:27:30Z</time>
      </trkpt>
      <trkpt lat="45.876980172470212" lon="7.841330766677856">
        <ele>2802.4000000000001</ele>
        <time>2022-07-03T12:27:43Z</time>
      </trkpt>
      <trkpt lat="45.876940945163369" lon="7.841360773891211">
        <ele>2799.5500000000002</ele>
        <time>2022-07-03T12:27:51Z</time>
      </trkpt>
      <trkpt lat="45.876857629045844" lon="7.841427074745297">
        <ele>2798.2399999999998</ele>
        <time>2022-07-03T12:28:05Z</time>
      </trkpt>
      <trkpt lat="45.876842206344008" lon="7.841434115543962">
        <ele>2797.5100000000002</ele>
        <time>2022-07-03T12:28:07Z</time>
      </trkpt>
      <trkpt lat="45.876775654032826" lon="7.841540900990367">
        <ele>2795.23</ele>
        <time>2022-07-03T12:28:19Z</time>
      </trkpt>
      <trkpt lat="45.876770792528987" lon="7.84154693596065">
        <ele>2794.9000000000001</ele>
        <time>2022-07-03T12:28:20Z</time>
      </trkpt>
      <trkpt lat="45.876671886071563" lon="7.841631341725588">
        <ele>2792.4200000000001</ele>
        <time>2022-07-03T12:28:34Z</time>
      </trkpt>
      <trkpt lat="45.876596365123987" lon="7.841675849631429">
        <ele>2791.3000000000002</ele>
        <time>2022-07-03T12:28:46Z</time>
      </trkpt>
      <trkpt lat="45.876589324325323" lon="7.841692697256804">
        <ele>2790.9400000000001</ele>
        <time>2022-07-03T12:28:48Z</time>
      </trkpt>
      <trkpt lat="45.876512713730335" lon="7.84166025929153">
        <ele>2790.0500000000002</ele>
        <time>2022-07-03T12:28:58Z</time>
      </trkpt>
      <trkpt lat="45.876427302137017" lon="7.841542074456811">
        <ele>2788.2399999999998</ele>
        <time>2022-07-03T12:29:10Z</time>
      </trkpt>
      <trkpt lat="45.87634826079011" lon="7.841588677838445">
        <ele>2786.8400000000001</ele>
        <time>2022-07-03T12:29:18Z</time>
      </trkpt>
      <trkpt lat="45.876289084553719" lon="7.841694289818406">
        <ele>2785.2800000000002</ele>
        <time>2022-07-03T12:29:27Z</time>
      </trkpt>
      <trkpt lat="45.87624566629529" lon="7.841789508238435">
        <ele>2783.9299999999998</ele>
        <time>2022-07-03T12:29:35Z</time>
      </trkpt>
      <trkpt lat="45.87623493745923" lon="7.841886570677161">
        <ele>2781.8600000000001</ele>
        <time>2022-07-03T12:29:45Z</time>
      </trkpt>
      <trkpt lat="45.876176180317998" lon="7.841746509075165">
        <ele>2779.9699999999998</ele>
        <time>2022-07-03T12:29:57Z</time>
      </trkpt>
      <trkpt lat="45.876163942739367" lon="7.84156353212893">
        <ele>2776.6999999999998</ele>
        <time>2022-07-03T12:30:09Z</time>
      </trkpt>
      <trkpt lat="45.876158662140369" lon="7.841510055586696">
        <ele>2776.7399999999998</ele>
        <time>2022-07-03T12:30:13Z</time>
      </trkpt>
      <trkpt lat="45.87612739764154" lon="7.841330682858825">
        <ele>2776.5</ele>
        <time>2022-07-03T12:30:27Z</time>
      </trkpt>
      <trkpt lat="45.876129325479269" lon="7.841303190216422">
        <ele>2776.6700000000001</ele>
        <time>2022-07-03T12:30:38Z</time>
      </trkpt>
      <trkpt lat="45.876112896949053" lon="7.841375945135951">
        <ele>2776.0300000000002</ele>
        <time>2022-07-03T12:30:48Z</time>
      </trkpt>
      <trkpt lat="45.876100827008486" lon="7.841421291232109">
        <ele>2775.8000000000002</ele>
        <time>2022-07-03T12:30:53Z</time>
      </trkpt>
      <trkpt lat="45.876070149242878" lon="7.841471331194043">
        <ele>2775.6500000000001</ele>
        <time>2022-07-03T12:30:59Z</time>
      </trkpt>
      <trkpt lat="45.876032514497638" lon="7.841601837426424">
        <ele>2774.8800000000001</ele>
        <time>2022-07-03T12:31:10Z</time>
      </trkpt>
      <trkpt lat="45.876021198928356" lon="7.841623378917575">
        <ele>2774.27</ele>
        <time>2022-07-03T12:31:12Z</time>
      </trkpt>
      <trkpt lat="45.876007117331028" lon="7.841723375022411">
        <ele>2773.8499999999999</ele>
        <time>2022-07-03T12:31:22Z</time>
      </trkpt>
      <trkpt lat="45.876003429293633" lon="7.841729829087853">
        <ele>2773.7399999999998</ele>
        <time>2022-07-03T12:31:24Z</time>
      </trkpt>
      <trkpt lat="45.875984821468592" lon="7.84180099144578">
        <ele>2773.3499999999999</ele>
        <time>2022-07-03T12:31:29Z</time>
      </trkpt>
      <trkpt lat="45.875913826748729" lon="7.841876177117229">
        <ele>2772.1700000000001</ele>
        <time>2022-07-03T12:31:43Z</time>
      </trkpt>
      <trkpt lat="45.875874347984791" lon="7.841876763850451">
        <ele>2771.1700000000001</ele>
        <time>2022-07-03T12:32:01Z</time>
      </trkpt>
      <trkpt lat="45.875834282487631" lon="7.841914147138596">
        <ele>2770.71</ele>
        <time>2022-07-03T12:32:06Z</time>
      </trkpt>
      <trkpt lat="45.875764796510339" lon="7.842028895393014">
        <ele>2768.0900000000001</ele>
        <time>2022-07-03T12:32:20Z</time>
      </trkpt>
      <trkpt lat="45.875698160380125" lon="7.842082791030407">
        <ele>2765.8899999999999</ele>
        <time>2022-07-03T12:32:29Z</time>
      </trkpt>
      <trkpt lat="45.87565834634006" lon="7.842098381370306">
        <ele>2764.27</ele>
        <time>2022-07-03T12:32:34Z</time>
      </trkpt>
      <trkpt lat="45.875577377155423" lon="7.842089161276817">
        <ele>2762.6500000000001</ele>
        <time>2022-07-03T12:32:42Z</time>
      </trkpt>
      <trkpt lat="45.875478554517031" lon="7.842118078842759">
        <ele>2760.5599999999999</ele>
        <time>2022-07-03T12:32:52Z</time>
      </trkpt>
      <trkpt lat="45.875441171228886" lon="7.842178512364626">
        <ele>2758.9699999999998</ele>
        <time>2022-07-03T12:33:00Z</time>
      </trkpt>
      <trkpt lat="45.875427927821875" lon="7.842257218435407">
        <ele>2756.9699999999998</ele>
        <time>2022-07-03T12:33:07Z</time>
      </trkpt>
      <trkpt lat="45.875411415472627" lon="7.842316646128893">
        <ele>2755.77</ele>
        <time>2022-07-03T12:33:13Z</time>
      </trkpt>
      <trkpt lat="45.875357016921043" lon="7.84242108464241">
        <ele>2753.2600000000002</ele>
        <time>2022-07-03T12:33:26Z</time>
      </trkpt>
      <trkpt lat="45.875350227579474" lon="7.842429298907518">
        <ele>2753.0799999999999</ele>
        <time>2022-07-03T12:33:27Z</time>
      </trkpt>
      <trkpt lat="45.875322483479977" lon="7.842486882582307">
        <ele>2752.6500000000001</ele>
        <time>2022-07-03T12:33:32Z</time>
      </trkpt>
      <trkpt lat="45.875320136547089" lon="7.842526864260435">
        <ele>2751.8899999999999</ele>
        <time>2022-07-03T12:33:35Z</time>
      </trkpt>
      <trkpt lat="45.875303708016872" lon="7.842638762667775">
        <ele>2751.0799999999999</ele>
        <time>2022-07-03T12:33:44Z</time>
      </trkpt>
      <trkpt lat="45.875268336385489" lon="7.842699866741896">
        <ele>2750.2800000000002</ele>
        <time>2022-07-03T12:33:54Z</time>
      </trkpt>
      <trkpt lat="45.875217709690332" lon="7.842661729082465">
        <ele>2748.5100000000002</ele>
        <time>2022-07-03T12:34:01Z</time>
      </trkpt>
      <trkpt lat="45.875195162370801" lon="7.842668434605002">
        <ele>2747.4499999999998</ele>
        <time>2022-07-03T12:34:12Z</time>
      </trkpt>
      <trkpt lat="45.875144703313708" lon="7.842698441818357">
        <ele>2745.9499999999998</ele>
        <time>2022-07-03T12:34:22Z</time>
      </trkpt>
      <trkpt lat="45.875115701928735" lon="7.842757701873779">
        <ele>2745.2800000000002</ele>
        <time>2022-07-03T12:34:32Z</time>
      </trkpt>
      <trkpt lat="45.875141602009535" lon="7.842758288607001">
        <ele>2745.3800000000001</ele>
        <time>2022-07-03T12:34:43Z</time>
      </trkpt>
      <trkpt lat="45.875148391351104" lon="7.842834647744894">
        <ele>2744.25</ele>
        <time>2022-07-03T12:34:49Z</time>
      </trkpt>
      <trkpt lat="45.875131795182824" lon="7.843004129827023">
        <ele>2742.1500000000001</ele>
        <time>2022-07-03T12:35:00Z</time>
      </trkpt>
      <trkpt lat="45.875122658908367" lon="7.843110160902143">
        <ele>2740.02</ele>
        <time>2022-07-03T12:35:09Z</time>
      </trkpt>
      <trkpt lat="45.87513062171638" lon="7.843172689899802">
        <ele>2738.79</ele>
        <time>2022-07-03T12:35:13Z</time>
      </trkpt>
      <trkpt lat="45.87509592063725" lon="7.843330772593617">
        <ele>2736.7199999999998</ele>
        <time>2022-07-03T12:35:24Z</time>
      </trkpt>
      <trkpt lat="45.875089466571808" lon="7.84334309399128">
        <ele>2736.96</ele>
        <time>2022-07-03T12:35:29Z</time>
      </trkpt>
      <trkpt lat="45.875074630603194" lon="7.843382488936186">
        <ele>2737.3899999999999</ele>
        <time>2022-07-03T12:35:32Z</time>
      </trkpt>
      <trkpt lat="45.874995086342096" lon="7.843550546094775">
        <ele>2739.3600000000001</ele>
        <time>2022-07-03T12:35:48Z</time>
      </trkpt>
      <trkpt lat="45.874969940632582" lon="7.843590443953872">
        <ele>2737.9299999999998</ele>
        <time>2022-07-03T12:35:53Z</time>
      </trkpt>
      <trkpt lat="45.874917386099696" lon="7.843667725101113">
        <ele>2735.1399999999999</ele>
        <time>2022-07-03T12:36:04Z</time>
      </trkpt>
      <trkpt lat="45.874881679192185" lon="7.843724051490426">
        <ele>2733.3099999999999</ele>
        <time>2022-07-03T12:36:13Z</time>
      </trkpt>
      <trkpt lat="45.874836165457964" lon="7.843800159171224">
        <ele>2731.5300000000002</ele>
        <time>2022-07-03T12:36:24Z</time>
      </trkpt>
      <trkpt lat="45.874794339761138" lon="7.843879703432322">
        <ele>2728.9000000000001</ele>
        <time>2022-07-03T12:36:34Z</time>
      </trkpt>
      <trkpt lat="45.874771038070321" lon="7.843905938789249">
        <ele>2728.0900000000001</ele>
        <time>2022-07-03T12:36:38Z</time>
      </trkpt>
      <trkpt lat="45.874714544042945" lon="7.84394022077322">
        <ele>2725.6399999999999</ele>
        <time>2022-07-03T12:36:45Z</time>
      </trkpt>
      <trkpt lat="45.874677747488022" lon="7.84399688243866">
        <ele>2725.7399999999998</ele>
        <time>2022-07-03T12:36:50Z</time>
      </trkpt>
      <trkpt lat="45.874657463282347" lon="7.844165693968535">
        <ele>2723.5799999999999</ele>
        <time>2022-07-03T12:37:03Z</time>
      </trkpt>
      <trkpt lat="45.874654781073332" lon="7.844290165230632">
        <ele>2722.8800000000001</ele>
        <time>2022-07-03T12:37:12Z</time>
      </trkpt>
      <trkpt lat="45.874638017266989" lon="7.844363171607256">
        <ele>2718.8400000000001</ele>
        <time>2022-07-03T12:37:19Z</time>
      </trkpt>
      <trkpt lat="45.874618571251631" lon="7.844448415562511">
        <ele>2717.5799999999999</ele>
        <time>2022-07-03T12:37:28Z</time>
      </trkpt>
      <trkpt lat="45.874619409441948" lon="7.844496108591557">
        <ele>2717.0300000000002</ele>
        <time>2022-07-03T12:37:32Z</time>
      </trkpt>
      <trkpt lat="45.874633155763149" lon="7.844570707529783">
        <ele>2715.9299999999998</ele>
        <time>2022-07-03T12:37:38Z</time>
      </trkpt>
      <trkpt lat="45.874577751383185" lon="7.84470347687602">
        <ele>2713.75</ele>
        <time>2022-07-03T12:37:51Z</time>
      </trkpt>
      <trkpt lat="45.874554365873337" lon="7.844710014760494">
        <ele>2713.7399999999998</ele>
        <time>2022-07-03T12:38:04Z</time>
      </trkpt>
      <trkpt lat="45.87458286434412" lon="7.844739519059658">
        <ele>2713.3400000000001</ele>
        <time>2022-07-03T12:38:16Z</time>
      </trkpt>
      <trkpt lat="45.874582780525088" lon="7.844750583171845">
        <ele>2713.3200000000002</ele>
        <time>2022-07-03T12:38:17Z</time>
      </trkpt>
      <trkpt lat="45.874590156599879" lon="7.84479483962059">
        <ele>2712.04</ele>
        <time>2022-07-03T12:38:20Z</time>
      </trkpt>
      <trkpt lat="45.874525951221585" lon="7.844833564013243">
        <ele>2709.46</ele>
        <time>2022-07-03T12:38:30Z</time>
      </trkpt>
      <trkpt lat="45.874490328133106" lon="7.844824008643627">
        <ele>2709.02</ele>
        <time>2022-07-03T12:38:42Z</time>
      </trkpt>
      <trkpt lat="45.87447976693511" lon="7.844809088855982">
        <ele>2708.3099999999999</ele>
        <time>2022-07-03T12:38:44Z</time>
      </trkpt>
      <trkpt lat="45.874473564326763" lon="7.844795510172844">
        <ele>2706.6799999999998</ele>
        <time>2022-07-03T12:38:47Z</time>
      </trkpt>
      <trkpt lat="45.874445149675012" lon="7.844773549586535">
        <ele>2706.1599999999999</ele>
        <time>2022-07-03T12:38:57Z</time>
      </trkpt>
      <trkpt lat="45.874388236552477" lon="7.844692245125771">
        <ele>2704.5</ele>
        <time>2022-07-03T12:39:07Z</time>
      </trkpt>
      <trkpt lat="45.874357307329774" lon="7.844682605937123">
        <ele>2703.02</ele>
        <time>2022-07-03T12:39:16Z</time>
      </trkpt>
      <trkpt lat="45.874359486624599" lon="7.844705069437623">
        <ele>2702.6900000000001</ele>
        <time>2022-07-03T12:39:27Z</time>
      </trkpt>
      <trkpt lat="45.874365856871009" lon="7.844797102734447">
        <ele>2701.5700000000002</ele>
        <time>2022-07-03T12:39:39Z</time>
      </trkpt>
      <trkpt lat="45.8743801061064" lon="7.844844963401556">
        <ele>2699</ele>
        <time>2022-07-03T12:39:49Z</time>
      </trkpt>
      <trkpt lat="45.874402904883027" lon="7.84492090344429">
        <ele>2698.2399999999998</ele>
        <time>2022-07-03T12:39:57Z</time>
      </trkpt>
      <trkpt lat="45.874424111098051" lon="7.844971949234605">
        <ele>2696.5300000000002</ele>
        <time>2022-07-03T12:40:01Z</time>
      </trkpt>
      <trkpt lat="45.874429475516081" lon="7.845001872628927">
        <ele>2695.8200000000002</ele>
        <time>2022-07-03T12:40:03Z</time>
      </trkpt>
      <trkpt lat="45.874456716701388" lon="7.84509776160121">
        <ele>2695.3600000000001</ele>
        <time>2022-07-03T12:40:10Z</time>
      </trkpt>
      <trkpt lat="45.874468199908733" lon="7.845146879553795">
        <ele>2694.1199999999999</ele>
        <time>2022-07-03T12:40:14Z</time>
      </trkpt>
      <trkpt lat="45.874475408345461" lon="7.845293562859297">
        <ele>2691.8499999999999</ele>
        <time>2022-07-03T12:40:25Z</time>
      </trkpt>
      <trkpt lat="45.874441461637616" lon="7.845352487638593">
        <ele>2688.71</ele>
        <time>2022-07-03T12:40:35Z</time>
      </trkpt>
      <trkpt lat="45.87442260235548" lon="7.845323150977492">
        <ele>2688.0700000000002</ele>
        <time>2022-07-03T12:40:38Z</time>
      </trkpt>
      <trkpt lat="45.874357055872679" lon="7.845192309468985">
        <ele>2687.1300000000001</ele>
        <time>2022-07-03T12:40:49Z</time>
      </trkpt>
      <trkpt lat="45.874288408085704" lon="7.84517889842391">
        <ele>2685.5300000000002</ele>
        <time>2022-07-03T12:41:00Z</time>
      </trkpt>
      <trkpt lat="45.874301316216588" lon="7.845272775739431">
        <ele>2684.0500000000002</ele>
        <time>2022-07-03T12:41:10Z</time>
      </trkpt>
      <trkpt lat="45.874319924041629" lon="7.845333879813552">
        <ele>2682.96</ele>
        <time>2022-07-03T12:41:19Z</time>
      </trkpt>
      <trkpt lat="45.874328222125769" lon="7.845347290858626">
        <ele>2682.8400000000001</ele>
        <time>2022-07-03T12:41:22Z</time>
      </trkpt>
      <trkpt lat="45.874352948740125" lon="7.845389284193516">
        <ele>2681.5700000000002</ele>
        <time>2022-07-03T12:41:26Z</time>
      </trkpt>
      <trkpt lat="45.874379938468337" lon="7.845502523705363">
        <ele>2679.6500000000001</ele>
        <time>2022-07-03T12:41:36Z</time>
      </trkpt>
      <trkpt lat="45.87437423877418" lon="7.845681980252266">
        <ele>2677.7600000000002</ele>
        <time>2022-07-03T12:41:49Z</time>
      </trkpt>
      <trkpt lat="45.874318666756153" lon="7.845670832321048">
        <ele>2676.4400000000001</ele>
        <time>2022-07-03T12:41:56Z</time>
      </trkpt>
      <trkpt lat="45.874258652329445" lon="7.845686841756105">
        <ele>2674.9699999999998</ele>
        <time>2022-07-03T12:42:03Z</time>
      </trkpt>
      <trkpt lat="45.874239793047309" lon="7.845711065456271">
        <ele>2674.4000000000001</ele>
        <time>2022-07-03T12:42:06Z</time>
      </trkpt>
      <trkpt lat="45.874160835519433" lon="7.845712322741747">
        <ele>2673.0100000000002</ele>
        <time>2022-07-03T12:42:14Z</time>
      </trkpt>
      <trkpt lat="45.87410643696785" lon="7.845727829262614">
        <ele>2671.7800000000002</ele>
        <time>2022-07-03T12:42:20Z</time>
      </trkpt>
      <trkpt lat="45.874067712575197" lon="7.845729505643249">
        <ele>2671.1700000000001</ele>
        <time>2022-07-03T12:42:24Z</time>
      </trkpt>
      <trkpt lat="45.874030748382211" lon="7.845792789012194">
        <ele>2671.0599999999999</ele>
        <time>2022-07-03T12:42:30Z</time>
      </trkpt>
      <trkpt lat="45.873941648751497" lon="7.845867555588484">
        <ele>2669.5999999999999</ele>
        <time>2022-07-03T12:42:41Z</time>
      </trkpt>
      <trkpt lat="45.873861098662019" lon="7.845970401540399">
        <ele>2667.3200000000002</ele>
        <time>2022-07-03T12:42:53Z</time>
      </trkpt>
      <trkpt lat="45.873829498887062" lon="7.846001498401165">
        <ele>2667.1900000000001</ele>
        <time>2022-07-03T12:42:57Z</time>
      </trkpt>
      <trkpt lat="45.873768562451005" lon="7.846106020733714">
        <ele>2665.0700000000002</ele>
        <time>2022-07-03T12:43:10Z</time>
      </trkpt>
      <trkpt lat="45.873733190819621" lon="7.846151534467936">
        <ele>2663.4400000000001</ele>
        <time>2022-07-03T12:43:17Z</time>
      </trkpt>
      <trkpt lat="45.873655322939157" lon="7.846221690997481">
        <ele>2660.2800000000002</ele>
        <time>2022-07-03T12:43:29Z</time>
      </trkpt>
      <trkpt lat="45.873607629910111" lon="7.846269803121686">
        <ele>2658.8499999999999</ele>
        <time>2022-07-03T12:43:37Z</time>
      </trkpt>
      <trkpt lat="45.873604696244001" lon="7.846304504200816">
        <ele>2657.46</ele>
        <time>2022-07-03T12:43:48Z</time>
      </trkpt>
      <trkpt lat="45.873609306290746" lon="7.846298553049564">
        <ele>2657.0300000000002</ele>
        <time>2022-07-03T12:43:56Z</time>
      </trkpt>
      <trkpt lat="45.873598074540496" lon="7.846306348219514">
        <ele>2655.8899999999999</ele>
        <time>2022-07-03T12:44:09Z</time>
      </trkpt>
      <trkpt lat="45.873597990721464" lon="7.846308276057243">
        <ele>2655.6700000000001</ele>
        <time>2022-07-03T12:44:10Z</time>
      </trkpt>
      <trkpt lat="45.873606707900763" lon="7.846331493929029">
        <ele>2654.5700000000002</ele>
        <time>2022-07-03T12:44:31Z</time>
      </trkpt>
      <trkpt lat="45.873609641566873" lon="7.846337947994471">
        <ele>2659.8400000000001</ele>
        <time>2022-07-03T12:44:33Z</time>
      </trkpt>
      <trkpt lat="45.873604947701097" lon="7.846339959651232">
        <ele>2658.5599999999999</ele>
        <time>2022-07-03T12:44:34Z</time>
      </trkpt>
      <trkpt lat="45.873610144481063" lon="7.846345324069262">
        <ele>2656.8299999999999</ele>
        <time>2022-07-03T12:44:37Z</time>
      </trkpt>
      <trkpt lat="45.873615341261029" lon="7.846359238028526">
        <ele>2657.3099999999999</ele>
        <time>2022-07-03T12:44:53Z</time>
      </trkpt>
      <trkpt lat="45.873648701235652" lon="7.846356304362416">
        <ele>2656.9200000000001</ele>
        <time>2022-07-03T12:45:24Z</time>
      </trkpt>
      <trkpt lat="45.87363394908607" lon="7.846352197229862">
        <ele>2656.4899999999998</ele>
        <time>2022-07-03T12:45:43Z</time>
      </trkpt>
      <trkpt lat="45.87363101541996" lon="7.846351359039545">
        <ele>2656.1900000000001</ele>
        <time>2022-07-03T12:46:03Z</time>
      </trkpt>
      <trkpt lat="45.87362171150744" lon="7.84634867683053">
        <ele>2655.8299999999999</ele>
        <time>2022-07-03T12:46:27Z</time>
      </trkpt>
      <trkpt lat="45.873619364574552" lon="7.846357226371765">
        <ele>2655.54</ele>
        <time>2022-07-03T12:46:55Z</time>
      </trkpt>
      <trkpt lat="45.873607881367207" lon="7.846329649910331">
        <ele>2655.0799999999999</ele>
        <time>2022-07-03T12:47:36Z</time>
      </trkpt>
      <trkpt lat="45.873605702072382" lon="7.846329398453236">
        <ele>2654.4400000000001</ele>
        <time>2022-07-03T12:48:20Z</time>
      </trkpt>
      <trkpt lat="45.87359145283699" lon="7.846326800063252">
        <ele>2654.2199999999998</ele>
        <time>2022-07-03T12:49:11Z</time>
      </trkpt>
      <trkpt lat="45.873600170016289" lon="7.846330320462585">
        <ele>2653.9200000000001</ele>
        <time>2022-07-03T12:49:53Z</time>
      </trkpt>
      <trkpt lat="45.873598828911781" lon="7.846318921074271">
        <ele>2652.5599999999999</ele>
        <time>2022-07-03T12:50:39Z</time>
      </trkpt>
      <trkpt lat="45.873597990721464" lon="7.846318753436208">
        <ele>2653.0599999999999</ele>
        <time>2022-07-03T12:51:20Z</time>
      </trkpt>
      <trkpt lat="45.873588854447007" lon="7.846322022378445">
        <ele>2652.3200000000002</ele>
        <time>2022-07-03T12:52:06Z</time>
      </trkpt>
      <trkpt lat="45.873585753142834" lon="7.846318669617176">
        <ele>2652.1599999999999</ele>
        <time>2022-07-03T12:52:48Z</time>
      </trkpt>
      <trkpt lat="45.873587680980563" lon="7.84631447866559">
        <ele>2652.25</ele>
        <time>2022-07-03T12:53:34Z</time>
      </trkpt>
      <trkpt lat="45.873579131439328" lon="7.846316155046225">
        <ele>2651.71</ele>
        <time>2022-07-03T12:54:18Z</time>
      </trkpt>
      <trkpt lat="45.873590363189578" lon="7.846307186409831">
        <ele>2652.02</ele>
        <time>2022-07-03T12:54:36Z</time>
      </trkpt>
      <trkpt lat="45.873594218865037" lon="7.846319004893303">
        <ele>2652.3400000000001</ele>
        <time>2022-07-03T12:54:56Z</time>
      </trkpt>
      <trkpt lat="45.873599918559194" lon="7.846331661567092">
        <ele>2652.1399999999999</ele>
        <time>2022-07-03T12:55:17Z</time>
      </trkpt>
      <trkpt lat="45.873591285198927" lon="7.846326800063252">
        <ele>2652.2600000000002</ele>
        <time>2022-07-03T12:55:37Z</time>
      </trkpt>
      <trkpt lat="45.873600002378225" lon="7.846328224986792">
        <ele>2651.9499999999998</ele>
        <time>2022-07-03T12:56:02Z</time>
      </trkpt>
      <trkpt lat="45.873601594939828" lon="7.846326548606157">
        <ele>2653.1799999999998</ele>
        <time>2022-07-03T12:56:17Z</time>
      </trkpt>
      <trkpt lat="45.873609138652682" lon="7.846339624375105">
        <ele>2653.5999999999999</ele>
        <time>2022-07-03T12:56:35Z</time>
      </trkpt>
      <trkpt lat="45.873613497242332" lon="7.846349179744721">
        <ele>2652.8299999999999</ele>
        <time>2022-07-03T12:56:54Z</time>
      </trkpt>
      <trkpt lat="45.873613078147173" lon="7.846355717629194">
        <ele>2653.2399999999998</ele>
        <time>2022-07-03T12:57:08Z</time>
      </trkpt>
      <trkpt lat="45.873583992943168" lon="7.846359573304653">
        <ele>2652.75</ele>
        <time>2022-07-03T12:57:25Z</time>
      </trkpt>
      <trkpt lat="45.873568654060364" lon="7.846364267170429">
        <ele>2652.3800000000001</ele>
        <time>2022-07-03T12:57:47Z</time>
      </trkpt>
      <trkpt lat="45.873530767858028" lon="7.846414055675268">
        <ele>2650.8899999999999</ele>
        <time>2022-07-03T12:58:04Z</time>
      </trkpt>
      <trkpt lat="45.87344384752214" lon="7.846447750926018">
        <ele>2647.6999999999998</ele>
        <time>2022-07-03T12:58:17Z</time>
      </trkpt>
      <trkpt lat="45.87337888777256" lon="7.846474321559072">
        <ele>2647.8600000000001</ele>
        <time>2022-07-03T12:58:25Z</time>
      </trkpt>
      <trkpt lat="45.873236646875739" lon="7.846494354307652">
        <ele>2645.1100000000001</ele>
        <time>2022-07-03T12:58:41Z</time>
      </trkpt>
      <trkpt lat="45.873151486739516" lon="7.846549423411489">
        <ele>2642.9699999999998</ele>
        <time>2022-07-03T12:58:54Z</time>
      </trkpt>
      <trkpt lat="45.873128771781921" lon="7.846573228016496">
        <ele>2641.8899999999999</ele>
        <time>2022-07-03T12:58:58Z</time>
      </trkpt>
      <trkpt lat="45.87310966104269" lon="7.846583034843206">
        <ele>2641.5100000000002</ele>
        <time>2022-07-03T12:59:00Z</time>
      </trkpt>
      <trkpt lat="45.873021902516484" lon="7.846723599359393">
        <ele>2639.1599999999999</ele>
        <time>2022-07-03T12:59:13Z</time>
      </trkpt>
      <trkpt lat="45.872990973293781" lon="7.846741285175085">
        <ele>2638.5799999999999</ele>
        <time>2022-07-03T12:59:16Z</time>
      </trkpt>
      <trkpt lat="45.872854432091117" lon="7.846719827502966">
        <ele>2636.21</ele>
        <time>2022-07-03T12:59:29Z</time>
      </trkpt>
      <trkpt lat="45.872824089601636" lon="7.846722677350044">
        <ele>2635.1599999999999</ele>
        <time>2022-07-03T12:59:32Z</time>
      </trkpt>
      <trkpt lat="45.872732307761908" lon="7.846804317086935">
        <ele>2632.0900000000001</ele>
        <time>2022-07-03T12:59:44Z</time>
      </trkpt>
      <trkpt lat="45.872679334133863" lon="7.846877742558718">
        <ele>2630.3800000000001</ele>
        <time>2022-07-03T12:59:52Z</time>
      </trkpt>
      <trkpt lat="45.872622672468424" lon="7.846867013722658">
        <ele>2628.9200000000001</ele>
        <time>2022-07-03T12:59:59Z</time>
      </trkpt>
      <trkpt lat="45.872567016631365" lon="7.846926609054208">
        <ele>2626.0300000000002</ele>
        <time>2022-07-03T13:00:09Z</time>
      </trkpt>
      <trkpt lat="45.872451514005661" lon="7.846939768642187">
        <ele>2623.1999999999998</ele>
        <time>2022-07-03T13:00:22Z</time>
      </trkpt>
      <trkpt lat="45.872311871498823" lon="7.84700246527791">
        <ele>2620.7399999999998</ele>
        <time>2022-07-03T13:00:37Z</time>
      </trkpt>
      <trkpt lat="45.872304160147905" lon="7.847010092809796">
        <ele>2620.5599999999999</ele>
        <time>2022-07-03T13:00:38Z</time>
      </trkpt>
      <trkpt lat="45.872269878163934" lon="7.847042866051197">
        <ele>2619.4200000000001</ele>
        <time>2022-07-03T13:00:42Z</time>
      </trkpt>
      <trkpt lat="45.872144568711519" lon="7.847061641514301">
        <ele>2617.04</ele>
        <time>2022-07-03T13:00:53Z</time>
      </trkpt>
      <trkpt lat="45.872060665860772" lon="7.847054433077574">
        <ele>2615.3899999999999</ele>
        <time>2022-07-03T13:01:03Z</time>
      </trkpt>
      <trkpt lat="45.872046668082476" lon="7.847076980397105">
        <ele>2615.5999999999999</ele>
        <time>2022-07-03T13:01:05Z</time>
      </trkpt>
      <trkpt lat="45.87201070971787" lon="7.847112184390426">
        <ele>2615.23</ele>
        <time>2022-07-03T13:01:09Z</time>
      </trkpt>
      <trkpt lat="45.871952706947923" lon="7.847139174118638">
        <ele>2614.9099999999999</ele>
        <time>2022-07-03T13:01:16Z</time>
      </trkpt>
      <trkpt lat="45.871936529874802" lon="7.847153674811125">
        <ele>2614.9000000000001</ele>
        <time>2022-07-03T13:01:18Z</time>
      </trkpt>
      <trkpt lat="45.871917167678475" lon="7.847156692296267">
        <ele>2614.8600000000001</ele>
        <time>2022-07-03T13:01:20Z</time>
      </trkpt>
      <trkpt lat="45.87179864756763" lon="7.84715342335403">
        <ele>2615.7399999999998</ele>
        <time>2022-07-03T13:01:33Z</time>
      </trkpt>
      <trkpt lat="45.871692700311542" lon="7.847177563235164">
        <ele>2616.4200000000001</ele>
        <time>2022-07-03T13:01:46Z</time>
      </trkpt>
      <trkpt lat="45.871608965098858" lon="7.847218718379736">
        <ele>2617.6399999999999</ele>
        <time>2022-07-03T13:01:56Z</time>
      </trkpt>
      <trkpt lat="45.871490612626076" lon="7.847236320376396">
        <ele>2618.9699999999998</ele>
        <time>2022-07-03T13:02:11Z</time>
      </trkpt>
      <trkpt lat="45.871443087235093" lon="7.847150322049856">
        <ele>2621.46</ele>
        <time>2022-07-03T13:02:24Z</time>
      </trkpt>
      <trkpt lat="45.871391789987683" lon="7.847148813307285">
        <ele>2622.6399999999999</ele>
        <time>2022-07-03T13:02:35Z</time>
      </trkpt>
      <trkpt lat="45.871302438899875" lon="7.847230536863208">
        <ele>2624.3400000000001</ele>
        <time>2022-07-03T13:02:49Z</time>
      </trkpt>
      <trkpt lat="45.871226750314236" lon="7.847317792475224">
        <ele>2626.3800000000001</ele>
        <time>2022-07-03T13:03:03Z</time>
      </trkpt>
      <trkpt lat="45.871155168861151" lon="7.847382165491581">
        <ele>2627.9200000000001</ele>
        <time>2022-07-03T13:03:16Z</time>
      </trkpt>
      <trkpt lat="45.871132537722588" lon="7.847465397790074">
        <ele>2629.4200000000001</ele>
        <time>2022-07-03T13:03:26Z</time>
      </trkpt>
      <trkpt lat="45.871121976524591" lon="7.847521053627133">
        <ele>2628.71</ele>
        <time>2022-07-03T13:03:30Z</time>
      </trkpt>
      <trkpt lat="45.871123569086194" lon="7.847563549876213">
        <ele>2627.8699999999999</ele>
        <time>2022-07-03T13:03:33Z</time>
      </trkpt>
      <trkpt lat="45.871063889935613" lon="7.847662037238479">
        <ele>2626.6100000000001</ele>
        <time>2022-07-03T13:03:41Z</time>
      </trkpt>
      <trkpt lat="45.870954254642129" lon="7.847753064706922">
        <ele>2625.3800000000001</ele>
        <time>2022-07-03T13:03:53Z</time>
      </trkpt>
      <trkpt lat="45.870807655155659" lon="7.847793214023113">
        <ele>2623.8000000000002</ele>
        <time>2022-07-03T13:04:07Z</time>
      </trkpt>
      <trkpt lat="45.870694248005748" lon="7.847777456045151">
        <ele>2621.7199999999998</ele>
        <time>2022-07-03T13:04:18Z</time>
      </trkpt>
      <trkpt lat="45.87057170458138" lon="7.847894048318267">
        <ele>2621.2600000000002</ele>
        <time>2022-07-03T13:04:32Z</time>
      </trkpt>
      <trkpt lat="45.870497189462185" lon="7.848012065514922">
        <ele>2622.3099999999999</ele>
        <time>2022-07-03T13:04:44Z</time>
      </trkpt>
      <trkpt lat="45.870438097044826" lon="7.848117342218757">
        <ele>2623.5900000000001</ele>
        <time>2022-07-03T13:04:55Z</time>
      </trkpt>
      <trkpt lat="45.870401216670871" lon="7.84818003885448">
        <ele>2623.73</ele>
        <time>2022-07-03T13:05:07Z</time>
      </trkpt>
      <trkpt lat="45.870388643816113" lon="7.848177189007402">
        <ele>2623.3800000000001</ele>
        <time>2022-07-03T13:05:26Z</time>
      </trkpt>
      <trkpt lat="45.870370790362358" lon="7.848193701356649">
        <ele>2623.3099999999999</ele>
        <time>2022-07-03T13:05:31Z</time>
      </trkpt>
      <trkpt lat="45.870341705158353" lon="7.848230162635446">
        <ele>2623.21</ele>
        <time>2022-07-03T13:05:35Z</time>
      </trkpt>
      <trkpt lat="45.870332568883896" lon="7.848253548145294">
        <ele>2622.98</ele>
        <time>2022-07-03T13:05:37Z</time>
      </trkpt>
      <trkpt lat="45.870193094015121" lon="7.848376426845789">
        <ele>2621</ele>
        <time>2022-07-03T13:05:52Z</time>
      </trkpt>
      <trkpt lat="45.870085135102272" lon="7.848451277241111">
        <ele>2621.1199999999999</ele>
        <time>2022-07-03T13:06:04Z</time>
      </trkpt>
      <trkpt lat="45.869958400726318" lon="7.848544819280505">
        <ele>2620.1100000000001</ele>
        <time>2022-07-03T13:06:19Z</time>
      </trkpt>
      <trkpt lat="45.869882712140679" lon="7.848607935011387">
        <ele>2619.1100000000001</ele>
        <time>2022-07-03T13:06:30Z</time>
      </trkpt>
      <trkpt lat="45.869877431541681" lon="7.848625034093857">
        <ele>2619.0999999999999</ele>
        <time>2022-07-03T13:06:33Z</time>
      </trkpt>
      <trkpt lat="45.869862092658877" lon="7.848692508414388">
        <ele>2617.8499999999999</ele>
        <time>2022-07-03T13:06:38Z</time>
      </trkpt>
      <trkpt lat="45.869827140122652" lon="7.848785212263465">
        <ele>2616.3899999999999</ele>
        <time>2022-07-03T13:06:46Z</time>
      </trkpt>
      <trkpt lat="45.869780285283923" lon="7.848838688805699">
        <ele>2614.6900000000001</ele>
        <time>2022-07-03T13:06:52Z</time>
      </trkpt>
      <trkpt lat="45.869691269472241" lon="7.848981432616711">
        <ele>2611.5300000000002</ele>
        <time>2022-07-03T13:07:04Z</time>
      </trkpt>
      <trkpt lat="45.869613988325" lon="7.849065586924553">
        <ele>2611.0599999999999</ele>
        <time>2022-07-03T13:07:13Z</time>
      </trkpt>
      <trkpt lat="45.869563613086939" lon="7.849114704877138">
        <ele>2610.2399999999998</ele>
        <time>2022-07-03T13:07:19Z</time>
      </trkpt>
      <trkpt lat="45.869439477100968" lon="7.849169438704848">
        <ele>2608.1799999999998</ele>
        <time>2022-07-03T13:07:34Z</time>
      </trkpt>
      <trkpt lat="45.869443416595459" lon="7.849188046529889">
        <ele>2607.77</ele>
        <time>2022-07-03T13:07:36Z</time>
      </trkpt>
      <trkpt lat="45.869405781850219" lon="7.849264657124877">
        <ele>2605.7199999999998</ele>
        <time>2022-07-03T13:07:45Z</time>
      </trkpt>
      <trkpt lat="45.869323890656233" lon="7.849286952987313">
        <ele>2603.0100000000002</ele>
        <time>2022-07-03T13:07:58Z</time>
      </trkpt>
      <trkpt lat="45.869389353320003" lon="7.849324839189649">
        <ele>2601.5799999999999</ele>
        <time>2022-07-03T13:08:07Z</time>
      </trkpt>
      <trkpt lat="45.869409805163741" lon="7.849357696250081">
        <ele>2600.77</ele>
        <time>2022-07-03T13:08:20Z</time>
      </trkpt>
      <trkpt lat="45.869398657232523" lon="7.849372699856758">
        <ele>2600.4000000000001</ele>
        <time>2022-07-03T13:08:24Z</time>
      </trkpt>
      <trkpt lat="45.869365800172091" lon="7.849377142265439">
        <ele>2600.4899999999998</ele>
        <time>2022-07-03T13:08:27Z</time>
      </trkpt>
      <trkpt lat="45.869320789352059" lon="7.849391559138894">
        <ele>2600.1199999999999</ele>
        <time>2022-07-03T13:08:35Z</time>
      </trkpt>
      <trkpt lat="45.869291452690959" lon="7.849381752312183">
        <ele>2599.5599999999999</ele>
        <time>2022-07-03T13:08:38Z</time>
      </trkpt>
      <trkpt lat="45.869197826832533" lon="7.849348727613688">
        <ele>2599.1900000000001</ele>
        <time>2022-07-03T13:08:47Z</time>
      </trkpt>
      <trkpt lat="45.869185253977776" lon="7.849410502240062">
        <ele>2597.5700000000002</ele>
        <time>2022-07-03T13:08:58Z</time>
      </trkpt>
      <trkpt lat="45.869153151288629" lon="7.849457608535886">
        <ele>2595.2199999999998</ele>
        <time>2022-07-03T13:09:08Z</time>
      </trkpt>
      <trkpt lat="45.86909850127995" lon="7.849489795044065">
        <ele>2592.8699999999999</ele>
        <time>2022-07-03T13:09:17Z</time>
      </trkpt>
      <trkpt lat="45.869070757180452" lon="7.849472612142563">
        <ele>2591.3600000000001</ele>
        <time>2022-07-03T13:09:21Z</time>
      </trkpt>
      <trkpt lat="45.868984591215849" lon="7.849444868043065">
        <ele>2589.0700000000002</ele>
        <time>2022-07-03T13:09:32Z</time>
      </trkpt>
      <trkpt lat="45.868927510455251" lon="7.84942458383739">
        <ele>2588.1399999999999</ele>
        <time>2022-07-03T13:09:38Z</time>
      </trkpt>
      <trkpt lat="45.868817456066608" lon="7.84940698184073">
        <ele>2584.9299999999998</ele>
        <time>2022-07-03T13:09:50Z</time>
      </trkpt>
      <trkpt lat="45.868712263181806" lon="7.849334478378296">
        <ele>2582.4000000000001</ele>
        <time>2022-07-03T13:10:02Z</time>
      </trkpt>
      <trkpt lat="45.868641519919038" lon="7.849367000162602">
        <ele>2580.6700000000001</ele>
        <time>2022-07-03T13:10:14Z</time>
      </trkpt>
      <trkpt lat="45.868648560717702" lon="7.849374292418361">
        <ele>2580.1399999999999</ele>
        <time>2022-07-03T13:10:16Z</time>
      </trkpt>
      <trkpt lat="45.868666414171457" lon="7.849431876093149">
        <ele>2578.4699999999998</ele>
        <time>2022-07-03T13:10:22Z</time>
      </trkpt>
      <trkpt lat="45.868677143007517" lon="7.849484849721193">
        <ele>2577.4099999999999</ele>
        <time>2022-07-03T13:10:26Z</time>
      </trkpt>
      <trkpt lat="45.868699690327048" lon="7.849555173888803">
        <ele>2576.7399999999998</ele>
        <time>2022-07-03T13:10:32Z</time>
      </trkpt>
      <trkpt lat="45.868708407506347" lon="7.849688865244389">
        <ele>2574.73</ele>
        <time>2022-07-03T13:10:44Z</time>
      </trkpt>
      <trkpt lat="45.868726596236229" lon="7.849755249917507">
        <ele>2573.54</ele>
        <time>2022-07-03T13:10:51Z</time>
      </trkpt>
      <trkpt lat="45.868708826601505" lon="7.849920457229018">
        <ele>2571.52</ele>
        <time>2022-07-03T13:11:02Z</time>
      </trkpt>
      <trkpt lat="45.868715867400169" lon="7.850116342306137">
        <ele>2570.3000000000002</ele>
        <time>2022-07-03T13:11:17Z</time>
      </trkpt>
      <trkpt lat="45.868725087493658" lon="7.850139560177922">
        <ele>2569.6900000000001</ele>
        <time>2022-07-03T13:11:20Z</time>
      </trkpt>
      <trkpt lat="45.868704970926046" lon="7.850203514099121">
        <ele>2567.8600000000001</ele>
        <time>2022-07-03T13:11:28Z</time>
      </trkpt>
      <trkpt lat="45.8686313778162" lon="7.850178200751543">
        <ele>2565.6300000000001</ele>
        <time>2022-07-03T13:11:37Z</time>
      </trkpt>
      <trkpt lat="45.868594329804182" lon="7.850154060870409">
        <ele>2564.8499999999999</ele>
        <time>2022-07-03T13:11:41Z</time>
      </trkpt>
      <trkpt lat="45.868551917374134" lon="7.850215919315815">
        <ele>2563.8600000000001</ele>
        <time>2022-07-03T13:11:52Z</time>
      </trkpt>
      <trkpt lat="45.868546804413199" lon="7.850235952064395">
        <ele>2563.75</ele>
        <time>2022-07-03T13:11:54Z</time>
      </trkpt>
      <trkpt lat="45.868544457480311" lon="7.850334271788597">
        <ele>2562.5</ele>
        <time>2022-07-03T13:12:03Z</time>
      </trkpt>
      <trkpt lat="45.868583936244249" lon="7.850431082770228">
        <ele>2560.1900000000001</ele>
        <time>2022-07-03T13:12:15Z</time>
      </trkpt>
      <trkpt lat="45.868546972051263" lon="7.850461006164551">
        <ele>2559.3000000000002</ele>
        <time>2022-07-03T13:12:28Z</time>
      </trkpt>
      <trkpt lat="45.868483185768127" lon="7.850545411929488">
        <ele>2556.8899999999999</ele>
        <time>2022-07-03T13:12:40Z</time>
      </trkpt>
      <trkpt lat="45.868494920432568" lon="7.850562343373895">
        <ele>2555.8499999999999</ele>
        <time>2022-07-03T13:12:42Z</time>
      </trkpt>
      <trkpt lat="45.868566418066621" lon="7.850645240396261">
        <ele>2554.0300000000002</ele>
        <time>2022-07-03T13:12:53Z</time>
      </trkpt>
      <trkpt lat="45.868622325360775" lon="7.850694106891751">
        <ele>2552.8699999999999</ele>
        <time>2022-07-03T13:12:59Z</time>
      </trkpt>
      <trkpt lat="45.868636323139071" lon="7.850717324763537">
        <ele>2552.27</ele>
        <time>2022-07-03T13:13:01Z</time>
      </trkpt>
      <trkpt lat="45.868653757497668" lon="7.850733753293753">
        <ele>2551.8699999999999</ele>
        <time>2022-07-03T13:13:03Z</time>
      </trkpt>
      <trkpt lat="45.8685761410743" lon="7.850832659751177">
        <ele>2549.4400000000001</ele>
        <time>2022-07-03T13:13:14Z</time>
      </trkpt>
      <trkpt lat="45.868537500500679" lon="7.850840706378222">
        <ele>2548.2199999999998</ele>
        <time>2022-07-03T13:13:18Z</time>
      </trkpt>
      <trkpt lat="45.868497937917709" lon="7.850821763277054">
        <ele>2547.3699999999999</ele>
        <time>2022-07-03T13:13:22Z</time>
      </trkpt>
      <trkpt lat="45.868454100564122" lon="7.850844897329807">
        <ele>2546.5300000000002</ele>
        <time>2022-07-03T13:13:26Z</time>
      </trkpt>
      <trkpt lat="45.868424596264958" lon="7.850831737741828">
        <ele>2546.0900000000001</ele>
        <time>2022-07-03T13:13:29Z</time>
      </trkpt>
      <trkpt lat="45.868358463048935" lon="7.850793683901429">
        <ele>2545.1700000000001</ele>
        <time>2022-07-03T13:13:37Z</time>
      </trkpt>
      <trkpt lat="45.868323007598519" lon="7.850894182920456">
        <ele>2543.4699999999998</ele>
        <time>2022-07-03T13:13:47Z</time>
      </trkpt>
      <trkpt lat="45.868315799161792" lon="7.850942797958851">
        <ele>2542.79</ele>
        <time>2022-07-03T13:14:02Z</time>
      </trkpt>
      <trkpt lat="45.868306159973145" lon="7.850939864292741">
        <ele>2542.0799999999999</ele>
        <time>2022-07-03T13:14:13Z</time>
      </trkpt>
      <trkpt lat="45.868300460278988" lon="7.850937936455011">
        <ele>2541.77</ele>
        <time>2022-07-03T13:14:17Z</time>
      </trkpt>
      <trkpt lat="45.868197279050946" lon="7.850876916199923">
        <ele>2539.1999999999998</ele>
        <time>2022-07-03T13:14:30Z</time>
      </trkpt>
      <trkpt lat="45.86815738119185" lon="7.85088462755084">
        <ele>2537.6500000000001</ele>
        <time>2022-07-03T13:14:38Z</time>
      </trkpt>
      <trkpt lat="45.868179677054286" lon="7.851045811548829">
        <ele>2535.4499999999998</ele>
        <time>2022-07-03T13:14:51Z</time>
      </trkpt>
      <trkpt lat="45.868099629878998" lon="7.851014547049999">
        <ele>2533.5999999999999</ele>
        <time>2022-07-03T13:15:01Z</time>
      </trkpt>
      <trkpt lat="45.868022684007883" lon="7.851175144314766">
        <ele>2530.4299999999998</ele>
        <time>2022-07-03T13:15:15Z</time>
      </trkpt>
      <trkpt lat="45.868022264912724" lon="7.851291568949819">
        <ele>2527.71</ele>
        <time>2022-07-03T13:15:27Z</time>
      </trkpt>
      <trkpt lat="45.867993095889688" lon="7.851314954459667">
        <ele>2526.25</ele>
        <time>2022-07-03T13:15:33Z</time>
      </trkpt>
      <trkpt lat="45.867944648489356" lon="7.851335993036628">
        <ele>2525.4499999999998</ele>
        <time>2022-07-03T13:15:46Z</time>
      </trkpt>
      <trkpt lat="45.867923777550459" lon="7.85133071243763">
        <ele>2524.6900000000001</ele>
        <time>2022-07-03T13:16:01Z</time>
      </trkpt>
      <trkpt lat="45.867926040664315" lon="7.851319648325443">
        <ele>2525.3899999999999</ele>
        <time>2022-07-03T13:16:14Z</time>
      </trkpt>
      <trkpt lat="45.867918916046619" lon="7.851316714659333">
        <ele>2524.1599999999999</ele>
        <time>2022-07-03T13:16:24Z</time>
      </trkpt>
      <trkpt lat="45.867916569113731" lon="7.851314367726445">
        <ele>2523.6199999999999</ele>
        <time>2022-07-03T13:16:41Z</time>
      </trkpt>
      <trkpt lat="45.867919921875" lon="7.851325767114759">
        <ele>2523.8200000000002</ele>
        <time>2022-07-03T13:17:03Z</time>
      </trkpt>
      <trkpt lat="45.867919251322746" lon="7.851330880075693">
        <ele>2524.0799999999999</ele>
        <time>2022-07-03T13:17:24Z</time>
      </trkpt>
      <trkpt lat="45.867913970723748" lon="7.851324258372188">
        <ele>2523.5500000000002</ele>
        <time>2022-07-03T13:17:39Z</time>
      </trkpt>
      <trkpt lat="45.867903241887689" lon="7.851317636668682">
        <ele>2523.3899999999999</ele>
        <time>2022-07-03T13:17:54Z</time>
      </trkpt>
      <trkpt lat="45.867895195260644" lon="7.85131604410708">
        <ele>2522.9099999999999</ele>
        <time>2022-07-03T13:18:09Z</time>
      </trkpt>
      <trkpt lat="45.867889914661646" lon="7.851320821791887">
        <ele>2522.79</ele>
        <time>2022-07-03T13:18:27Z</time>
      </trkpt>
      <trkpt lat="45.867890249937773" lon="7.851312272250652">
        <ele>2522.79</ele>
        <time>2022-07-03T13:18:43Z</time>
      </trkpt>
      <trkpt lat="45.867895446717739" lon="7.851316714659333">
        <ele>2522.8000000000002</ele>
        <time>2022-07-03T13:19:02Z</time>
      </trkpt>
      <trkpt lat="45.867886142805219" lon="7.851306572556496">
        <ele>2523.0700000000002</ele>
        <time>2022-07-03T13:19:17Z</time>
      </trkpt>
      <trkpt lat="45.867897374555469" lon="7.851302297785878">
        <ele>2523.9400000000001</ele>
        <time>2022-07-03T13:19:35Z</time>
      </trkpt>
      <trkpt lat="45.867883376777172" lon="7.851302046328783">
        <ele>2522.8499999999999</ele>
        <time>2022-07-03T13:19:54Z</time>
      </trkpt>
      <trkpt lat="45.867852196097374" lon="7.851282935589552">
        <ele>2522.2399999999998</ele>
        <time>2022-07-03T13:20:13Z</time>
      </trkpt>
      <trkpt lat="45.867811962962151" lon="7.85115385428071">
        <ele>2520.0799999999999</ele>
        <time>2022-07-03T13:20:27Z</time>
      </trkpt>
      <trkpt lat="45.867800312116742" lon="7.851098030805588">
        <ele>2518.4899999999998</ele>
        <time>2022-07-03T13:20:42Z</time>
      </trkpt>
      <trkpt lat="45.867767622694373" lon="7.851050421595573">
        <ele>2516.8699999999999</ele>
        <time>2022-07-03T13:20:54Z</time>
      </trkpt>
      <trkpt lat="45.867765359580517" lon="7.850953945890069">
        <ele>2516.1500000000001</ele>
        <time>2022-07-03T13:21:01Z</time>
      </trkpt>
      <trkpt lat="45.867759240791202" lon="7.850806256756187">
        <ele>2514.2199999999998</ele>
        <time>2022-07-03T13:21:13Z</time>
      </trkpt>
      <trkpt lat="45.867746332660317" lon="7.85069452598691">
        <ele>2512.9000000000001</ele>
        <time>2022-07-03T13:21:23Z</time>
      </trkpt>
      <trkpt lat="45.867696795612574" lon="7.850594529882073">
        <ele>2511.98</ele>
        <time>2022-07-03T13:21:30Z</time>
      </trkpt>
      <trkpt lat="45.867682714015245" lon="7.8505689650774">
        <ele>2511.7600000000002</ele>
        <time>2022-07-03T13:21:32Z</time>
      </trkpt>
      <trkpt lat="45.867588417604566" lon="7.850478608161211">
        <ele>2510.9099999999999</ele>
        <time>2022-07-03T13:21:43Z</time>
      </trkpt>
      <trkpt lat="45.867464197799563" lon="7.850458072498441">
        <ele>2509.3699999999999</ele>
        <time>2022-07-03T13:21:55Z</time>
      </trkpt>
      <trkpt lat="45.867409044876695" lon="7.850409960374236">
        <ele>2509.0999999999999</ele>
        <time>2022-07-03T13:22:02Z</time>
      </trkpt>
      <trkpt lat="45.867347102612257" lon="7.850292110815644">
        <ele>2508.8699999999999</ele>
        <time>2022-07-03T13:22:12Z</time>
      </trkpt>
      <trkpt lat="45.867163371294737" lon="7.850224887952209">
        <ele>2508.6100000000001</ele>
        <time>2022-07-03T13:22:28Z</time>
      </trkpt>
      <trkpt lat="45.866998080164194" lon="7.850208124145865">
        <ele>2508.3899999999999</ele>
        <time>2022-07-03T13:22:42Z</time>
      </trkpt>
      <trkpt lat="45.866871764883399" lon="7.850123550742865">
        <ele>2507.6399999999999</ele>
        <time>2022-07-03T13:22:55Z</time>
      </trkpt>
      <trkpt lat="45.86684494279325" lon="7.8501062002033">
        <ele>2507.79</ele>
        <time>2022-07-03T13:22:58Z</time>
      </trkpt>
      <trkpt lat="45.866694990545511" lon="7.850077282637358">
        <ele>2507.4099999999999</ele>
        <time>2022-07-03T13:23:12Z</time>
      </trkpt>
      <trkpt lat="45.866548139601946" lon="7.85004467703402">
        <ele>2507.5300000000002</ele>
        <time>2022-07-03T13:23:26Z</time>
      </trkpt>
      <trkpt lat="45.866476641967893" lon="7.850016262382269">
        <ele>2507.5100000000002</ele>
        <time>2022-07-03T13:23:33Z</time>
      </trkpt>
      <trkpt lat="45.866349823772907" lon="7.850020872429013">
        <ele>2505.5500000000002</ele>
        <time>2022-07-03T13:23:45Z</time>
      </trkpt>
      <trkpt lat="45.866233231499791" lon="7.850008383393288">
        <ele>2504.3499999999999</ele>
        <time>2022-07-03T13:23:56Z</time>
      </trkpt>
      <trkpt lat="45.866146227344871" lon="7.850045096129179">
        <ele>2502.9699999999998</ele>
        <time>2022-07-03T13:24:06Z</time>
      </trkpt>
      <trkpt lat="45.866141449660063" lon="7.85005004145205">
        <ele>2502.6599999999999</ele>
        <time>2022-07-03T13:24:07Z</time>
      </trkpt>
      <trkpt lat="45.866108676418662" lon="7.850090526044369">
        <ele>2500.6599999999999</ele>
        <time>2022-07-03T13:24:16Z</time>
      </trkpt>
      <trkpt lat="45.866109263151884" lon="7.850141571834683">
        <ele>2498.1399999999999</ele>
        <time>2022-07-03T13:24:26Z</time>
      </trkpt>
      <trkpt lat="45.866063162684441" lon="7.850153055042028">
        <ele>2497.73</ele>
        <time>2022-07-03T13:24:40Z</time>
      </trkpt>
      <trkpt lat="45.866057965904474" lon="7.850232683122158">
        <ele>2495.2600000000002</ele>
        <time>2022-07-03T13:24:52Z</time>
      </trkpt>
      <trkpt lat="45.866047069430351" lon="7.850243579596281">
        <ele>2495.0799999999999</ele>
        <time>2022-07-03T13:25:08Z</time>
      </trkpt>
      <trkpt lat="45.86600792594254" lon="7.850249530747533">
        <ele>2495.3699999999999</ele>
        <time>2022-07-03T13:25:13Z</time>
      </trkpt>
      <trkpt lat="45.865970877930522" lon="7.850214829668403">
        <ele>2495.0500000000002</ele>
        <time>2022-07-03T13:25:18Z</time>
      </trkpt>
      <trkpt lat="45.865914719179273" lon="7.850123718380928">
        <ele>2493.9899999999998</ele>
        <time>2022-07-03T13:25:26Z</time>
      </trkpt>
      <trkpt lat="45.865877838805318" lon="7.850057417526841">
        <ele>2492.8800000000001</ele>
        <time>2022-07-03T13:25:32Z</time>
      </trkpt>
      <trkpt lat="45.865737358108163" lon="7.849882487207651">
        <ele>2491.3000000000002</ele>
        <time>2022-07-03T13:25:48Z</time>
      </trkpt>
      <trkpt lat="45.865612551569939" lon="7.849739575758576">
        <ele>2490.0599999999999</ele>
        <time>2022-07-03T13:26:01Z</time>
      </trkpt>
      <trkpt lat="45.86555689573288" lon="7.849559281021357">
        <ele>2487.52</ele>
        <time>2022-07-03T13:26:14Z</time>
      </trkpt>
      <trkpt lat="45.865516746416688" lon="7.849488956853747">
        <ele>2484.23</ele>
        <time>2022-07-03T13:26:25Z</time>
      </trkpt>
      <trkpt lat="45.865504508838058" lon="7.849484514445067">
        <ele>2484.04</ele>
        <time>2022-07-03T13:26:27Z</time>
      </trkpt>
      <trkpt lat="45.865475675091147" lon="7.849470432847738">
        <ele>2482.98</ele>
        <time>2022-07-03T13:26:30Z</time>
      </trkpt>
      <trkpt lat="45.865410966798663" lon="7.849439838901162">
        <ele>2481.04</ele>
        <time>2022-07-03T13:26:36Z</time>
      </trkpt>
      <trkpt lat="45.865392191335559" lon="7.849368844181299">
        <ele>2479.0100000000002</ele>
        <time>2022-07-03T13:26:41Z</time>
      </trkpt>
      <trkpt lat="45.865373415872455" lon="7.849159715697169">
        <ele>2477.3699999999999</ele>
        <time>2022-07-03T13:26:53Z</time>
      </trkpt>
      <trkpt lat="45.865369308739901" lon="7.849129037931562">
        <ele>2476.8899999999999</ele>
        <time>2022-07-03T13:26:55Z</time>
      </trkpt>
      <trkpt lat="45.865372996777296" lon="7.849003309383988">
        <ele>2474.9000000000001</ele>
        <time>2022-07-03T13:27:06Z</time>
      </trkpt>
      <trkpt lat="45.865393113344908" lon="7.848813543096185">
        <ele>2472.6999999999998</ele>
        <time>2022-07-03T13:27:17Z</time>
      </trkpt>
      <trkpt lat="45.86538347415626" lon="7.848632745444775">
        <ele>2471.4299999999998</ele>
        <time>2022-07-03T13:27:28Z</time>
      </trkpt>
      <trkpt lat="45.865392778068781" lon="7.848575245589018">
        <ele>2471.5700000000002</ele>
        <time>2022-07-03T13:27:32Z</time>
      </trkpt>
      <trkpt lat="45.865385737270117" lon="7.84855093806982">
        <ele>2471.6700000000001</ele>
        <time>2022-07-03T13:27:34Z</time>
      </trkpt>
      <trkpt lat="45.865348437801003" lon="7.848503580316901">
        <ele>2470.6900000000001</ele>
        <time>2022-07-03T13:27:39Z</time>
      </trkpt>
      <trkpt lat="45.865277610719204" lon="7.848390592262149">
        <ele>2468.8699999999999</ele>
        <time>2022-07-03T13:27:51Z</time>
      </trkpt>
      <trkpt lat="45.865177698433399" lon="7.848243238404393">
        <ele>2465.8699999999999</ele>
        <time>2022-07-03T13:28:04Z</time>
      </trkpt>
      <trkpt lat="45.865089269354939" lon="7.848172914236784">
        <ele>2464.48</ele>
        <time>2022-07-03T13:28:13Z</time>
      </trkpt>
      <trkpt lat="45.865061106160283" lon="7.848119186237454">
        <ele>2463.0500000000002</ele>
        <time>2022-07-03T13:28:17Z</time>
      </trkpt>
      <trkpt lat="45.864956919103861" lon="7.847920618951321">
        <ele>2461.1999999999998</ele>
        <time>2022-07-03T13:28:32Z</time>
      </trkpt>
      <trkpt lat="45.864915428683162" lon="7.847860604524612">
        <ele>2459.9699999999998</ele>
        <time>2022-07-03T13:28:41Z</time>
      </trkpt>
      <trkpt lat="45.864894222468138" lon="7.847861694172025">
        <ele>2459.02</ele>
        <time>2022-07-03T13:28:44Z</time>
      </trkpt>
      <trkpt lat="45.864862203598022" lon="7.847791537642479">
        <ele>2457.6399999999999</ele>
        <time>2022-07-03T13:28:50Z</time>
      </trkpt>
      <trkpt lat="45.864834291860461" lon="7.847776701673865">
        <ele>2457.1399999999999</ele>
        <time>2022-07-03T13:28:53Z</time>
      </trkpt>
      <trkpt lat="45.864804955199361" lon="7.847737977281213">
        <ele>2456.1300000000001</ele>
        <time>2022-07-03T13:28:57Z</time>
      </trkpt>
      <trkpt lat="45.864710658788681" lon="7.847630521282554">
        <ele>2454</ele>
        <time>2022-07-03T13:29:11Z</time>
      </trkpt>
      <trkpt lat="45.864670425653458" lon="7.84760931506753">
        <ele>2451.2399999999998</ele>
        <time>2022-07-03T13:29:23Z</time>
      </trkpt>
      <trkpt lat="45.864617954939604" lon="7.84751309081912">
        <ele>2449.3299999999999</ele>
        <time>2022-07-03T13:29:35Z</time>
      </trkpt>
      <trkpt lat="45.864611081779003" lon="7.847505547106266">
        <ele>2448.9200000000001</ele>
        <time>2022-07-03T13:29:36Z</time>
      </trkpt>
      <trkpt lat="45.864566238597035" lon="7.847345201298595">
        <ele>2447.4200000000001</ele>
        <time>2022-07-03T13:29:47Z</time>
      </trkpt>
      <trkpt lat="45.864534638822079" lon="7.847256101667881">
        <ele>2446.6199999999999</ele>
        <time>2022-07-03T13:29:55Z</time>
      </trkpt>
      <trkpt lat="45.864493232220411" lon="7.847210671752691">
        <ele>2445.5300000000002</ele>
        <time>2022-07-03T13:30:01Z</time>
      </trkpt>
      <trkpt lat="45.86441888473928" lon="7.84713146276772">
        <ele>2443.9699999999998</ele>
        <time>2022-07-03T13:30:11Z</time>
      </trkpt>
      <trkpt lat="45.864357696846128" lon="7.847067341208458">
        <ele>2442.0300000000002</ele>
        <time>2022-07-03T13:30:22Z</time>
      </trkpt>
      <trkpt lat="45.864322995766997" lon="7.847053678706288">
        <ele>2440.7600000000002</ele>
        <time>2022-07-03T13:30:34Z</time>
      </trkpt>
      <trkpt lat="45.864318050444126" lon="7.847069771960378">
        <ele>2440.29</ele>
        <time>2022-07-03T13:30:48Z</time>
      </trkpt>
      <trkpt lat="45.864319475367665" lon="7.847080584615469">
        <ele>2440.2399999999998</ele>
        <time>2022-07-03T13:30:50Z</time>
      </trkpt>
      <trkpt lat="45.86431821808219" lon="7.847230453044176">
        <ele>2440.0700000000002</ele>
        <time>2022-07-03T13:31:05Z</time>
      </trkpt>
      <trkpt lat="45.864290306344628" lon="7.847255598753691">
        <ele>2439.3499999999999</ele>
        <time>2022-07-03T13:31:08Z</time>
      </trkpt>
      <trkpt lat="45.864253677427769" lon="7.847234643995762">
        <ele>2439.0700000000002</ele>
        <time>2022-07-03T13:31:12Z</time>
      </trkpt>
      <trkpt lat="45.864229034632444" lon="7.847154596820474">
        <ele>2438.23</ele>
        <time>2022-07-03T13:31:18Z</time>
      </trkpt>
      <trkpt lat="45.864196261391044" lon="7.847108831629157">
        <ele>2437.5599999999999</ele>
        <time>2022-07-03T13:31:22Z</time>
      </trkpt>
      <trkpt lat="45.864052176475525" lon="7.846961058676243">
        <ele>2436.73</ele>
        <time>2022-07-03T13:31:38Z</time>
      </trkpt>
      <trkpt lat="45.863963747397065" lon="7.846800545230508">
        <ele>2435.6900000000001</ele>
        <time>2022-07-03T13:31:52Z</time>
      </trkpt>
      <trkpt lat="45.863932063803077" lon="7.846747823059559">
        <ele>2435.4200000000001</ele>
        <time>2022-07-03T13:31:59Z</time>
      </trkpt>
      <trkpt lat="45.863872468471527" lon="7.846682611852884">
        <ele>2435.3400000000001</ele>
        <time>2022-07-03T13:32:10Z</time>
      </trkpt>
      <trkpt lat="45.86384522728622" lon="7.846685880795121">
        <ele>2435.3499999999999</ele>
        <time>2022-07-03T13:32:19Z</time>
      </trkpt>
      <trkpt lat="45.863694353029132" lon="7.846645060926676">
        <ele>2434.7399999999998</ele>
        <time>2022-07-03T13:32:33Z</time>
      </trkpt>
      <trkpt lat="45.863565523177385" lon="7.846549591049552">
        <ele>2434.3400000000001</ele>
        <time>2022-07-03T13:32:45Z</time>
      </trkpt>
      <trkpt lat="45.863425210118294" lon="7.846454875543714">
        <ele>2433.4400000000001</ele>
        <time>2022-07-03T13:32:58Z</time>
      </trkpt>
      <trkpt lat="45.863280119374394" lon="7.846465772017837">
        <ele>2432.2199999999998</ele>
        <time>2022-07-03T13:33:11Z</time>
      </trkpt>
      <trkpt lat="45.86311524733901" lon="7.846503406763077">
        <ele>2431.3499999999999</ele>
        <time>2022-07-03T13:33:25Z</time>
      </trkpt>
      <trkpt lat="45.862961355596781" lon="7.846534419804812">
        <ele>2431.0500000000002</ele>
        <time>2022-07-03T13:33:38Z</time>
      </trkpt>
      <trkpt lat="45.862875524908304" lon="7.846550177782774">
        <ele>2430.4499999999998</ele>
        <time>2022-07-03T13:33:45Z</time>
      </trkpt>
      <trkpt lat="45.862703863531351" lon="7.846584711223841">
        <ele>2429.77</ele>
        <time>2022-07-03T13:33:59Z</time>
      </trkpt>
      <trkpt lat="45.862669162452221" lon="7.846566857770085">
        <ele>2429.54</ele>
        <time>2022-07-03T13:34:02Z</time>
      </trkpt>
      <trkpt lat="45.862634880468249" lon="7.846519248560071">
        <ele>2429.2399999999998</ele>
        <time>2022-07-03T13:34:06Z</time>
      </trkpt>
      <trkpt lat="45.862497752532363" lon="7.846379270777106">
        <ele>2426.52</ele>
        <time>2022-07-03T13:34:20Z</time>
      </trkpt>
      <trkpt lat="45.86235542781651" lon="7.846330907195807">
        <ele>2423.46</ele>
        <time>2022-07-03T13:34:33Z</time>
      </trkpt>
      <trkpt lat="45.86220346391201" lon="7.846286818385124">
        <ele>2420.8899999999999</ele>
        <time>2022-07-03T13:34:46Z</time>
      </trkpt>
      <trkpt lat="45.862042866647243" lon="7.846229234710336">
        <ele>2418.3099999999999</ele>
        <time>2022-07-03T13:35:00Z</time>
      </trkpt>
      <trkpt lat="45.861883442848921" lon="7.846138710156083">
        <ele>2415.29</ele>
        <time>2022-07-03T13:35:14Z</time>
      </trkpt>
      <trkpt lat="45.861757546663284" lon="7.846036115661264">
        <ele>2414.3200000000002</ele>
        <time>2022-07-03T13:35:26Z</time>
      </trkpt>
      <trkpt lat="45.86159460246563" lon="7.845934024080634">
        <ele>2413.3000000000002</ele>
        <time>2022-07-03T13:35:41Z</time>
      </trkpt>
      <trkpt lat="45.861426293849945" lon="7.845847606658936">
        <ele>2412.5300000000002</ele>
        <time>2022-07-03T13:35:56Z</time>
      </trkpt>
      <trkpt lat="45.861241305246949" lon="7.84577451646328">
        <ele>2411.48</ele>
        <time>2022-07-03T13:36:11Z</time>
      </trkpt>
      <trkpt lat="45.861117839813232" lon="7.845669910311699">
        <ele>2413.1100000000001</ele>
        <time>2022-07-03T13:36:24Z</time>
      </trkpt>
      <trkpt lat="45.860994625836611" lon="7.845557844266295">
        <ele>2413.4200000000001</ele>
        <time>2022-07-03T13:36:37Z</time>
      </trkpt>
      <trkpt lat="45.860942825675011" lon="7.845529848709703">
        <ele>2410.1700000000001</ele>
        <time>2022-07-03T13:36:42Z</time>
      </trkpt>
      <trkpt lat="45.860912818461657" lon="7.845511995255947">
        <ele>2413.8299999999999</ele>
        <time>2022-07-03T13:36:45Z</time>
      </trkpt>
      <trkpt lat="45.860901586711407" lon="7.845504535362124">
        <ele>2413.8000000000002</ele>
        <time>2022-07-03T13:36:46Z</time>
      </trkpt>
      <trkpt lat="45.860803350806236" lon="7.845448292791843">
        <ele>2410.7199999999998</ele>
        <time>2022-07-03T13:36:55Z</time>
      </trkpt>
      <trkpt lat="45.860640071332455" lon="7.845486011356115">
        <ele>2410.2399999999998</ele>
        <time>2022-07-03T13:37:08Z</time>
      </trkpt>
      <trkpt lat="45.860415771603584" lon="7.845486178994179">
        <ele>2409.27</ele>
        <time>2022-07-03T13:37:25Z</time>
      </trkpt>
      <trkpt lat="45.86021619848907" lon="7.845514258369803">
        <ele>2407.3000000000002</ele>
        <time>2022-07-03T13:37:41Z</time>
      </trkpt>
      <trkpt lat="45.860058618709445" lon="7.845467487350106">
        <ele>2405.2199999999998</ele>
        <time>2022-07-03T13:37:54Z</time>
      </trkpt>
      <trkpt lat="45.859920987859368" lon="7.845468996092677">
        <ele>2401.9099999999999</ele>
        <time>2022-07-03T13:38:07Z</time>
      </trkpt>
      <trkpt lat="45.859759300947189" lon="7.845541415736079">
        <ele>2398.9099999999999</ele>
        <time>2022-07-03T13:38:23Z</time>
      </trkpt>
      <trkpt lat="45.859648659825325" lon="7.845584163442254">
        <ele>2396.75</ele>
        <time>2022-07-03T13:38:37Z</time>
      </trkpt>
      <trkpt lat="45.859591662883759" lon="7.845549294725061">
        <ele>2394.25</ele>
        <time>2022-07-03T13:38:50Z</time>
      </trkpt>
      <trkpt lat="45.859560063108802" lon="7.845309153199196">
        <ele>2391.6500000000001</ele>
        <time>2022-07-03T13:39:05Z</time>
      </trkpt>
      <trkpt lat="45.859531564638019" lon="7.845196081325412">
        <ele>2389.5900000000001</ele>
        <time>2022-07-03T13:39:14Z</time>
      </trkpt>
      <trkpt lat="45.859394604340196" lon="7.845212928950787">
        <ele>2386.6799999999998</ele>
        <time>2022-07-03T13:39:29Z</time>
      </trkpt>
      <trkpt lat="45.859280358999968" lon="7.845402862876654">
        <ele>2384.5700000000002</ele>
        <time>2022-07-03T13:39:45Z</time>
      </trkpt>
      <trkpt lat="45.859264517202973" lon="7.845574105158448">
        <ele>2382.9099999999999</ele>
        <time>2022-07-03T13:39:58Z</time>
      </trkpt>
      <trkpt lat="45.859230402857065" lon="7.84568315371871">
        <ele>2381.5500000000002</ele>
        <time>2022-07-03T13:40:06Z</time>
      </trkpt>
      <trkpt lat="45.859098136425018" lon="7.845758087933064">
        <ele>2378.9899999999998</ele>
        <time>2022-07-03T13:40:21Z</time>
      </trkpt>
      <trkpt lat="45.85897265933454" lon="7.845780467614532">
        <ele>2376.1199999999999</ele>
        <time>2022-07-03T13:40:34Z</time>
      </trkpt>
      <trkpt lat="45.858806278556585" lon="7.845754818990827">
        <ele>2374</ele>
        <time>2022-07-03T13:40:48Z</time>
      </trkpt>
      <trkpt lat="45.858650291338563" lon="7.845694636926055">
        <ele>2373.96</ele>
        <time>2022-07-03T13:41:02Z</time>
      </trkpt>
      <trkpt lat="45.85846446454525" lon="7.845643423497677">
        <ele>2373.4099999999999</ele>
        <time>2022-07-03T13:41:18Z</time>
      </trkpt>
      <trkpt lat="45.858328761532903" lon="7.845714837312698">
        <ele>2372.8600000000001</ele>
        <time>2022-07-03T13:41:31Z</time>
      </trkpt>
      <trkpt lat="45.858206218108535" lon="7.845788346603513">
        <ele>2372.52</ele>
        <time>2022-07-03T13:41:44Z</time>
      </trkpt>
      <trkpt lat="45.858091553673148" lon="7.845835201442242">
        <ele>2373.6900000000001</ele>
        <time>2022-07-03T13:41:57Z</time>
      </trkpt>
      <trkpt lat="45.857966579496861" lon="7.845899742096663">
        <ele>2374.9899999999998</ele>
        <time>2022-07-03T13:42:11Z</time>
      </trkpt>
      <trkpt lat="45.857926681637764" lon="7.845908710733056">
        <ele>2375.0900000000001</ele>
        <time>2022-07-03T13:42:23Z</time>
      </trkpt>
      <trkpt lat="45.857879994437099" lon="7.845907034352422">
        <ele>2374.7600000000002</ele>
        <time>2022-07-03T13:42:31Z</time>
      </trkpt>
      <trkpt lat="45.857755439355969" lon="7.845965707674623">
        <ele>2371.6300000000001</ele>
        <time>2022-07-03T13:42:43Z</time>
      </trkpt>
      <trkpt lat="45.85764454677701" lon="7.845974089577794">
        <ele>2371.6999999999998</ele>
        <time>2022-07-03T13:42:55Z</time>
      </trkpt>
      <trkpt lat="45.857494929805398" lon="7.845925139263272">
        <ele>2369.1399999999999</ele>
        <time>2022-07-03T13:43:09Z</time>
      </trkpt>
      <trkpt lat="45.857321005314589" lon="7.846006527543068">
        <ele>2366.6599999999999</ele>
        <time>2022-07-03T13:43:24Z</time>
      </trkpt>
      <trkpt lat="45.857226373627782" lon="7.845926145091653">
        <ele>2365.1500000000001</ele>
        <time>2022-07-03T13:43:35Z</time>
      </trkpt>
      <trkpt lat="45.857147583737969" lon="7.845841571688652">
        <ele>2362.6399999999999</ele>
        <time>2022-07-03T13:43:45Z</time>
      </trkpt>
      <trkpt lat="45.857002325356007" lon="7.845762446522713">
        <ele>2360.0999999999999</ele>
        <time>2022-07-03T13:44:00Z</time>
      </trkpt>
      <trkpt lat="45.856899647042155" lon="7.845732858404517">
        <ele>2357.3000000000002</ele>
        <time>2022-07-03T13:44:12Z</time>
      </trkpt>
      <trkpt lat="45.856749778613448" lon="7.845684997737408">
        <ele>2354.4099999999999</ele>
        <time>2022-07-03T13:44:27Z</time>
      </trkpt>
      <trkpt lat="45.856699151918292" lon="7.845667563378811">
        <ele>2353.0700000000002</ele>
        <time>2022-07-03T13:44:33Z</time>
      </trkpt>
      <trkpt lat="45.856679538264871" lon="7.845643423497677">
        <ele>2352.3699999999999</ele>
        <time>2022-07-03T13:44:36Z</time>
      </trkpt>
      <trkpt lat="45.856603095307946" lon="7.84563428722322">
        <ele>2350.9200000000001</ele>
        <time>2022-07-03T13:44:44Z</time>
      </trkpt>
      <trkpt lat="45.856532687321305" lon="7.845620792359114">
        <ele>2350.75</ele>
        <time>2022-07-03T13:44:52Z</time>
      </trkpt>
      <trkpt lat="45.856506368145347" lon="7.845565136522055">
        <ele>2350.9699999999998</ele>
        <time>2022-07-03T13:44:56Z</time>
      </trkpt>
      <trkpt lat="45.856478037312627" lon="7.845472935587168">
        <ele>2350.48</ele>
        <time>2022-07-03T13:45:09Z</time>
      </trkpt>
      <trkpt lat="45.856463117524981" lon="7.845454998314381">
        <ele>2350.2399999999998</ele>
        <time>2022-07-03T13:45:15Z</time>
      </trkpt>
      <trkpt lat="45.856389775872231" lon="7.845313176512718">
        <ele>2351.2600000000002</ele>
        <time>2022-07-03T13:45:29Z</time>
      </trkpt>
      <trkpt lat="45.856344262138009" lon="7.845252742990851">
        <ele>2352.1300000000001</ele>
        <time>2022-07-03T13:45:38Z</time>
      </trkpt>
      <trkpt lat="45.856334120035172" lon="7.845199685543776">
        <ele>2352.2800000000002</ele>
        <time>2022-07-03T13:45:42Z</time>
      </trkpt>
      <trkpt lat="45.856342501938343" lon="7.845145203173161">
        <ele>2351.79</ele>
        <time>2022-07-03T13:45:52Z</time>
      </trkpt>
      <trkpt lat="45.85634526796639" lon="7.845133049413562">
        <ele>2350.6199999999999</ele>
        <time>2022-07-03T13:46:18Z</time>
      </trkpt>
      <trkpt lat="45.856352224946022" lon="7.845148975029588">
        <ele>2350.4899999999998</ele>
        <time>2022-07-03T13:47:07Z</time>
      </trkpt>
      <trkpt lat="45.85636387579143" lon="7.845157608389854">
        <ele>2349.5700000000002</ele>
        <time>2022-07-03T13:47:46Z</time>
      </trkpt>
      <trkpt lat="45.856366138905287" lon="7.845136905089021">
        <ele>2350.0100000000002</ele>
        <time>2022-07-03T13:48:22Z</time>
      </trkpt>
      <trkpt lat="45.856376029551029" lon="7.845153668895364">
        <ele>2349.6399999999999</ele>
        <time>2022-07-03T13:48:47Z</time>
      </trkpt>
      <trkpt lat="45.856360103935003" lon="7.845140174031258">
        <ele>2349.3699999999999</ele>
        <time>2022-07-03T13:49:23Z</time>
      </trkpt>
      <trkpt lat="45.856345687061548" lon="7.845136653631926">
        <ele>2349.21</ele>
        <time>2022-07-03T13:49:57Z</time>
      </trkpt>
      <trkpt lat="45.856346525251865" lon="7.845131205394864">
        <ele>2349.27</ele>
        <time>2022-07-03T13:50:37Z</time>
      </trkpt>
      <trkpt lat="45.856348117813468" lon="7.845143610611558">
        <ele>2349.0700000000002</ele>
        <time>2022-07-03T13:51:14Z</time>
      </trkpt>
      <trkpt lat="45.856334120035172" lon="7.845151741057634">
        <ele>2348.9200000000001</ele>
        <time>2022-07-03T13:51:59Z</time>
      </trkpt>
      <trkpt lat="45.856335209682584" lon="7.845151070505381">
        <ele>2349.27</ele>
        <time>2022-07-03T13:52:40Z</time>
      </trkpt>
      <trkpt lat="45.85634870454669" lon="7.84511880017817">
        <ele>2350.3299999999999</ele>
        <time>2022-07-03T13:52:57Z</time>
      </trkpt>
      <trkpt lat="45.856346441432834" lon="7.845125505700707">
        <ele>2350.02</ele>
        <time>2022-07-03T13:53:17Z</time>
      </trkpt>
      <trkpt lat="45.856350632384419" lon="7.84513053484261">
        <ele>2349.6100000000001</ele>
        <time>2022-07-03T13:53:34Z</time>
      </trkpt>
      <trkpt lat="45.856361361220479" lon="7.845115028321743">
        <ele>2349.8400000000001</ele>
        <time>2022-07-03T13:53:46Z</time>
      </trkpt>
      <trkpt lat="45.856403773650527" lon="7.845025677233934">
        <ele>2347.0999999999999</ele>
        <time>2022-07-03T13:53:57Z</time>
      </trkpt>
      <trkpt lat="45.856411149725318" lon="7.845016373321414">
        <ele>2346.8299999999999</ele>
        <time>2022-07-03T13:53:58Z</time>
      </trkpt>
      <trkpt lat="45.85641760379076" lon="7.844880167394877">
        <ele>2344.04</ele>
        <time>2022-07-03T13:54:08Z</time>
      </trkpt>
      <trkpt lat="45.856368569657207" lon="7.844812273979187">
        <ele>2342.3400000000001</ele>
        <time>2022-07-03T13:54:17Z</time>
      </trkpt>
      <trkpt lat="45.856401259079576" lon="7.844767682254314">
        <ele>2342.04</ele>
        <time>2022-07-03T13:54:21Z</time>
      </trkpt>
      <trkpt lat="45.85657887160778" lon="7.844773130491376">
        <ele>2341.75</ele>
        <time>2022-07-03T13:54:37Z</time>
      </trkpt>
      <trkpt lat="45.856632012873888" lon="7.84476206637919">
        <ele>2341.4699999999998</ele>
        <time>2022-07-03T13:54:42Z</time>
      </trkpt>
      <trkpt lat="45.856655314564705" lon="7.84459157846868">
        <ele>2338.1300000000001</ele>
        <time>2022-07-03T13:54:55Z</time>
      </trkpt>
      <trkpt lat="45.856659337878227" lon="7.844578670337796">
        <ele>2337.8400000000001</ele>
        <time>2022-07-03T13:54:56Z</time>
      </trkpt>
      <trkpt lat="45.856702420860529" lon="7.844382366165519">
        <ele>2335.2399999999998</ele>
        <time>2022-07-03T13:55:09Z</time>
      </trkpt>
      <trkpt lat="45.856692781671882" lon="7.844205005094409">
        <ele>2333.6399999999999</ele>
        <time>2022-07-03T13:55:21Z</time>
      </trkpt>
      <trkpt lat="45.856700493022799" lon="7.844080701470375">
        <ele>2333.4099999999999</ele>
        <time>2022-07-03T13:55:32Z</time>
      </trkpt>
      <trkpt lat="45.856694709509611" lon="7.84405798651278">
        <ele>2332.6300000000001</ele>
        <time>2022-07-03T13:55:34Z</time>
      </trkpt>
      <trkpt lat="45.856680627912283" lon="7.844036193564534">
        <ele>2331.7600000000002</ele>
        <time>2022-07-03T13:55:36Z</time>
      </trkpt>
      <trkpt lat="45.856672329828143" lon="7.843997972086072">
        <ele>2330.8200000000002</ele>
        <time>2022-07-03T13:55:39Z</time>
      </trkpt>
      <trkpt lat="45.856629582121968" lon="7.843894623219967">
        <ele>2329.6900000000001</ele>
        <time>2022-07-03T13:55:48Z</time>
      </trkpt>
      <trkpt lat="45.85652363486588" lon="7.843649536371231">
        <ele>2328.4200000000001</ele>
        <time>2022-07-03T13:56:05Z</time>
      </trkpt>
      <trkpt lat="45.85648993961513" lon="7.843418531119824">
        <ele>2327.9699999999998</ele>
        <time>2022-07-03T13:56:19Z</time>
      </trkpt>
      <trkpt lat="45.85646110586822" lon="7.843132792040706">
        <ele>2326.5500000000002</ele>
        <time>2022-07-03T13:56:36Z</time>
      </trkpt>
      <trkpt lat="45.856449622660875" lon="7.842922825366259">
        <ele>2325.1199999999999</ele>
        <time>2022-07-03T13:56:48Z</time>
      </trkpt>
      <trkpt lat="45.856403689831495" lon="7.842698525637388">
        <ele>2323.2199999999998</ele>
        <time>2022-07-03T13:57:01Z</time>
      </trkpt>
      <trkpt lat="45.856371838599443" lon="7.842439608648419">
        <ele>2321.2199999999998</ele>
        <time>2022-07-03T13:57:16Z</time>
      </trkpt>
      <trkpt lat="45.85630813613534" lon="7.842241711914539">
        <ele>2318.5</ele>
        <time>2022-07-03T13:57:28Z</time>
      </trkpt>
      <trkpt lat="45.856310147792101" lon="7.84200475551188">
        <ele>2315.4000000000001</ele>
        <time>2022-07-03T13:57:42Z</time>
      </trkpt>
      <trkpt lat="45.85627687163651" lon="7.841832004487515">
        <ele>2312.4699999999998</ele>
        <time>2022-07-03T13:57:54Z</time>
      </trkpt>
      <trkpt lat="45.856237811967731" lon="7.841785568743944">
        <ele>2311.6199999999999</ele>
        <time>2022-07-03T13:57:59Z</time>
      </trkpt>
      <trkpt lat="45.856195315718651" lon="7.841722620651126">
        <ele>2309.1900000000001</ele>
        <time>2022-07-03T13:58:07Z</time>
      </trkpt>
      <trkpt lat="45.856132535263896" lon="7.841569902375341">
        <ele>2305.6399999999999</ele>
        <time>2022-07-03T13:58:20Z</time>
      </trkpt>
      <trkpt lat="45.856114849448204" lon="7.841479713097215">
        <ele>2302.8099999999999</ele>
        <time>2022-07-03T13:58:30Z</time>
      </trkpt>
      <trkpt lat="45.856072604656219" lon="7.841450711712241">
        <ele>2301.6999999999998</ele>
        <time>2022-07-03T13:58:35Z</time>
      </trkpt>
      <trkpt lat="45.856069084256887" lon="7.841335460543633">
        <ele>2298.8299999999999</ele>
        <time>2022-07-03T13:58:44Z</time>
      </trkpt>
      <trkpt lat="45.856097666546702" lon="7.84124543890357">
        <ele>2295.6799999999998</ele>
        <time>2022-07-03T13:58:53Z</time>
      </trkpt>
      <trkpt lat="45.856076879426837" lon="7.84115600399673">
        <ele>2292.98</ele>
        <time>2022-07-03T13:59:01Z</time>
      </trkpt>
      <trkpt lat="45.856076627969742" lon="7.841128008440137">
        <ele>2292.5100000000002</ele>
        <time>2022-07-03T13:59:03Z</time>
      </trkpt>
      <trkpt lat="45.856123147532344" lon="7.840960789471865">
        <ele>2289.9699999999998</ele>
        <time>2022-07-03T13:59:15Z</time>
      </trkpt>
      <trkpt lat="45.856183916330338" lon="7.840972943231463">
        <ele>2286.96</ele>
        <time>2022-07-03T13:59:26Z</time>
      </trkpt>
      <trkpt lat="45.856245188042521" lon="7.841038322076201">
        <ele>2283.8800000000001</ele>
        <time>2022-07-03T13:59:37Z</time>
      </trkpt>
      <trkpt lat="45.856261365115643" lon="7.841005129739642">
        <ele>2281.9000000000001</ele>
        <time>2022-07-03T13:59:52Z</time>
      </trkpt>
      <trkpt lat="45.856279637664557" lon="7.840947797521949">
        <ele>2278.6799999999998</ele>
        <time>2022-07-03T14:00:03Z</time>
      </trkpt>
      <trkpt lat="45.856310650706291" lon="7.840913599357009">
        <ele>2276.5999999999999</ele>
        <time>2022-07-03T14:00:12Z</time>
      </trkpt>
      <trkpt lat="45.856291372328997" lon="7.840871941298246">
        <ele>2275.04</ele>
        <time>2022-07-03T14:00:18Z</time>
      </trkpt>
      <trkpt lat="45.856315931305289" lon="7.840865487232804">
        <ele>2273.8099999999999</ele>
        <time>2022-07-03T14:00:21Z</time>
      </trkpt>
      <trkpt lat="45.856328839436173" lon="7.840810501947999">
        <ele>2271.23</ele>
        <time>2022-07-03T14:00:31Z</time>
      </trkpt>
      <trkpt lat="45.856313668191433" lon="7.840805053710938">
        <ele>2270.4899999999998</ele>
        <time>2022-07-03T14:00:33Z</time>
      </trkpt>
      <trkpt lat="45.856310985982418" lon="7.840763730928302">
        <ele>2267.98</ele>
        <time>2022-07-03T14:00:44Z</time>
      </trkpt>
      <trkpt lat="45.856336634606123" lon="7.840718552470207">
        <ele>2265.5</ele>
        <time>2022-07-03T14:00:53Z</time>
      </trkpt>
      <trkpt lat="45.856318864971399" lon="7.840676056221128">
        <ele>2262.9200000000001</ele>
        <time>2022-07-03T14:01:03Z</time>
      </trkpt>
      <trkpt lat="45.85635649971664" lon="7.840633811429143">
        <ele>2260.9400000000001</ele>
        <time>2022-07-03T14:01:10Z</time>
      </trkpt>
      <trkpt lat="45.856440234929323" lon="7.840561894699931">
        <ele>2257.3899999999999</ele>
        <time>2022-07-03T14:01:22Z</time>
      </trkpt>
      <trkpt lat="45.856470074504614" lon="7.840507915243506">
        <ele>2254.96</ele>
        <time>2022-07-03T14:01:29Z</time>
      </trkpt>
      <trkpt lat="45.856482731178403" lon="7.840455947443843">
        <ele>2252.96</ele>
        <time>2022-07-03T14:01:35Z</time>
      </trkpt>
      <trkpt lat="45.856534279882908" lon="7.840388305485249">
        <ele>2249.6599999999999</ele>
        <time>2022-07-03T14:01:47Z</time>
      </trkpt>
      <trkpt lat="45.856571663171053" lon="7.840324770659208">
        <ele>2246.6999999999998</ele>
        <time>2022-07-03T14:01:57Z</time>
      </trkpt>
      <trkpt lat="45.856599742546678" lon="7.840276993811131">
        <ele>2243.6599999999999</ele>
        <time>2022-07-03T14:02:07Z</time>
      </trkpt>
      <trkpt lat="45.856622876599431" lon="7.84026961773634">
        <ele>2241.5</ele>
        <time>2022-07-03T14:02:15Z</time>
      </trkpt>
      <trkpt lat="45.856602843850851" lon="7.840256206691265">
        <ele>2240.1500000000001</ele>
        <time>2022-07-03T14:02:18Z</time>
      </trkpt>
      <trkpt lat="45.856566969305277" lon="7.840191079303622">
        <ele>2236.8099999999999</ele>
        <time>2022-07-03T14:02:31Z</time>
      </trkpt>
      <trkpt lat="45.856555989012122" lon="7.840177165344358">
        <ele>2235.98</ele>
        <time>2022-07-03T14:02:34Z</time>
      </trkpt>
      <trkpt lat="45.85657250136137" lon="7.840121425688267">
        <ele>2233.1500000000001</ele>
        <time>2022-07-03T14:02:43Z</time>
      </trkpt>
      <trkpt lat="45.856624636799097" lon="7.840074989944696">
        <ele>2230.1399999999999</ele>
        <time>2022-07-03T14:02:53Z</time>
      </trkpt>
      <trkpt lat="45.856604017317295" lon="7.840041127055883">
        <ele>2227.9000000000001</ele>
        <time>2022-07-03T14:03:00Z</time>
      </trkpt>
      <trkpt lat="45.856540817767382" lon="7.839984884485602">
        <ele>2224.27</ele>
        <time>2022-07-03T14:03:12Z</time>
      </trkpt>
      <trkpt lat="45.856601670384407" lon="7.839940208941698">
        <ele>2221.96</ele>
        <time>2022-07-03T14:03:22Z</time>
      </trkpt>
      <trkpt lat="45.85664089769125" lon="7.839894946664572">
        <ele>2219.1399999999999</ele>
        <time>2022-07-03T14:03:31Z</time>
      </trkpt>
      <trkpt lat="45.856583397835493" lon="7.839847588911653">
        <ele>2215.9200000000001</ele>
        <time>2022-07-03T14:03:41Z</time>
      </trkpt>
      <trkpt lat="45.856620026752353" lon="7.839803416281939">
        <ele>2213.3800000000001</ele>
        <time>2022-07-03T14:03:50Z</time>
      </trkpt>
      <trkpt lat="45.85664433427155" lon="7.839776258915663">
        <ele>2210.9899999999998</ele>
        <time>2022-07-03T14:03:59Z</time>
      </trkpt>
      <trkpt lat="45.856630336493254" lon="7.839729320257902">
        <ele>2207.9200000000001</ele>
        <time>2022-07-03T14:04:10Z</time>
      </trkpt>
      <trkpt lat="45.856663277372718" lon="7.839669976383448">
        <ele>2205.7800000000002</ele>
        <time>2022-07-03T14:04:19Z</time>
      </trkpt>
      <trkpt lat="45.8567073661834" lon="7.839619349688292">
        <ele>2202.77</ele>
        <time>2022-07-03T14:04:27Z</time>
      </trkpt>
      <trkpt lat="45.856705773621798" lon="7.839611135423183">
        <ele>2202.6100000000001</ele>
        <time>2022-07-03T14:04:28Z</time>
      </trkpt>
      <trkpt lat="45.856712479144335" lon="7.839568220078945">
        <ele>2199.8499999999999</ele>
        <time>2022-07-03T14:04:38Z</time>
      </trkpt>
      <trkpt lat="45.856697643175721" lon="7.839524718001485">
        <ele>2197.1599999999999</ele>
        <time>2022-07-03T14:04:49Z</time>
      </trkpt>
      <trkpt lat="45.856709210202098" lon="7.839462691918016">
        <ele>2194.0999999999999</ele>
        <time>2022-07-03T14:05:00Z</time>
      </trkpt>
      <trkpt lat="45.856758831068873" lon="7.839417597278953">
        <ele>2190.9299999999998</ele>
        <time>2022-07-03T14:05:10Z</time>
      </trkpt>
      <trkpt lat="45.856775008141994" lon="7.839339897036552">
        <ele>2187.7800000000002</ele>
        <time>2022-07-03T14:05:20Z</time>
      </trkpt>
      <trkpt lat="45.8567781932652" lon="7.83933486789465">
        <ele>2187.48</ele>
        <time>2022-07-03T14:05:21Z</time>
      </trkpt>
      <trkpt lat="45.856795711442828" lon="7.839326737448573">
        <ele>2186.54</ele>
        <time>2022-07-03T14:05:24Z</time>
      </trkpt>
      <trkpt lat="45.856898641213775" lon="7.839328832924366">
        <ele>2184.1199999999999</ele>
        <time>2022-07-03T14:05:35Z</time>
      </trkpt>
      <trkpt lat="45.856941472738981" lon="7.839271333068609">
        <ele>2181.23</ele>
        <time>2022-07-03T14:05:44Z</time>
      </trkpt>
      <trkpt lat="45.857017580419779" lon="7.83921760506928">
        <ele>2178.71</ele>
        <time>2022-07-03T14:05:56Z</time>
      </trkpt>
      <trkpt lat="45.857070218771696" lon="7.839170917868614">
        <ele>2176.3499999999999</ele>
        <time>2022-07-03T14:06:05Z</time>
      </trkpt>
      <trkpt lat="45.857162168249488" lon="7.839131271466613">
        <ele>2172.8200000000002</ele>
        <time>2022-07-03T14:06:16Z</time>
      </trkpt>
      <trkpt lat="45.857221595942974" lon="7.839099252596498">
        <ele>2170.04</ele>
        <time>2022-07-03T14:06:25Z</time>
      </trkpt>
      <trkpt lat="45.857306169345975" lon="7.839044351130724">
        <ele>2166.6300000000001</ele>
        <time>2022-07-03T14:06:35Z</time>
      </trkpt>
      <trkpt lat="45.857316814363003" lon="7.839004453271627">
        <ele>2164.4099999999999</ele>
        <time>2022-07-03T14:06:44Z</time>
      </trkpt>
      <trkpt lat="45.857319245114923" lon="7.838984504342079">
        <ele>2163.96</ele>
        <time>2022-07-03T14:06:46Z</time>
      </trkpt>
      <trkpt lat="45.857345396652818" lon="7.839006213471293">
        <ele>2163.27</ele>
        <time>2022-07-03T14:06:49Z</time>
      </trkpt>
      <trkpt lat="45.857439357787371" lon="7.83897427842021">
        <ele>2159.8699999999999</ele>
        <time>2022-07-03T14:07:02Z</time>
      </trkpt>
      <trkpt lat="45.85750482045114" lon="7.838913006708026">
        <ele>2156.5</ele>
        <time>2022-07-03T14:07:13Z</time>
      </trkpt>
      <trkpt lat="45.857562152668834" lon="7.838858272880316">
        <ele>2153.73</ele>
        <time>2022-07-03T14:07:23Z</time>
      </trkpt>
      <trkpt lat="45.857580760493875" lon="7.838836731389165">
        <ele>2153.0500000000002</ele>
        <time>2022-07-03T14:07:26Z</time>
      </trkpt>
      <trkpt lat="45.85760104469955" lon="7.838824996724725">
        <ele>2152.52</ele>
        <time>2022-07-03T14:07:28Z</time>
      </trkpt>
      <trkpt lat="45.857680840417743" lon="7.83875634893775">
        <ele>2150.3600000000001</ele>
        <time>2022-07-03T14:07:40Z</time>
      </trkpt>
      <trkpt lat="45.857732808217406" lon="7.838685354217887">
        <ele>2146.9899999999998</ele>
        <time>2022-07-03T14:07:50Z</time>
      </trkpt>
      <trkpt lat="45.857727024704218" lon="7.838654592633247">
        <ele>2146.71</ele>
        <time>2022-07-03T14:07:53Z</time>
      </trkpt>
      <trkpt lat="45.857753176242113" lon="7.838590554893017">
        <ele>2144.3299999999999</ele>
        <time>2022-07-03T14:07:58Z</time>
      </trkpt>
      <trkpt lat="45.857758959755301" lon="7.838553842157126">
        <ele>2142.5500000000002</ele>
        <time>2022-07-03T14:08:02Z</time>
      </trkpt>
      <trkpt lat="45.857774969190359" lon="7.83849349245429">
        <ele>2139.9699999999998</ele>
        <time>2022-07-03T14:08:11Z</time>
      </trkpt>
      <trkpt lat="45.857812101021409" lon="7.838417803868651">
        <ele>2136.8299999999999</ele>
        <time>2022-07-03T14:08:23Z</time>
      </trkpt>
      <trkpt lat="45.857835654169321" lon="7.838398357853293">
        <ele>2135.8000000000002</ele>
        <time>2022-07-03T14:08:27Z</time>
      </trkpt>
      <trkpt lat="45.857861805707216" lon="7.838358040899038">
        <ele>2134.7800000000002</ele>
        <time>2022-07-03T14:08:31Z</time>
      </trkpt>
      <trkpt lat="45.857924921438098" lon="7.838339013978839">
        <ele>2134.0900000000001</ele>
        <time>2022-07-03T14:08:37Z</time>
      </trkpt>
      <trkpt lat="45.857962807640433" lon="7.838274892419577">
        <ele>2132</ele>
        <time>2022-07-03T14:08:47Z</time>
      </trkpt>
      <trkpt lat="45.857932884246111" lon="7.838264582678676">
        <ele>2131.4299999999998</ele>
        <time>2022-07-03T14:08:50Z</time>
      </trkpt>
      <trkpt lat="45.857923664152622" lon="7.838180679827929">
        <ele>2128.8000000000002</ele>
        <time>2022-07-03T14:08:58Z</time>
      </trkpt>
      <trkpt lat="45.857958868145943" lon="7.838145308196545">
        <ele>2127.4400000000001</ele>
        <time>2022-07-03T14:09:02Z</time>
      </trkpt>
      <trkpt lat="45.858057523146272" lon="7.838088059797883">
        <ele>2125.0999999999999</ele>
        <time>2022-07-03T14:09:12Z</time>
      </trkpt>
      <trkpt lat="45.857939841225743" lon="7.838001307100058">
        <ele>2122.73</ele>
        <time>2022-07-03T14:09:24Z</time>
      </trkpt>
      <trkpt lat="45.85792257450521" lon="7.837983788922429">
        <ele>2122.2199999999998</ele>
        <time>2022-07-03T14:09:26Z</time>
      </trkpt>
      <trkpt lat="45.857831966131926" lon="7.837848337367177">
        <ele>2118.54</ele>
        <time>2022-07-03T14:09:39Z</time>
      </trkpt>
      <trkpt lat="45.857830792665482" lon="7.837832160294056">
        <ele>2118.3400000000001</ele>
        <time>2022-07-03T14:09:40Z</time>
      </trkpt>
      <trkpt lat="45.85778184235096" lon="7.83772436901927">
        <ele>2115.3800000000001</ele>
        <time>2022-07-03T14:09:51Z</time>
      </trkpt>
      <trkpt lat="45.857710428535938" lon="7.837673658505082">
        <ele>2114.0100000000002</ele>
        <time>2022-07-03T14:10:00Z</time>
      </trkpt>
      <trkpt lat="45.85765820927918" lon="7.837590174749494">
        <ele>2114.0700000000002</ele>
        <time>2022-07-03T14:10:07Z</time>
      </trkpt>
      <trkpt lat="45.857732892036438" lon="7.83749814145267">
        <ele>2111.0700000000002</ele>
        <time>2022-07-03T14:10:20Z</time>
      </trkpt>
      <trkpt lat="45.857746722176671" lon="7.837436869740486">
        <ele>2109.5799999999999</ele>
        <time>2022-07-03T14:10:25Z</time>
      </trkpt>
      <trkpt lat="45.857764827087522" lon="7.837408958002925">
        <ele>2108.8899999999999</ele>
        <time>2022-07-03T14:10:28Z</time>
      </trkpt>
      <trkpt lat="45.85776868276298" lon="7.837384650483728">
        <ele>2108.1500000000001</ele>
        <time>2022-07-03T14:10:30Z</time>
      </trkpt>
      <trkpt lat="45.857767928391695" lon="7.837285492569208">
        <ele>2105.02</ele>
        <time>2022-07-03T14:10:40Z</time>
      </trkpt>
      <trkpt lat="45.85773884318769" lon="7.837175773456693">
        <ele>2101.8600000000001</ele>
        <time>2022-07-03T14:10:53Z</time>
      </trkpt>
      <trkpt lat="45.857762647792697" lon="7.837026491761208">
        <ele>2099.5300000000002</ele>
        <time>2022-07-03T14:11:05Z</time>
      </trkpt>
      <trkpt lat="45.857761558145285" lon="7.837014840915799">
        <ele>2099.3699999999999</ele>
        <time>2022-07-03T14:11:06Z</time>
      </trkpt>
      <trkpt lat="45.857769101858139" lon="7.836943091824651">
        <ele>2098.0900000000001</ele>
        <time>2022-07-03T14:11:11Z</time>
      </trkpt>
      <trkpt lat="45.857786200940609" lon="7.836909983307123">
        <ele>2097.54</ele>
        <time>2022-07-03T14:11:14Z</time>
      </trkpt>
      <trkpt lat="45.857769101858139" lon="7.836842676624656">
        <ele>2096.1999999999998</ele>
        <time>2022-07-03T14:11:19Z</time>
      </trkpt>
      <trkpt lat="45.857762480154634" lon="7.836815183982253">
        <ele>2095.6900000000001</ele>
        <time>2022-07-03T14:11:21Z</time>
      </trkpt>
      <trkpt lat="45.857796678319573" lon="7.836662884801626">
        <ele>2093.3499999999999</ele>
        <time>2022-07-03T14:11:33Z</time>
      </trkpt>
      <trkpt lat="45.857785446569324" lon="7.83660002052784">
        <ele>2092.3800000000001</ele>
        <time>2022-07-03T14:11:38Z</time>
      </trkpt>
      <trkpt lat="45.857812101021409" lon="7.836575713008642">
        <ele>2091.7800000000002</ele>
        <time>2022-07-03T14:11:42Z</time>
      </trkpt>
      <trkpt lat="45.857840599492192" lon="7.836527600884438">
        <ele>2090.52</ele>
        <time>2022-07-03T14:11:47Z</time>
      </trkpt>
      <trkpt lat="45.857920981943607" lon="7.836354933679104">
        <ele>2087.9200000000001</ele>
        <time>2022-07-03T14:12:00Z</time>
      </trkpt>
      <trkpt lat="45.857911510393023" lon="7.836273293942213">
        <ele>2085.02</ele>
        <time>2022-07-03T14:12:10Z</time>
      </trkpt>
      <trkpt lat="45.857915785163641" lon="7.836210178211331">
        <ele>2084.1700000000001</ele>
        <time>2022-07-03T14:12:14Z</time>
      </trkpt>
      <trkpt lat="45.857912767678499" lon="7.836089059710503">
        <ele>2083.8899999999999</ele>
        <time>2022-07-03T14:12:22Z</time>
      </trkpt>
      <trkpt lat="45.857916623353958" lon="7.835959056392312">
        <ele>2085.29</ele>
        <time>2022-07-03T14:12:33Z</time>
      </trkpt>
      <trkpt lat="45.857931459322572" lon="7.835933910682797">
        <ele>2085.21</ele>
        <time>2022-07-03T14:12:35Z</time>
      </trkpt>
      <trkpt lat="45.858019050210714" lon="7.835832154378295">
        <ele>2082.8400000000001</ele>
        <time>2022-07-03T14:12:46Z</time>
      </trkpt>
      <trkpt lat="45.858069257810712" lon="7.835800889879465">
        <ele>2082.0900000000001</ele>
        <time>2022-07-03T14:12:51Z</time>
      </trkpt>
      <trkpt lat="45.858168248087168" lon="7.835661917924881">
        <ele>2079.8299999999999</ele>
        <time>2022-07-03T14:13:04Z</time>
      </trkpt>
      <trkpt lat="45.858204709365964" lon="7.835481707006693">
        <ele>2080.2399999999998</ele>
        <time>2022-07-03T14:13:16Z</time>
      </trkpt>
      <trkpt lat="45.85823236964643" lon="7.83531884662807">
        <ele>2078.8699999999999</ele>
        <time>2022-07-03T14:13:28Z</time>
      </trkpt>
      <trkpt lat="45.858214851468801" lon="7.835232513025403">
        <ele>2079.52</ele>
        <time>2022-07-03T14:13:35Z</time>
      </trkpt>
      <trkpt lat="45.858207223936915" lon="7.835206193849444">
        <ele>2079.7399999999998</ele>
        <time>2022-07-03T14:13:37Z</time>
      </trkpt>
      <trkpt lat="45.858196746557951" lon="7.83504132181406">
        <ele>2079.9699999999998</ele>
        <time>2022-07-03T14:13:49Z</time>
      </trkpt>
      <trkpt lat="45.858173863962293" lon="7.834877707064152">
        <ele>2080.5</ele>
        <time>2022-07-03T14:14:01Z</time>
      </trkpt>
      <trkpt lat="45.85814687423408" lon="7.834830349311233">
        <ele>2080.6799999999998</ele>
        <time>2022-07-03T14:14:05Z</time>
      </trkpt>
      <trkpt lat="45.858064312487841" lon="7.834653491154313">
        <ele>2080.8200000000002</ele>
        <time>2022-07-03T14:14:19Z</time>
      </trkpt>
      <trkpt lat="45.858050147071481" lon="7.834466574713588">
        <ele>2082.6999999999998</ele>
        <time>2022-07-03T14:14:32Z</time>
      </trkpt>
      <trkpt lat="45.858072694391012" lon="7.834407398477197">
        <ele>2083.6300000000001</ele>
        <time>2022-07-03T14:14:45Z</time>
      </trkpt>
      <trkpt lat="45.858059115707874" lon="7.834423910826445">
        <ele>2082.3499999999999</ele>
        <time>2022-07-03T14:15:03Z</time>
      </trkpt>
      <trkpt lat="45.858050985261798" lon="7.834417792037129">
        <ele>2083.0900000000001</ele>
        <time>2022-07-03T14:15:22Z</time>
      </trkpt>
      <trkpt lat="45.858056684955955" lon="7.834402117878199">
        <ele>2082.6799999999998</ele>
        <time>2022-07-03T14:15:40Z</time>
      </trkpt>
      <trkpt lat="45.858046961948276" lon="7.834363309666514">
        <ele>2082.9000000000001</ele>
        <time>2022-07-03T14:15:46Z</time>
      </trkpt>
      <trkpt lat="45.858040591701865" lon="7.834328189492226">
        <ele>2082.8600000000001</ele>
        <time>2022-07-03T14:15:48Z</time>
      </trkpt>
      <trkpt lat="45.858011422678828" lon="7.8342155367136">
        <ele>2081.9200000000001</ele>
        <time>2022-07-03T14:15:55Z</time>
      </trkpt>
      <trkpt lat="45.857986779883504" lon="7.834194665774703">
        <ele>2081.3400000000001</ele>
        <time>2022-07-03T14:15:58Z</time>
      </trkpt>
      <trkpt lat="45.857967752963305" lon="7.834183601662517">
        <ele>2081.1199999999999</ele>
        <time>2022-07-03T14:16:00Z</time>
      </trkpt>
      <trkpt lat="45.857955766841769" lon="7.8341602999717">
        <ele>2080.7199999999998</ele>
        <time>2022-07-03T14:16:02Z</time>
      </trkpt>
      <trkpt lat="45.857953168451786" lon="7.83400883898139">
        <ele>2078.5</ele>
        <time>2022-07-03T14:16:13Z</time>
      </trkpt>
      <trkpt lat="45.857915114611387" lon="7.833897946402431">
        <ele>2076.1500000000001</ele>
        <time>2022-07-03T14:16:23Z</time>
      </trkpt>
      <trkpt lat="45.857885107398033" lon="7.833766015246511">
        <ele>2073.4000000000001</ele>
        <time>2022-07-03T14:16:34Z</time>
      </trkpt>
      <trkpt lat="45.857833558693528" lon="7.833625869825482">
        <ele>2071.0500000000002</ele>
        <time>2022-07-03T14:16:47Z</time>
      </trkpt>
      <trkpt lat="45.857847891747952" lon="7.83357884734869">
        <ele>2070.21</ele>
        <time>2022-07-03T14:16:51Z</time>
      </trkpt>
      <trkpt lat="45.857894159853458" lon="7.833503829315305">
        <ele>2067.5900000000001</ele>
        <time>2022-07-03T14:17:02Z</time>
      </trkpt>
      <trkpt lat="45.857974961400032" lon="7.83350165002048">
        <ele>2064.3000000000002</ele>
        <time>2022-07-03T14:17:14Z</time>
      </trkpt>
      <trkpt lat="45.858010919764638" lon="7.8334039170295">
        <ele>2061.4400000000001</ele>
        <time>2022-07-03T14:17:26Z</time>
      </trkpt>
      <trkpt lat="45.858024498447776" lon="7.833330575376749">
        <ele>2059.9499999999998</ele>
        <time>2022-07-03T14:17:33Z</time>
      </trkpt>
      <trkpt lat="45.858057187870145" lon="7.833240469917655">
        <ele>2057.3400000000001</ele>
        <time>2022-07-03T14:17:44Z</time>
      </trkpt>
      <trkpt lat="45.858011674135923" lon="7.833150364458561">
        <ele>2054.4299999999998</ele>
        <time>2022-07-03T14:17:54Z</time>
      </trkpt>
      <trkpt lat="45.858001029118896" lon="7.833116250112653">
        <ele>2053.4899999999998</ele>
        <time>2022-07-03T14:17:57Z</time>
      </trkpt>
      <trkpt lat="45.857961885631084" lon="7.83306872472167">
        <ele>2052.5900000000001</ele>
        <time>2022-07-03T14:18:02Z</time>
      </trkpt>
      <trkpt lat="45.857926597818732" lon="7.833028072491288">
        <ele>2051.9499999999998</ele>
        <time>2022-07-03T14:18:06Z</time>
      </trkpt>
      <trkpt lat="45.85792844183743" lon="7.832909720018506">
        <ele>2051.0100000000002</ele>
        <time>2022-07-03T14:18:17Z</time>
      </trkpt>
      <trkpt lat="45.857951994985342" lon="7.832811987027526">
        <ele>2051.8499999999999</ele>
        <time>2022-07-03T14:18:29Z</time>
      </trkpt>
      <trkpt lat="45.857992144301534" lon="7.832826906815171">
        <ele>2053.3200000000002</ele>
        <time>2022-07-03T14:18:36Z</time>
      </trkpt>
      <trkpt lat="45.857991892844439" lon="7.832743590697646">
        <ele>2055.3499999999999</ele>
        <time>2022-07-03T14:18:45Z</time>
      </trkpt>
      <trkpt lat="45.857976051047444" lon="7.832703776657581">
        <ele>2055.4299999999998</ele>
        <time>2022-07-03T14:18:48Z</time>
      </trkpt>
      <trkpt lat="45.857919808477163" lon="7.832616772502661">
        <ele>2056.2600000000002</ele>
        <time>2022-07-03T14:18:59Z</time>
      </trkpt>
      <trkpt lat="45.857881586998701" lon="7.832447625696659">
        <ele>2057.02</ele>
        <time>2022-07-03T14:19:13Z</time>
      </trkpt>
      <trkpt lat="45.857868008315563" lon="7.832297002896667">
        <ele>2059.3000000000002</ele>
        <time>2022-07-03T14:19:29Z</time>
      </trkpt>
      <trkpt lat="45.857908241450787" lon="7.832099944353104">
        <ele>2060.8099999999999</ele>
        <time>2022-07-03T14:19:44Z</time>
      </trkpt>
      <trkpt lat="45.857950653880835" lon="7.83193507231772">
        <ele>2060.3800000000001</ele>
        <time>2022-07-03T14:19:57Z</time>
      </trkpt>
      <trkpt lat="45.857985187321901" lon="7.831891905516386">
        <ele>2058.8800000000001</ele>
        <time>2022-07-03T14:20:02Z</time>
      </trkpt>
      <trkpt lat="45.85797973908484" lon="7.83170934766531">
        <ele>2057.29</ele>
        <time>2022-07-03T14:20:15Z</time>
      </trkpt>
      <trkpt lat="45.857997257262468" lon="7.831633826717734">
        <ele>2056.0500000000002</ele>
        <time>2022-07-03T14:20:21Z</time>
      </trkpt>
      <trkpt lat="45.858008656650782" lon="7.831612285226584">
        <ele>2055.5700000000002</ele>
        <time>2022-07-03T14:20:23Z</time>
      </trkpt>
      <trkpt lat="45.858015445992351" lon="7.831583451479673">
        <ele>2055.1399999999999</ele>
        <time>2022-07-03T14:20:25Z</time>
      </trkpt>
      <trkpt lat="45.858086943626404" lon="7.831413298845291">
        <ele>2052.4499999999998</ele>
        <time>2022-07-03T14:20:38Z</time>
      </trkpt>
      <trkpt lat="45.858101863414049" lon="7.831251695752144">
        <ele>2050.4899999999998</ele>
        <time>2022-07-03T14:20:48Z</time>
      </trkpt>
      <trkpt lat="45.858101528137922" lon="7.831196123734117">
        <ele>2048.8000000000002</ele>
        <time>2022-07-03T14:20:57Z</time>
      </trkpt>
      <trkpt lat="45.858117956668139" lon="7.831207942217588">
        <ele>2048.52</ele>
        <time>2022-07-03T14:21:20Z</time>
      </trkpt>
      <trkpt lat="45.858107311651111" lon="7.831200482323766">
        <ele>2049.5</ele>
        <time>2022-07-03T14:21:34Z</time>
      </trkpt>
      <trkpt lat="45.858096415176988" lon="7.831112807616592">
        <ele>2049.25</ele>
        <time>2022-07-03T14:21:39Z</time>
      </trkpt>
      <trkpt lat="45.858126170933247" lon="7.830921951681376">
        <ele>2048.1300000000001</ele>
        <time>2022-07-03T14:21:52Z</time>
      </trkpt>
      <trkpt lat="45.858143270015717" lon="7.830788930878043">
        <ele>2044.3299999999999</ele>
        <time>2022-07-03T14:22:03Z</time>
      </trkpt>
      <trkpt lat="45.858151316642761" lon="7.830742662772536">
        <ele>2045.3099999999999</ele>
        <time>2022-07-03T14:22:07Z</time>
      </trkpt>
      <trkpt lat="45.858161542564631" lon="7.830704692751169">
        <ele>2044.28</ele>
        <time>2022-07-03T14:22:10Z</time>
      </trkpt>
      <trkpt lat="45.858175456523895" lon="7.830665213987231">
        <ele>2043.79</ele>
        <time>2022-07-03T14:22:13Z</time>
      </trkpt>
      <trkpt lat="45.858196830376983" lon="7.830613330006599">
        <ele>2044.29</ele>
        <time>2022-07-03T14:22:18Z</time>
      </trkpt>
      <trkpt lat="45.858207223936915" lon="7.830589190125465">
        <ele>2044.3099999999999</ele>
        <time>2022-07-03T14:22:20Z</time>
      </trkpt>
      <trkpt lat="45.858292132616043" lon="7.830517860129476">
        <ele>2043.1600000000001</ele>
        <time>2022-07-03T14:22:29Z</time>
      </trkpt>
      <trkpt lat="45.85830177180469" lon="7.830496737733483">
        <ele>2042.78</ele>
        <time>2022-07-03T14:22:31Z</time>
      </trkpt>
      <trkpt lat="45.85830076597631" lon="7.830374361947179">
        <ele>2042.1300000000001</ele>
        <time>2022-07-03T14:22:40Z</time>
      </trkpt>
      <trkpt lat="45.858326749876142" lon="7.830218710005283">
        <ele>2041.4100000000001</ele>
        <time>2022-07-03T14:22:50Z</time>
      </trkpt>
      <trkpt lat="45.858323397114873" lon="7.8300900477916">
        <ele>2038.3699999999999</ele>
        <time>2022-07-03T14:23:00Z</time>
      </trkpt>
      <trkpt lat="45.858330857008696" lon="7.829986866563559">
        <ele>2035.3299999999999</ele>
        <time>2022-07-03T14:23:12Z</time>
      </trkpt>
      <trkpt lat="45.858329515904188" lon="7.829960631206632">
        <ele>2035.24</ele>
        <time>2022-07-03T14:23:14Z</time>
      </trkpt>
      <trkpt lat="45.858327923342586" lon="7.829880835488439">
        <ele>2033.9200000000001</ele>
        <time>2022-07-03T14:23:19Z</time>
      </trkpt>
      <trkpt lat="45.858319709077477" lon="7.829785784706473">
        <ele>2032.72</ele>
        <time>2022-07-03T14:23:25Z</time>
      </trkpt>
      <trkpt lat="45.858340412378311" lon="7.829707330092788">
        <ele>2031.54</ele>
        <time>2022-07-03T14:23:30Z</time>
      </trkpt>
      <trkpt lat="45.858335886150599" lon="7.829658295959234">
        <ele>2031.1700000000001</ele>
        <time>2022-07-03T14:23:35Z</time>
      </trkpt>
      <trkpt lat="45.85832616314292" lon="7.8296341560781">
        <ele>2030.8599999999999</ele>
        <time>2022-07-03T14:23:37Z</time>
      </trkpt>
      <trkpt lat="45.858328007161617" lon="7.829440198838711">
        <ele>2027.6700000000001</ele>
        <time>2022-07-03T14:23:51Z</time>
      </trkpt>
      <trkpt lat="45.858321636915207" lon="7.829258060082793">
        <ele>2025.9200000000001</ele>
        <time>2022-07-03T14:24:04Z</time>
      </trkpt>
      <trkpt lat="45.858313506469131" lon="7.829243140295148">
        <ele>2025.71</ele>
        <time>2022-07-03T14:24:06Z</time>
      </trkpt>
      <trkpt lat="45.858308393508196" lon="7.8292007278651">
        <ele>2025.1500000000001</ele>
        <time>2022-07-03T14:24:09Z</time>
      </trkpt>
      <trkpt lat="45.858316356316209" lon="7.829131493344903">
        <ele>2024.28</ele>
        <time>2022-07-03T14:24:14Z</time>
      </trkpt>
      <trkpt lat="45.858313590288162" lon="7.829067036509514">
        <ele>2023.29</ele>
        <time>2022-07-03T14:24:19Z</time>
      </trkpt>
      <trkpt lat="45.858301604166627" lon="7.828906858339906">
        <ele>2021.77</ele>
        <time>2022-07-03T14:24:29Z</time>
      </trkpt>
      <trkpt lat="45.858269585296512" lon="7.828768808394671">
        <ele>2020.8299999999999</ele>
        <time>2022-07-03T14:24:38Z</time>
      </trkpt>
      <trkpt lat="45.858254916965961" lon="7.828689850866795">
        <ele>2021.5</ele>
        <time>2022-07-03T14:24:46Z</time>
      </trkpt>
      <trkpt lat="45.858255084604025" lon="7.828639559447765">
        <ele>2021.71</ele>
        <time>2022-07-03T14:24:50Z</time>
      </trkpt>
      <trkpt lat="45.858249301090837" lon="7.828597649931908">
        <ele>2021.7</ele>
        <time>2022-07-03T14:24:53Z</time>
      </trkpt>
      <trkpt lat="45.858275704085827" lon="7.828481812030077">
        <ele>2021.97</ele>
        <time>2022-07-03T14:25:01Z</time>
      </trkpt>
      <trkpt lat="45.858333455398679" lon="7.828406877815723">
        <ele>2021.72</ele>
        <time>2022-07-03T14:25:09Z</time>
      </trkpt>
      <trkpt lat="45.858371760696173" lon="7.828262960538268">
        <ele>2023.1900000000001</ele>
        <time>2022-07-03T14:25:20Z</time>
      </trkpt>
      <trkpt lat="45.858378550037742" lon="7.828131867572665">
        <ele>2022.6700000000001</ele>
        <time>2022-07-03T14:25:28Z</time>
      </trkpt>
      <trkpt lat="45.858392883092165" lon="7.828086353838444">
        <ele>2022.77</ele>
        <time>2022-07-03T14:25:31Z</time>
      </trkpt>
      <trkpt lat="45.858403611928225" lon="7.827945537865162">
        <ele>2023.28</ele>
        <time>2022-07-03T14:25:42Z</time>
      </trkpt>
      <trkpt lat="45.858402438461781" lon="7.827806985005736">
        <ele>2022.3399999999999</ele>
        <time>2022-07-03T14:25:54Z</time>
      </trkpt>
      <trkpt lat="45.858401348814368" lon="7.827764991670847">
        <ele>2021.72</ele>
        <time>2022-07-03T14:25:57Z</time>
      </trkpt>
      <trkpt lat="45.85839506238699" lon="7.827707827091217">
        <ele>2020.9000000000001</ele>
        <time>2022-07-03T14:26:01Z</time>
      </trkpt>
      <trkpt lat="45.858384501188993" lon="7.827564496546984">
        <ele>2019.0799999999999</ele>
        <time>2022-07-03T14:26:11Z</time>
      </trkpt>
      <trkpt lat="45.85839263163507" lon="7.827518144622445">
        <ele>2019.5</ele>
        <time>2022-07-03T14:26:15Z</time>
      </trkpt>
      <trkpt lat="45.858404282480478" lon="7.827340196818113">
        <ele>2018.4300000000001</ele>
        <time>2022-07-03T14:26:26Z</time>
      </trkpt>
      <trkpt lat="45.85841660387814" lon="7.827294934540987">
        <ele>2017.6800000000001</ele>
        <time>2022-07-03T14:26:29Z</time>
      </trkpt>
      <trkpt lat="45.858433283865452" lon="7.827201476320624">
        <ele>2017.25</ele>
        <time>2022-07-03T14:26:36Z</time>
      </trkpt>
      <trkpt lat="45.858428925275803" lon="7.827136516571045">
        <ele>2016.3399999999999</ele>
        <time>2022-07-03T14:26:40Z</time>
      </trkpt>
      <trkpt lat="45.8584791328758" lon="7.827000645920634">
        <ele>2017.48</ele>
        <time>2022-07-03T14:26:51Z</time>
      </trkpt>
      <trkpt lat="45.858513498678803" lon="7.826878437772393">
        <ele>2018.77</ele>
        <time>2022-07-03T14:27:02Z</time>
      </trkpt>
      <trkpt lat="45.858509810641408" lon="7.826867876574397">
        <ele>2018.3</ele>
        <time>2022-07-03T14:27:03Z</time>
      </trkpt>
      <trkpt lat="45.858509643003345" lon="7.826831080019474">
        <ele>2017.5</ele>
        <time>2022-07-03T14:27:06Z</time>
      </trkpt>
      <trkpt lat="45.858494639396667" lon="7.826739381998777">
        <ele>2016.4200000000001</ele>
        <time>2022-07-03T14:27:11Z</time>
      </trkpt>
      <trkpt lat="45.858516935259104" lon="7.826616335660219">
        <ele>2016.1900000000001</ele>
        <time>2022-07-03T14:27:18Z</time>
      </trkpt>
      <trkpt lat="45.858517773449421" lon="7.826581299304962">
        <ele>2016.0599999999999</ele>
        <time>2022-07-03T14:27:20Z</time>
      </trkpt>
      <trkpt lat="45.858548786491156" lon="7.826451882719994">
        <ele>2017.03</ele>
        <time>2022-07-03T14:27:31Z</time>
      </trkpt>
      <trkpt lat="45.85855389945209" lon="7.826423719525337">
        <ele>2017.25</ele>
        <time>2022-07-03T14:27:33Z</time>
      </trkpt>
      <trkpt lat="45.858605867251754" lon="7.826306121423841">
        <ele>2017.8599999999999</ele>
        <time>2022-07-03T14:27:42Z</time>
      </trkpt>
      <trkpt lat="45.858632856979966" lon="7.826255830004811">
        <ele>2017.8299999999999</ele>
        <time>2022-07-03T14:27:46Z</time>
      </trkpt>
      <trkpt lat="45.858639143407345" lon="7.826208975166082">
        <ele>2018.6300000000001</ele>
        <time>2022-07-03T14:27:49Z</time>
      </trkpt>
      <trkpt lat="45.858648112043738" lon="7.826120378449559">
        <ele>2018.5599999999999</ele>
        <time>2022-07-03T14:27:56Z</time>
      </trkpt>
      <trkpt lat="45.858672671020031" lon="7.825990123674274">
        <ele>2018.3699999999999</ele>
        <time>2022-07-03T14:28:06Z</time>
      </trkpt>
      <trkpt lat="45.85869706235826" lon="7.825898928567767">
        <ele>2018.8299999999999</ele>
        <time>2022-07-03T14:28:13Z</time>
      </trkpt>
      <trkpt lat="45.858709635213017" lon="7.825819719582796">
        <ele>2018.77</ele>
        <time>2022-07-03T14:28:18Z</time>
      </trkpt>
      <trkpt lat="45.858726147562265" lon="7.825748808681965">
        <ele>2018.8</ele>
        <time>2022-07-03T14:28:23Z</time>
      </trkpt>
      <trkpt lat="45.858730841428041" lon="7.825650991871953">
        <ele>2019.4400000000001</ele>
        <time>2022-07-03T14:28:32Z</time>
      </trkpt>
      <trkpt lat="45.858732517808676" lon="7.825529873371124">
        <ele>2018.8299999999999</ele>
        <time>2022-07-03T14:28:42Z</time>
      </trkpt>
      <trkpt lat="45.858730925247073" lon="7.825517971068621">
        <ele>2018.71</ele>
        <time>2022-07-03T14:28:43Z</time>
      </trkpt>
      <trkpt lat="45.858711479231715" lon="7.825461309403181">
        <ele>2018.46</ele>
        <time>2022-07-03T14:28:47Z</time>
      </trkpt>
      <trkpt lat="45.85871759802103" lon="7.82535276375711">
        <ele>2018.25</ele>
        <time>2022-07-03T14:28:54Z</time>
      </trkpt>
      <trkpt lat="45.85871466435492" lon="7.825323008000851">
        <ele>2018.26</ele>
        <time>2022-07-03T14:28:56Z</time>
      </trkpt>
      <trkpt lat="45.85871416144073" lon="7.825294258072972">
        <ele>2018.0799999999999</ele>
        <time>2022-07-03T14:28:58Z</time>
      </trkpt>
      <trkpt lat="45.858731931075454" lon="7.825120165944099">
        <ele>2015.3800000000001</ele>
        <time>2022-07-03T14:29:11Z</time>
      </trkpt>
      <trkpt lat="45.858756741508842" lon="7.825084291398525">
        <ele>2015.3199999999999</ele>
        <time>2022-07-03T14:29:14Z</time>
      </trkpt>
      <trkpt lat="45.858768727630377" lon="7.825020588934422">
        <ele>2014.98</ele>
        <time>2022-07-03T14:29:18Z</time>
      </trkpt>
      <trkpt lat="45.858783144503832" lon="7.824783716350794">
        <ele>2012.47</ele>
        <time>2022-07-03T14:29:31Z</time>
      </trkpt>
      <trkpt lat="45.858805608004332" lon="7.824718840420246">
        <ele>2011.5799999999999</ele>
        <time>2022-07-03T14:29:36Z</time>
      </trkpt>
      <trkpt lat="45.858820108696818" lon="7.824561093002558">
        <ele>2009.0899999999999</ele>
        <time>2022-07-03T14:29:47Z</time>
      </trkpt>
      <trkpt lat="45.85883385501802" lon="7.824385575950146">
        <ele>2006.97</ele>
        <time>2022-07-03T14:29:57Z</time>
      </trkpt>
      <trkpt lat="45.858835196122527" lon="7.824368057772517">
        <ele>2006.8299999999999</ele>
        <time>2022-07-03T14:29:58Z</time>
      </trkpt>
      <trkpt lat="45.858887834474444" lon="7.824140740558505">
        <ele>2006.8099999999999</ele>
        <time>2022-07-03T14:30:12Z</time>
      </trkpt>
      <trkpt lat="45.85892328992486" lon="7.824036302044988">
        <ele>2007.04</ele>
        <time>2022-07-03T14:30:20Z</time>
      </trkpt>
      <trkpt lat="45.858921110630035" lon="7.823873776942492">
        <ele>2005.75</ele>
        <time>2022-07-03T14:30:29Z</time>
      </trkpt>
      <trkpt lat="45.8589091245085" lon="7.823806302621961">
        <ele>2005.1700000000001</ele>
        <time>2022-07-03T14:30:34Z</time>
      </trkpt>
      <trkpt lat="45.858797477558255" lon="7.823676466941834">
        <ele>2004.1600000000001</ele>
        <time>2022-07-03T14:30:47Z</time>
      </trkpt>
      <trkpt lat="45.858738217502832" lon="7.82357269898057">
        <ele>2000.8599999999999</ele>
        <time>2022-07-03T14:30:56Z</time>
      </trkpt>
      <trkpt lat="45.858700331300497" lon="7.823510924354196">
        <ele>1997.8299999999999</ele>
        <time>2022-07-03T14:31:05Z</time>
      </trkpt>
      <trkpt lat="45.858637550845742" lon="7.823404977098107">
        <ele>1994.8199999999999</ele>
        <time>2022-07-03T14:31:16Z</time>
      </trkpt>
      <trkpt lat="45.858618943020701" lon="7.823362145572901">
        <ele>1994.2</ele>
        <time>2022-07-03T14:31:20Z</time>
      </trkpt>
      <trkpt lat="45.858628749847412" lon="7.823187718167901">
        <ele>1993.47</ele>
        <time>2022-07-03T14:31:31Z</time>
      </trkpt>
      <trkpt lat="45.858593210577965" lon="7.823056625202298">
        <ele>1991.6600000000001</ele>
        <time>2022-07-03T14:31:39Z</time>
      </trkpt>
      <trkpt lat="45.858583990484476" lon="7.822929890826345">
        <ele>1991.45</ele>
        <time>2022-07-03T14:31:47Z</time>
      </trkpt>
      <trkpt lat="45.858620619401336" lon="7.822773233056068">
        <ele>1990.79</ele>
        <time>2022-07-03T14:31:57Z</time>
      </trkpt>
      <trkpt lat="45.858629588037729" lon="7.822706596925855">
        <ele>1991.2</ele>
        <time>2022-07-03T14:32:02Z</time>
      </trkpt>
      <trkpt lat="45.858654817566276" lon="7.822557901963592">
        <ele>1992.9000000000001</ele>
        <time>2022-07-03T14:32:14Z</time>
      </trkpt>
      <trkpt lat="45.858714915812016" lon="7.822399148717523">
        <ele>1993.74</ele>
        <time>2022-07-03T14:32:28Z</time>
      </trkpt>
      <trkpt lat="45.858754059299827" lon="7.822257410734892">
        <ele>1995.0799999999999</ele>
        <time>2022-07-03T14:32:39Z</time>
      </trkpt>
      <trkpt lat="45.858749030157924" lon="7.822153475135565">
        <ele>1994.6400000000001</ele>
        <time>2022-07-03T14:32:47Z</time>
      </trkpt>
      <trkpt lat="45.858761519193649" lon="7.822062112390995">
        <ele>1993.6099999999999</ele>
        <time>2022-07-03T14:32:53Z</time>
      </trkpt>
      <trkpt lat="45.858760513365269" lon="7.821875279769301">
        <ele>1990.9000000000001</ele>
        <time>2022-07-03T14:33:06Z</time>
      </trkpt>
      <trkpt lat="45.858767386525869" lon="7.821828592568636">
        <ele>1989.8699999999999</ele>
        <time>2022-07-03T14:33:09Z</time>
      </trkpt>
      <trkpt lat="45.858805105090141" lon="7.821760531514883">
        <ele>1989.74</ele>
        <time>2022-07-03T14:33:15Z</time>
      </trkpt>
      <trkpt lat="45.85880259051919" lon="7.821625415235758">
        <ele>1987.75</ele>
        <time>2022-07-03T14:33:28Z</time>
      </trkpt>
      <trkpt lat="45.858799070119858" lon="7.821631617844105">
        <ele>1987.01</ele>
        <time>2022-07-03T14:33:44Z</time>
      </trkpt>
      <trkpt lat="45.858774008229375" lon="7.821640921756625">
        <ele>1987.0899999999999</ele>
        <time>2022-07-03T14:33:58Z</time>
      </trkpt>
      <trkpt lat="45.858760429546237" lon="7.821659110486507">
        <ele>1986.1099999999999</ele>
        <time>2022-07-03T14:34:00Z</time>
      </trkpt>
      <trkpt lat="45.858708880841732" lon="7.821735804900527">
        <ele>1985.1199999999999</ele>
        <time>2022-07-03T14:34:06Z</time>
      </trkpt>
      <trkpt lat="45.858595976606011" lon="7.821869663894177">
        <ele>1982.4400000000001</ele>
        <time>2022-07-03T14:34:19Z</time>
      </trkpt>
      <trkpt lat="45.858514085412025" lon="7.822050042450428">
        <ele>1980.04</ele>
        <time>2022-07-03T14:34:32Z</time>
      </trkpt>
      <trkpt lat="45.858506541699171" lon="7.822084911167622">
        <ele>1979.04</ele>
        <time>2022-07-03T14:34:34Z</time>
      </trkpt>
      <trkpt lat="45.858479887247086" lon="7.822161102667451">
        <ele>1978.2</ele>
        <time>2022-07-03T14:34:39Z</time>
      </trkpt>
      <trkpt lat="45.85837846621871" lon="7.822236455976963">
        <ele>1977.7</ele>
        <time>2022-07-03T14:34:50Z</time>
      </trkpt>
      <trkpt lat="45.858354410156608" lon="7.82220259308815">
        <ele>1976.5999999999999</ele>
        <time>2022-07-03T14:35:01Z</time>
      </trkpt>
      <trkpt lat="45.858355835080147" lon="7.82219429500401">
        <ele>1975.97</ele>
        <time>2022-07-03T14:35:16Z</time>
      </trkpt>
      <trkpt lat="45.858357846736908" lon="7.822206532582641">
        <ele>1976.1500000000001</ele>
        <time>2022-07-03T14:35:40Z</time>
      </trkpt>
      <trkpt lat="45.858355667442083" lon="7.822185242548585">
        <ele>1976.4200000000001</ele>
        <time>2022-07-03T14:35:51Z</time>
      </trkpt>
      <trkpt lat="45.858382321894169" lon="7.822023723274469">
        <ele>1974.6099999999999</ele>
        <time>2022-07-03T14:36:02Z</time>
      </trkpt>
      <trkpt lat="45.858405623584986" lon="7.821926744654775">
        <ele>1973.54</ele>
        <time>2022-07-03T14:36:09Z</time>
      </trkpt>
      <trkpt lat="45.858459435403347" lon="7.821735637262464">
        <ele>1971.1800000000001</ele>
        <time>2022-07-03T14:36:21Z</time>
      </trkpt>
      <trkpt lat="45.858489526435733" lon="7.821666235104203">
        <ele>1970.54</ele>
        <time>2022-07-03T14:36:25Z</time>
      </trkpt>
      <trkpt lat="45.858568651601672" lon="7.821344705298543">
        <ele>1968.55</ele>
        <time>2022-07-03T14:36:43Z</time>
      </trkpt>
      <trkpt lat="45.858577201142907" lon="7.821034323424101">
        <ele>1967.53</ele>
        <time>2022-07-03T14:36:59Z</time>
      </trkpt>
      <trkpt lat="45.858535123988986" lon="7.820737520232797">
        <ele>1966.29</ele>
        <time>2022-07-03T14:37:14Z</time>
      </trkpt>
      <trkpt lat="45.858517438173294" lon="7.820423450320959">
        <ele>1964.8900000000001</ele>
        <time>2022-07-03T14:37:30Z</time>
      </trkpt>
      <trkpt lat="45.858535207808018" lon="7.820205353200436">
        <ele>1963.79</ele>
        <time>2022-07-03T14:37:41Z</time>
      </trkpt>
      <trkpt lat="45.858539482578635" lon="7.819927912205458">
        <ele>1961.6300000000001</ele>
        <time>2022-07-03T14:37:55Z</time>
      </trkpt>
      <trkpt lat="45.858542080968618" lon="7.819850631058216">
        <ele>1960.3499999999999</ele>
        <time>2022-07-03T14:37:59Z</time>
      </trkpt>
      <trkpt lat="45.858535878360271" lon="7.819700427353382">
        <ele>1959.51</ele>
        <time>2022-07-03T14:38:07Z</time>
      </trkpt>
      <trkpt lat="45.858526658266783" lon="7.81948727555573">
        <ele>1957.4200000000001</ele>
        <time>2022-07-03T14:38:18Z</time>
      </trkpt>
      <trkpt lat="45.858514420688152" lon="7.819409994408488">
        <ele>1957.03</ele>
        <time>2022-07-03T14:38:22Z</time>
      </trkpt>
      <trkpt lat="45.858531519770622" lon="7.819180162623525">
        <ele>1954.95</ele>
        <time>2022-07-03T14:38:34Z</time>
      </trkpt>
      <trkpt lat="45.85853579454124" lon="7.819146802648902">
        <ele>1954.71</ele>
        <time>2022-07-03T14:38:36Z</time>
      </trkpt>
      <trkpt lat="45.85854803211987" lon="7.81890481710434">
        <ele>1951.6199999999999</ele>
        <time>2022-07-03T14:38:50Z</time>
      </trkpt>
      <trkpt lat="45.858563287183642" lon="7.81865805387497">
        <ele>1948.5999999999999</ele>
        <time>2022-07-03T14:39:04Z</time>
      </trkpt>
      <trkpt lat="45.858569573611021" lon="7.818410871550441">
        <ele>1947.54</ele>
        <time>2022-07-03T14:39:17Z</time>
      </trkpt>
      <trkpt lat="45.858580134809017" lon="7.818097975105047">
        <ele>1946.8699999999999</ele>
        <time>2022-07-03T14:39:34Z</time>
      </trkpt>
      <trkpt lat="45.858542835339904" lon="7.817895971238613">
        <ele>1946.3900000000001</ele>
        <time>2022-07-03T14:39:45Z</time>
      </trkpt>
      <trkpt lat="45.858549037948251" lon="7.817608723416925">
        <ele>1943.9300000000001</ele>
        <time>2022-07-03T14:40:00Z</time>
      </trkpt>
      <trkpt lat="45.858623553067446" lon="7.817371850833297">
        <ele>1940.8599999999999</ele>
        <time>2022-07-03T14:40:13Z</time>
      </trkpt>
      <trkpt lat="45.858680047094822" lon="7.817097092047334">
        <ele>1938.8399999999999</ele>
        <time>2022-07-03T14:40:28Z</time>
      </trkpt>
      <trkpt lat="45.858728159219027" lon="7.816956443712115">
        <ele>1937.95</ele>
        <time>2022-07-03T14:40:36Z</time>
      </trkpt>
      <trkpt lat="45.858804266899824" lon="7.816818142309785">
        <ele>1937.4200000000001</ele>
        <time>2022-07-03T14:40:45Z</time>
      </trkpt>
      <trkpt lat="45.858886912465096" lon="7.816686797887087">
        <ele>1936.97</ele>
        <time>2022-07-03T14:40:54Z</time>
      </trkpt>
      <trkpt lat="45.858895881101489" lon="7.816667854785919">
        <ele>1936.8199999999999</ele>
        <time>2022-07-03T14:40:55Z</time>
      </trkpt>
      <trkpt lat="45.858945334330201" lon="7.816611276939511">
        <ele>1936.6300000000001</ele>
        <time>2022-07-03T14:41:00Z</time>
      </trkpt>
      <trkpt lat="45.859010377898812" lon="7.816501976922154">
        <ele>1936.52</ele>
        <time>2022-07-03T14:41:07Z</time>
      </trkpt>
      <trkpt lat="45.859050862491131" lon="7.816450847312808">
        <ele>1936.4200000000001</ele>
        <time>2022-07-03T14:41:11Z</time>
      </trkpt>
      <trkpt lat="45.859235599637032" lon="7.816297374665737">
        <ele>1935.6500000000001</ele>
        <time>2022-07-03T14:41:27Z</time>
      </trkpt>
      <trkpt lat="45.859423773363233" lon="7.816189751029015">
        <ele>1934.2</ele>
        <time>2022-07-03T14:41:42Z</time>
      </trkpt>
      <trkpt lat="45.859578503295779" lon="7.816100902855396">
        <ele>1932.75</ele>
        <time>2022-07-03T14:41:55Z</time>
      </trkpt>
      <trkpt lat="45.859730718657374" lon="7.816017922013998">
        <ele>1930.8599999999999</ele>
        <time>2022-07-03T14:42:08Z</time>
      </trkpt>
      <trkpt lat="45.859816297888756" lon="7.815938126295805">
        <ele>1929.6800000000001</ele>
        <time>2022-07-03T14:42:16Z</time>
      </trkpt>
      <trkpt lat="45.859878491610289" lon="7.815870316699147">
        <ele>1928.8800000000001</ele>
        <time>2022-07-03T14:42:22Z</time>
      </trkpt>
      <trkpt lat="45.859952922910452" lon="7.815802423283458">
        <ele>1928.3299999999999</ele>
        <time>2022-07-03T14:42:29Z</time>
      </trkpt>
      <trkpt lat="45.860062055289745" lon="7.81569697894156">
        <ele>1926.9100000000001</ele>
        <time>2022-07-03T14:42:39Z</time>
      </trkpt>
      <trkpt lat="45.860181245952845" lon="7.815610142424703">
        <ele>1925.49</ele>
        <time>2022-07-03T14:42:50Z</time>
      </trkpt>
      <trkpt lat="45.860200524330139" lon="7.815594803541899">
        <ele>1925.1099999999999</ele>
        <time>2022-07-03T14:42:52Z</time>
      </trkpt>
      <trkpt lat="45.860304040834308" lon="7.815489359200001">
        <ele>1923.27</ele>
        <time>2022-07-03T14:43:02Z</time>
      </trkpt>
      <trkpt lat="45.860364139080048" lon="7.815431440249085">
        <ele>1922.27</ele>
        <time>2022-07-03T14:43:08Z</time>
      </trkpt>
      <trkpt lat="45.860491208732128" lon="7.815344100818038">
        <ele>1920.22</ele>
        <time>2022-07-03T14:43:20Z</time>
      </trkpt>
      <trkpt lat="45.860630432143807" lon="7.81524645164609">
        <ele>1918.1199999999999</ele>
        <time>2022-07-03T14:43:32Z</time>
      </trkpt>
      <trkpt lat="45.860758675262332" lon="7.815106976777315">
        <ele>1916.6300000000001</ele>
        <time>2022-07-03T14:43:44Z</time>
      </trkpt>
      <trkpt lat="45.860789772123098" lon="7.815076047554612">
        <ele>1916.0799999999999</ele>
        <time>2022-07-03T14:43:47Z</time>
      </trkpt>
      <trkpt lat="45.860940311104059" lon="7.814958784729242">
        <ele>1914.4400000000001</ele>
        <time>2022-07-03T14:44:00Z</time>
      </trkpt>
      <trkpt lat="45.86108548566699" lon="7.814837582409382">
        <ele>1913.0599999999999</ele>
        <time>2022-07-03T14:44:13Z</time>
      </trkpt>
      <trkpt lat="45.861232336610556" lon="7.814709758386016">
        <ele>1911.8299999999999</ele>
        <time>2022-07-03T14:44:26Z</time>
      </trkpt>
      <trkpt lat="45.861362256109715" lon="7.814605906605721">
        <ele>1910.8499999999999</ele>
        <time>2022-07-03T14:44:38Z</time>
      </trkpt>
      <trkpt lat="45.861441716551781" lon="7.814549244940281">
        <ele>1910.05</ele>
        <time>2022-07-03T14:44:45Z</time>
      </trkpt>
      <trkpt lat="45.861612455919385" lon="7.814436927437782">
        <ele>1908.55</ele>
        <time>2022-07-03T14:44:59Z</time>
      </trkpt>
      <trkpt lat="45.861743297427893" lon="7.814371967688203">
        <ele>1906.8099999999999</ele>
        <time>2022-07-03T14:45:10Z</time>
      </trkpt>
      <trkpt lat="45.861781602725387" lon="7.814314886927605">
        <ele>1906.3599999999999</ele>
        <time>2022-07-03T14:45:14Z</time>
      </trkpt>
      <trkpt lat="45.861741285771132" lon="7.814195947721601">
        <ele>1905.3399999999999</ele>
        <time>2022-07-03T14:45:22Z</time>
      </trkpt>
      <trkpt lat="45.861716978251934" lon="7.814170550554991">
        <ele>1905.0799999999999</ele>
        <time>2022-07-03T14:45:24Z</time>
      </trkpt>
      <trkpt lat="45.861704740673304" lon="7.814168874174357">
        <ele>1905.03</ele>
        <time>2022-07-03T14:45:25Z</time>
      </trkpt>
      <trkpt lat="45.861679762601852" lon="7.814179519191384">
        <ele>1904.6300000000001</ele>
        <time>2022-07-03T14:45:27Z</time>
      </trkpt>
      <trkpt lat="45.861666686832905" lon="7.814184715971351">
        <ele>1904.4400000000001</ele>
        <time>2022-07-03T14:45:28Z</time>
      </trkpt>
      <trkpt lat="45.861653108149767" lon="7.814186057075858">
        <ele>1904.3</ele>
        <time>2022-07-03T14:45:29Z</time>
      </trkpt>
      <trkpt lat="45.86161270737648" lon="7.814204329624772">
        <ele>1903.5599999999999</ele>
        <time>2022-07-03T14:45:33Z</time>
      </trkpt>
      <trkpt lat="45.861602146178484" lon="7.814214387908578">
        <ele>1903.3800000000001</ele>
        <time>2022-07-03T14:45:34Z</time>
      </trkpt>
      <trkpt lat="45.861579850316048" lon="7.814220171421766">
        <ele>1902.9200000000001</ele>
        <time>2022-07-03T14:45:36Z</time>
      </trkpt>
      <trkpt lat="45.861568031832576" lon="7.814217740669847">
        <ele>1902.74</ele>
        <time>2022-07-03T14:45:37Z</time>
      </trkpt>
      <trkpt lat="45.861557135358453" lon="7.814224613830447">
        <ele>1902.46</ele>
        <time>2022-07-03T14:45:38Z</time>
      </trkpt>
      <trkpt lat="45.861546155065298" lon="7.814230564981699">
        <ele>1902.1400000000001</ele>
        <time>2022-07-03T14:45:39Z</time>
      </trkpt>
      <trkpt lat="45.861535845324397" lon="7.814244730398059">
        <ele>1901.95</ele>
        <time>2022-07-03T14:45:40Z</time>
      </trkpt>
      <trkpt lat="45.861525787040591" lon="7.814259147271514">
        <ele>1901.77</ele>
        <time>2022-07-03T14:45:41Z</time>
      </trkpt>
      <trkpt lat="45.861516064032912" lon="7.814265433698893">
        <ele>1901.6700000000001</ele>
        <time>2022-07-03T14:45:42Z</time>
      </trkpt>
      <trkpt lat="45.861505754292011" lon="7.814266523346305">
        <ele>1901.5799999999999</ele>
        <time>2022-07-03T14:45:43Z</time>
      </trkpt>
      <trkpt lat="45.861494857817888" lon="7.814268032088876">
        <ele>1901.3199999999999</ele>
        <time>2022-07-03T14:45:44Z</time>
      </trkpt>
      <trkpt lat="45.861484799534082" lon="7.814274821430445">
        <ele>1901.05</ele>
        <time>2022-07-03T14:45:45Z</time>
      </trkpt>
      <trkpt lat="45.861442470923066" lon="7.814296949654818">
        <ele>1899.95</ele>
        <time>2022-07-03T14:45:49Z</time>
      </trkpt>
      <trkpt lat="45.86142897605896" lon="7.814295776188374">
        <ele>1899.8299999999999</ele>
        <time>2022-07-03T14:45:50Z</time>
      </trkpt>
      <trkpt lat="45.861415145918727" lon="7.814299548044801">
        <ele>1899.6400000000001</ele>
        <time>2022-07-03T14:45:51Z</time>
      </trkpt>
      <trkpt lat="45.861401567235589" lon="7.814302314072847">
        <ele>1899.3800000000001</ele>
        <time>2022-07-03T14:45:52Z</time>
      </trkpt>
      <trkpt lat="45.861390503123403" lon="7.814312456175685">
        <ele>1899.2</ele>
        <time>2022-07-03T14:45:53Z</time>
      </trkpt>
      <trkpt lat="45.861380444839597" lon="7.814322346821427">
        <ele>1899.1900000000001</ele>
        <time>2022-07-03T14:45:54Z</time>
      </trkpt>
      <trkpt lat="45.861369045451283" lon="7.814322849735618">
        <ele>1898.96</ele>
        <time>2022-07-03T14:45:55Z</time>
      </trkpt>
      <trkpt lat="45.861357897520065" lon="7.814324358478189">
        <ele>1898.8</ele>
        <time>2022-07-03T14:45:56Z</time>
      </trkpt>
      <trkpt lat="45.861345576122403" lon="7.814328465610743">
        <ele>1898.4100000000001</ele>
        <time>2022-07-03T14:45:57Z</time>
      </trkpt>
      <trkpt lat="45.861333757638931" lon="7.814332321286202">
        <ele>1898.1800000000001</ele>
        <time>2022-07-03T14:45:58Z</time>
      </trkpt>
      <trkpt lat="45.861321520060301" lon="7.814344223588705">
        <ele>1897.9100000000001</ele>
        <time>2022-07-03T14:45:59Z</time>
      </trkpt>
      <trkpt lat="45.861308947205544" lon="7.81435520388186">
        <ele>1897.8299999999999</ele>
        <time>2022-07-03T14:46:00Z</time>
      </trkpt>
      <trkpt lat="45.861297296360135" lon="7.814360400661826">
        <ele>1897.6099999999999</ele>
        <time>2022-07-03T14:46:01Z</time>
      </trkpt>
      <trkpt lat="45.861284891143441" lon="7.814367106184363">
        <ele>1897.49</ele>
        <time>2022-07-03T14:46:02Z</time>
      </trkpt>
      <trkpt lat="45.86127164773643" lon="7.814372470602393">
        <ele>1897.21</ele>
        <time>2022-07-03T14:46:03Z</time>
      </trkpt>
      <trkpt lat="45.861258152872324" lon="7.814376913011074">
        <ele>1897.0699999999999</ele>
        <time>2022-07-03T14:46:04Z</time>
      </trkpt>
      <trkpt lat="45.86124625056982" lon="7.814381271600723">
        <ele>1896.8599999999999</ele>
        <time>2022-07-03T14:46:05Z</time>
      </trkpt>
      <trkpt lat="45.861209537833929" lon="7.814385043457151">
        <ele>1896.3299999999999</ele>
        <time>2022-07-03T14:46:08Z</time>
      </trkpt>
      <trkpt lat="45.861196797341108" lon="7.814379008486867">
        <ele>1896.2</ele>
        <time>2022-07-03T14:46:09Z</time>
      </trkpt>
      <trkpt lat="45.861184140667319" lon="7.814382696524262">
        <ele>1896.1300000000001</ele>
        <time>2022-07-03T14:46:10Z</time>
      </trkpt>
      <trkpt lat="45.861158492043614" lon="7.814401304349303">
        <ele>1895.4300000000001</ele>
        <time>2022-07-03T14:46:12Z</time>
      </trkpt>
      <trkpt lat="45.861145919188857" lon="7.814413709565997">
        <ele>1895.27</ele>
        <time>2022-07-03T14:46:13Z</time>
      </trkpt>
      <trkpt lat="45.861134771257639" lon="7.814417397603393">
        <ele>1895.0599999999999</ele>
        <time>2022-07-03T14:46:14Z</time>
      </trkpt>
      <trkpt lat="45.861122785136104" lon="7.814414799213409">
        <ele>1894.8</ele>
        <time>2022-07-03T14:46:15Z</time>
      </trkpt>
      <trkpt lat="45.861110631376505" lon="7.814413458108902">
        <ele>1894.53</ele>
        <time>2022-07-03T14:46:16Z</time>
      </trkpt>
      <trkpt lat="45.861098477616906" lon="7.814417649060488">
        <ele>1894.4000000000001</ele>
        <time>2022-07-03T14:46:17Z</time>
      </trkpt>
      <trkpt lat="45.861059920862317" lon="7.814429383724928">
        <ele>1893.72</ele>
        <time>2022-07-03T14:46:21Z</time>
      </trkpt>
      <trkpt lat="45.861050449311733" lon="7.814428713172674">
        <ele>1893.6199999999999</ele>
        <time>2022-07-03T14:46:22Z</time>
      </trkpt>
      <trkpt lat="45.861018933355808" lon="7.814437933266163">
        <ele>1893.3199999999999</ele>
        <time>2022-07-03T14:46:25Z</time>
      </trkpt>
      <trkpt lat="45.861009126529098" lon="7.814443884417415">
        <ele>1893.0799999999999</ele>
        <time>2022-07-03T14:46:26Z</time>
      </trkpt>
      <trkpt lat="45.860987836495042" lon="7.814437765628099">
        <ele>1892.6900000000001</ele>
        <time>2022-07-03T14:46:28Z</time>
      </trkpt>
      <trkpt lat="45.860957326367497" lon="7.814436759799719">
        <ele>1892.4100000000001</ele>
        <time>2022-07-03T14:46:31Z</time>
      </trkpt>
      <trkpt lat="45.860946597531438" lon="7.814442291855812">
        <ele>1892.21</ele>
        <time>2022-07-03T14:46:32Z</time>
      </trkpt>
      <trkpt lat="45.860935701057315" lon="7.8144446387887">
        <ele>1891.96</ele>
        <time>2022-07-03T14:46:33Z</time>
      </trkpt>
      <trkpt lat="45.860848445445299" lon="7.814443549141288">
        <ele>1890.48</ele>
        <time>2022-07-03T14:46:41Z</time>
      </trkpt>
      <trkpt lat="45.860836710780859" lon="7.814435670152307">
        <ele>1890.3199999999999</ele>
        <time>2022-07-03T14:46:42Z</time>
      </trkpt>
      <trkpt lat="45.860825479030609" lon="7.814433490857482">
        <ele>1890.1099999999999</ele>
        <time>2022-07-03T14:46:43Z</time>
      </trkpt>
      <trkpt lat="45.860813492909074" lon="7.814438855275512">
        <ele>1890.01</ele>
        <time>2022-07-03T14:46:44Z</time>
      </trkpt>
      <trkpt lat="45.860801506787539" lon="7.814441369846463">
        <ele>1889.73</ele>
        <time>2022-07-03T14:46:45Z</time>
      </trkpt>
      <trkpt lat="45.860791364684701" lon="7.814437178894877">
        <ele>1889.55</ele>
        <time>2022-07-03T14:46:46Z</time>
      </trkpt>
      <trkpt lat="45.860780300572515" lon="7.814429299905896">
        <ele>1889.1600000000001</ele>
        <time>2022-07-03T14:46:47Z</time>
      </trkpt>
      <trkpt lat="45.860768565908074" lon="7.814421504735947">
        <ele>1888.9400000000001</ele>
        <time>2022-07-03T14:46:48Z</time>
      </trkpt>
      <trkpt lat="45.860756328329444" lon="7.814418571069837">
        <ele>1888.79</ele>
        <time>2022-07-03T14:46:49Z</time>
      </trkpt>
      <trkpt lat="45.860689440742135" lon="7.814380517229438">
        <ele>1887.3299999999999</ele>
        <time>2022-07-03T14:46:55Z</time>
      </trkpt>
      <trkpt lat="45.860678041353822" lon="7.814375655725598">
        <ele>1887.1199999999999</ele>
        <time>2022-07-03T14:46:56Z</time>
      </trkpt>
      <trkpt lat="45.860667480155826" lon="7.814370878040791">
        <ele>1886.8499999999999</ele>
        <time>2022-07-03T14:46:57Z</time>
      </trkpt>
      <trkpt lat="45.860657338052988" lon="7.814366687089205">
        <ele>1886.5999999999999</ele>
        <time>2022-07-03T14:46:58Z</time>
      </trkpt>
      <trkpt lat="45.860647279769182" lon="7.81436157412827">
        <ele>1886.47</ele>
        <time>2022-07-03T14:46:59Z</time>
      </trkpt>
      <trkpt lat="45.860636467114091" lon="7.814347660169005">
        <ele>1886.1600000000001</ele>
        <time>2022-07-03T14:47:00Z</time>
      </trkpt>
      <trkpt lat="45.860625654459" lon="7.814336009323597">
        <ele>1886.0999999999999</ele>
        <time>2022-07-03T14:47:01Z</time>
      </trkpt>
      <trkpt lat="45.860581984743476" lon="7.814328800886869">
        <ele>1884.97</ele>
        <time>2022-07-03T14:47:05Z</time>
      </trkpt>
      <trkpt lat="45.860571675002575" lon="7.81432930380106">
        <ele>1884.6600000000001</ele>
        <time>2022-07-03T14:47:06Z</time>
      </trkpt>
      <trkpt lat="45.860560527071357" lon="7.814323771744967">
        <ele>1884.54</ele>
        <time>2022-07-03T14:47:07Z</time>
      </trkpt>
      <trkpt lat="45.860490454360843" lon="7.814301392063499">
        <ele>1883.25</ele>
        <time>2022-07-03T14:47:13Z</time>
      </trkpt>
      <trkpt lat="45.860478719696403" lon="7.814285550266504">
        <ele>1883.0999999999999</ele>
        <time>2022-07-03T14:47:14Z</time>
      </trkpt>
      <trkpt lat="45.860439073294401" lon="7.814248753711581">
        <ele>1882.22</ele>
        <time>2022-07-03T14:47:18Z</time>
      </trkpt>
      <trkpt lat="45.860428428277373" lon="7.814240958541632">
        <ele>1882.03</ele>
        <time>2022-07-03T14:47:19Z</time>
      </trkpt>
      <trkpt lat="45.860418789088726" lon="7.814229978248477">
        <ele>1881.77</ele>
        <time>2022-07-03T14:47:20Z</time>
      </trkpt>
      <trkpt lat="45.860408479347825" lon="7.814219752326608">
        <ele>1881.52</ele>
        <time>2022-07-03T14:47:21Z</time>
      </trkpt>
      <trkpt lat="45.860399259254336" lon="7.81420910730958">
        <ele>1881.4300000000001</ele>
        <time>2022-07-03T14:47:22Z</time>
      </trkpt>
      <trkpt lat="45.860369168221951" lon="7.814154289662838">
        <ele>1881.3900000000001</ele>
        <time>2022-07-03T14:47:34Z</time>
      </trkpt>
      <trkpt lat="45.860369922593236" lon="7.814156385138631">
        <ele>1881.26</ele>
        <time>2022-07-03T14:47:37Z</time>
      </trkpt>
      <trkpt lat="45.860366569831967" lon="7.814148087054491">
        <ele>1881.24</ele>
        <time>2022-07-03T14:47:45Z</time>
      </trkpt>
      <trkpt lat="45.860364977270365" lon="7.8141407109797">
        <ele>1881.0899999999999</ele>
        <time>2022-07-03T14:47:51Z</time>
      </trkpt>
      <trkpt lat="45.860363719984889" lon="7.814130401238799">
        <ele>1881.1199999999999</ele>
        <time>2022-07-03T14:47:53Z</time>
      </trkpt>
      <trkpt lat="45.860362211242318" lon="7.81410357914865">
        <ele>1880.76</ele>
        <time>2022-07-03T14:47:59Z</time>
      </trkpt>
      <trkpt lat="45.860370174050331" lon="7.814087402075529">
        <ele>1880.3800000000001</ele>
        <time>2022-07-03T14:48:00Z</time>
      </trkpt>
      <trkpt lat="45.86037989705801" lon="7.814077343791723">
        <ele>1879.6300000000001</ele>
        <time>2022-07-03T14:48:01Z</time>
      </trkpt>
      <trkpt lat="45.860387356951833" lon="7.814066363498569">
        <ele>1879.3699999999999</ele>
        <time>2022-07-03T14:48:02Z</time>
      </trkpt>
      <trkpt lat="45.860393224284053" lon="7.814052617177367">
        <ele>1878.99</ele>
        <time>2022-07-03T14:48:03Z</time>
      </trkpt>
      <trkpt lat="45.860389703884721" lon="7.814023531973362">
        <ele>1877.9200000000001</ele>
        <time>2022-07-03T14:48:06Z</time>
      </trkpt>
      <trkpt lat="45.860379477962852" lon="7.814017664641142">
        <ele>1877.47</ele>
        <time>2022-07-03T14:48:07Z</time>
      </trkpt>
      <trkpt lat="45.860370676964521" lon="7.814010791480541">
        <ele>1877.1400000000001</ele>
        <time>2022-07-03T14:48:08Z</time>
      </trkpt>
      <trkpt lat="45.860363468527794" lon="7.813998972997069">
        <ele>1876.73</ele>
        <time>2022-07-03T14:48:09Z</time>
      </trkpt>
      <trkpt lat="45.860360115766525" lon="7.813982125371695">
        <ele>1876.3199999999999</ele>
        <time>2022-07-03T14:48:10Z</time>
      </trkpt>
      <trkpt lat="45.860359780490398" lon="7.813961505889893">
        <ele>1875.77</ele>
        <time>2022-07-03T14:48:11Z</time>
      </trkpt>
      <trkpt lat="45.860318206250668" lon="7.813861928880215">
        <ele>1872.5699999999999</ele>
        <time>2022-07-03T14:48:17Z</time>
      </trkpt>
      <trkpt lat="45.860321894288063" lon="7.813821695744991">
        <ele>1871.95</ele>
        <time>2022-07-03T14:48:19Z</time>
      </trkpt>
      <trkpt lat="45.86032273247838" lon="7.81366478651762">
        <ele>1868.3199999999999</ele>
        <time>2022-07-03T14:48:27Z</time>
      </trkpt>
      <trkpt lat="45.860330443829298" lon="7.81354995444417">
        <ele>1864.74</ele>
        <time>2022-07-03T14:48:37Z</time>
      </trkpt>
      <trkpt lat="45.860323403030634" lon="7.81352112069726">
        <ele>1864.0699999999999</ele>
        <time>2022-07-03T14:48:39Z</time>
      </trkpt>
      <trkpt lat="45.860317619517446" lon="7.813326409086585">
        <ele>1861.1500000000001</ele>
        <time>2022-07-03T14:48:52Z</time>
      </trkpt>
      <trkpt lat="45.860316194593906" lon="7.813287349417806">
        <ele>1860.3800000000001</ele>
        <time>2022-07-03T14:48:55Z</time>
      </trkpt>
      <trkpt lat="45.860343938693404" lon="7.813135469332337">
        <ele>1856.8</ele>
        <time>2022-07-03T14:49:05Z</time>
      </trkpt>
      <trkpt lat="45.860351314768195" lon="7.813128009438515">
        <ele>1856.71</ele>
        <time>2022-07-03T14:49:06Z</time>
      </trkpt>
      <trkpt lat="45.86038576439023" lon="7.813087860122323">
        <ele>1855.54</ele>
        <time>2022-07-03T14:49:10Z</time>
      </trkpt>
      <trkpt lat="45.860442258417606" lon="7.813019212335348">
        <ele>1852.8099999999999</ele>
        <time>2022-07-03T14:49:18Z</time>
      </trkpt>
      <trkpt lat="45.860449047759175" lon="7.813004544004798">
        <ele>1852.6600000000001</ele>
        <time>2022-07-03T14:49:20Z</time>
      </trkpt>
      <trkpt lat="45.860524149611592" lon="7.812895998358727">
        <ele>1850.49</ele>
        <time>2022-07-03T14:49:30Z</time>
      </trkpt>
      <trkpt lat="45.860487939789891" lon="7.812730120494962">
        <ele>1847.9300000000001</ele>
        <time>2022-07-03T14:49:41Z</time>
      </trkpt>
      <trkpt lat="45.860474025830626" lon="7.812666585668922">
        <ele>1846.5999999999999</ele>
        <time>2022-07-03T14:49:48Z</time>
      </trkpt>
      <trkpt lat="45.860470840707421" lon="7.812650660052896">
        <ele>1846.3499999999999</ele>
        <time>2022-07-03T14:49:49Z</time>
      </trkpt>
      <trkpt lat="45.86046639829874" lon="7.812634902074933">
        <ele>1846.3</ele>
        <time>2022-07-03T14:49:50Z</time>
      </trkpt>
      <trkpt lat="45.86046245880425" lon="7.812615791335702">
        <ele>1846.01</ele>
        <time>2022-07-03T14:49:51Z</time>
      </trkpt>
      <trkpt lat="45.860423231497407" lon="7.812490817159414">
        <ele>1844.3599999999999</ele>
        <time>2022-07-03T14:49:59Z</time>
      </trkpt>
      <trkpt lat="45.860409652814269" lon="7.812487380579114">
        <ele>1844.29</ele>
        <time>2022-07-03T14:50:00Z</time>
      </trkpt>
      <trkpt lat="45.860400516539812" lon="7.812486458569765">
        <ele>1844.1400000000001</ele>
        <time>2022-07-03T14:50:01Z</time>
      </trkpt>
      <trkpt lat="45.860388614237309" lon="7.812488302588463">
        <ele>1843.98</ele>
        <time>2022-07-03T14:50:02Z</time>
      </trkpt>
      <trkpt lat="45.860376292839646" lon="7.812489308416843">
        <ele>1844.0699999999999</ele>
        <time>2022-07-03T14:50:03Z</time>
      </trkpt>
      <trkpt lat="45.860365312546492" lon="7.812486793845892">
        <ele>1843.9200000000001</ele>
        <time>2022-07-03T14:50:04Z</time>
      </trkpt>
      <trkpt lat="45.860354416072369" lon="7.81248570419848">
        <ele>1843.6199999999999</ele>
        <time>2022-07-03T14:50:05Z</time>
      </trkpt>
      <trkpt lat="45.860342429950833" lon="7.812487380579114">
        <ele>1843.5599999999999</ele>
        <time>2022-07-03T14:50:06Z</time>
      </trkpt>
      <trkpt lat="45.860330276191235" lon="7.812489392235875">
        <ele>1843.55</ele>
        <time>2022-07-03T14:50:07Z</time>
      </trkpt>
      <trkpt lat="45.860317870974541" lon="7.81249207444489">
        <ele>1843.4400000000001</ele>
        <time>2022-07-03T14:50:08Z</time>
      </trkpt>
      <trkpt lat="45.860305884853005" lon="7.812494421377778">
        <ele>1843.1900000000001</ele>
        <time>2022-07-03T14:50:09Z</time>
      </trkpt>
      <trkpt lat="45.86019130423665" lon="7.812540857121348">
        <ele>1842.22</ele>
        <time>2022-07-03T14:50:18Z</time>
      </trkpt>
      <trkpt lat="45.86017906665802" lon="7.812552507966757">
        <ele>1842.1099999999999</ele>
        <time>2022-07-03T14:50:19Z</time>
      </trkpt>
      <trkpt lat="45.85996893234551" lon="7.812575222924352">
        <ele>1840.6700000000001</ele>
        <time>2022-07-03T14:50:36Z</time>
      </trkpt>
      <trkpt lat="45.859812526032329" lon="7.812549574300647">
        <ele>1840.01</ele>
        <time>2022-07-03T14:50:49Z</time>
      </trkpt>
      <trkpt lat="45.859664250165224" lon="7.812565751373768">
        <ele>1838.49</ele>
        <time>2022-07-03T14:51:01Z</time>
      </trkpt>
      <trkpt lat="45.859470376744866" lon="7.812593663111329">
        <ele>1836.27</ele>
        <time>2022-07-03T14:51:17Z</time>
      </trkpt>
      <trkpt lat="45.859413547441363" lon="7.812620652839541">
        <ele>1835.74</ele>
        <time>2022-07-03T14:51:22Z</time>
      </trkpt>
      <trkpt lat="45.859400220215321" lon="7.812624424695969">
        <ele>1835.6500000000001</ele>
        <time>2022-07-03T14:51:23Z</time>
      </trkpt>
      <trkpt lat="45.859387563541532" lon="7.812628112733364">
        <ele>1835.4200000000001</ele>
        <time>2022-07-03T14:51:24Z</time>
      </trkpt>
      <trkpt lat="45.859375242143869" lon="7.812632387503982">
        <ele>1835.4400000000001</ele>
        <time>2022-07-03T14:51:25Z</time>
      </trkpt>
      <trkpt lat="45.859363675117493" lon="7.812636913731694">
        <ele>1835.29</ele>
        <time>2022-07-03T14:51:26Z</time>
      </trkpt>
      <trkpt lat="45.859259655699134" lon="7.812680080533028">
        <ele>1834.5699999999999</ele>
        <time>2022-07-03T14:51:35Z</time>
      </trkpt>
      <trkpt lat="45.859246579930186" lon="7.812684690579772">
        <ele>1834.49</ele>
        <time>2022-07-03T14:51:36Z</time>
      </trkpt>
      <trkpt lat="45.859233252704144" lon="7.812690557911992">
        <ele>1834.5</ele>
        <time>2022-07-03T14:51:37Z</time>
      </trkpt>
      <trkpt lat="45.859216405078769" lon="7.812695754691958">
        <ele>1834.24</ele>
        <time>2022-07-03T14:51:38Z</time>
      </trkpt>
      <trkpt lat="45.859196288511157" lon="7.812703046947718">
        <ele>1834.27</ele>
        <time>2022-07-03T14:51:39Z</time>
      </trkpt>
      <trkpt lat="45.859183464199305" lon="7.812708746641874">
        <ele>1834.0999999999999</ele>
        <time>2022-07-03T14:51:40Z</time>
      </trkpt>
      <trkpt lat="45.858979197219014" lon="7.812805557623506">
        <ele>1833.01</ele>
        <time>2022-07-03T14:51:57Z</time>
      </trkpt>
      <trkpt lat="45.858880206942558" lon="7.812839839607477">
        <ele>1832.52</ele>
        <time>2022-07-03T14:52:04Z</time>
      </trkpt>
      <trkpt lat="45.858620284125209" lon="7.812926005572081">
        <ele>1830.04</ele>
        <time>2022-07-03T14:52:24Z</time>
      </trkpt>
      <trkpt lat="45.85852213203907" lon="7.812911756336689">
        <ele>1829.71</ele>
        <time>2022-07-03T14:52:31Z</time>
      </trkpt>
      <trkpt lat="45.858357260003686" lon="7.812928855419159">
        <ele>1828.3399999999999</ele>
        <time>2022-07-03T14:52:44Z</time>
      </trkpt>
      <trkpt lat="45.858149891719222" lon="7.812943942844868">
        <ele>1827.45</ele>
        <time>2022-07-03T14:53:00Z</time>
      </trkpt>
      <trkpt lat="45.858048973605037" lon="7.812953414395452">
        <ele>1827.2</ele>
        <time>2022-07-03T14:53:07Z</time>
      </trkpt>
      <trkpt lat="45.857847053557634" lon="7.812978476285934">
        <ele>1826.78</ele>
        <time>2022-07-03T14:53:23Z</time>
      </trkpt>
      <trkpt lat="45.857660053297877" lon="7.81298509798944">
        <ele>1826.7</ele>
        <time>2022-07-03T14:53:39Z</time>
      </trkpt>
      <trkpt lat="45.857658796012402" lon="7.812974033877254">
        <ele>1825.9200000000001</ele>
        <time>2022-07-03T14:53:49Z</time>
      </trkpt>
      <trkpt lat="45.857659634202719" lon="7.812966322526336">
        <ele>1826.22</ele>
        <time>2022-07-03T14:54:09Z</time>
      </trkpt>
    </trkseg>
  </trk>

</gpx>